<?xml version="1.0" encoding="UTF-8" standalone="no" ?>
<gpx xmlns="http://www.topografix.com/GPX/1/1" xmlns:xsi="http://www.w3.org/2001/XMLSchema-instance" xsi:schemaLocation="http://www.topografix.com/GPX/1/1 http://www.topografix.com/GPX/1/1/gpx.xsd" version="1.1" creator="VisuGPX - https://www.visugpx.com">
  <metadata>
    <name>Boucle PdR-Pélussin-La Chapelle Villard</name>
    <desc><![CDATA[Passage La Ribaudy - Col de Pavezin - Col de Grenouze]]></desc>
  </metadata>
  <trk>
    <name><![CDATA[boucle vers Pavezin-Grenouze]]></name>
    <trkseg>
      <trkpt lat="45.37806" lon="4.79608">
        <ele>170</ele>
        <time>2019-09-22T11:31:50.000Z</time>
      </trkpt>
      <trkpt lat="45.378" lon="4.79594">
        <ele>169.8</ele>
        <time>2019-09-22T11:31:50.000Z</time>
      </trkpt>
      <trkpt lat="45.37784" lon="4.79602">
        <ele>169.2</ele>
        <time>2019-09-22T11:31:51.000Z</time>
      </trkpt>
      <trkpt lat="45.37749" lon="4.79628">
        <ele>166.4</ele>
        <time>2019-09-22T11:31:55.000Z</time>
      </trkpt>
      <trkpt lat="45.37747" lon="4.79614">
        <ele>166.4</ele>
        <time>2019-09-22T11:31:59.000Z</time>
      </trkpt>
      <trkpt lat="45.37745" lon="4.7956">
        <ele>164.5</ele>
        <time>2019-09-22T11:32:03.000Z</time>
      </trkpt>
      <trkpt lat="45.37745" lon="4.79508">
        <ele>162.3</ele>
        <time>2019-09-22T11:32:07.000Z</time>
      </trkpt>
      <trkpt lat="45.37775" lon="4.79505">
        <ele>165.1</ele>
        <time>2019-09-22T11:32:11.000Z</time>
      </trkpt>
      <trkpt lat="45.37803" lon="4.79502">
        <ele>166.5</ele>
        <time>2019-09-22T11:32:14.000Z</time>
      </trkpt>
      <trkpt lat="45.37831" lon="4.79494">
        <ele>166</ele>
        <time>2019-09-22T11:32:17.000Z</time>
      </trkpt>
      <trkpt lat="45.37847" lon="4.79479">
        <ele>167.5</ele>
        <time>2019-09-22T11:32:21.000Z</time>
      </trkpt>
      <trkpt lat="45.37872" lon="4.7946">
        <ele>167.9</ele>
        <time>2019-09-22T11:32:25.000Z</time>
      </trkpt>
      <trkpt lat="45.37891" lon="4.79441">
        <ele>168</ele>
        <time>2019-09-22T11:32:29.000Z</time>
      </trkpt>
      <trkpt lat="45.37905" lon="4.79417">
        <ele>166.3</ele>
        <time>2019-09-22T11:32:33.000Z</time>
      </trkpt>
      <trkpt lat="45.37928" lon="4.79381">
        <ele>169.6</ele>
        <time>2019-09-22T11:32:35.000Z</time>
      </trkpt>
      <trkpt lat="45.3797" lon="4.79322">
        <ele>167</ele>
        <time>2019-09-22T11:32:39.000Z</time>
      </trkpt>
      <trkpt lat="45.37988" lon="4.79305">
        <ele>167.1</ele>
        <time>2019-09-22T11:32:43.000Z</time>
      </trkpt>
      <trkpt lat="45.38042" lon="4.79271">
        <ele>169.1</ele>
        <time>2019-09-22T11:32:47.000Z</time>
      </trkpt>
      <trkpt lat="45.38034" lon="4.79228">
        <ele>166.39999389648</ele>
        <time>2019-09-22T11:32:51.000Z</time>
      </trkpt>
      <trkpt lat="45.38034" lon="4.79228">
        <ele>166.39999389648</ele>
        <time>2019-09-22T11:32:55.000Z</time>
      </trkpt>
      <trkpt lat="45.38037" lon="4.79221">
        <ele>166.19999694824</ele>
        <time>2019-09-22T11:32:59.000Z</time>
      </trkpt>
      <trkpt lat="45.38052" lon="4.79202">
        <ele>166.19999694824</ele>
        <time>2019-09-22T11:33:03.000Z</time>
      </trkpt>
      <trkpt lat="45.38069" lon="4.79181">
        <ele>166.19999694824</ele>
        <time>2019-09-22T11:33:07.000Z</time>
      </trkpt>
      <trkpt lat="45.38086" lon="4.7916">
        <ele>166.39999389648</ele>
        <time>2019-09-22T11:33:10.000Z</time>
      </trkpt>
      <trkpt lat="45.38105" lon="4.79139">
        <ele>164.80000305176</ele>
        <time>2019-09-22T11:33:13.000Z</time>
      </trkpt>
      <trkpt lat="45.38124" lon="4.79117">
        <ele>163.39999389648</ele>
        <time>2019-09-22T11:33:16.000Z</time>
      </trkpt>
      <trkpt lat="45.38137" lon="4.791">
        <ele>163.60000610352</ele>
        <time>2019-09-22T11:33:19.000Z</time>
      </trkpt>
      <trkpt lat="45.38151" lon="4.79084">
        <ele>163.80000305176</ele>
        <time>2019-09-22T11:33:22.000Z</time>
      </trkpt>
      <trkpt lat="45.3817" lon="4.79063">
        <ele>164</ele>
        <time>2019-09-22T11:33:25.000Z</time>
      </trkpt>
      <trkpt lat="45.38189" lon="4.79042">
        <ele>164</ele>
        <time>2019-09-22T11:33:28.000Z</time>
      </trkpt>
      <trkpt lat="45.38207" lon="4.79023">
        <ele>163.80000305176</ele>
        <time>2019-09-22T11:33:31.000Z</time>
      </trkpt>
      <trkpt lat="45.38225" lon="4.79003">
        <ele>163.60000610352</ele>
        <time>2019-09-22T11:33:34.000Z</time>
      </trkpt>
      <trkpt lat="45.38235" lon="4.78995">
        <ele>164</ele>
        <time>2019-09-22T11:33:38.000Z</time>
      </trkpt>
      <trkpt lat="45.38255" lon="4.78988">
        <ele>165.19999694824</ele>
        <time>2019-09-22T11:33:42.000Z</time>
      </trkpt>
      <trkpt lat="45.38276" lon="4.78985">
        <ele>165.60000610352</ele>
        <time>2019-09-22T11:33:46.000Z</time>
      </trkpt>
      <trkpt lat="45.38296" lon="4.78982">
        <ele>165.80000305176</ele>
        <time>2019-09-22T11:33:49.000Z</time>
      </trkpt>
      <trkpt lat="45.38316" lon="4.78972">
        <ele>166</ele>
        <time>2019-09-22T11:33:53.000Z</time>
      </trkpt>
      <trkpt lat="45.38334" lon="4.78954">
        <ele>165.80000305176</ele>
        <time>2019-09-22T11:33:56.000Z</time>
      </trkpt>
      <trkpt lat="45.38349" lon="4.78932">
        <ele>165.80000305176</ele>
        <time>2019-09-22T11:33:57.000Z</time>
      </trkpt>
      <trkpt lat="45.38364" lon="4.78907">
        <ele>165</ele>
        <time>2019-09-22T11:34:00.000Z</time>
      </trkpt>
      <trkpt lat="45.38379" lon="4.78879">
        <ele>163.60000610352</ele>
        <time>2019-09-22T11:34:03.000Z</time>
      </trkpt>
      <trkpt lat="45.38393" lon="4.78859">
        <ele>163.39999389648</ele>
        <time>2019-09-22T11:34:06.000Z</time>
      </trkpt>
      <trkpt lat="45.38409" lon="4.78841">
        <ele>164.19999694824</ele>
        <time>2019-09-22T11:34:10.000Z</time>
      </trkpt>
      <trkpt lat="45.38426" lon="4.78824">
        <ele>164.39999389648</ele>
        <time>2019-09-22T11:34:14.000Z</time>
      </trkpt>
      <trkpt lat="45.38444" lon="4.78807">
        <ele>162.80000305176</ele>
        <time>2019-09-22T11:34:18.000Z</time>
      </trkpt>
      <trkpt lat="45.38461" lon="4.78791">
        <ele>161.19999694824</ele>
        <time>2019-09-22T11:34:22.000Z</time>
      </trkpt>
      <trkpt lat="45.38478" lon="4.78775">
        <ele>163</ele>
        <time>2019-09-22T11:34:25.000Z</time>
      </trkpt>
      <trkpt lat="45.38494" lon="4.78759">
        <ele>165.60000610352</ele>
        <time>2019-09-22T11:34:29.000Z</time>
      </trkpt>
      <trkpt lat="45.3851" lon="4.78743">
        <ele>167.39999389648</ele>
        <time>2019-09-22T11:34:33.000Z</time>
      </trkpt>
      <trkpt lat="45.38525" lon="4.78728">
        <ele>167.19999694824</ele>
        <time>2019-09-22T11:34:37.000Z</time>
      </trkpt>
      <trkpt lat="45.38543" lon="4.78709">
        <ele>167</ele>
        <time>2019-09-22T11:34:41.000Z</time>
      </trkpt>
      <trkpt lat="45.38561" lon="4.78691">
        <ele>167.19999694824</ele>
        <time>2019-09-22T11:34:45.000Z</time>
      </trkpt>
      <trkpt lat="45.38578" lon="4.78674">
        <ele>167.60000610352</ele>
        <time>2019-09-22T11:34:49.000Z</time>
      </trkpt>
      <trkpt lat="45.3859" lon="4.78663">
        <ele>168</ele>
        <time>2019-09-22T11:34:53.000Z</time>
      </trkpt>
      <trkpt lat="45.38596" lon="4.78639">
        <ele>164.39999389648</ele>
        <time>2019-09-22T11:34:55.000Z</time>
      </trkpt>
      <trkpt lat="45.38585" lon="4.78619">
        <ele>161.39999389648</ele>
        <time>2019-09-22T11:34:59.000Z</time>
      </trkpt>
      <trkpt lat="45.38579" lon="4.78612">
        <ele>161</ele>
        <time>2019-09-22T11:35:01.000Z</time>
      </trkpt>
      <trkpt lat="45.38562" lon="4.7859">
        <ele>159.60000610352</ele>
        <time>2019-09-22T11:35:06.000Z</time>
      </trkpt>
      <trkpt lat="45.38545" lon="4.78568">
        <ele>158.39999389648</ele>
        <time>2019-09-22T11:35:08.000Z</time>
      </trkpt>
      <trkpt lat="45.38534" lon="4.78552">
        <ele>157.39999389648</ele>
        <time>2019-09-22T11:35:13.000Z</time>
      </trkpt>
      <trkpt lat="45.38541" lon="4.78535">
        <ele>156.80000305176</ele>
        <time>2019-09-22T11:35:15.000Z</time>
      </trkpt>
      <trkpt lat="45.38558" lon="4.78519">
        <ele>156.80000305176</ele>
        <time>2019-09-22T11:35:19.000Z</time>
      </trkpt>
      <trkpt lat="45.38576" lon="4.78503">
        <ele>156.80000305176</ele>
        <time>2019-09-22T11:35:23.000Z</time>
      </trkpt>
      <trkpt lat="45.38594" lon="4.78485">
        <ele>156.60000610352</ele>
        <time>2019-09-22T11:35:27.000Z</time>
      </trkpt>
      <trkpt lat="45.38609" lon="4.78472">
        <ele>156.39999389648</ele>
        <time>2019-09-22T11:35:31.000Z</time>
      </trkpt>
      <trkpt lat="45.38627" lon="4.78455">
        <ele>156</ele>
        <time>2019-09-22T11:35:35.000Z</time>
      </trkpt>
      <trkpt lat="45.38646" lon="4.78437">
        <ele>156.19999694824</ele>
        <time>2019-09-22T11:35:36.000Z</time>
      </trkpt>
      <trkpt lat="45.38665" lon="4.7842">
        <ele>156.39999389648</ele>
        <time>2019-09-22T11:35:41.000Z</time>
      </trkpt>
      <trkpt lat="45.38684" lon="4.78402">
        <ele>156.39999389648</ele>
        <time>2019-09-22T11:35:45.000Z</time>
      </trkpt>
      <trkpt lat="45.38703" lon="4.78385">
        <ele>156.19999694824</ele>
        <time>2019-09-22T11:35:49.000Z</time>
      </trkpt>
      <trkpt lat="45.38722" lon="4.78368">
        <ele>155.80000305176</ele>
        <time>2019-09-22T11:35:53.000Z</time>
      </trkpt>
      <trkpt lat="45.3874" lon="4.78352">
        <ele>154.80000305176</ele>
        <time>2019-09-22T11:35:57.000Z</time>
      </trkpt>
      <trkpt lat="45.38747" lon="4.78344">
        <ele>154.39999389648</ele>
        <time>2019-09-22T11:36:01.000Z</time>
      </trkpt>
      <trkpt lat="45.38746" lon="4.78319">
        <ele>153.19999694824</ele>
        <time>2019-09-22T11:36:04.000Z</time>
      </trkpt>
      <trkpt lat="45.38745" lon="4.78305">
        <ele>152.80000305176</ele>
        <time>2019-09-22T11:36:07.000Z</time>
      </trkpt>
      <trkpt lat="45.3874" lon="4.78279">
        <ele>152.19999694824</ele>
        <time>2019-09-22T11:36:11.000Z</time>
      </trkpt>
      <trkpt lat="45.38736" lon="4.78269">
        <ele>152.19999694824</ele>
        <time>2019-09-22T11:36:15.000Z</time>
      </trkpt>
      <trkpt lat="45.38733" lon="4.78243">
        <ele>152.19999694824</ele>
        <time>2019-09-22T11:36:19.000Z</time>
      </trkpt>
      <trkpt lat="45.38734" lon="4.7823">
        <ele>152.19999694824</ele>
        <time>2019-09-22T11:36:22.000Z</time>
      </trkpt>
      <trkpt lat="45.38728" lon="4.78203">
        <ele>152</ele>
        <time>2019-09-22T11:36:23.000Z</time>
      </trkpt>
      <trkpt lat="45.38719" lon="4.78175">
        <ele>152.39999389648</ele>
        <time>2019-09-22T11:36:25.000Z</time>
      </trkpt>
      <trkpt lat="45.3871" lon="4.78148">
        <ele>152.60000610352</ele>
        <time>2019-09-22T11:36:29.000Z</time>
      </trkpt>
      <trkpt lat="45.38702" lon="4.7812">
        <ele>152.80000305176</ele>
        <time>2019-09-22T11:36:33.000Z</time>
      </trkpt>
      <trkpt lat="45.38697" lon="4.78092">
        <ele>152.80000305176</ele>
        <time>2019-09-22T11:36:37.000Z</time>
      </trkpt>
      <trkpt lat="45.38697" lon="4.78085">
        <ele>152.80000305176</ele>
        <time>2019-09-22T11:36:41.000Z</time>
      </trkpt>
      <trkpt lat="45.38713" lon="4.78064">
        <ele>153</ele>
        <time>2019-09-22T11:36:45.000Z</time>
      </trkpt>
      <trkpt lat="45.38733" lon="4.78052">
        <ele>152.80000305176</ele>
        <time>2019-09-22T11:36:49.000Z</time>
      </trkpt>
      <trkpt lat="45.38754" lon="4.7804">
        <ele>152.60000610352</ele>
        <time>2019-09-22T11:36:53.000Z</time>
      </trkpt>
      <trkpt lat="45.38776" lon="4.78029">
        <ele>152.19999694824</ele>
        <time>2019-09-22T11:36:57.000Z</time>
      </trkpt>
      <trkpt lat="45.38796" lon="4.78019">
        <ele>152.19999694824</ele>
        <time>2019-09-22T11:37:01.000Z</time>
      </trkpt>
      <trkpt lat="45.38819" lon="4.7801">
        <ele>152</ele>
        <time>2019-09-22T11:37:05.000Z</time>
      </trkpt>
      <trkpt lat="45.38837" lon="4.78004">
        <ele>152</ele>
        <time>2019-09-22T11:37:09.000Z</time>
      </trkpt>
      <trkpt lat="45.38855" lon="4.77998">
        <ele>152</ele>
        <time>2019-09-22T11:37:10.000Z</time>
      </trkpt>
      <trkpt lat="45.38878" lon="4.7799">
        <ele>152.19999694824</ele>
        <time>2019-09-22T11:37:12.000Z</time>
      </trkpt>
      <trkpt lat="45.389" lon="4.77983">
        <ele>152.80000305176</ele>
        <time>2019-09-22T11:37:16.000Z</time>
      </trkpt>
      <trkpt lat="45.38923" lon="4.77975">
        <ele>152.80000305176</ele>
        <time>2019-09-22T11:37:20.000Z</time>
      </trkpt>
      <trkpt lat="45.38941" lon="4.77969">
        <ele>152.39999389648</ele>
        <time>2019-09-22T11:37:22.000Z</time>
      </trkpt>
      <trkpt lat="45.38947" lon="4.77967">
        <ele>152.39999389648</ele>
        <time>2019-09-22T11:37:23.000Z</time>
      </trkpt>
      <trkpt lat="45.38958" lon="4.77964">
        <ele>152.19999694824</ele>
        <time>2019-09-22T11:37:27.000Z</time>
      </trkpt>
      <trkpt lat="45.38981" lon="4.77952">
        <ele>152.19999694824</ele>
        <time>2019-09-22T11:37:28.000Z</time>
      </trkpt>
      <trkpt lat="45.39002" lon="4.77937">
        <ele>152.39999389648</ele>
        <time>2019-09-22T11:37:31.000Z</time>
      </trkpt>
      <trkpt lat="45.39022" lon="4.77919">
        <ele>152.60000610352</ele>
        <time>2019-09-22T11:37:34.000Z</time>
      </trkpt>
      <trkpt lat="45.3904" lon="4.77898">
        <ele>152.80000305176</ele>
        <time>2019-09-22T11:37:37.000Z</time>
      </trkpt>
      <trkpt lat="45.39056" lon="4.77875">
        <ele>153</ele>
        <time>2019-09-22T11:37:40.000Z</time>
      </trkpt>
      <trkpt lat="45.39071" lon="4.7785">
        <ele>153</ele>
        <time>2019-09-22T11:37:43.000Z</time>
      </trkpt>
      <trkpt lat="45.39083" lon="4.77823">
        <ele>152.80000305176</ele>
        <time>2019-09-22T11:37:46.000Z</time>
      </trkpt>
      <trkpt lat="45.39094" lon="4.77794">
        <ele>152.60000610352</ele>
        <time>2019-09-22T11:37:49.000Z</time>
      </trkpt>
      <trkpt lat="45.39103" lon="4.77764">
        <ele>153.19999694824</ele>
        <time>2019-09-22T11:37:52.000Z</time>
      </trkpt>
      <trkpt lat="45.39111" lon="4.77733">
        <ele>153.60000610352</ele>
        <time>2019-09-22T11:37:55.000Z</time>
      </trkpt>
      <trkpt lat="45.39118" lon="4.77704">
        <ele>154</ele>
        <time>2019-09-22T11:37:56.000Z</time>
      </trkpt>
      <trkpt lat="45.3912" lon="4.77696">
        <ele>154</ele>
        <time>2019-09-22T11:37:59.000Z</time>
      </trkpt>
      <trkpt lat="45.39124" lon="4.77681">
        <ele>154</ele>
        <time>2019-09-22T11:38:02.000Z</time>
      </trkpt>
      <trkpt lat="45.39141" lon="4.77661">
        <ele>153.80000305176</ele>
        <time>2019-09-22T11:38:04.000Z</time>
      </trkpt>
      <trkpt lat="45.3915" lon="4.77634">
        <ele>154</ele>
        <time>2019-09-22T11:38:07.000Z</time>
      </trkpt>
      <trkpt lat="45.39143" lon="4.77621">
        <ele>154.19999694824</ele>
        <time>2019-09-22T11:38:10.000Z</time>
      </trkpt>
      <trkpt lat="45.39139" lon="4.77615">
        <ele>154</ele>
        <time>2019-09-22T11:38:13.000Z</time>
      </trkpt>
      <trkpt lat="45.39136" lon="4.77582">
        <ele>154</ele>
        <time>2019-09-22T11:38:16.000Z</time>
      </trkpt>
      <trkpt lat="45.39137" lon="4.77574">
        <ele>154</ele>
        <time>2019-09-22T11:38:19.000Z</time>
      </trkpt>
      <trkpt lat="45.3914" lon="4.77548">
        <ele>154.19999694824</ele>
        <time>2019-09-22T11:38:22.000Z</time>
      </trkpt>
      <trkpt lat="45.39151" lon="4.77527">
        <ele>154</ele>
        <time>2019-09-22T11:38:25.000Z</time>
      </trkpt>
      <trkpt lat="45.39163" lon="4.77508">
        <ele>154</ele>
        <time>2019-09-22T11:38:28.000Z</time>
      </trkpt>
      <trkpt lat="45.39175" lon="4.77488">
        <ele>154</ele>
        <time>2019-09-22T11:38:31.000Z</time>
      </trkpt>
      <trkpt lat="45.39188" lon="4.77469">
        <ele>153.80000305176</ele>
        <time>2019-09-22T11:38:33.000Z</time>
      </trkpt>
      <trkpt lat="45.392" lon="4.77447">
        <ele>153.80000305176</ele>
        <time>2019-09-22T11:38:35.000Z</time>
      </trkpt>
      <trkpt lat="45.39211" lon="4.77423">
        <ele>153.60000610352</ele>
        <time>2019-09-22T11:38:37.000Z</time>
      </trkpt>
      <trkpt lat="45.39221" lon="4.77397">
        <ele>153.39999389648</ele>
        <time>2019-09-22T11:38:39.000Z</time>
      </trkpt>
      <trkpt lat="45.39232" lon="4.77372">
        <ele>153.19999694824</ele>
        <time>2019-09-22T11:38:41.000Z</time>
      </trkpt>
      <trkpt lat="45.39236" lon="4.77363">
        <ele>153.19999694824</ele>
        <time>2019-09-22T11:38:43.000Z</time>
      </trkpt>
      <trkpt lat="45.39242" lon="4.77336">
        <ele>153</ele>
        <time>2019-09-22T11:38:46.000Z</time>
      </trkpt>
      <trkpt lat="45.39244" lon="4.77309">
        <ele>152.39999389648</ele>
        <time>2019-09-22T11:38:49.000Z</time>
      </trkpt>
      <trkpt lat="45.39242" lon="4.77291">
        <ele>151.80000305176</ele>
        <time>2019-09-22T11:38:50.000Z</time>
      </trkpt>
      <trkpt lat="45.39238" lon="4.77262">
        <ele>151.39999389648</ele>
        <time>2019-09-22T11:38:53.000Z</time>
      </trkpt>
      <trkpt lat="45.39233" lon="4.7723">
        <ele>151</ele>
        <time>2019-09-22T11:38:56.000Z</time>
      </trkpt>
      <trkpt lat="45.39229" lon="4.77199">
        <ele>150.19999694824</ele>
        <time>2019-09-22T11:38:59.000Z</time>
      </trkpt>
      <trkpt lat="45.39225" lon="4.77169">
        <ele>148.39999389648</ele>
        <time>2019-09-22T11:39:02.000Z</time>
      </trkpt>
      <trkpt lat="45.39222" lon="4.77138">
        <ele>146.80000305176</ele>
        <time>2019-09-22T11:39:03.000Z</time>
      </trkpt>
      <trkpt lat="45.39218" lon="4.77109">
        <ele>145</ele>
        <time>2019-09-22T11:39:06.000Z</time>
      </trkpt>
      <trkpt lat="45.39213" lon="4.7708">
        <ele>143.60000610352</ele>
        <time>2019-09-22T11:39:07.000Z</time>
      </trkpt>
      <trkpt lat="45.39204" lon="4.77049">
        <ele>141.80000305176</ele>
        <time>2019-09-22T11:39:10.000Z</time>
      </trkpt>
      <trkpt lat="45.3919" lon="4.77018">
        <ele>141</ele>
        <time>2019-09-22T11:39:12.000Z</time>
      </trkpt>
      <trkpt lat="45.3918" lon="4.76996">
        <ele>141</ele>
        <time>2019-09-22T11:39:15.000Z</time>
      </trkpt>
      <trkpt lat="45.3917" lon="4.76972">
        <ele>140.80000305176</ele>
        <time>2019-09-22T11:39:17.000Z</time>
      </trkpt>
      <trkpt lat="45.39161" lon="4.76947">
        <ele>140.60000610352</ele>
        <time>2019-09-22T11:39:20.000Z</time>
      </trkpt>
      <trkpt lat="45.39153" lon="4.76921">
        <ele>140.39999389648</ele>
        <time>2019-09-22T11:39:23.000Z</time>
      </trkpt>
      <trkpt lat="45.39146" lon="4.76895">
        <ele>140.19999694824</ele>
        <time>2019-09-22T11:39:26.000Z</time>
      </trkpt>
      <trkpt lat="45.3914" lon="4.7687">
        <ele>140</ele>
        <time>2019-09-22T11:39:29.000Z</time>
      </trkpt>
      <trkpt lat="45.39134" lon="4.76836">
        <ele>139.60000610352</ele>
        <time>2019-09-22T11:39:32.000Z</time>
      </trkpt>
      <trkpt lat="45.39147" lon="4.76813">
        <ele>139.19999694824</ele>
        <time>2019-09-22T11:39:35.000Z</time>
      </trkpt>
      <trkpt lat="45.39154" lon="4.76808">
        <ele>139.19999694824</ele>
        <time>2019-09-22T11:39:37.000Z</time>
      </trkpt>
      <trkpt lat="45.39174" lon="4.76795">
        <ele>139.60000610352</ele>
        <time>2019-09-22T11:39:40.000Z</time>
      </trkpt>
      <trkpt lat="45.39193" lon="4.76779">
        <ele>140</ele>
        <time>2019-09-22T11:39:43.000Z</time>
      </trkpt>
      <trkpt lat="45.39211" lon="4.7676">
        <ele>140.60000610352</ele>
        <time>2019-09-22T11:39:46.000Z</time>
      </trkpt>
      <trkpt lat="45.39229" lon="4.76741">
        <ele>141.39999389648</ele>
        <time>2019-09-22T11:39:49.000Z</time>
      </trkpt>
      <trkpt lat="45.39236" lon="4.76735">
        <ele>141.60000610352</ele>
        <time>2019-09-22T11:39:52.000Z</time>
      </trkpt>
      <trkpt lat="45.39257" lon="4.76726">
        <ele>141.60000610352</ele>
        <time>2019-09-22T11:39:55.000Z</time>
      </trkpt>
      <trkpt lat="45.39263" lon="4.76723">
        <ele>141.39999389648</ele>
        <time>2019-09-22T11:39:58.000Z</time>
      </trkpt>
      <trkpt lat="45.39277" lon="4.76701">
        <ele>141.19999694824</ele>
        <time>2019-09-22T11:40:01.000Z</time>
      </trkpt>
      <trkpt lat="45.39287" lon="4.76686">
        <ele>141</ele>
        <time>2019-09-22T11:40:04.000Z</time>
      </trkpt>
      <trkpt lat="45.39302" lon="4.76665">
        <ele>140.60000610352</ele>
        <time>2019-09-22T11:40:07.000Z</time>
      </trkpt>
      <trkpt lat="45.39311" lon="4.7665">
        <ele>140.39999389648</ele>
        <time>2019-09-22T11:40:10.000Z</time>
      </trkpt>
      <trkpt lat="45.39325" lon="4.76627">
        <ele>140.39999389648</ele>
        <time>2019-09-22T11:40:13.000Z</time>
      </trkpt>
      <trkpt lat="45.39339" lon="4.76604">
        <ele>140.19999694824</ele>
        <time>2019-09-22T11:40:16.000Z</time>
      </trkpt>
      <trkpt lat="45.39354" lon="4.7658">
        <ele>140.39999389648</ele>
        <time>2019-09-22T11:40:19.000Z</time>
      </trkpt>
      <trkpt lat="45.39369" lon="4.76556">
        <ele>140.80000305176</ele>
        <time>2019-09-22T11:40:22.000Z</time>
      </trkpt>
      <trkpt lat="45.39387" lon="4.76537">
        <ele>141</ele>
        <time>2019-09-22T11:40:25.000Z</time>
      </trkpt>
      <trkpt lat="45.39406" lon="4.76521">
        <ele>140.60000610352</ele>
        <time>2019-09-22T11:40:28.000Z</time>
      </trkpt>
      <trkpt lat="45.39417" lon="4.76508">
        <ele>140.19999694824</ele>
        <time>2019-09-22T11:40:31.000Z</time>
      </trkpt>
      <trkpt lat="45.39432" lon="4.76484">
        <ele>140</ele>
        <time>2019-09-22T11:40:34.000Z</time>
      </trkpt>
      <trkpt lat="45.39444" lon="4.76459">
        <ele>140</ele>
        <time>2019-09-22T11:40:37.000Z</time>
      </trkpt>
      <trkpt lat="45.39456" lon="4.76433">
        <ele>139.80000305176</ele>
        <time>2019-09-22T11:40:38.000Z</time>
      </trkpt>
      <trkpt lat="45.39467" lon="4.76407">
        <ele>140</ele>
        <time>2019-09-22T11:40:41.000Z</time>
      </trkpt>
      <trkpt lat="45.39478" lon="4.76381">
        <ele>139.80000305176</ele>
        <time>2019-09-22T11:40:42.000Z</time>
      </trkpt>
      <trkpt lat="45.39489" lon="4.76355">
        <ele>140</ele>
        <time>2019-09-22T11:40:45.000Z</time>
      </trkpt>
      <trkpt lat="45.395" lon="4.7633">
        <ele>140.60000610352</ele>
        <time>2019-09-22T11:40:48.000Z</time>
      </trkpt>
      <trkpt lat="45.39511" lon="4.76306">
        <ele>140.60000610352</ele>
        <time>2019-09-22T11:40:51.000Z</time>
      </trkpt>
      <trkpt lat="45.39522" lon="4.76283">
        <ele>140.60000610352</ele>
        <time>2019-09-22T11:40:54.000Z</time>
      </trkpt>
      <trkpt lat="45.39534" lon="4.76259">
        <ele>140.60000610352</ele>
        <time>2019-09-22T11:40:57.000Z</time>
      </trkpt>
      <trkpt lat="45.39545" lon="4.76235">
        <ele>140.80000305176</ele>
        <time>2019-09-22T11:41:00.000Z</time>
      </trkpt>
      <trkpt lat="45.39556" lon="4.76211">
        <ele>140.80000305176</ele>
        <time>2019-09-22T11:41:02.000Z</time>
      </trkpt>
      <trkpt lat="45.39567" lon="4.76188">
        <ele>140.80000305176</ele>
        <time>2019-09-22T11:41:05.000Z</time>
      </trkpt>
      <trkpt lat="45.39578" lon="4.76164">
        <ele>140.80000305176</ele>
        <time>2019-09-22T11:41:08.000Z</time>
      </trkpt>
      <trkpt lat="45.3959" lon="4.76141">
        <ele>140.39999389648</ele>
        <time>2019-09-22T11:41:11.000Z</time>
      </trkpt>
      <trkpt lat="45.39602" lon="4.76117">
        <ele>140</ele>
        <time>2019-09-22T11:41:14.000Z</time>
      </trkpt>
      <trkpt lat="45.39614" lon="4.76093">
        <ele>140.19999694824</ele>
        <time>2019-09-22T11:41:17.000Z</time>
      </trkpt>
      <trkpt lat="45.39626" lon="4.7607">
        <ele>141.39999389648</ele>
        <time>2019-09-22T11:41:20.000Z</time>
      </trkpt>
      <trkpt lat="45.39639" lon="4.76046">
        <ele>142.60000610352</ele>
        <time>2019-09-22T11:41:23.000Z</time>
      </trkpt>
      <trkpt lat="45.39654" lon="4.76026">
        <ele>142.60000610352</ele>
        <time>2019-09-22T11:41:26.000Z</time>
      </trkpt>
      <trkpt lat="45.39659" lon="4.7602">
        <ele>142.39999389648</ele>
        <time>2019-09-22T11:41:29.000Z</time>
      </trkpt>
      <trkpt lat="45.39678" lon="4.76009">
        <ele>142</ele>
        <time>2019-09-22T11:41:33.000Z</time>
      </trkpt>
      <trkpt lat="45.39685" lon="4.76006">
        <ele>142</ele>
        <time>2019-09-22T11:41:36.000Z</time>
      </trkpt>
      <trkpt lat="45.39704" lon="4.76">
        <ele>142</ele>
        <time>2019-09-22T11:41:40.000Z</time>
      </trkpt>
      <trkpt lat="45.39723" lon="4.75995">
        <ele>141.80000305176</ele>
        <time>2019-09-22T11:41:43.000Z</time>
      </trkpt>
      <trkpt lat="45.39742" lon="4.75992">
        <ele>141.39999389648</ele>
        <time>2019-09-22T11:41:47.000Z</time>
      </trkpt>
      <trkpt lat="45.39762" lon="4.75991">
        <ele>141</ele>
        <time>2019-09-22T11:41:51.000Z</time>
      </trkpt>
      <trkpt lat="45.39782" lon="4.75987">
        <ele>140.80000305176</ele>
        <time>2019-09-22T11:41:55.000Z</time>
      </trkpt>
      <trkpt lat="45.398" lon="4.75978">
        <ele>140.80000305176</ele>
        <time>2019-09-22T11:41:58.000Z</time>
      </trkpt>
      <trkpt lat="45.39812" lon="4.75969">
        <ele>141.19999694824</ele>
        <time>2019-09-22T11:42:01.000Z</time>
      </trkpt>
      <trkpt lat="45.39829" lon="4.75956">
        <ele>141</ele>
        <time>2019-09-22T11:42:02.000Z</time>
      </trkpt>
      <trkpt lat="45.39847" lon="4.75942">
        <ele>141.19999694824</ele>
        <time>2019-09-22T11:42:06.000Z</time>
      </trkpt>
      <trkpt lat="45.39864" lon="4.75928">
        <ele>141.39999389648</ele>
        <time>2019-09-22T11:42:07.000Z</time>
      </trkpt>
      <trkpt lat="45.3988" lon="4.75915">
        <ele>141.39999389648</ele>
        <time>2019-09-22T11:42:08.000Z</time>
      </trkpt>
      <trkpt lat="45.39897" lon="4.75901">
        <ele>141.39999389648</ele>
        <time>2019-09-22T11:42:11.000Z</time>
      </trkpt>
      <trkpt lat="45.39913" lon="4.75888">
        <ele>141.19999694824</ele>
        <time>2019-09-22T11:42:14.000Z</time>
      </trkpt>
      <trkpt lat="45.3993" lon="4.75875">
        <ele>140.80000305176</ele>
        <time>2019-09-22T11:42:17.000Z</time>
      </trkpt>
      <trkpt lat="45.39945" lon="4.75861">
        <ele>140.39999389648</ele>
        <time>2019-09-22T11:42:20.000Z</time>
      </trkpt>
      <trkpt lat="45.3996" lon="4.75847">
        <ele>140</ele>
        <time>2019-09-22T11:42:23.000Z</time>
      </trkpt>
      <trkpt lat="45.39979" lon="4.75829">
        <ele>140</ele>
        <time>2019-09-22T11:42:26.000Z</time>
      </trkpt>
      <trkpt lat="45.39996" lon="4.75821">
        <ele>140</ele>
        <time>2019-09-22T11:42:29.000Z</time>
      </trkpt>
      <trkpt lat="45.40015" lon="4.75839">
        <ele>140</ele>
        <time>2019-09-22T11:42:32.000Z</time>
      </trkpt>
      <trkpt lat="45.40021" lon="4.75863">
        <ele>140</ele>
        <time>2019-09-22T11:42:35.000Z</time>
      </trkpt>
      <trkpt lat="45.40027" lon="4.75896">
        <ele>140.39999389648</ele>
        <time>2019-09-22T11:42:38.000Z</time>
      </trkpt>
      <trkpt lat="45.40032" lon="4.75929">
        <ele>140.60000610352</ele>
        <time>2019-09-22T11:42:41.000Z</time>
      </trkpt>
      <trkpt lat="45.40037" lon="4.75962">
        <ele>141</ele>
        <time>2019-09-22T11:42:44.000Z</time>
      </trkpt>
      <trkpt lat="45.4004" lon="4.75988">
        <ele>141.19999694824</ele>
        <time>2019-09-22T11:42:47.000Z</time>
      </trkpt>
      <trkpt lat="45.40043" lon="4.76013">
        <ele>141.60000610352</ele>
        <time>2019-09-22T11:42:50.000Z</time>
      </trkpt>
      <trkpt lat="45.40045" lon="4.76021">
        <ele>141.80000305176</ele>
        <time>2019-09-22T11:42:53.000Z</time>
      </trkpt>
      <trkpt lat="45.40067" lon="4.7603">
        <ele>141.60000610352</ele>
        <time>2019-09-22T11:42:56.000Z</time>
      </trkpt>
      <trkpt lat="45.40073" lon="4.76029">
        <ele>141.60000610352</ele>
        <time>2019-09-22T11:42:58.000Z</time>
      </trkpt>
      <trkpt lat="45.40079" lon="4.76029">
        <ele>141.60000610352</ele>
        <time>2019-09-22T11:43:01.000Z</time>
      </trkpt>
      <trkpt lat="45.40097" lon="4.76037">
        <ele>141.39999389648</ele>
        <time>2019-09-22T11:43:04.000Z</time>
      </trkpt>
      <trkpt lat="45.40109" lon="4.76057">
        <ele>141.80000305176</ele>
        <time>2019-09-22T11:43:05.000Z</time>
      </trkpt>
      <trkpt lat="45.40122" lon="4.76076">
        <ele>142</ele>
        <time>2019-09-22T11:43:08.000Z</time>
      </trkpt>
      <trkpt lat="45.40139" lon="4.76088">
        <ele>142</ele>
        <time>2019-09-22T11:43:11.000Z</time>
      </trkpt>
      <trkpt lat="45.40156" lon="4.761">
        <ele>141.60000610352</ele>
        <time>2019-09-22T11:43:14.000Z</time>
      </trkpt>
      <trkpt lat="45.40173" lon="4.76113">
        <ele>141.39999389648</ele>
        <time>2019-09-22T11:43:17.000Z</time>
      </trkpt>
      <trkpt lat="45.4019" lon="4.76125">
        <ele>141</ele>
        <time>2019-09-22T11:43:20.000Z</time>
      </trkpt>
      <trkpt lat="45.40208" lon="4.76138">
        <ele>140.39999389648</ele>
        <time>2019-09-22T11:43:23.000Z</time>
      </trkpt>
      <trkpt lat="45.40225" lon="4.76151">
        <ele>140.39999389648</ele>
        <time>2019-09-22T11:43:26.000Z</time>
      </trkpt>
      <trkpt lat="45.40241" lon="4.76162">
        <ele>140.39999389648</ele>
        <time>2019-09-22T11:43:29.000Z</time>
      </trkpt>
      <trkpt lat="45.40258" lon="4.76174">
        <ele>140.60000610352</ele>
        <time>2019-09-22T11:43:32.000Z</time>
      </trkpt>
      <trkpt lat="45.40275" lon="4.76186">
        <ele>140.80000305176</ele>
        <time>2019-09-22T11:43:35.000Z</time>
      </trkpt>
      <trkpt lat="45.40292" lon="4.76198">
        <ele>141</ele>
        <time>2019-09-22T11:43:38.000Z</time>
      </trkpt>
      <trkpt lat="45.4031" lon="4.76211">
        <ele>140.80000305176</ele>
        <time>2019-09-22T11:43:41.000Z</time>
      </trkpt>
      <trkpt lat="45.40328" lon="4.76224">
        <ele>140.80000305176</ele>
        <time>2019-09-22T11:43:44.000Z</time>
      </trkpt>
      <trkpt lat="45.40347" lon="4.76232">
        <ele>140.60000610352</ele>
        <time>2019-09-22T11:43:47.000Z</time>
      </trkpt>
      <trkpt lat="45.40359" lon="4.76235">
        <ele>140.19999694824</ele>
        <time>2019-09-22T11:43:50.000Z</time>
      </trkpt>
      <trkpt lat="45.40379" lon="4.76234">
        <ele>139.80000305176</ele>
        <time>2019-09-22T11:43:51.000Z</time>
      </trkpt>
      <trkpt lat="45.40398" lon="4.76228">
        <ele>140.19999694824</ele>
        <time>2019-09-22T11:43:53.000Z</time>
      </trkpt>
      <trkpt lat="45.40404" lon="4.76225">
        <ele>140.19999694824</ele>
        <time>2019-09-22T11:43:56.000Z</time>
      </trkpt>
      <trkpt lat="45.40421" lon="4.76211">
        <ele>140.19999694824</ele>
        <time>2019-09-22T11:43:59.000Z</time>
      </trkpt>
      <trkpt lat="45.40438" lon="4.76197">
        <ele>140.39999389648</ele>
        <time>2019-09-22T11:44:01.000Z</time>
      </trkpt>
      <trkpt lat="45.40455" lon="4.76183">
        <ele>140.39999389648</ele>
        <time>2019-09-22T11:44:04.000Z</time>
      </trkpt>
      <trkpt lat="45.40471" lon="4.7617">
        <ele>140.39999389648</ele>
        <time>2019-09-22T11:44:07.000Z</time>
      </trkpt>
      <trkpt lat="45.40488" lon="4.76156">
        <ele>140.39999389648</ele>
        <time>2019-09-22T11:44:10.000Z</time>
      </trkpt>
      <trkpt lat="45.40504" lon="4.76143">
        <ele>140.60000610352</ele>
        <time>2019-09-22T11:44:13.000Z</time>
      </trkpt>
      <trkpt lat="45.4052" lon="4.7613">
        <ele>141</ele>
        <time>2019-09-22T11:44:17.000Z</time>
      </trkpt>
      <trkpt lat="45.40536" lon="4.76117">
        <ele>141.60000610352</ele>
        <time>2019-09-22T11:44:21.000Z</time>
      </trkpt>
      <trkpt lat="45.40552" lon="4.76104">
        <ele>142.39999389648</ele>
        <time>2019-09-22T11:44:24.000Z</time>
      </trkpt>
      <trkpt lat="45.40568" lon="4.76091">
        <ele>143.80000305176</ele>
        <time>2019-09-22T11:44:28.000Z</time>
      </trkpt>
      <trkpt lat="45.40585" lon="4.76078">
        <ele>145.19999694824</ele>
        <time>2019-09-22T11:44:32.000Z</time>
      </trkpt>
      <trkpt lat="45.40601" lon="4.76065">
        <ele>145</ele>
        <time>2019-09-22T11:44:36.000Z</time>
      </trkpt>
      <trkpt lat="45.40618" lon="4.76052">
        <ele>144.60000610352</ele>
        <time>2019-09-22T11:44:40.000Z</time>
      </trkpt>
      <trkpt lat="45.40634" lon="4.76038">
        <ele>144</ele>
        <time>2019-09-22T11:44:44.000Z</time>
      </trkpt>
      <trkpt lat="45.40651" lon="4.76025">
        <ele>144</ele>
        <time>2019-09-22T11:44:48.000Z</time>
      </trkpt>
      <trkpt lat="45.40656" lon="4.76021">
        <ele>144</ele>
        <time>2019-09-22T11:44:52.000Z</time>
      </trkpt>
      <trkpt lat="45.40667" lon="4.76012">
        <ele>144</ele>
        <time>2019-09-22T11:44:56.000Z</time>
      </trkpt>
      <trkpt lat="45.40684" lon="4.75999">
        <ele>143.80000305176</ele>
        <time>2019-09-22T11:45:00.000Z</time>
      </trkpt>
      <trkpt lat="45.40701" lon="4.75986">
        <ele>143.80000305176</ele>
        <time>2019-09-22T11:45:04.000Z</time>
      </trkpt>
      <trkpt lat="45.40712" lon="4.75978">
        <ele>143.80000305176</ele>
        <time>2019-09-22T11:45:08.000Z</time>
      </trkpt>
      <trkpt lat="45.40731" lon="4.75971">
        <ele>143.39999389648</ele>
        <time>2019-09-22T11:45:12.000Z</time>
      </trkpt>
      <trkpt lat="45.4075" lon="4.75966">
        <ele>143.80000305176</ele>
        <time>2019-09-22T11:45:16.000Z</time>
      </trkpt>
      <trkpt lat="45.4077" lon="4.75962">
        <ele>144.39999389648</ele>
        <time>2019-09-22T11:45:20.000Z</time>
      </trkpt>
      <trkpt lat="45.40789" lon="4.75959">
        <ele>144.80000305176</ele>
        <time>2019-09-22T11:45:23.000Z</time>
      </trkpt>
      <trkpt lat="45.40811" lon="4.75955">
        <ele>145</ele>
        <time>2019-09-22T11:45:26.000Z</time>
      </trkpt>
      <trkpt lat="45.40831" lon="4.7595">
        <ele>145.19999694824</ele>
        <time>2019-09-22T11:45:29.000Z</time>
      </trkpt>
      <trkpt lat="45.40846" lon="4.75941">
        <ele>145.39999389648</ele>
        <time>2019-09-22T11:45:32.000Z</time>
      </trkpt>
      <trkpt lat="45.40866" lon="4.75926">
        <ele>145.60000610352</ele>
        <time>2019-09-22T11:45:35.000Z</time>
      </trkpt>
      <trkpt lat="45.40885" lon="4.75911">
        <ele>146</ele>
        <time>2019-09-22T11:45:38.000Z</time>
      </trkpt>
      <trkpt lat="45.409" lon="4.75897">
        <ele>146.39999389648</ele>
        <time>2019-09-22T11:45:41.000Z</time>
      </trkpt>
      <trkpt lat="45.40917" lon="4.75884">
        <ele>146.39999389648</ele>
        <time>2019-09-22T11:45:44.000Z</time>
      </trkpt>
      <trkpt lat="45.40936" lon="4.75871">
        <ele>146.39999389648</ele>
        <time>2019-09-22T11:45:47.000Z</time>
      </trkpt>
      <trkpt lat="45.40956" lon="4.75863">
        <ele>146.39999389648</ele>
        <time>2019-09-22T11:45:50.000Z</time>
      </trkpt>
      <trkpt lat="45.40978" lon="4.75856">
        <ele>145.60000610352</ele>
        <time>2019-09-22T11:45:53.000Z</time>
      </trkpt>
      <trkpt lat="45.40999" lon="4.75848">
        <ele>144.80000305176</ele>
        <time>2019-09-22T11:45:56.000Z</time>
      </trkpt>
      <trkpt lat="45.41021" lon="4.75841">
        <ele>144</ele>
        <time>2019-09-22T11:45:59.000Z</time>
      </trkpt>
      <trkpt lat="45.41044" lon="4.75833">
        <ele>142.80000305176</ele>
        <time>2019-09-22T11:46:02.000Z</time>
      </trkpt>
      <trkpt lat="45.41066" lon="4.75825">
        <ele>142.60000610352</ele>
        <time>2019-09-22T11:46:05.000Z</time>
      </trkpt>
      <trkpt lat="45.41089" lon="4.75817">
        <ele>142.80000305176</ele>
        <time>2019-09-22T11:46:08.000Z</time>
      </trkpt>
      <trkpt lat="45.41112" lon="4.75809">
        <ele>142.60000610352</ele>
        <time>2019-09-22T11:46:09.000Z</time>
      </trkpt>
      <trkpt lat="45.41135" lon="4.75801">
        <ele>142.39999389648</ele>
        <time>2019-09-22T11:46:12.000Z</time>
      </trkpt>
      <trkpt lat="45.41153" lon="4.75794">
        <ele>142.19999694824</ele>
        <time>2019-09-22T11:46:15.000Z</time>
      </trkpt>
      <trkpt lat="45.41171" lon="4.75789">
        <ele>142</ele>
        <time>2019-09-22T11:46:18.000Z</time>
      </trkpt>
      <trkpt lat="45.41189" lon="4.75782">
        <ele>142</ele>
        <time>2019-09-22T11:46:21.000Z</time>
      </trkpt>
      <trkpt lat="45.41206" lon="4.75776">
        <ele>142</ele>
        <time>2019-09-22T11:46:22.000Z</time>
      </trkpt>
      <trkpt lat="45.41225" lon="4.7577">
        <ele>142</ele>
        <time>2019-09-22T11:46:25.000Z</time>
      </trkpt>
      <trkpt lat="45.41243" lon="4.75763">
        <ele>142.39999389648</ele>
        <time>2019-09-22T11:46:28.000Z</time>
      </trkpt>
      <trkpt lat="45.41261" lon="4.75757">
        <ele>142.80000305176</ele>
        <time>2019-09-22T11:46:31.000Z</time>
      </trkpt>
      <trkpt lat="45.41279" lon="4.75751">
        <ele>142.80000305176</ele>
        <time>2019-09-22T11:46:34.000Z</time>
      </trkpt>
      <trkpt lat="45.41296" lon="4.75745">
        <ele>143</ele>
        <time>2019-09-22T11:46:37.000Z</time>
      </trkpt>
      <trkpt lat="45.41314" lon="4.75738">
        <ele>143</ele>
        <time>2019-09-22T11:46:40.000Z</time>
      </trkpt>
      <trkpt lat="45.41332" lon="4.75732">
        <ele>143</ele>
        <time>2019-09-22T11:46:43.000Z</time>
      </trkpt>
      <trkpt lat="45.4135" lon="4.75726">
        <ele>142.80000305176</ele>
        <time>2019-09-22T11:46:46.000Z</time>
      </trkpt>
      <trkpt lat="45.41368" lon="4.7572">
        <ele>142.60000610352</ele>
        <time>2019-09-22T11:46:49.000Z</time>
      </trkpt>
      <trkpt lat="45.41386" lon="4.75714">
        <ele>142.19999694824</ele>
        <time>2019-09-22T11:46:52.000Z</time>
      </trkpt>
      <trkpt lat="45.41405" lon="4.75707">
        <ele>142.19999694824</ele>
        <time>2019-09-22T11:46:55.000Z</time>
      </trkpt>
      <trkpt lat="45.41425" lon="4.75698">
        <ele>142.60000610352</ele>
        <time>2019-09-22T11:46:59.000Z</time>
      </trkpt>
      <trkpt lat="45.41432" lon="4.75696">
        <ele>142.80000305176</ele>
        <time>2019-09-22T11:47:03.000Z</time>
      </trkpt>
      <trkpt lat="45.41453" lon="4.7569">
        <ele>143</ele>
        <time>2019-09-22T11:47:07.000Z</time>
      </trkpt>
      <trkpt lat="45.41476" lon="4.75682">
        <ele>142.60000610352</ele>
        <time>2019-09-22T11:47:11.000Z</time>
      </trkpt>
      <trkpt lat="45.41498" lon="4.75677">
        <ele>142.19999694824</ele>
        <time>2019-09-22T11:47:14.000Z</time>
      </trkpt>
      <trkpt lat="45.4152" lon="4.75674">
        <ele>142</ele>
        <time>2019-09-22T11:47:18.000Z</time>
      </trkpt>
      <trkpt lat="45.41526" lon="4.75671">
        <ele>141.80000305176</ele>
        <time>2019-09-22T11:47:21.000Z</time>
      </trkpt>
      <trkpt lat="45.41536" lon="4.75648">
        <ele>141.39999389648</ele>
        <time>2019-09-22T11:47:24.000Z</time>
      </trkpt>
      <trkpt lat="45.41535" lon="4.75618">
        <ele>141</ele>
        <time>2019-09-22T11:47:27.000Z</time>
      </trkpt>
      <trkpt lat="45.41531" lon="4.75589">
        <ele>140.80000305176</ele>
        <time>2019-09-22T11:47:30.000Z</time>
      </trkpt>
      <trkpt lat="45.41528" lon="4.75561">
        <ele>140.80000305176</ele>
        <time>2019-09-22T11:47:33.000Z</time>
      </trkpt>
      <trkpt lat="45.41525" lon="4.75534">
        <ele>140.80000305176</ele>
        <time>2019-09-22T11:47:36.000Z</time>
      </trkpt>
      <trkpt lat="45.41522" lon="4.75507">
        <ele>140.80000305176</ele>
        <time>2019-09-22T11:47:39.000Z</time>
      </trkpt>
      <trkpt lat="45.41519" lon="4.75481">
        <ele>141</ele>
        <time>2019-09-22T11:47:42.000Z</time>
      </trkpt>
      <trkpt lat="45.41517" lon="4.75455">
        <ele>141.19999694824</ele>
        <time>2019-09-22T11:47:46.000Z</time>
      </trkpt>
      <trkpt lat="45.41514" lon="4.75429">
        <ele>141.39999389648</ele>
        <time>2019-09-22T11:47:50.000Z</time>
      </trkpt>
      <trkpt lat="45.41511" lon="4.75404">
        <ele>141.60000610352</ele>
        <time>2019-09-22T11:47:54.000Z</time>
      </trkpt>
      <trkpt lat="45.41508" lon="4.75378">
        <ele>141.60000610352</ele>
        <time>2019-09-22T11:47:58.000Z</time>
      </trkpt>
      <trkpt lat="45.41504" lon="4.75346">
        <ele>141.39999389648</ele>
        <time>2019-09-22T11:48:02.000Z</time>
      </trkpt>
      <trkpt lat="45.41499" lon="4.75313">
        <ele>141.60000610352</ele>
        <time>2019-09-22T11:48:06.000Z</time>
      </trkpt>
      <trkpt lat="45.41496" lon="4.7528">
        <ele>141.80000305176</ele>
        <time>2019-09-22T11:48:10.000Z</time>
      </trkpt>
      <trkpt lat="45.41492" lon="4.75247">
        <ele>142.19999694824</ele>
        <time>2019-09-22T11:48:14.000Z</time>
      </trkpt>
      <trkpt lat="45.41489" lon="4.75222">
        <ele>142.19999694824</ele>
        <time>2019-09-22T11:48:18.000Z</time>
      </trkpt>
      <trkpt lat="45.41485" lon="4.75188">
        <ele>142.19999694824</ele>
        <time>2019-09-22T11:48:22.000Z</time>
      </trkpt>
      <trkpt lat="45.41482" lon="4.75163">
        <ele>142.19999694824</ele>
        <time>2019-09-22T11:48:26.000Z</time>
      </trkpt>
      <trkpt lat="45.4148" lon="4.75137">
        <ele>142.19999694824</ele>
        <time>2019-09-22T11:48:30.000Z</time>
      </trkpt>
      <trkpt lat="45.41477" lon="4.75112">
        <ele>141.80000305176</ele>
        <time>2019-09-22T11:48:34.000Z</time>
      </trkpt>
      <trkpt lat="45.41473" lon="4.75087">
        <ele>141.60000610352</ele>
        <time>2019-09-22T11:48:38.000Z</time>
      </trkpt>
      <trkpt lat="45.41468" lon="4.75061">
        <ele>141.19999694824</ele>
        <time>2019-09-22T11:48:42.000Z</time>
      </trkpt>
      <trkpt lat="45.41462" lon="4.75037">
        <ele>141</ele>
        <time>2019-09-22T11:48:46.000Z</time>
      </trkpt>
      <trkpt lat="45.41456" lon="4.75013">
        <ele>141.19999694824</ele>
        <time>2019-09-22T11:48:50.000Z</time>
      </trkpt>
      <trkpt lat="45.41449" lon="4.74989">
        <ele>141.19999694824</ele>
        <time>2019-09-22T11:48:54.000Z</time>
      </trkpt>
      <trkpt lat="45.41441" lon="4.74957">
        <ele>141.19999694824</ele>
        <time>2019-09-22T11:48:56.000Z</time>
      </trkpt>
      <trkpt lat="45.41432" lon="4.74927">
        <ele>142</ele>
        <time>2019-09-22T11:49:00.000Z</time>
      </trkpt>
      <trkpt lat="45.41423" lon="4.74898">
        <ele>142.80000305176</ele>
        <time>2019-09-22T11:49:04.000Z</time>
      </trkpt>
      <trkpt lat="45.41414" lon="4.74869">
        <ele>143.60000610352</ele>
        <time>2019-09-22T11:49:08.000Z</time>
      </trkpt>
      <trkpt lat="45.41404" lon="4.7484">
        <ele>143.39999389648</ele>
        <time>2019-09-22T11:49:12.000Z</time>
      </trkpt>
      <trkpt lat="45.41394" lon="4.74811">
        <ele>143.19999694824</ele>
        <time>2019-09-22T11:49:16.000Z</time>
      </trkpt>
      <trkpt lat="45.41384" lon="4.74782">
        <ele>143</ele>
        <time>2019-09-22T11:49:20.000Z</time>
      </trkpt>
      <trkpt lat="45.41375" lon="4.74754">
        <ele>143</ele>
        <time>2019-09-22T11:49:24.000Z</time>
      </trkpt>
      <trkpt lat="45.41366" lon="4.74725">
        <ele>142.80000305176</ele>
        <time>2019-09-22T11:49:28.000Z</time>
      </trkpt>
      <trkpt lat="45.41358" lon="4.74695">
        <ele>142.80000305176</ele>
        <time>2019-09-22T11:49:33.000Z</time>
      </trkpt>
      <trkpt lat="45.4135" lon="4.74664">
        <ele>142.80000305176</ele>
        <time>2019-09-22T11:49:38.000Z</time>
      </trkpt>
      <trkpt lat="45.41344" lon="4.74635">
        <ele>141.80000305176</ele>
        <time>2019-09-22T11:49:43.000Z</time>
      </trkpt>
      <trkpt lat="45.41339" lon="4.74604">
        <ele>141.80000305176</ele>
        <time>2019-09-22T11:49:47.000Z</time>
      </trkpt>
      <trkpt lat="45.41333" lon="4.74573">
        <ele>142.39999389648</ele>
        <time>2019-09-22T11:49:51.000Z</time>
      </trkpt>
      <trkpt lat="45.41329" lon="4.74543">
        <ele>143.39999389648</ele>
        <time>2019-09-22T11:49:55.000Z</time>
      </trkpt>
      <trkpt lat="45.41324" lon="4.74513">
        <ele>142.19999694824</ele>
        <time>2019-09-22T11:49:59.000Z</time>
      </trkpt>
      <trkpt lat="45.41319" lon="4.74484">
        <ele>140.60000610352</ele>
        <time>2019-09-22T11:50:02.000Z</time>
      </trkpt>
      <trkpt lat="45.41315" lon="4.74455">
        <ele>139</ele>
        <time>2019-09-22T11:50:05.000Z</time>
      </trkpt>
      <trkpt lat="45.41313" lon="4.7444">
        <ele>139</ele>
        <time>2019-09-22T11:50:08.000Z</time>
      </trkpt>
      <trkpt lat="45.41308" lon="4.74411">
        <ele>139</ele>
        <time>2019-09-22T11:50:11.000Z</time>
      </trkpt>
      <trkpt lat="45.41304" lon="4.74383">
        <ele>139</ele>
        <time>2019-09-22T11:50:14.000Z</time>
      </trkpt>
      <trkpt lat="45.413" lon="4.74356">
        <ele>139</ele>
        <time>2019-09-22T11:50:17.000Z</time>
      </trkpt>
      <trkpt lat="45.41296" lon="4.74329">
        <ele>139</ele>
        <time>2019-09-22T11:50:20.000Z</time>
      </trkpt>
      <trkpt lat="45.41292" lon="4.74303">
        <ele>139</ele>
        <time>2019-09-22T11:50:31.000Z</time>
      </trkpt>
      <trkpt lat="45.41288" lon="4.74277">
        <ele>139</ele>
        <time>2019-09-22T11:50:40.000Z</time>
      </trkpt>
      <trkpt lat="45.41284" lon="4.74251">
        <ele>139</ele>
        <time>2019-09-22T11:50:47.000Z</time>
      </trkpt>
      <trkpt lat="45.4128" lon="4.74225">
        <ele>139</ele>
        <time>2019-09-22T11:50:52.000Z</time>
      </trkpt>
      <trkpt lat="45.41275" lon="4.74194">
        <ele>139.60000610352</ele>
        <time>2019-09-22T11:50:54.000Z</time>
      </trkpt>
      <trkpt lat="45.4127" lon="4.74164">
        <ele>141.19999694824</ele>
        <time>2019-09-22T11:50:58.000Z</time>
      </trkpt>
      <trkpt lat="45.41265" lon="4.74133">
        <ele>142.80000305176</ele>
        <time>2019-09-22T11:51:02.000Z</time>
      </trkpt>
      <trkpt lat="45.41261" lon="4.74106">
        <ele>143.19999694824</ele>
        <time>2019-09-22T11:51:08.000Z</time>
      </trkpt>
      <trkpt lat="45.41256" lon="4.74079">
        <ele>143</ele>
        <time>2019-09-22T11:51:10.000Z</time>
      </trkpt>
      <trkpt lat="45.41252" lon="4.74049">
        <ele>142</ele>
        <time>2019-09-22T11:51:14.000Z</time>
      </trkpt>
      <trkpt lat="45.41246" lon="4.74015">
        <ele>141.60000610352</ele>
        <time>2019-09-22T11:51:18.000Z</time>
      </trkpt>
      <trkpt lat="45.41242" lon="4.73988">
        <ele>141.39999389648</ele>
        <time>2019-09-22T11:51:22.000Z</time>
      </trkpt>
      <trkpt lat="45.41237" lon="4.73959">
        <ele>141.80000305176</ele>
        <time>2019-09-22T11:51:26.000Z</time>
      </trkpt>
      <trkpt lat="45.41233" lon="4.7393">
        <ele>142.60000610352</ele>
        <time>2019-09-22T11:51:30.000Z</time>
      </trkpt>
      <trkpt lat="45.41228" lon="4.73899">
        <ele>143.39999389648</ele>
        <time>2019-09-22T11:51:34.000Z</time>
      </trkpt>
      <trkpt lat="45.41223" lon="4.73868">
        <ele>144</ele>
        <time>2019-09-22T11:51:38.000Z</time>
      </trkpt>
      <trkpt lat="45.4122" lon="4.73836">
        <ele>144</ele>
        <time>2019-09-22T11:51:42.000Z</time>
      </trkpt>
      <trkpt lat="45.41218" lon="4.73805">
        <ele>144</ele>
        <time>2019-09-22T11:51:46.000Z</time>
      </trkpt>
      <trkpt lat="45.41223" lon="4.7378">
        <ele>144</ele>
        <time>2019-09-22T11:51:50.000Z</time>
      </trkpt>
      <trkpt lat="45.4123" lon="4.73758">
        <ele>144.39999389648</ele>
        <time>2019-09-22T11:51:54.000Z</time>
      </trkpt>
      <trkpt lat="45.41218" lon="4.73743">
        <ele>144.60000610352</ele>
        <time>2019-09-22T11:51:59.000Z</time>
      </trkpt>
      <trkpt lat="45.41215" lon="4.73714">
        <ele>144.80000305176</ele>
        <time>2019-09-22T11:52:04.000Z</time>
      </trkpt>
      <trkpt lat="45.41215" lon="4.73701">
        <ele>145.19999694824</ele>
        <time>2019-09-22T11:52:09.000Z</time>
      </trkpt>
      <trkpt lat="45.41215" lon="4.73677">
        <ele>146.39999389648</ele>
        <time>2019-09-22T11:52:11.000Z</time>
      </trkpt>
      <trkpt lat="45.41211" lon="4.73658">
        <ele>147.19999694824</ele>
        <time>2019-09-22T11:52:19.000Z</time>
      </trkpt>
      <trkpt lat="45.41192" lon="4.7364">
        <ele>147.39999389648</ele>
        <time>2019-09-22T11:52:25.000Z</time>
      </trkpt>
      <trkpt lat="45.41181" lon="4.73638">
        <ele>147.39999389648</ele>
        <time>2019-09-22T11:52:26.000Z</time>
      </trkpt>
      <trkpt lat="45.41158" lon="4.73639">
        <ele>146.80000305176</ele>
        <time>2019-09-22T11:52:31.000Z</time>
      </trkpt>
      <trkpt lat="45.41136" lon="4.7364">
        <ele>146.60000610352</ele>
        <time>2019-09-22T11:52:36.000Z</time>
      </trkpt>
      <trkpt lat="45.41114" lon="4.73642">
        <ele>147</ele>
        <time>2019-09-22T11:52:42.000Z</time>
      </trkpt>
      <trkpt lat="45.41092" lon="4.73644">
        <ele>147.39999389648</ele>
        <time>2019-09-22T11:52:48.000Z</time>
      </trkpt>
      <trkpt lat="45.41071" lon="4.73645">
        <ele>147.80000305176</ele>
        <time>2019-09-22T11:52:54.000Z</time>
      </trkpt>
      <trkpt lat="45.41049" lon="4.73646">
        <ele>147.39999389648</ele>
        <time>2019-09-22T11:53:00.000Z</time>
      </trkpt>
      <trkpt lat="45.41027" lon="4.73648">
        <ele>148.60000610352</ele>
        <time>2019-09-22T11:53:06.000Z</time>
      </trkpt>
      <trkpt lat="45.41006" lon="4.73648">
        <ele>149.80000305176</ele>
        <time>2019-09-22T11:53:12.000Z</time>
      </trkpt>
      <trkpt lat="45.40985" lon="4.73649">
        <ele>150.80000305176</ele>
        <time>2019-09-22T11:53:23.000Z</time>
      </trkpt>
      <trkpt lat="45.40966" lon="4.73649">
        <ele>151.60000610352</ele>
        <time>2019-09-22T11:53:30.000Z</time>
      </trkpt>
      <trkpt lat="45.40948" lon="4.7365">
        <ele>152.80000305176</ele>
        <time>2019-09-22T11:53:37.000Z</time>
      </trkpt>
      <trkpt lat="45.40926" lon="4.73651">
        <ele>154.19999694824</ele>
        <time>2019-09-22T11:53:44.000Z</time>
      </trkpt>
      <trkpt lat="45.40906" lon="4.73651">
        <ele>155.39999389648</ele>
        <time>2019-09-22T11:53:51.000Z</time>
      </trkpt>
      <trkpt lat="45.40887" lon="4.73652">
        <ele>155.80000305176</ele>
        <time>2019-09-22T11:53:59.000Z</time>
      </trkpt>
      <trkpt lat="45.40879" lon="4.73652">
        <ele>156.19999694824</ele>
        <time>2019-09-22T11:54:07.000Z</time>
      </trkpt>
      <trkpt lat="45.40848" lon="4.73652">
        <ele>159.39999389648</ele>
        <time>2019-09-22T11:54:11.000Z</time>
      </trkpt>
      <trkpt lat="45.40858" lon="4.73642">
        <ele>159.80000305176</ele>
        <time>2019-09-22T11:54:22.000Z</time>
      </trkpt>
      <trkpt lat="45.40861" lon="4.73642">
        <ele>159.39999389648</ele>
        <time>2019-09-22T11:54:29.000Z</time>
      </trkpt>
      <trkpt lat="45.40879" lon="4.73639">
        <ele>157.80000305176</ele>
        <time>2019-09-22T11:54:36.000Z</time>
      </trkpt>
      <trkpt lat="45.40897" lon="4.73631">
        <ele>158</ele>
        <time>2019-09-22T11:54:43.000Z</time>
      </trkpt>
      <trkpt lat="45.40915" lon="4.73615">
        <ele>158.80000305176</ele>
        <time>2019-09-22T11:54:50.000Z</time>
      </trkpt>
      <trkpt lat="45.4093" lon="4.73595">
        <ele>162.39999389648</ele>
        <time>2019-09-22T11:54:57.000Z</time>
      </trkpt>
      <trkpt lat="45.40944" lon="4.73572">
        <ele>165.60000610352</ele>
        <time>2019-09-22T11:55:04.000Z</time>
      </trkpt>
      <trkpt lat="45.40959" lon="4.73555">
        <ele>167.19999694824</ele>
        <time>2019-09-22T11:55:11.000Z</time>
      </trkpt>
      <trkpt lat="45.40974" lon="4.73541">
        <ele>168.39999389648</ele>
        <time>2019-09-22T11:55:22.000Z</time>
      </trkpt>
      <trkpt lat="45.40989" lon="4.73525">
        <ele>169.39999389648</ele>
        <time>2019-09-22T11:55:30.000Z</time>
      </trkpt>
      <trkpt lat="45.41013" lon="4.73497">
        <ele>171.60000610352</ele>
        <time>2019-09-22T11:55:38.000Z</time>
      </trkpt>
      <trkpt lat="45.41029" lon="4.7348">
        <ele>171.39999389648</ele>
        <time>2019-09-22T11:55:46.000Z</time>
      </trkpt>
      <trkpt lat="45.41044" lon="4.73464">
        <ele>171.19999694824</ele>
        <time>2019-09-22T11:55:54.000Z</time>
      </trkpt>
      <trkpt lat="45.41058" lon="4.73446">
        <ele>171.19999694824</ele>
        <time>2019-09-22T11:56:07.000Z</time>
      </trkpt>
      <trkpt lat="45.41069" lon="4.73424">
        <ele>171.19999694824</ele>
        <time>2019-09-22T11:56:15.000Z</time>
      </trkpt>
      <trkpt lat="45.41079" lon="4.734">
        <ele>171.39999389648</ele>
        <time>2019-09-22T11:56:23.000Z</time>
      </trkpt>
      <trkpt lat="45.41084" lon="4.73381">
        <ele>172.80000305176</ele>
        <time>2019-09-22T11:56:30.000Z</time>
      </trkpt>
      <trkpt lat="45.41076" lon="4.73387">
        <ele>173</ele>
        <time>2019-09-22T11:56:38.000Z</time>
      </trkpt>
      <trkpt lat="45.41056" lon="4.73418">
        <ele>173.60000610352</ele>
        <time>2019-09-22T11:56:46.000Z</time>
      </trkpt>
      <trkpt lat="45.41039" lon="4.73428">
        <ele>176.19999694824</ele>
        <time>2019-09-22T11:56:57.000Z</time>
      </trkpt>
      <trkpt lat="45.41021" lon="4.73436">
        <ele>179.19999694824</ele>
        <time>2019-09-22T11:57:04.000Z</time>
      </trkpt>
      <trkpt lat="45.41003" lon="4.73444">
        <ele>181.60000610352</ele>
        <time>2019-09-22T11:57:11.000Z</time>
      </trkpt>
      <trkpt lat="45.40983" lon="4.7345">
        <ele>184.19999694824</ele>
        <time>2019-09-22T11:57:18.000Z</time>
      </trkpt>
      <trkpt lat="45.40964" lon="4.73451">
        <ele>187.60000610352</ele>
        <time>2019-09-22T11:57:25.000Z</time>
      </trkpt>
      <trkpt lat="45.40944" lon="4.73446">
        <ele>190</ele>
        <time>2019-09-22T11:57:32.000Z</time>
      </trkpt>
      <trkpt lat="45.40926" lon="4.73438">
        <ele>192.80000305176</ele>
        <time>2019-09-22T11:57:40.000Z</time>
      </trkpt>
      <trkpt lat="45.40897" lon="4.73426">
        <ele>197</ele>
        <time>2019-09-22T11:57:48.000Z</time>
      </trkpt>
      <trkpt lat="45.40879" lon="4.73418">
        <ele>199.60000610352</ele>
        <time>2019-09-22T11:58:01.000Z</time>
      </trkpt>
      <trkpt lat="45.40861" lon="4.73411">
        <ele>201.19999694824</ele>
        <time>2019-09-22T11:58:10.000Z</time>
      </trkpt>
      <trkpt lat="45.40842" lon="4.73404">
        <ele>202.60000610352</ele>
        <time>2019-09-22T11:58:12.000Z</time>
      </trkpt>
      <trkpt lat="45.40824" lon="4.73398">
        <ele>204.19999694824</ele>
        <time>2019-09-22T11:58:20.000Z</time>
      </trkpt>
      <trkpt lat="45.40794" lon="4.7338">
        <ele>207.19999694824</ele>
        <time>2019-09-22T11:58:28.000Z</time>
      </trkpt>
      <trkpt lat="45.40777" lon="4.73367">
        <ele>209</ele>
        <time>2019-09-22T11:58:36.000Z</time>
      </trkpt>
      <trkpt lat="45.40761" lon="4.73349">
        <ele>210.80000305176</ele>
        <time>2019-09-22T11:58:44.000Z</time>
      </trkpt>
      <trkpt lat="45.40748" lon="4.73331">
        <ele>212.60000610352</ele>
        <time>2019-09-22T11:58:56.000Z</time>
      </trkpt>
      <trkpt lat="45.40734" lon="4.73311">
        <ele>214.60000610352</ele>
        <time>2019-09-22T11:59:05.000Z</time>
      </trkpt>
      <trkpt lat="45.40721" lon="4.73288">
        <ele>217.19999694824</ele>
        <time>2019-09-22T11:59:13.000Z</time>
      </trkpt>
      <trkpt lat="45.40704" lon="4.73257">
        <ele>218.39999389648</ele>
        <time>2019-09-22T11:59:21.000Z</time>
      </trkpt>
      <trkpt lat="45.40691" lon="4.73238">
        <ele>218.19999694824</ele>
        <time>2019-09-22T11:59:29.000Z</time>
      </trkpt>
      <trkpt lat="45.40679" lon="4.73217">
        <ele>218.60000610352</ele>
        <time>2019-09-22T11:59:37.000Z</time>
      </trkpt>
      <trkpt lat="45.40675" lon="4.73189">
        <ele>221</ele>
        <time>2019-09-22T11:59:49.000Z</time>
      </trkpt>
      <trkpt lat="45.4068" lon="4.73161">
        <ele>225.39999389648</ele>
        <time>2019-09-22T11:59:52.000Z</time>
      </trkpt>
      <trkpt lat="45.40682" lon="4.73136">
        <ele>228.60000610352</ele>
        <time>2019-09-22T12:00:00.000Z</time>
      </trkpt>
      <trkpt lat="45.40682" lon="4.73108">
        <ele>233</ele>
        <time>2019-09-22T12:00:08.000Z</time>
      </trkpt>
      <trkpt lat="45.40685" lon="4.73081">
        <ele>238.60000610352</ele>
        <time>2019-09-22T12:00:16.000Z</time>
      </trkpt>
      <trkpt lat="45.40688" lon="4.73041">
        <ele>244.19999694824</ele>
        <time>2019-09-22T12:00:24.000Z</time>
      </trkpt>
      <trkpt lat="45.4068" lon="4.73016">
        <ele>249.60000610352</ele>
        <time>2019-09-22T12:00:32.000Z</time>
      </trkpt>
      <trkpt lat="45.40677" lon="4.73012">
        <ele>250.39999389648</ele>
        <time>2019-09-22T12:00:44.000Z</time>
      </trkpt>
      <trkpt lat="45.4066" lon="4.73008">
        <ele>249.60000610352</ele>
        <time>2019-09-22T12:00:52.000Z</time>
      </trkpt>
      <trkpt lat="45.40642" lon="4.73015">
        <ele>245.39999389648</ele>
        <time>2019-09-22T12:01:00.000Z</time>
      </trkpt>
      <trkpt lat="45.40624" lon="4.73022">
        <ele>240.19999694824</ele>
        <time>2019-09-22T12:01:08.000Z</time>
      </trkpt>
      <trkpt lat="45.40604" lon="4.73023">
        <ele>236</ele>
        <time>2019-09-22T12:01:16.000Z</time>
      </trkpt>
      <trkpt lat="45.40599" lon="4.72986">
        <ele>244</ele>
        <time>2019-09-22T12:01:24.000Z</time>
      </trkpt>
      <trkpt lat="45.40594" lon="4.72958">
        <ele>250.19999694824</ele>
        <time>2019-09-22T12:01:31.000Z</time>
      </trkpt>
      <trkpt lat="45.40587" lon="4.72934">
        <ele>253.80000305176</ele>
        <time>2019-09-22T12:01:39.000Z</time>
      </trkpt>
      <trkpt lat="45.40582" lon="4.72908">
        <ele>258</ele>
        <time>2019-09-22T12:01:46.000Z</time>
      </trkpt>
      <trkpt lat="45.40581" lon="4.72882">
        <ele>262.79998779297</ele>
        <time>2019-09-22T12:01:53.000Z</time>
      </trkpt>
      <trkpt lat="45.40573" lon="4.72857">
        <ele>265.39999389648</ele>
        <time>2019-09-22T12:01:55.000Z</time>
      </trkpt>
      <trkpt lat="45.40558" lon="4.72824">
        <ele>267</ele>
        <time>2019-09-22T12:02:06.000Z</time>
      </trkpt>
      <trkpt lat="45.40556" lon="4.72814">
        <ele>268.39999389648</ele>
        <time>2019-09-22T12:02:13.000Z</time>
      </trkpt>
      <trkpt lat="45.40569" lon="4.72828">
        <ele>269.20001220703</ele>
        <time>2019-09-22T12:02:21.000Z</time>
      </trkpt>
      <trkpt lat="45.4058" lon="4.72851">
        <ele>268.20001220703</ele>
        <time>2019-09-22T12:02:29.000Z</time>
      </trkpt>
      <trkpt lat="45.40591" lon="4.72875">
        <ele>266.79998779297</ele>
        <time>2019-09-22T12:02:37.000Z</time>
      </trkpt>
      <trkpt lat="45.40598" lon="4.72901">
        <ele>263.20001220703</ele>
        <time>2019-09-22T12:02:49.000Z</time>
      </trkpt>
      <trkpt lat="45.40606" lon="4.72926">
        <ele>260.20001220703</ele>
        <time>2019-09-22T12:02:57.000Z</time>
      </trkpt>
      <trkpt lat="45.40627" lon="4.72955">
        <ele>259.20001220703</ele>
        <time>2019-09-22T12:03:05.000Z</time>
      </trkpt>
      <trkpt lat="45.40645" lon="4.72951">
        <ele>261.79998779297</ele>
        <time>2019-09-22T12:03:13.000Z</time>
      </trkpt>
      <trkpt lat="45.4066" lon="4.72934">
        <ele>265.39999389648</ele>
        <time>2019-09-22T12:03:21.000Z</time>
      </trkpt>
      <trkpt lat="45.40676" lon="4.72919">
        <ele>268.60000610352</ele>
        <time>2019-09-22T12:03:27.000Z</time>
      </trkpt>
      <trkpt lat="45.40694" lon="4.72908">
        <ele>269.39999389648</ele>
        <time>2019-09-22T12:03:35.000Z</time>
      </trkpt>
      <trkpt lat="45.40713" lon="4.72897">
        <ele>269.60000610352</ele>
        <time>2019-09-22T12:03:47.000Z</time>
      </trkpt>
      <trkpt lat="45.40731" lon="4.72892">
        <ele>269.79998779297</ele>
        <time>2019-09-22T12:03:55.000Z</time>
      </trkpt>
      <trkpt lat="45.40747" lon="4.72909">
        <ele>267.20001220703</ele>
        <time>2019-09-22T12:04:03.000Z</time>
      </trkpt>
      <trkpt lat="45.4076" lon="4.72926">
        <ele>264.60000610352</ele>
        <time>2019-09-22T12:04:11.000Z</time>
      </trkpt>
      <trkpt lat="45.40773" lon="4.72909">
        <ele>265.39999389648</ele>
        <time>2019-09-22T12:04:19.000Z</time>
      </trkpt>
      <trkpt lat="45.40774" lon="4.72901">
        <ele>265.79998779297</ele>
        <time>2019-09-22T12:04:26.000Z</time>
      </trkpt>
      <trkpt lat="45.4078" lon="4.72862">
        <ele>268.39999389648</ele>
        <time>2019-09-22T12:04:33.000Z</time>
      </trkpt>
      <trkpt lat="45.40787" lon="4.72838">
        <ele>269.60000610352</ele>
        <time>2019-09-22T12:04:40.000Z</time>
      </trkpt>
      <trkpt lat="45.40793" lon="4.7281">
        <ele>270.39999389648</ele>
        <time>2019-09-22T12:04:42.000Z</time>
      </trkpt>
      <trkpt lat="45.40798" lon="4.72783">
        <ele>271.39999389648</ele>
        <time>2019-09-22T12:04:54.000Z</time>
      </trkpt>
      <trkpt lat="45.40803" lon="4.72755">
        <ele>272.79998779297</ele>
        <time>2019-09-22T12:05:03.000Z</time>
      </trkpt>
      <trkpt lat="45.4081" lon="4.72716">
        <ele>274.79998779297</ele>
        <time>2019-09-22T12:05:11.000Z</time>
      </trkpt>
      <trkpt lat="45.4081" lon="4.72689">
        <ele>278.39999389648</ele>
        <time>2019-09-22T12:05:19.000Z</time>
      </trkpt>
      <trkpt lat="45.40811" lon="4.72661">
        <ele>282</ele>
        <time>2019-09-22T12:05:26.000Z</time>
      </trkpt>
      <trkpt lat="45.40808" lon="4.72633">
        <ele>286</ele>
        <time>2019-09-22T12:05:34.000Z</time>
      </trkpt>
      <trkpt lat="45.40803" lon="4.72607">
        <ele>290.79998779297</ele>
        <time>2019-09-22T12:05:41.000Z</time>
      </trkpt>
      <trkpt lat="45.40798" lon="4.72587">
        <ele>293.39999389648</ele>
        <time>2019-09-22T12:05:48.000Z</time>
      </trkpt>
      <trkpt lat="45.40789" lon="4.72564">
        <ele>295.79998779297</ele>
        <time>2019-09-22T12:05:55.000Z</time>
      </trkpt>
      <trkpt lat="45.40771" lon="4.72531">
        <ele>298.39999389648</ele>
        <time>2019-09-22T12:06:06.000Z</time>
      </trkpt>
      <trkpt lat="45.40757" lon="4.72512">
        <ele>298.60000610352</ele>
        <time>2019-09-22T12:06:14.000Z</time>
      </trkpt>
      <trkpt lat="45.40749" lon="4.72487">
        <ele>299.39999389648</ele>
        <time>2019-09-22T12:06:21.000Z</time>
      </trkpt>
      <trkpt lat="45.40743" lon="4.7246">
        <ele>301</ele>
        <time>2019-09-22T12:06:29.000Z</time>
      </trkpt>
      <trkpt lat="45.40737" lon="4.72433">
        <ele>301.79998779297</ele>
        <time>2019-09-22T12:06:37.000Z</time>
      </trkpt>
      <trkpt lat="45.40739" lon="4.72407">
        <ele>303</ele>
        <time>2019-09-22T12:06:45.000Z</time>
      </trkpt>
      <trkpt lat="45.40741" lon="4.72381">
        <ele>303.79998779297</ele>
        <time>2019-09-22T12:06:53.000Z</time>
      </trkpt>
      <trkpt lat="45.40743" lon="4.72355">
        <ele>304.39999389648</ele>
        <time>2019-09-22T12:07:00.000Z</time>
      </trkpt>
      <trkpt lat="45.40743" lon="4.72348">
        <ele>304.60000610352</ele>
        <time>2019-09-22T12:07:15.000Z</time>
      </trkpt>
      <trkpt lat="45.40742" lon="4.72307">
        <ele>305.39999389648</ele>
        <time>2019-09-22T12:07:21.000Z</time>
      </trkpt>
      <trkpt lat="45.40743" lon="4.72279">
        <ele>306</ele>
        <time>2019-09-22T12:07:26.000Z</time>
      </trkpt>
      <trkpt lat="45.40744" lon="4.72252">
        <ele>307.79998779297</ele>
        <time>2019-09-22T12:07:32.000Z</time>
      </trkpt>
      <trkpt lat="45.4074" lon="4.72225">
        <ele>309.39999389648</ele>
        <time>2019-09-22T12:07:38.000Z</time>
      </trkpt>
      <trkpt lat="45.40731" lon="4.72203">
        <ele>309.60000610352</ele>
        <time>2019-09-22T12:07:44.000Z</time>
      </trkpt>
      <trkpt lat="45.40724" lon="4.72175">
        <ele>312.39999389648</ele>
        <time>2019-09-22T12:07:54.000Z</time>
      </trkpt>
      <trkpt lat="45.4072" lon="4.7215">
        <ele>315</ele>
        <time>2019-09-22T12:08:01.000Z</time>
      </trkpt>
      <trkpt lat="45.40716" lon="4.72124">
        <ele>317.60000610352</ele>
        <time>2019-09-22T12:08:08.000Z</time>
      </trkpt>
      <trkpt lat="45.40713" lon="4.72098">
        <ele>318.20001220703</ele>
        <time>2019-09-22T12:08:14.000Z</time>
      </trkpt>
      <trkpt lat="45.40714" lon="4.72057">
        <ele>319.39999389648</ele>
        <time>2019-09-22T12:08:20.000Z</time>
      </trkpt>
      <trkpt lat="45.40717" lon="4.72028">
        <ele>320</ele>
        <time>2019-09-22T12:08:26.000Z</time>
      </trkpt>
      <trkpt lat="45.40718" lon="4.72004">
        <ele>319.79998779297</ele>
        <time>2019-09-22T12:08:32.000Z</time>
      </trkpt>
      <trkpt lat="45.40716" lon="4.71975">
        <ele>320</ele>
        <time>2019-09-22T12:08:38.000Z</time>
      </trkpt>
      <trkpt lat="45.40714" lon="4.71948">
        <ele>320</ele>
        <time>2019-09-22T12:08:44.000Z</time>
      </trkpt>
      <trkpt lat="45.40711" lon="4.71922">
        <ele>320.20001220703</ele>
        <time>2019-09-22T12:08:50.000Z</time>
      </trkpt>
      <trkpt lat="45.40711" lon="4.71894">
        <ele>321</ele>
        <time>2019-09-22T12:08:56.000Z</time>
      </trkpt>
      <trkpt lat="45.40715" lon="4.71868">
        <ele>322</ele>
        <time>2019-09-22T12:09:02.000Z</time>
      </trkpt>
      <trkpt lat="45.40731" lon="4.71805">
        <ele>321.39999389648</ele>
        <time>2019-09-22T12:09:08.000Z</time>
      </trkpt>
      <trkpt lat="45.40737" lon="4.71776">
        <ele>321.60000610352</ele>
        <time>2019-09-22T12:09:18.000Z</time>
      </trkpt>
      <trkpt lat="45.40743" lon="4.71752">
        <ele>321.79998779297</ele>
        <time>2019-09-22T12:09:24.000Z</time>
      </trkpt>
      <trkpt lat="45.4075" lon="4.71723">
        <ele>321.60000610352</ele>
        <time>2019-09-22T12:09:30.000Z</time>
      </trkpt>
      <trkpt lat="45.40756" lon="4.71695">
        <ele>321.39999389648</ele>
        <time>2019-09-22T12:09:36.000Z</time>
      </trkpt>
      <trkpt lat="45.40758" lon="4.71667">
        <ele>322.20001220703</ele>
        <time>2019-09-22T12:09:43.000Z</time>
      </trkpt>
      <trkpt lat="45.40756" lon="4.71622">
        <ele>323.60000610352</ele>
        <time>2019-09-22T12:09:50.000Z</time>
      </trkpt>
      <trkpt lat="45.40754" lon="4.71593">
        <ele>324.60000610352</ele>
        <time>2019-09-22T12:09:57.000Z</time>
      </trkpt>
      <trkpt lat="45.40751" lon="4.71564">
        <ele>325.79998779297</ele>
        <time>2019-09-22T12:10:04.000Z</time>
      </trkpt>
      <trkpt lat="45.40749" lon="4.71538">
        <ele>326.60000610352</ele>
        <time>2019-09-22T12:10:15.000Z</time>
      </trkpt>
      <trkpt lat="45.40745" lon="4.71511">
        <ele>326.79998779297</ele>
        <time>2019-09-22T12:10:20.000Z</time>
      </trkpt>
      <trkpt lat="45.40739" lon="4.71483">
        <ele>327.20001220703</ele>
        <time>2019-09-22T12:10:27.000Z</time>
      </trkpt>
      <trkpt lat="45.40733" lon="4.71454">
        <ele>328</ele>
        <time>2019-09-22T12:10:33.000Z</time>
      </trkpt>
      <trkpt lat="45.40729" lon="4.71424">
        <ele>330</ele>
        <time>2019-09-22T12:10:39.000Z</time>
      </trkpt>
      <trkpt lat="45.40726" lon="4.71395">
        <ele>331.79998779297</ele>
        <time>2019-09-22T12:10:44.000Z</time>
      </trkpt>
      <trkpt lat="45.40725" lon="4.71365">
        <ele>333.39999389648</ele>
        <time>2019-09-22T12:10:49.000Z</time>
      </trkpt>
      <trkpt lat="45.40726" lon="4.71335">
        <ele>333.60000610352</ele>
        <time>2019-09-22T12:10:54.000Z</time>
      </trkpt>
      <trkpt lat="45.40728" lon="4.71308">
        <ele>333.79998779297</ele>
        <time>2019-09-22T12:10:59.000Z</time>
      </trkpt>
      <trkpt lat="45.40729" lon="4.7128">
        <ele>334.39999389648</ele>
        <time>2019-09-22T12:11:04.000Z</time>
      </trkpt>
      <trkpt lat="45.40731" lon="4.71235">
        <ele>334.79998779297</ele>
        <time>2019-09-22T12:11:09.000Z</time>
      </trkpt>
      <trkpt lat="45.40733" lon="4.71208">
        <ele>335.79998779297</ele>
        <time>2019-09-22T12:11:14.000Z</time>
      </trkpt>
      <trkpt lat="45.40735" lon="4.71182">
        <ele>337</ele>
        <time>2019-09-22T12:11:19.000Z</time>
      </trkpt>
      <trkpt lat="45.40736" lon="4.71155">
        <ele>338.39999389648</ele>
        <time>2019-09-22T12:11:24.000Z</time>
      </trkpt>
      <trkpt lat="45.40737" lon="4.71126">
        <ele>340.20001220703</ele>
        <time>2019-09-22T12:11:29.000Z</time>
      </trkpt>
      <trkpt lat="45.40738" lon="4.71098">
        <ele>341.39999389648</ele>
        <time>2019-09-22T12:11:35.000Z</time>
      </trkpt>
      <trkpt lat="45.4074" lon="4.7107">
        <ele>342.39999389648</ele>
        <time>2019-09-22T12:11:41.000Z</time>
      </trkpt>
      <trkpt lat="45.40742" lon="4.71041">
        <ele>343.20001220703</ele>
        <time>2019-09-22T12:11:47.000Z</time>
      </trkpt>
      <trkpt lat="45.40748" lon="4.70996">
        <ele>343.39999389648</ele>
        <time>2019-09-22T12:11:58.000Z</time>
      </trkpt>
      <trkpt lat="45.4075" lon="4.70975">
        <ele>343.39999389648</ele>
        <time>2019-09-22T12:12:05.000Z</time>
      </trkpt>
      <trkpt lat="45.40752" lon="4.70945">
        <ele>343.60000610352</ele>
        <time>2019-09-22T12:12:12.000Z</time>
      </trkpt>
      <trkpt lat="45.40753" lon="4.70917">
        <ele>343.79998779297</ele>
        <time>2019-09-22T12:12:19.000Z</time>
      </trkpt>
      <trkpt lat="45.40754" lon="4.70887">
        <ele>343.79998779297</ele>
        <time>2019-09-22T12:12:26.000Z</time>
      </trkpt>
      <trkpt lat="45.40755" lon="4.70861">
        <ele>343.60000610352</ele>
        <time>2019-09-22T12:12:33.000Z</time>
      </trkpt>
      <trkpt lat="45.40755" lon="4.70833">
        <ele>344</ele>
        <time>2019-09-22T12:12:40.000Z</time>
      </trkpt>
      <trkpt lat="45.40755" lon="4.70804">
        <ele>344.39999389648</ele>
        <time>2019-09-22T12:12:47.000Z</time>
      </trkpt>
      <trkpt lat="45.40756" lon="4.70774">
        <ele>344.79998779297</ele>
        <time>2019-09-22T12:12:54.000Z</time>
      </trkpt>
      <trkpt lat="45.40756" lon="4.70746">
        <ele>345.39999389648</ele>
        <time>2019-09-22T12:13:01.000Z</time>
      </trkpt>
      <trkpt lat="45.40755" lon="4.70717">
        <ele>346.60000610352</ele>
        <time>2019-09-22T12:13:08.000Z</time>
      </trkpt>
      <trkpt lat="45.40753" lon="4.70689">
        <ele>347.60000610352</ele>
        <time>2019-09-22T12:13:16.000Z</time>
      </trkpt>
      <trkpt lat="45.40751" lon="4.70661">
        <ele>348.60000610352</ele>
        <time>2019-09-22T12:13:23.000Z</time>
      </trkpt>
      <trkpt lat="45.40751" lon="4.70634">
        <ele>349.20001220703</ele>
        <time>2019-09-22T12:13:57.000Z</time>
      </trkpt>
      <trkpt lat="45.40753" lon="4.70608">
        <ele>349.79998779297</ele>
        <time>2019-09-22T12:14:04.000Z</time>
      </trkpt>
      <trkpt lat="45.40754" lon="4.70578">
        <ele>350</ele>
        <time>2019-09-22T12:14:10.000Z</time>
      </trkpt>
      <trkpt lat="45.40756" lon="4.7055">
        <ele>350.60000610352</ele>
        <time>2019-09-22T12:14:16.000Z</time>
      </trkpt>
      <trkpt lat="45.40758" lon="4.70524">
        <ele>351.39999389648</ele>
        <time>2019-09-22T12:14:21.000Z</time>
      </trkpt>
      <trkpt lat="45.40759" lon="4.70481">
        <ele>353</ele>
        <time>2019-09-22T12:14:26.000Z</time>
      </trkpt>
      <trkpt lat="45.40758" lon="4.70453">
        <ele>354</ele>
        <time>2019-09-22T12:14:31.000Z</time>
      </trkpt>
      <trkpt lat="45.40756" lon="4.70425">
        <ele>355</ele>
        <time>2019-09-22T12:14:36.000Z</time>
      </trkpt>
      <trkpt lat="45.40754" lon="4.70397">
        <ele>355.79998779297</ele>
        <time>2019-09-22T12:14:41.000Z</time>
      </trkpt>
      <trkpt lat="45.40752" lon="4.70369">
        <ele>356.60000610352</ele>
        <time>2019-09-22T12:14:46.000Z</time>
      </trkpt>
      <trkpt lat="45.4075" lon="4.70341">
        <ele>358</ele>
        <time>2019-09-22T12:14:50.000Z</time>
      </trkpt>
      <trkpt lat="45.40745" lon="4.70314">
        <ele>359.20001220703</ele>
        <time>2019-09-22T12:14:54.000Z</time>
      </trkpt>
      <trkpt lat="45.40737" lon="4.70288">
        <ele>360.20001220703</ele>
        <time>2019-09-22T12:14:58.000Z</time>
      </trkpt>
      <trkpt lat="45.40729" lon="4.70263">
        <ele>361.39999389648</ele>
        <time>2019-09-22T12:14:59.000Z</time>
      </trkpt>
      <trkpt lat="45.40721" lon="4.70238">
        <ele>362.60000610352</ele>
        <time>2019-09-22T12:15:03.000Z</time>
      </trkpt>
      <trkpt lat="45.40717" lon="4.70212">
        <ele>363.60000610352</ele>
        <time>2019-09-22T12:15:07.000Z</time>
      </trkpt>
      <trkpt lat="45.40727" lon="4.70188">
        <ele>364.60000610352</ele>
        <time>2019-09-22T12:15:11.000Z</time>
      </trkpt>
      <trkpt lat="45.40734" lon="4.70172">
        <ele>365.39999389648</ele>
        <time>2019-09-22T12:15:15.000Z</time>
      </trkpt>
      <trkpt lat="45.40742" lon="4.70147">
        <ele>366.79998779297</ele>
        <time>2019-09-22T12:15:20.000Z</time>
      </trkpt>
      <trkpt lat="45.40751" lon="4.70121">
        <ele>367</ele>
        <time>2019-09-22T12:15:25.000Z</time>
      </trkpt>
      <trkpt lat="45.40759" lon="4.70096">
        <ele>367.39999389648</ele>
        <time>2019-09-22T12:15:30.000Z</time>
      </trkpt>
      <trkpt lat="45.40768" lon="4.7007">
        <ele>366.79998779297</ele>
        <time>2019-09-22T12:15:35.000Z</time>
      </trkpt>
      <trkpt lat="45.40776" lon="4.70047">
        <ele>365.39999389648</ele>
        <time>2019-09-22T12:15:40.000Z</time>
      </trkpt>
      <trkpt lat="45.40785" lon="4.70023">
        <ele>364</ele>
        <time>2019-09-22T12:15:45.000Z</time>
      </trkpt>
      <trkpt lat="45.40794" lon="4.69998">
        <ele>364.39999389648</ele>
        <time>2019-09-22T12:15:50.000Z</time>
      </trkpt>
      <trkpt lat="45.40803" lon="4.69972">
        <ele>365</ele>
        <time>2019-09-22T12:15:56.000Z</time>
      </trkpt>
      <trkpt lat="45.40813" lon="4.69945">
        <ele>365.20001220703</ele>
        <time>2019-09-22T12:16:02.000Z</time>
      </trkpt>
      <trkpt lat="45.40823" lon="4.69917">
        <ele>365.60000610352</ele>
        <time>2019-09-22T12:16:07.000Z</time>
      </trkpt>
      <trkpt lat="45.4083" lon="4.69893">
        <ele>365.79998779297</ele>
        <time>2019-09-22T12:16:17.000Z</time>
      </trkpt>
      <trkpt lat="45.40839" lon="4.6987">
        <ele>366.20001220703</ele>
        <time>2019-09-22T12:16:23.000Z</time>
      </trkpt>
      <trkpt lat="45.40846" lon="4.69846">
        <ele>366.20001220703</ele>
        <time>2019-09-22T12:16:29.000Z</time>
      </trkpt>
      <trkpt lat="45.40848" lon="4.6984">
        <ele>366.20001220703</ele>
        <time>2019-09-22T12:16:35.000Z</time>
      </trkpt>
      <trkpt lat="45.40857" lon="4.69817">
        <ele>366.79998779297</ele>
        <time>2019-09-22T12:16:42.000Z</time>
      </trkpt>
      <trkpt lat="45.40866" lon="4.69793">
        <ele>367.39999389648</ele>
        <time>2019-09-22T12:16:49.000Z</time>
      </trkpt>
      <trkpt lat="45.40874" lon="4.69769">
        <ele>367.79998779297</ele>
        <time>2019-09-22T12:16:56.000Z</time>
      </trkpt>
      <trkpt lat="45.40883" lon="4.69747">
        <ele>368</ele>
        <time>2019-09-22T12:17:03.000Z</time>
      </trkpt>
      <trkpt lat="45.40895" lon="4.69722">
        <ele>368.39999389648</ele>
        <time>2019-09-22T12:17:09.000Z</time>
      </trkpt>
      <trkpt lat="45.4091" lon="4.69701">
        <ele>369</ele>
        <time>2019-09-22T12:17:15.000Z</time>
      </trkpt>
      <trkpt lat="45.40926" lon="4.69683">
        <ele>370</ele>
        <time>2019-09-22T12:17:21.000Z</time>
      </trkpt>
      <trkpt lat="45.4094" lon="4.69665">
        <ele>370.79998779297</ele>
        <time>2019-09-22T12:17:27.000Z</time>
      </trkpt>
      <trkpt lat="45.40954" lon="4.69647">
        <ele>371.79998779297</ele>
        <time>2019-09-22T12:17:37.000Z</time>
      </trkpt>
      <trkpt lat="45.40967" lon="4.69629">
        <ele>372.60000610352</ele>
        <time>2019-09-22T12:17:44.000Z</time>
      </trkpt>
      <trkpt lat="45.40981" lon="4.69613">
        <ele>373.39999389648</ele>
        <time>2019-09-22T12:17:51.000Z</time>
      </trkpt>
      <trkpt lat="45.40997" lon="4.69594">
        <ele>374.20001220703</ele>
        <time>2019-09-22T12:17:58.000Z</time>
      </trkpt>
      <trkpt lat="45.41015" lon="4.69578">
        <ele>375</ele>
        <time>2019-09-22T12:18:05.000Z</time>
      </trkpt>
      <trkpt lat="45.41032" lon="4.69567">
        <ele>375.60000610352</ele>
        <time>2019-09-22T12:18:12.000Z</time>
      </trkpt>
      <trkpt lat="45.41063" lon="4.6955">
        <ele>377.20001220703</ele>
        <time>2019-09-22T12:18:19.000Z</time>
      </trkpt>
      <trkpt lat="45.41082" lon="4.69541">
        <ele>378.79998779297</ele>
        <time>2019-09-22T12:18:26.000Z</time>
      </trkpt>
      <trkpt lat="45.41101" lon="4.69539">
        <ele>380</ele>
        <time>2019-09-22T12:18:37.000Z</time>
      </trkpt>
      <trkpt lat="45.4112" lon="4.69542">
        <ele>381</ele>
        <time>2019-09-22T12:18:44.000Z</time>
      </trkpt>
      <trkpt lat="45.41139" lon="4.69541">
        <ele>382.20001220703</ele>
        <time>2019-09-22T12:18:51.000Z</time>
      </trkpt>
      <trkpt lat="45.41156" lon="4.69531">
        <ele>383.60000610352</ele>
        <time>2019-09-22T12:18:58.000Z</time>
      </trkpt>
      <trkpt lat="45.41174" lon="4.69534">
        <ele>384.60000610352</ele>
        <time>2019-09-22T12:19:05.000Z</time>
      </trkpt>
      <trkpt lat="45.41186" lon="4.69554">
        <ele>384.60000610352</ele>
        <time>2019-09-22T12:19:12.000Z</time>
      </trkpt>
      <trkpt lat="45.41196" lon="4.69575">
        <ele>384.39999389648</ele>
        <time>2019-09-22T12:19:19.000Z</time>
      </trkpt>
      <trkpt lat="45.4121" lon="4.69595">
        <ele>384.60000610352</ele>
        <time>2019-09-22T12:19:30.000Z</time>
      </trkpt>
      <trkpt lat="45.41226" lon="4.6961">
        <ele>384.60000610352</ele>
        <time>2019-09-22T12:19:37.000Z</time>
      </trkpt>
      <trkpt lat="45.41242" lon="4.69622">
        <ele>384.60000610352</ele>
        <time>2019-09-22T12:19:44.000Z</time>
      </trkpt>
      <trkpt lat="45.41271" lon="4.69632">
        <ele>384.79998779297</ele>
        <time>2019-09-22T12:19:51.000Z</time>
      </trkpt>
      <trkpt lat="45.41292" lon="4.69631">
        <ele>385.39999389648</ele>
        <time>2019-09-22T12:19:58.000Z</time>
      </trkpt>
      <trkpt lat="45.4131" lon="4.69622">
        <ele>385</ele>
        <time>2019-09-22T12:20:05.000Z</time>
      </trkpt>
      <trkpt lat="45.41322" lon="4.69599">
        <ele>385</ele>
        <time>2019-09-22T12:20:11.000Z</time>
      </trkpt>
      <trkpt lat="45.41328" lon="4.69573">
        <ele>385.60000610352</ele>
        <time>2019-09-22T12:20:18.000Z</time>
      </trkpt>
      <trkpt lat="45.41332" lon="4.69546">
        <ele>386</ele>
        <time>2019-09-22T12:20:28.000Z</time>
      </trkpt>
      <trkpt lat="45.41336" lon="4.69519">
        <ele>387</ele>
        <time>2019-09-22T12:20:30.000Z</time>
      </trkpt>
      <trkpt lat="45.41339" lon="4.69491">
        <ele>388.39999389648</ele>
        <time>2019-09-22T12:20:35.000Z</time>
      </trkpt>
      <trkpt lat="45.41346" lon="4.69447">
        <ele>390.39999389648</ele>
        <time>2019-09-22T12:20:39.000Z</time>
      </trkpt>
      <trkpt lat="45.41351" lon="4.69419">
        <ele>391.79998779297</ele>
        <time>2019-09-22T12:20:43.000Z</time>
      </trkpt>
      <trkpt lat="45.41356" lon="4.69392">
        <ele>393.39999389648</ele>
        <time>2019-09-22T12:20:47.000Z</time>
      </trkpt>
      <trkpt lat="45.41361" lon="4.69364">
        <ele>395</ele>
        <time>2019-09-22T12:20:51.000Z</time>
      </trkpt>
      <trkpt lat="45.41365" lon="4.69337">
        <ele>397.20001220703</ele>
        <time>2019-09-22T12:20:54.000Z</time>
      </trkpt>
      <trkpt lat="45.41372" lon="4.6931">
        <ele>398.79998779297</ele>
        <time>2019-09-22T12:20:57.000Z</time>
      </trkpt>
      <trkpt lat="45.41378" lon="4.69283">
        <ele>400.60000610352</ele>
        <time>2019-09-22T12:21:00.000Z</time>
      </trkpt>
      <trkpt lat="45.41387" lon="4.6924">
        <ele>400.60000610352</ele>
        <time>2019-09-22T12:21:03.000Z</time>
      </trkpt>
      <trkpt lat="45.41392" lon="4.69211">
        <ele>400.60000610352</ele>
        <time>2019-09-22T12:21:06.000Z</time>
      </trkpt>
      <trkpt lat="45.41394" lon="4.69183">
        <ele>401.60000610352</ele>
        <time>2019-09-22T12:21:09.000Z</time>
      </trkpt>
      <trkpt lat="45.41395" lon="4.69153">
        <ele>402.20001220703</ele>
        <time>2019-09-22T12:21:11.000Z</time>
      </trkpt>
      <trkpt lat="45.41396" lon="4.69124">
        <ele>403</ele>
        <time>2019-09-22T12:21:13.000Z</time>
      </trkpt>
      <trkpt lat="45.41398" lon="4.69094">
        <ele>402.79998779297</ele>
        <time>2019-09-22T12:21:15.000Z</time>
      </trkpt>
      <trkpt lat="45.41399" lon="4.69067">
        <ele>402.20001220703</ele>
        <time>2019-09-22T12:21:17.000Z</time>
      </trkpt>
      <trkpt lat="45.414" lon="4.69038">
        <ele>401.60000610352</ele>
        <time>2019-09-22T12:21:19.000Z</time>
      </trkpt>
      <trkpt lat="45.41401" lon="4.68994">
        <ele>401</ele>
        <time>2019-09-22T12:21:21.000Z</time>
      </trkpt>
      <trkpt lat="45.41402" lon="4.68984">
        <ele>400.79998779297</ele>
        <time>2019-09-22T12:21:23.000Z</time>
      </trkpt>
      <trkpt lat="45.41402" lon="4.68955">
        <ele>399.39999389648</ele>
        <time>2019-09-22T12:21:25.000Z</time>
      </trkpt>
      <trkpt lat="45.41404" lon="4.68929">
        <ele>398.79998779297</ele>
        <time>2019-09-22T12:21:26.000Z</time>
      </trkpt>
      <trkpt lat="45.41405" lon="4.68902">
        <ele>398.20001220703</ele>
        <time>2019-09-22T12:21:28.000Z</time>
      </trkpt>
      <trkpt lat="45.41408" lon="4.68872">
        <ele>397.20001220703</ele>
        <time>2019-09-22T12:21:30.000Z</time>
      </trkpt>
      <trkpt lat="45.41409" lon="4.6884">
        <ele>396.79998779297</ele>
        <time>2019-09-22T12:21:32.000Z</time>
      </trkpt>
      <trkpt lat="45.41411" lon="4.68812">
        <ele>396.39999389648</ele>
        <time>2019-09-22T12:21:33.000Z</time>
      </trkpt>
      <trkpt lat="45.41413" lon="4.68783">
        <ele>396.20001220703</ele>
        <time>2019-09-22T12:21:34.000Z</time>
      </trkpt>
      <trkpt lat="45.41415" lon="4.68754">
        <ele>395.79998779297</ele>
        <time>2019-09-22T12:21:37.000Z</time>
      </trkpt>
      <trkpt lat="45.41419" lon="4.68723">
        <ele>394</ele>
        <time>2019-09-22T12:21:40.000Z</time>
      </trkpt>
      <trkpt lat="45.41425" lon="4.6869">
        <ele>392.39999389648</ele>
        <time>2019-09-22T12:21:43.000Z</time>
      </trkpt>
      <trkpt lat="45.41432" lon="4.68654">
        <ele>390.79998779297</ele>
        <time>2019-09-22T12:21:44.000Z</time>
      </trkpt>
      <trkpt lat="45.41437" lon="4.68629">
        <ele>388</ele>
        <time>2019-09-22T12:21:46.000Z</time>
      </trkpt>
      <trkpt lat="45.41442" lon="4.68603">
        <ele>386.39999389648</ele>
        <time>2019-09-22T12:21:49.000Z</time>
      </trkpt>
      <trkpt lat="45.41447" lon="4.68577">
        <ele>384.79998779297</ele>
        <time>2019-09-22T12:21:50.000Z</time>
      </trkpt>
      <trkpt lat="45.41453" lon="4.6855">
        <ele>383.20001220703</ele>
        <time>2019-09-22T12:21:51.000Z</time>
      </trkpt>
      <trkpt lat="45.4146" lon="4.68524">
        <ele>381.79998779297</ele>
        <time>2019-09-22T12:21:54.000Z</time>
      </trkpt>
      <trkpt lat="45.41468" lon="4.68498">
        <ele>381.79998779297</ele>
        <time>2019-09-22T12:21:57.000Z</time>
      </trkpt>
      <trkpt lat="45.41477" lon="4.68472">
        <ele>383.20001220703</ele>
        <time>2019-09-22T12:22:01.000Z</time>
      </trkpt>
      <trkpt lat="45.41488" lon="4.68447">
        <ele>384</ele>
        <time>2019-09-22T12:22:05.000Z</time>
      </trkpt>
      <trkpt lat="45.41493" lon="4.68434">
        <ele>384.20001220703</ele>
        <time>2019-09-22T12:22:09.000Z</time>
      </trkpt>
      <trkpt lat="45.41499" lon="4.68407">
        <ele>385.20001220703</ele>
        <time>2019-09-22T12:22:15.000Z</time>
      </trkpt>
      <trkpt lat="45.41499" lon="4.68378">
        <ele>387.20001220703</ele>
        <time>2019-09-22T12:22:21.000Z</time>
      </trkpt>
      <trkpt lat="45.41495" lon="4.68351">
        <ele>389</ele>
        <time>2019-09-22T12:22:27.000Z</time>
      </trkpt>
      <trkpt lat="45.41492" lon="4.68339">
        <ele>389.79998779297</ele>
        <time>2019-09-22T12:22:33.000Z</time>
      </trkpt>
      <trkpt lat="45.4149" lon="4.68327">
        <ele>390.60000610352</ele>
        <time>2019-09-22T12:22:40.000Z</time>
      </trkpt>
      <trkpt lat="45.41497" lon="4.68297">
        <ele>391.60000610352</ele>
        <time>2019-09-22T12:22:47.000Z</time>
      </trkpt>
      <trkpt lat="45.4152" lon="4.68301">
        <ele>390.20001220703</ele>
        <time>2019-09-22T12:22:54.000Z</time>
      </trkpt>
      <trkpt lat="45.41535" lon="4.68332">
        <ele>388.20001220703</ele>
        <time>2019-09-22T12:23:01.000Z</time>
      </trkpt>
      <trkpt lat="45.41539" lon="4.68345">
        <ele>387.39999389648</ele>
        <time>2019-09-22T12:23:06.000Z</time>
      </trkpt>
      <trkpt lat="45.41546" lon="4.68369">
        <ele>386.20001220703</ele>
        <time>2019-09-22T12:23:15.000Z</time>
      </trkpt>
      <trkpt lat="45.41559" lon="4.68398">
        <ele>387</ele>
        <time>2019-09-22T12:23:20.000Z</time>
      </trkpt>
      <trkpt lat="45.41565" lon="4.68407">
        <ele>388.20001220703</ele>
        <time>2019-09-22T12:23:25.000Z</time>
      </trkpt>
      <trkpt lat="45.41572" lon="4.68415">
        <ele>389.39999389648</ele>
        <time>2019-09-22T12:23:27.000Z</time>
      </trkpt>
      <trkpt lat="45.41592" lon="4.68437">
        <ele>393.60000610352</ele>
        <time>2019-09-22T12:23:31.000Z</time>
      </trkpt>
      <trkpt lat="45.41594" lon="4.68467">
        <ele>392.39999389648</ele>
        <time>2019-09-22T12:23:38.000Z</time>
      </trkpt>
      <trkpt lat="45.41594" lon="4.685">
        <ele>391.39999389648</ele>
        <time>2019-09-22T12:23:45.000Z</time>
      </trkpt>
      <trkpt lat="45.41593" lon="4.68531">
        <ele>389.60000610352</ele>
        <time>2019-09-22T12:23:52.000Z</time>
      </trkpt>
      <trkpt lat="45.41588" lon="4.68558">
        <ele>386.79998779297</ele>
        <time>2019-09-22T12:23:59.000Z</time>
      </trkpt>
      <trkpt lat="45.41582" lon="4.68589">
        <ele>384.60000610352</ele>
        <time>2019-09-22T12:24:06.000Z</time>
      </trkpt>
      <trkpt lat="45.41585" lon="4.68618">
        <ele>385.79998779297</ele>
        <time>2019-09-22T12:24:13.000Z</time>
      </trkpt>
      <trkpt lat="45.41591" lon="4.68645">
        <ele>386.60000610352</ele>
        <time>2019-09-22T12:24:24.000Z</time>
      </trkpt>
      <trkpt lat="45.41596" lon="4.68668">
        <ele>387.20001220703</ele>
        <time>2019-09-22T12:24:31.000Z</time>
      </trkpt>
      <trkpt lat="45.41602" lon="4.68693">
        <ele>389</ele>
        <time>2019-09-22T12:24:38.000Z</time>
      </trkpt>
      <trkpt lat="45.41609" lon="4.68719">
        <ele>389.60000610352</ele>
        <time>2019-09-22T12:24:45.000Z</time>
      </trkpt>
      <trkpt lat="45.41617" lon="4.68745">
        <ele>389.60000610352</ele>
        <time>2019-09-22T12:24:52.000Z</time>
      </trkpt>
      <trkpt lat="45.41627" lon="4.68768">
        <ele>390.20001220703</ele>
        <time>2019-09-22T12:25:00.000Z</time>
      </trkpt>
      <trkpt lat="45.41639" lon="4.68769">
        <ele>391.20001220703</ele>
        <time>2019-09-22T12:25:07.000Z</time>
      </trkpt>
      <trkpt lat="45.41639" lon="4.68736">
        <ele>393.20001220703</ele>
        <time>2019-09-22T12:25:14.000Z</time>
      </trkpt>
      <trkpt lat="45.41635" lon="4.68719">
        <ele>394.20001220703</ele>
        <time>2019-09-22T12:25:25.000Z</time>
      </trkpt>
      <trkpt lat="45.41632" lon="4.68703">
        <ele>395</ele>
        <time>2019-09-22T12:25:32.000Z</time>
      </trkpt>
      <trkpt lat="45.41631" lon="4.68696">
        <ele>395</ele>
        <time>2019-09-22T12:25:33.000Z</time>
      </trkpt>
      <trkpt lat="45.4163" lon="4.68682">
        <ele>395</ele>
        <time>2019-09-22T12:25:37.000Z</time>
      </trkpt>
      <trkpt lat="45.41631" lon="4.68655">
        <ele>395.79998779297</ele>
        <time>2019-09-22T12:26:33.000Z</time>
      </trkpt>
      <trkpt lat="45.41635" lon="4.68629">
        <ele>396.79998779297</ele>
        <time>2019-09-22T12:26:43.000Z</time>
      </trkpt>
      <trkpt lat="45.4164" lon="4.68602">
        <ele>398.20001220703</ele>
        <time>2019-09-22T12:26:50.000Z</time>
      </trkpt>
      <trkpt lat="45.41645" lon="4.68575">
        <ele>399.79998779297</ele>
        <time>2019-09-22T12:26:56.000Z</time>
      </trkpt>
      <trkpt lat="45.41651" lon="4.68548">
        <ele>401.20001220703</ele>
        <time>2019-09-22T12:27:00.000Z</time>
      </trkpt>
      <trkpt lat="45.41656" lon="4.68522">
        <ele>402.39999389648</ele>
        <time>2019-09-22T12:27:04.000Z</time>
      </trkpt>
      <trkpt lat="45.41671" lon="4.68485">
        <ele>404.39999389648</ele>
        <time>2019-09-22T12:27:05.000Z</time>
      </trkpt>
      <trkpt lat="45.41684" lon="4.68466">
        <ele>406.39999389648</ele>
        <time>2019-09-22T12:27:09.000Z</time>
      </trkpt>
      <trkpt lat="45.41697" lon="4.68447">
        <ele>408</ele>
        <time>2019-09-22T12:27:13.000Z</time>
      </trkpt>
      <trkpt lat="45.41709" lon="4.68429">
        <ele>409.79998779297</ele>
        <time>2019-09-22T12:27:16.000Z</time>
      </trkpt>
      <trkpt lat="45.41723" lon="4.68411">
        <ele>411.79998779297</ele>
        <time>2019-09-22T12:27:19.000Z</time>
      </trkpt>
      <trkpt lat="45.41737" lon="4.6839">
        <ele>413.39999389648</ele>
        <time>2019-09-22T12:27:22.000Z</time>
      </trkpt>
      <trkpt lat="45.4175" lon="4.68372">
        <ele>415.39999389648</ele>
        <time>2019-09-22T12:27:25.000Z</time>
      </trkpt>
      <trkpt lat="45.41763" lon="4.68354">
        <ele>417.20001220703</ele>
        <time>2019-09-22T12:27:28.000Z</time>
      </trkpt>
      <trkpt lat="45.41783" lon="4.68327">
        <ele>419.20001220703</ele>
        <time>2019-09-22T12:27:30.000Z</time>
      </trkpt>
      <trkpt lat="45.41798" lon="4.6831">
        <ele>420.20001220703</ele>
        <time>2019-09-22T12:27:34.000Z</time>
      </trkpt>
      <trkpt lat="45.418" lon="4.68309">
        <ele>420</ele>
        <time>2019-09-22T12:27:38.000Z</time>
      </trkpt>
      <trkpt lat="45.41808" lon="4.68316">
        <ele>419.39999389648</ele>
        <time>2019-09-22T12:27:42.000Z</time>
      </trkpt>
      <trkpt lat="45.41824" lon="4.68312">
        <ele>418.79998779297</ele>
        <time>2019-09-22T12:27:46.000Z</time>
      </trkpt>
      <trkpt lat="45.41839" lon="4.68296">
        <ele>418.39999389648</ele>
        <time>2019-09-22T12:27:51.000Z</time>
      </trkpt>
      <trkpt lat="45.41855" lon="4.6828">
        <ele>417.79998779297</ele>
        <time>2019-09-22T12:27:56.000Z</time>
      </trkpt>
      <trkpt lat="45.41877" lon="4.68261">
        <ele>416.79998779297</ele>
        <time>2019-09-22T12:27:58.000Z</time>
      </trkpt>
      <trkpt lat="45.41895" lon="4.68246">
        <ele>416.39999389648</ele>
        <time>2019-09-22T12:28:00.000Z</time>
      </trkpt>
      <trkpt lat="45.41914" lon="4.6823">
        <ele>415.60000610352</ele>
        <time>2019-09-22T12:28:02.000Z</time>
      </trkpt>
      <trkpt lat="45.41919" lon="4.68227">
        <ele>415.39999389648</ele>
        <time>2019-09-22T12:28:06.000Z</time>
      </trkpt>
      <trkpt lat="45.41942" lon="4.68219">
        <ele>413.60000610352</ele>
        <time>2019-09-22T12:28:10.000Z</time>
      </trkpt>
      <trkpt lat="45.41964" lon="4.68206">
        <ele>412.20001220703</ele>
        <time>2019-09-22T12:28:14.000Z</time>
      </trkpt>
      <trkpt lat="45.41979" lon="4.68191">
        <ele>412.20001220703</ele>
        <time>2019-09-22T12:28:18.000Z</time>
      </trkpt>
      <trkpt lat="45.41991" lon="4.68171">
        <ele>413</ele>
        <time>2019-09-22T12:28:22.000Z</time>
      </trkpt>
      <trkpt lat="45.42003" lon="4.68149">
        <ele>414.20001220703</ele>
        <time>2019-09-22T12:28:26.000Z</time>
      </trkpt>
      <trkpt lat="45.42015" lon="4.68127">
        <ele>416.20001220703</ele>
        <time>2019-09-22T12:28:30.000Z</time>
      </trkpt>
      <trkpt lat="45.42026" lon="4.68107">
        <ele>417.79998779297</ele>
        <time>2019-09-22T12:28:34.000Z</time>
      </trkpt>
      <trkpt lat="45.42034" lon="4.68095">
        <ele>418.39999389648</ele>
        <time>2019-09-22T12:28:38.000Z</time>
      </trkpt>
      <trkpt lat="45.42056" lon="4.68082">
        <ele>419.20001220703</ele>
        <time>2019-09-22T12:28:41.000Z</time>
      </trkpt>
      <trkpt lat="45.42077" lon="4.68073">
        <ele>419.39999389648</ele>
        <time>2019-09-22T12:28:44.000Z</time>
      </trkpt>
      <trkpt lat="45.42097" lon="4.68065">
        <ele>419.79998779297</ele>
        <time>2019-09-22T12:28:47.000Z</time>
      </trkpt>
      <trkpt lat="45.42115" lon="4.68057">
        <ele>420</ele>
        <time>2019-09-22T12:28:50.000Z</time>
      </trkpt>
      <trkpt lat="45.42136" lon="4.68049">
        <ele>420.20001220703</ele>
        <time>2019-09-22T12:28:53.000Z</time>
      </trkpt>
      <trkpt lat="45.42156" lon="4.68036">
        <ele>420.79998779297</ele>
        <time>2019-09-22T12:28:57.000Z</time>
      </trkpt>
      <trkpt lat="45.42164" lon="4.6803">
        <ele>421</ele>
        <time>2019-09-22T12:29:01.000Z</time>
      </trkpt>
      <trkpt lat="45.42171" lon="4.68023">
        <ele>421.39999389648</ele>
        <time>2019-09-22T12:29:06.000Z</time>
      </trkpt>
      <trkpt lat="45.42179" lon="4.68017">
        <ele>421.79998779297</ele>
        <time>2019-09-22T12:29:11.000Z</time>
      </trkpt>
      <trkpt lat="45.42197" lon="4.68011">
        <ele>422</ele>
        <time>2019-09-22T12:29:16.000Z</time>
      </trkpt>
      <trkpt lat="45.42216" lon="4.68007">
        <ele>421.79998779297</ele>
        <time>2019-09-22T12:29:18.000Z</time>
      </trkpt>
      <trkpt lat="45.42236" lon="4.68005">
        <ele>421.39999389648</ele>
        <time>2019-09-22T12:29:20.000Z</time>
      </trkpt>
      <trkpt lat="45.42256" lon="4.68001">
        <ele>421.20001220703</ele>
        <time>2019-09-22T12:29:29.000Z</time>
      </trkpt>
      <trkpt lat="45.42276" lon="4.67999">
        <ele>420.39999389648</ele>
        <time>2019-09-22T12:29:34.000Z</time>
      </trkpt>
      <trkpt lat="45.42297" lon="4.67996">
        <ele>419.60000610352</ele>
        <time>2019-09-22T12:29:39.000Z</time>
      </trkpt>
      <trkpt lat="45.42318" lon="4.67991">
        <ele>419.20001220703</ele>
        <time>2019-09-22T12:29:44.000Z</time>
      </trkpt>
      <trkpt lat="45.42339" lon="4.67985">
        <ele>418.79998779297</ele>
        <time>2019-09-22T12:29:49.000Z</time>
      </trkpt>
      <trkpt lat="45.4236" lon="4.67975">
        <ele>418.20001220703</ele>
        <time>2019-09-22T12:29:54.000Z</time>
      </trkpt>
      <trkpt lat="45.42376" lon="4.67963">
        <ele>418</ele>
        <time>2019-09-22T12:29:58.000Z</time>
      </trkpt>
      <trkpt lat="45.42393" lon="4.67951">
        <ele>418</ele>
        <time>2019-09-22T12:30:02.000Z</time>
      </trkpt>
      <trkpt lat="45.42411" lon="4.67938">
        <ele>418.60000610352</ele>
        <time>2019-09-22T12:30:06.000Z</time>
      </trkpt>
      <trkpt lat="45.4243" lon="4.67924">
        <ele>419</ele>
        <time>2019-09-22T12:30:10.000Z</time>
      </trkpt>
      <trkpt lat="45.42449" lon="4.67912">
        <ele>419.39999389648</ele>
        <time>2019-09-22T12:30:13.000Z</time>
      </trkpt>
      <trkpt lat="45.4247" lon="4.67898">
        <ele>420</ele>
        <time>2019-09-22T12:30:17.000Z</time>
      </trkpt>
      <trkpt lat="45.42488" lon="4.67888">
        <ele>420.60000610352</ele>
        <time>2019-09-22T12:30:21.000Z</time>
      </trkpt>
      <trkpt lat="45.42506" lon="4.67878">
        <ele>421.20001220703</ele>
        <time>2019-09-22T12:30:25.000Z</time>
      </trkpt>
      <trkpt lat="45.42524" lon="4.67868">
        <ele>421.79998779297</ele>
        <time>2019-09-22T12:30:28.000Z</time>
      </trkpt>
      <trkpt lat="45.42542" lon="4.6786">
        <ele>422.20001220703</ele>
        <time>2019-09-22T12:30:32.000Z</time>
      </trkpt>
      <trkpt lat="45.42549" lon="4.67856">
        <ele>422.39999389648</ele>
        <time>2019-09-22T12:30:35.000Z</time>
      </trkpt>
      <trkpt lat="45.42556" lon="4.6785">
        <ele>422.20001220703</ele>
        <time>2019-09-22T12:30:38.000Z</time>
      </trkpt>
      <trkpt lat="45.42581" lon="4.67816">
        <ele>422</ele>
        <time>2019-09-22T12:30:42.000Z</time>
      </trkpt>
      <trkpt lat="45.42595" lon="4.67798">
        <ele>422.60000610352</ele>
        <time>2019-09-22T12:30:47.000Z</time>
      </trkpt>
      <trkpt lat="45.42609" lon="4.67779">
        <ele>423.20001220703</ele>
        <time>2019-09-22T12:30:52.000Z</time>
      </trkpt>
      <trkpt lat="45.42623" lon="4.6776">
        <ele>423.39999389648</ele>
        <time>2019-09-22T12:30:57.000Z</time>
      </trkpt>
      <trkpt lat="45.42637" lon="4.67741">
        <ele>423.20001220703</ele>
        <time>2019-09-22T12:31:02.000Z</time>
      </trkpt>
      <trkpt lat="45.42653" lon="4.67721">
        <ele>422.60000610352</ele>
        <time>2019-09-22T12:31:07.000Z</time>
      </trkpt>
      <trkpt lat="45.42667" lon="4.67701">
        <ele>422.20001220703</ele>
        <time>2019-09-22T12:31:10.000Z</time>
      </trkpt>
      <trkpt lat="45.42682" lon="4.67681">
        <ele>421.60000610352</ele>
        <time>2019-09-22T12:31:15.000Z</time>
      </trkpt>
      <trkpt lat="45.42697" lon="4.67661">
        <ele>421.60000610352</ele>
        <time>2019-09-22T12:31:19.000Z</time>
      </trkpt>
      <trkpt lat="45.42711" lon="4.67639">
        <ele>422.20001220703</ele>
        <time>2019-09-22T12:31:23.000Z</time>
      </trkpt>
      <trkpt lat="45.42719" lon="4.6762">
        <ele>422.79998779297</ele>
        <time>2019-09-22T12:31:24.000Z</time>
      </trkpt>
      <trkpt lat="45.42727" lon="4.67593">
        <ele>423.60000610352</ele>
        <time>2019-09-22T12:31:27.000Z</time>
      </trkpt>
      <trkpt lat="45.42734" lon="4.67566">
        <ele>424.39999389648</ele>
        <time>2019-09-22T12:31:29.000Z</time>
      </trkpt>
      <trkpt lat="45.42742" lon="4.6754">
        <ele>426</ele>
        <time>2019-09-22T12:31:33.000Z</time>
      </trkpt>
      <trkpt lat="45.42749" lon="4.67522">
        <ele>427.39999389648</ele>
        <time>2019-09-22T12:31:34.000Z</time>
      </trkpt>
      <trkpt lat="45.42762" lon="4.67504">
        <ele>428.79998779297</ele>
        <time>2019-09-22T12:31:37.000Z</time>
      </trkpt>
      <trkpt lat="45.42776" lon="4.67496">
        <ele>429.60000610352</ele>
        <time>2019-09-22T12:31:40.000Z</time>
      </trkpt>
      <trkpt lat="45.42789" lon="4.67491">
        <ele>430.20001220703</ele>
        <time>2019-09-22T12:31:43.000Z</time>
      </trkpt>
      <trkpt lat="45.42807" lon="4.67483">
        <ele>430.60000610352</ele>
        <time>2019-09-22T12:31:46.000Z</time>
      </trkpt>
      <trkpt lat="45.42828" lon="4.67477">
        <ele>430.60000610352</ele>
        <time>2019-09-22T12:31:49.000Z</time>
      </trkpt>
      <trkpt lat="45.42849" lon="4.6747">
        <ele>431</ele>
        <time>2019-09-22T12:31:52.000Z</time>
      </trkpt>
      <trkpt lat="45.42869" lon="4.67465">
        <ele>431.20001220703</ele>
        <time>2019-09-22T12:31:55.000Z</time>
      </trkpt>
      <trkpt lat="45.4289" lon="4.67458">
        <ele>431.39999389648</ele>
        <time>2019-09-22T12:31:58.000Z</time>
      </trkpt>
      <trkpt lat="45.42911" lon="4.67453">
        <ele>430.60000610352</ele>
        <time>2019-09-22T12:32:01.000Z</time>
      </trkpt>
      <trkpt lat="45.42924" lon="4.6745">
        <ele>430.20001220703</ele>
        <time>2019-09-22T12:32:05.000Z</time>
      </trkpt>
      <trkpt lat="45.42944" lon="4.67445">
        <ele>429.79998779297</ele>
        <time>2019-09-22T12:32:08.000Z</time>
      </trkpt>
      <trkpt lat="45.42962" lon="4.67439">
        <ele>429</ele>
        <time>2019-09-22T12:32:12.000Z</time>
      </trkpt>
      <trkpt lat="45.42981" lon="4.67432">
        <ele>428.20001220703</ele>
        <time>2019-09-22T12:32:16.000Z</time>
      </trkpt>
      <trkpt lat="45.42986" lon="4.67429">
        <ele>428</ele>
        <time>2019-09-22T12:32:20.000Z</time>
      </trkpt>
      <trkpt lat="45.43001" lon="4.6742">
        <ele>427.39999389648</ele>
        <time>2019-09-22T12:32:22.000Z</time>
      </trkpt>
      <trkpt lat="45.43011" lon="4.67412">
        <ele>427</ele>
        <time>2019-09-22T12:32:27.000Z</time>
      </trkpt>
      <trkpt lat="45.43028" lon="4.6739">
        <ele>426.20001220703</ele>
        <time>2019-09-22T12:32:37.000Z</time>
      </trkpt>
      <trkpt lat="45.43032" lon="4.67384">
        <ele>426</ele>
        <time>2019-09-22T12:32:43.000Z</time>
      </trkpt>
      <trkpt lat="45.43044" lon="4.67363">
        <ele>426</ele>
        <time>2019-09-22T12:32:49.000Z</time>
      </trkpt>
      <trkpt lat="45.43053" lon="4.67338">
        <ele>426</ele>
        <time>2019-09-22T12:32:56.000Z</time>
      </trkpt>
      <trkpt lat="45.43062" lon="4.67312">
        <ele>426.79998779297</ele>
        <time>2019-09-22T12:33:03.000Z</time>
      </trkpt>
      <trkpt lat="45.43071" lon="4.67286">
        <ele>427</ele>
        <time>2019-09-22T12:33:10.000Z</time>
      </trkpt>
      <trkpt lat="45.4308" lon="4.6726">
        <ele>428.60000610352</ele>
        <time>2019-09-22T12:33:17.000Z</time>
      </trkpt>
      <trkpt lat="45.43089" lon="4.67234">
        <ele>429.79998779297</ele>
        <time>2019-09-22T12:33:24.000Z</time>
      </trkpt>
      <trkpt lat="45.43099" lon="4.67211">
        <ele>430</ele>
        <time>2019-09-22T12:33:31.000Z</time>
      </trkpt>
      <trkpt lat="45.43109" lon="4.67188">
        <ele>431</ele>
        <time>2019-09-22T12:33:38.000Z</time>
      </trkpt>
      <trkpt lat="45.43116" lon="4.67164">
        <ele>431.60000610352</ele>
        <time>2019-09-22T12:33:50.000Z</time>
      </trkpt>
      <trkpt lat="45.4312" lon="4.67131">
        <ele>432.39999389648</ele>
        <time>2019-09-22T12:33:58.000Z</time>
      </trkpt>
      <trkpt lat="45.43124" lon="4.67107">
        <ele>433.39999389648</ele>
        <time>2019-09-22T12:34:06.000Z</time>
      </trkpt>
      <trkpt lat="45.4314" lon="4.67086">
        <ele>433.60000610352</ele>
        <time>2019-09-22T12:34:14.000Z</time>
      </trkpt>
      <trkpt lat="45.43163" lon="4.67084">
        <ele>435.79998779297</ele>
        <time>2019-09-22T12:34:22.000Z</time>
      </trkpt>
      <trkpt lat="45.4318" lon="4.67097">
        <ele>437.20001220703</ele>
        <time>2019-09-22T12:34:30.000Z</time>
      </trkpt>
      <trkpt lat="45.43187" lon="4.67105">
        <ele>437.60000610352</ele>
        <time>2019-09-22T12:34:42.000Z</time>
      </trkpt>
      <trkpt lat="45.43202" lon="4.67126">
        <ele>438.39999389648</ele>
        <time>2019-09-22T12:34:50.000Z</time>
      </trkpt>
      <trkpt lat="45.43232" lon="4.67154">
        <ele>440.39999389648</ele>
        <time>2019-09-22T12:34:58.000Z</time>
      </trkpt>
      <trkpt lat="45.4325" lon="4.67165">
        <ele>441.60000610352</ele>
        <time>2019-09-22T12:35:06.000Z</time>
      </trkpt>
      <trkpt lat="45.43267" lon="4.67173">
        <ele>443</ele>
        <time>2019-09-22T12:35:14.000Z</time>
      </trkpt>
      <trkpt lat="45.43285" lon="4.67183">
        <ele>444.39999389648</ele>
        <time>2019-09-22T12:35:22.000Z</time>
      </trkpt>
      <trkpt lat="45.43304" lon="4.67194">
        <ele>446</ele>
        <time>2019-09-22T12:35:30.000Z</time>
      </trkpt>
      <trkpt lat="45.43322" lon="4.67208">
        <ele>447.39999389648</ele>
        <time>2019-09-22T12:35:37.000Z</time>
      </trkpt>
      <trkpt lat="45.43339" lon="4.67224">
        <ele>448.79998779297</ele>
        <time>2019-09-22T12:35:48.000Z</time>
      </trkpt>
      <trkpt lat="45.43356" lon="4.67239">
        <ele>450.39999389648</ele>
        <time>2019-09-22T12:35:56.000Z</time>
      </trkpt>
      <trkpt lat="45.43374" lon="4.67255">
        <ele>451.79998779297</ele>
        <time>2019-09-22T12:36:04.000Z</time>
      </trkpt>
      <trkpt lat="45.4339" lon="4.6727">
        <ele>453</ele>
        <time>2019-09-22T12:36:11.000Z</time>
      </trkpt>
      <trkpt lat="45.43415" lon="4.67292">
        <ele>454.79998779297</ele>
        <time>2019-09-22T12:36:18.000Z</time>
      </trkpt>
      <trkpt lat="45.43433" lon="4.67308">
        <ele>455.60000610352</ele>
        <time>2019-09-22T12:36:24.000Z</time>
      </trkpt>
      <trkpt lat="45.4345" lon="4.67323">
        <ele>456.20001220703</ele>
        <time>2019-09-22T12:36:31.000Z</time>
      </trkpt>
      <trkpt lat="45.43466" lon="4.67339">
        <ele>457</ele>
        <time>2019-09-22T12:36:38.000Z</time>
      </trkpt>
      <trkpt lat="45.43483" lon="4.67354">
        <ele>458</ele>
        <time>2019-09-22T12:36:45.000Z</time>
      </trkpt>
      <trkpt lat="45.43499" lon="4.67369">
        <ele>459</ele>
        <time>2019-09-22T12:36:55.000Z</time>
      </trkpt>
      <trkpt lat="45.43523" lon="4.67391">
        <ele>461.60000610352</ele>
        <time>2019-09-22T12:37:01.000Z</time>
      </trkpt>
      <trkpt lat="45.43539" lon="4.67406">
        <ele>463.39999389648</ele>
        <time>2019-09-22T12:37:07.000Z</time>
      </trkpt>
      <trkpt lat="45.43556" lon="4.67421">
        <ele>465</ele>
        <time>2019-09-22T12:37:13.000Z</time>
      </trkpt>
      <trkpt lat="45.43572" lon="4.67436">
        <ele>466.20001220703</ele>
        <time>2019-09-22T12:37:19.000Z</time>
      </trkpt>
      <trkpt lat="45.43589" lon="4.6745">
        <ele>467.39999389648</ele>
        <time>2019-09-22T12:37:25.000Z</time>
      </trkpt>
      <trkpt lat="45.43606" lon="4.67465">
        <ele>468.60000610352</ele>
        <time>2019-09-22T12:37:31.000Z</time>
      </trkpt>
      <trkpt lat="45.43624" lon="4.67478">
        <ele>470</ele>
        <time>2019-09-22T12:37:37.000Z</time>
      </trkpt>
      <trkpt lat="45.43641" lon="4.67489">
        <ele>471.39999389648</ele>
        <time>2019-09-22T12:37:43.000Z</time>
      </trkpt>
      <trkpt lat="45.43667" lon="4.67506">
        <ele>473.60000610352</ele>
        <time>2019-09-22T12:37:50.000Z</time>
      </trkpt>
      <trkpt lat="45.43685" lon="4.67519">
        <ele>475.20001220703</ele>
        <time>2019-09-22T12:37:57.000Z</time>
      </trkpt>
      <trkpt lat="45.43704" lon="4.6753">
        <ele>477</ele>
        <time>2019-09-22T12:38:07.000Z</time>
      </trkpt>
      <trkpt lat="45.4372" lon="4.67541">
        <ele>478</ele>
        <time>2019-09-22T12:38:14.000Z</time>
      </trkpt>
      <trkpt lat="45.43737" lon="4.67552">
        <ele>478.60000610352</ele>
        <time>2019-09-22T12:38:22.000Z</time>
      </trkpt>
      <trkpt lat="45.43752" lon="4.6756">
        <ele>479.20001220703</ele>
        <time>2019-09-22T12:38:30.000Z</time>
      </trkpt>
      <trkpt lat="45.43769" lon="4.6757">
        <ele>479.79998779297</ele>
        <time>2019-09-22T12:38:37.000Z</time>
      </trkpt>
      <trkpt lat="45.43786" lon="4.67578">
        <ele>480.60000610352</ele>
        <time>2019-09-22T12:38:44.000Z</time>
      </trkpt>
      <trkpt lat="45.43803" lon="4.67587">
        <ele>481.20001220703</ele>
        <time>2019-09-22T12:38:50.000Z</time>
      </trkpt>
      <trkpt lat="45.43832" lon="4.67608">
        <ele>482.20001220703</ele>
        <time>2019-09-22T12:38:57.000Z</time>
      </trkpt>
      <trkpt lat="45.4385" lon="4.67624">
        <ele>482.60000610352</ele>
        <time>2019-09-22T12:39:08.000Z</time>
      </trkpt>
      <trkpt lat="45.43867" lon="4.67641">
        <ele>483.60000610352</ele>
        <time>2019-09-22T12:39:15.000Z</time>
      </trkpt>
      <trkpt lat="45.43884" lon="4.6766">
        <ele>484.60000610352</ele>
        <time>2019-09-22T12:39:22.000Z</time>
      </trkpt>
      <trkpt lat="45.43901" lon="4.67677">
        <ele>485.39999389648</ele>
        <time>2019-09-22T12:39:29.000Z</time>
      </trkpt>
      <trkpt lat="45.43916" lon="4.67695">
        <ele>486</ele>
        <time>2019-09-22T12:39:36.000Z</time>
      </trkpt>
      <trkpt lat="45.4393" lon="4.67713">
        <ele>486.79998779297</ele>
        <time>2019-09-22T12:39:43.000Z</time>
      </trkpt>
      <trkpt lat="45.43943" lon="4.67731">
        <ele>487.39999389648</ele>
        <time>2019-09-22T12:39:50.000Z</time>
      </trkpt>
      <trkpt lat="45.43958" lon="4.67747">
        <ele>488</ele>
        <time>2019-09-22T12:40:01.000Z</time>
      </trkpt>
      <trkpt lat="45.43975" lon="4.67762">
        <ele>489.20001220703</ele>
        <time>2019-09-22T12:40:04.000Z</time>
      </trkpt>
      <trkpt lat="45.43993" lon="4.67777">
        <ele>490.60000610352</ele>
        <time>2019-09-22T12:40:12.000Z</time>
      </trkpt>
      <trkpt lat="45.44019" lon="4.67798">
        <ele>492.79998779297</ele>
        <time>2019-09-22T12:40:19.000Z</time>
      </trkpt>
      <trkpt lat="45.44034" lon="4.67811">
        <ele>494</ele>
        <time>2019-09-22T12:40:26.000Z</time>
      </trkpt>
      <trkpt lat="45.44052" lon="4.67824">
        <ele>495.20001220703</ele>
        <time>2019-09-22T12:40:33.000Z</time>
      </trkpt>
      <trkpt lat="45.44069" lon="4.67838">
        <ele>495.39999389648</ele>
        <time>2019-09-22T12:40:41.000Z</time>
      </trkpt>
      <trkpt lat="45.44085" lon="4.67852">
        <ele>495.79998779297</ele>
        <time>2019-09-22T12:40:53.000Z</time>
      </trkpt>
      <trkpt lat="45.44102" lon="4.67864">
        <ele>496</ele>
        <time>2019-09-22T12:41:01.000Z</time>
      </trkpt>
      <trkpt lat="45.44117" lon="4.67878">
        <ele>496.20001220703</ele>
        <time>2019-09-22T12:41:09.000Z</time>
      </trkpt>
      <trkpt lat="45.44135" lon="4.67891">
        <ele>496.60000610352</ele>
        <time>2019-09-22T12:41:16.000Z</time>
      </trkpt>
      <trkpt lat="45.44162" lon="4.67905">
        <ele>498.20001220703</ele>
        <time>2019-09-22T12:41:23.000Z</time>
      </trkpt>
      <trkpt lat="45.4418" lon="4.67912">
        <ele>499.60000610352</ele>
        <time>2019-09-22T12:41:31.000Z</time>
      </trkpt>
      <trkpt lat="45.44199" lon="4.6792">
        <ele>501.20001220703</ele>
        <time>2019-09-22T12:41:39.000Z</time>
      </trkpt>
      <trkpt lat="45.44217" lon="4.67927">
        <ele>502.79998779297</ele>
        <time>2019-09-22T12:41:47.000Z</time>
      </trkpt>
      <trkpt lat="45.44236" lon="4.67932">
        <ele>504.60000610352</ele>
        <time>2019-09-22T12:41:59.000Z</time>
      </trkpt>
      <trkpt lat="45.44255" lon="4.67933">
        <ele>506.79998779297</ele>
        <time>2019-09-22T12:42:07.000Z</time>
      </trkpt>
      <trkpt lat="45.44273" lon="4.67931">
        <ele>509.20001220703</ele>
        <time>2019-09-22T12:42:15.000Z</time>
      </trkpt>
      <trkpt lat="45.44301" lon="4.6793">
        <ele>513</ele>
        <time>2019-09-22T12:42:16.000Z</time>
      </trkpt>
      <trkpt lat="45.44308" lon="4.67927">
        <ele>514.40002441406</ele>
        <time>2019-09-22T12:42:24.000Z</time>
      </trkpt>
      <trkpt lat="45.44308" lon="4.67898">
        <ele>516.59997558594</ele>
        <time>2019-09-22T12:42:31.000Z</time>
      </trkpt>
      <trkpt lat="45.44308" lon="4.67872">
        <ele>518.40002441406</ele>
        <time>2019-09-22T12:42:38.000Z</time>
      </trkpt>
      <trkpt lat="45.44308" lon="4.67846">
        <ele>520.20001220703</ele>
        <time>2019-09-22T12:42:45.000Z</time>
      </trkpt>
      <trkpt lat="45.44308" lon="4.6782">
        <ele>522.20001220703</ele>
        <time>2019-09-22T12:42:51.000Z</time>
      </trkpt>
      <trkpt lat="45.44308" lon="4.67791">
        <ele>524.40002441406</ele>
        <time>2019-09-22T12:42:57.000Z</time>
      </trkpt>
      <trkpt lat="45.44308" lon="4.67748">
        <ele>527.59997558594</ele>
        <time>2019-09-22T12:43:03.000Z</time>
      </trkpt>
      <trkpt lat="45.44307" lon="4.6772">
        <ele>529.40002441406</ele>
        <time>2019-09-22T12:43:14.000Z</time>
      </trkpt>
      <trkpt lat="45.44305" lon="4.67691">
        <ele>531.40002441406</ele>
        <time>2019-09-22T12:43:22.000Z</time>
      </trkpt>
      <trkpt lat="45.44301" lon="4.67667">
        <ele>532.79998779297</ele>
        <time>2019-09-22T12:43:30.000Z</time>
      </trkpt>
      <trkpt lat="45.44297" lon="4.67641">
        <ele>534.59997558594</ele>
        <time>2019-09-22T12:43:36.000Z</time>
      </trkpt>
      <trkpt lat="45.44291" lon="4.67614">
        <ele>536.20001220703</ele>
        <time>2019-09-22T12:43:40.000Z</time>
      </trkpt>
      <trkpt lat="45.44285" lon="4.67588">
        <ele>537.59997558594</ele>
        <time>2019-09-22T12:43:44.000Z</time>
      </trkpt>
      <trkpt lat="45.44279" lon="4.67561">
        <ele>539</ele>
        <time>2019-09-22T12:43:45.000Z</time>
      </trkpt>
      <trkpt lat="45.44274" lon="4.67519">
        <ele>542.20001220703</ele>
        <time>2019-09-22T12:43:56.000Z</time>
      </trkpt>
      <trkpt lat="45.44266" lon="4.67493">
        <ele>543.59997558594</ele>
        <time>2019-09-22T12:44:04.000Z</time>
      </trkpt>
      <trkpt lat="45.44254" lon="4.67473">
        <ele>543.79998779297</ele>
        <time>2019-09-22T12:44:12.000Z</time>
      </trkpt>
      <trkpt lat="45.44252" lon="4.67471">
        <ele>543.79998779297</ele>
        <time>2019-09-22T12:44:17.000Z</time>
      </trkpt>
      <trkpt lat="45.44234" lon="4.67458">
        <ele>542.79998779297</ele>
        <time>2019-09-22T12:44:22.000Z</time>
      </trkpt>
      <trkpt lat="45.44215" lon="4.67453">
        <ele>541</ele>
        <time>2019-09-22T12:44:28.000Z</time>
      </trkpt>
      <trkpt lat="45.44196" lon="4.6745">
        <ele>540.20001220703</ele>
        <time>2019-09-22T12:44:34.000Z</time>
      </trkpt>
      <trkpt lat="45.44177" lon="4.67446">
        <ele>539.59997558594</ele>
        <time>2019-09-22T12:44:43.000Z</time>
      </trkpt>
      <trkpt lat="45.44157" lon="4.67439">
        <ele>539.20001220703</ele>
        <time>2019-09-22T12:44:49.000Z</time>
      </trkpt>
      <trkpt lat="45.4414" lon="4.67423">
        <ele>540.40002441406</ele>
        <time>2019-09-22T12:44:55.000Z</time>
      </trkpt>
      <trkpt lat="45.44125" lon="4.67407">
        <ele>541.40002441406</ele>
        <time>2019-09-22T12:45:00.000Z</time>
      </trkpt>
      <trkpt lat="45.44107" lon="4.67375">
        <ele>543.59997558594</ele>
        <time>2019-09-22T12:45:04.000Z</time>
      </trkpt>
      <trkpt lat="45.44096" lon="4.67353">
        <ele>544.79998779297</ele>
        <time>2019-09-22T12:45:08.000Z</time>
      </trkpt>
      <trkpt lat="45.44085" lon="4.67332">
        <ele>545.79998779297</ele>
        <time>2019-09-22T12:45:11.000Z</time>
      </trkpt>
      <trkpt lat="45.4407" lon="4.67315">
        <ele>546.20001220703</ele>
        <time>2019-09-22T12:45:14.000Z</time>
      </trkpt>
      <trkpt lat="45.44055" lon="4.67297">
        <ele>546.40002441406</ele>
        <time>2019-09-22T12:45:17.000Z</time>
      </trkpt>
      <trkpt lat="45.44041" lon="4.6728">
        <ele>546.59997558594</ele>
        <time>2019-09-22T12:45:20.000Z</time>
      </trkpt>
      <trkpt lat="45.44038" lon="4.67275">
        <ele>546.59997558594</ele>
        <time>2019-09-22T12:45:23.000Z</time>
      </trkpt>
      <trkpt lat="45.44023" lon="4.67234">
        <ele>550.59997558594</ele>
        <time>2019-09-22T12:45:26.000Z</time>
      </trkpt>
      <trkpt lat="45.44017" lon="4.67208">
        <ele>554.20001220703</ele>
        <time>2019-09-22T12:45:29.000Z</time>
      </trkpt>
      <trkpt lat="45.44007" lon="4.67186">
        <ele>555.79998779297</ele>
        <time>2019-09-22T12:45:32.000Z</time>
      </trkpt>
      <trkpt lat="45.43995" lon="4.67166">
        <ele>557.20001220703</ele>
        <time>2019-09-22T12:45:35.000Z</time>
      </trkpt>
      <trkpt lat="45.43984" lon="4.67144">
        <ele>558.59997558594</ele>
        <time>2019-09-22T12:45:36.000Z</time>
      </trkpt>
      <trkpt lat="45.43972" lon="4.67119">
        <ele>560.59997558594</ele>
        <time>2019-09-22T12:45:40.000Z</time>
      </trkpt>
      <trkpt lat="45.4396" lon="4.67095">
        <ele>560.40002441406</ele>
        <time>2019-09-22T12:45:41.000Z</time>
      </trkpt>
      <trkpt lat="45.43944" lon="4.67053">
        <ele>561.40002441406</ele>
        <time>2019-09-22T12:45:42.000Z</time>
      </trkpt>
      <trkpt lat="45.43936" lon="4.6703">
        <ele>561.59997558594</ele>
        <time>2019-09-22T12:45:45.000Z</time>
      </trkpt>
      <trkpt lat="45.43925" lon="4.67006">
        <ele>560</ele>
        <time>2019-09-22T12:45:47.000Z</time>
      </trkpt>
      <trkpt lat="45.43912" lon="4.66982">
        <ele>558</ele>
        <time>2019-09-22T12:45:50.000Z</time>
      </trkpt>
      <trkpt lat="45.43899" lon="4.6696">
        <ele>556.20001220703</ele>
        <time>2019-09-22T12:45:52.000Z</time>
      </trkpt>
      <trkpt lat="45.43886" lon="4.66935">
        <ele>553.79998779297</ele>
        <time>2019-09-22T12:45:56.000Z</time>
      </trkpt>
      <trkpt lat="45.43875" lon="4.66913">
        <ele>552</ele>
        <time>2019-09-22T12:46:00.000Z</time>
      </trkpt>
      <trkpt lat="45.43864" lon="4.6689">
        <ele>550.40002441406</ele>
        <time>2019-09-22T12:46:03.000Z</time>
      </trkpt>
      <trkpt lat="45.43853" lon="4.66865">
        <ele>548.59997558594</ele>
        <time>2019-09-22T12:46:10.000Z</time>
      </trkpt>
      <trkpt lat="45.43844" lon="4.66837">
        <ele>546</ele>
        <time>2019-09-22T12:46:13.000Z</time>
      </trkpt>
      <trkpt lat="45.43838" lon="4.66802">
        <ele>543.40002441406</ele>
        <time>2019-09-22T12:46:17.000Z</time>
      </trkpt>
      <trkpt lat="45.43834" lon="4.6677">
        <ele>542.20001220703</ele>
        <time>2019-09-22T12:46:21.000Z</time>
      </trkpt>
      <trkpt lat="45.43823" lon="4.6674">
        <ele>540</ele>
        <time>2019-09-22T12:46:26.000Z</time>
      </trkpt>
      <trkpt lat="45.43813" lon="4.66708">
        <ele>538</ele>
        <time>2019-09-22T12:46:27.000Z</time>
      </trkpt>
      <trkpt lat="45.43808" lon="4.6668">
        <ele>539</ele>
        <time>2019-09-22T12:46:28.000Z</time>
      </trkpt>
      <trkpt lat="45.43806" lon="4.66672">
        <ele>539.20001220703</ele>
        <time>2019-09-22T12:46:34.000Z</time>
      </trkpt>
      <trkpt lat="45.43789" lon="4.66648">
        <ele>537.59997558594</ele>
        <time>2019-09-22T12:46:42.000Z</time>
      </trkpt>
      <trkpt lat="45.43785" lon="4.66642">
        <ele>537.40002441406</ele>
        <time>2019-09-22T12:46:50.000Z</time>
      </trkpt>
      <trkpt lat="45.43781" lon="4.66635">
        <ele>537.20001220703</ele>
        <time>2019-09-22T12:46:58.000Z</time>
      </trkpt>
      <trkpt lat="45.43765" lon="4.66617">
        <ele>535.59997558594</ele>
        <time>2019-09-22T12:47:06.000Z</time>
      </trkpt>
      <trkpt lat="45.43755" lon="4.66605">
        <ele>534.20001220703</ele>
        <time>2019-09-22T12:47:14.000Z</time>
      </trkpt>
      <trkpt lat="45.43748" lon="4.66581">
        <ele>533.59997558594</ele>
        <time>2019-09-22T12:47:22.000Z</time>
      </trkpt>
      <trkpt lat="45.43748" lon="4.66566">
        <ele>534.20001220703</ele>
        <time>2019-09-22T12:47:30.000Z</time>
      </trkpt>
      <trkpt lat="45.43749" lon="4.66545">
        <ele>536</ele>
        <time>2019-09-22T12:47:42.000Z</time>
      </trkpt>
      <trkpt lat="45.43749" lon="4.66524">
        <ele>536.40002441406</ele>
        <time>2019-09-22T12:47:50.000Z</time>
      </trkpt>
      <trkpt lat="45.4375" lon="4.66512">
        <ele>536.59997558594</ele>
        <time>2019-09-22T12:47:59.000Z</time>
      </trkpt>
      <trkpt lat="45.43748" lon="4.66485">
        <ele>535.79998779297</ele>
        <time>2019-09-22T12:48:07.000Z</time>
      </trkpt>
      <trkpt lat="45.43747" lon="4.66477">
        <ele>535.40002441406</ele>
        <time>2019-09-22T12:48:15.000Z</time>
      </trkpt>
      <trkpt lat="45.43745" lon="4.66464">
        <ele>534.79998779297</ele>
        <time>2019-09-22T12:48:22.000Z</time>
      </trkpt>
      <trkpt lat="45.43745" lon="4.66451">
        <ele>534.79998779297</ele>
        <time>2019-09-22T12:48:30.000Z</time>
      </trkpt>
      <trkpt lat="45.43746" lon="4.66434">
        <ele>535.20001220703</ele>
        <time>2019-09-22T12:48:38.000Z</time>
      </trkpt>
      <trkpt lat="45.43747" lon="4.6643">
        <ele>535.40002441406</ele>
        <time>2019-09-22T12:48:46.000Z</time>
      </trkpt>
      <trkpt lat="45.43747" lon="4.66427">
        <ele>535.59997558594</ele>
        <time>2019-09-22T12:48:53.000Z</time>
      </trkpt>
      <trkpt lat="45.43753" lon="4.66409">
        <ele>537.20001220703</ele>
        <time>2019-09-22T12:49:01.000Z</time>
      </trkpt>
      <trkpt lat="45.43763" lon="4.66385">
        <ele>540.40002441406</ele>
        <time>2019-09-22T12:49:09.000Z</time>
      </trkpt>
      <trkpt lat="45.43773" lon="4.66361">
        <ele>543.40002441406</ele>
        <time>2019-09-22T12:49:21.000Z</time>
      </trkpt>
      <trkpt lat="45.4378" lon="4.66337">
        <ele>545.20001220703</ele>
        <time>2019-09-22T12:49:29.000Z</time>
      </trkpt>
      <trkpt lat="45.43787" lon="4.6631">
        <ele>546.79998779297</ele>
        <time>2019-09-22T12:49:37.000Z</time>
      </trkpt>
      <trkpt lat="45.43791" lon="4.66283">
        <ele>548</ele>
        <time>2019-09-22T12:49:45.000Z</time>
      </trkpt>
      <trkpt lat="45.43795" lon="4.66256">
        <ele>550.20001220703</ele>
        <time>2019-09-22T12:49:52.000Z</time>
      </trkpt>
      <trkpt lat="45.43799" lon="4.66228">
        <ele>552.20001220703</ele>
        <time>2019-09-22T12:49:59.000Z</time>
      </trkpt>
      <trkpt lat="45.43804" lon="4.66188">
        <ele>553.59997558594</ele>
        <time>2019-09-22T12:50:06.000Z</time>
      </trkpt>
      <trkpt lat="45.43808" lon="4.66162">
        <ele>553.59997558594</ele>
        <time>2019-09-22T12:50:17.000Z</time>
      </trkpt>
      <trkpt lat="45.43812" lon="4.66134">
        <ele>553.79998779297</ele>
        <time>2019-09-22T12:50:24.000Z</time>
      </trkpt>
      <trkpt lat="45.43816" lon="4.66107">
        <ele>552</ele>
        <time>2019-09-22T12:50:31.000Z</time>
      </trkpt>
      <trkpt lat="45.43823" lon="4.66079">
        <ele>550</ele>
        <time>2019-09-22T12:50:37.000Z</time>
      </trkpt>
      <trkpt lat="45.43834" lon="4.66059">
        <ele>549.20001220703</ele>
        <time>2019-09-22T12:50:43.000Z</time>
      </trkpt>
      <trkpt lat="45.43851" lon="4.66044">
        <ele>549.79998779297</ele>
        <time>2019-09-22T12:50:49.000Z</time>
      </trkpt>
      <trkpt lat="45.4387" lon="4.66042">
        <ele>552</ele>
        <time>2019-09-22T12:50:55.000Z</time>
      </trkpt>
      <trkpt lat="45.4389" lon="4.66045">
        <ele>554.59997558594</ele>
        <time>2019-09-22T12:51:01.000Z</time>
      </trkpt>
      <trkpt lat="45.43909" lon="4.66049">
        <ele>556.20001220703</ele>
        <time>2019-09-22T12:51:06.000Z</time>
      </trkpt>
      <trkpt lat="45.43929" lon="4.66052">
        <ele>558</ele>
        <time>2019-09-22T12:51:51.000Z</time>
      </trkpt>
      <trkpt lat="45.43948" lon="4.66051">
        <ele>558.79998779297</ele>
        <time>2019-09-22T12:52:00.000Z</time>
      </trkpt>
      <trkpt lat="45.43977" lon="4.66047">
        <ele>559.59997558594</ele>
        <time>2019-09-22T12:52:09.000Z</time>
      </trkpt>
      <trkpt lat="45.43995" lon="4.6605">
        <ele>561.59997558594</ele>
        <time>2019-09-22T12:52:17.000Z</time>
      </trkpt>
      <trkpt lat="45.44013" lon="4.66056">
        <ele>563.79998779297</ele>
        <time>2019-09-22T12:52:24.000Z</time>
      </trkpt>
      <trkpt lat="45.4403" lon="4.66066">
        <ele>566</ele>
        <time>2019-09-22T12:52:31.000Z</time>
      </trkpt>
      <trkpt lat="45.44018" lon="4.66077">
        <ele>565.40002441406</ele>
        <time>2019-09-22T12:52:37.000Z</time>
      </trkpt>
      <trkpt lat="45.43999" lon="4.66083">
        <ele>565</ele>
        <time>2019-09-22T12:52:43.000Z</time>
      </trkpt>
      <trkpt lat="45.43981" lon="4.66094">
        <ele>566</ele>
        <time>2019-09-22T12:52:49.000Z</time>
      </trkpt>
      <trkpt lat="45.43955" lon="4.66122">
        <ele>568.59997558594</ele>
        <time>2019-09-22T12:52:55.000Z</time>
      </trkpt>
      <trkpt lat="45.43943" lon="4.66145">
        <ele>570</ele>
        <time>2019-09-22T12:53:01.000Z</time>
      </trkpt>
      <trkpt lat="45.43931" lon="4.6617">
        <ele>572</ele>
        <time>2019-09-22T12:53:05.000Z</time>
      </trkpt>
      <trkpt lat="45.43923" lon="4.66193">
        <ele>572.79998779297</ele>
        <time>2019-09-22T12:53:12.000Z</time>
      </trkpt>
      <trkpt lat="45.43919" lon="4.66219">
        <ele>574</ele>
        <time>2019-09-22T12:53:18.000Z</time>
      </trkpt>
      <trkpt lat="45.43916" lon="4.66246">
        <ele>575.40002441406</ele>
        <time>2019-09-22T12:53:24.000Z</time>
      </trkpt>
      <trkpt lat="45.43917" lon="4.66273">
        <ele>576.40002441406</ele>
        <time>2019-09-22T12:53:30.000Z</time>
      </trkpt>
      <trkpt lat="45.43919" lon="4.66299">
        <ele>577.40002441406</ele>
        <time>2019-09-22T12:53:36.000Z</time>
      </trkpt>
      <trkpt lat="45.43921" lon="4.6631">
        <ele>577.79998779297</ele>
        <time>2019-09-22T12:53:42.000Z</time>
      </trkpt>
      <trkpt lat="45.43927" lon="4.66332">
        <ele>579</ele>
        <time>2019-09-22T12:53:48.000Z</time>
      </trkpt>
      <trkpt lat="45.43938" lon="4.66357">
        <ele>580.40002441406</ele>
        <time>2019-09-22T12:53:54.000Z</time>
      </trkpt>
      <trkpt lat="45.4395" lon="4.66379">
        <ele>582.20001220703</ele>
        <time>2019-09-22T12:54:00.000Z</time>
      </trkpt>
      <trkpt lat="45.43963" lon="4.66402">
        <ele>584</ele>
        <time>2019-09-22T12:54:06.000Z</time>
      </trkpt>
      <trkpt lat="45.43975" lon="4.66422">
        <ele>586.40002441406</ele>
        <time>2019-09-22T12:54:15.000Z</time>
      </trkpt>
      <trkpt lat="45.43988" lon="4.66445">
        <ele>589.20001220703</ele>
        <time>2019-09-22T12:54:20.000Z</time>
      </trkpt>
      <trkpt lat="45.44" lon="4.66466">
        <ele>591.59997558594</ele>
        <time>2019-09-22T12:54:26.000Z</time>
      </trkpt>
      <trkpt lat="45.44011" lon="4.66489">
        <ele>593.79998779297</ele>
        <time>2019-09-22T12:54:32.000Z</time>
      </trkpt>
      <trkpt lat="45.44019" lon="4.66515">
        <ele>595</ele>
        <time>2019-09-22T12:54:38.000Z</time>
      </trkpt>
      <trkpt lat="45.44024" lon="4.66544">
        <ele>594.59997558594</ele>
        <time>2019-09-22T12:54:44.000Z</time>
      </trkpt>
      <trkpt lat="45.44025" lon="4.66572">
        <ele>594.20001220703</ele>
        <time>2019-09-22T12:54:49.000Z</time>
      </trkpt>
      <trkpt lat="45.44025" lon="4.66591">
        <ele>593.79998779297</ele>
        <time>2019-09-22T12:54:54.000Z</time>
      </trkpt>
      <trkpt lat="45.44026" lon="4.66626">
        <ele>592.79998779297</ele>
        <time>2019-09-22T12:54:59.000Z</time>
      </trkpt>
      <trkpt lat="45.44026" lon="4.66655">
        <ele>593.59997558594</ele>
        <time>2019-09-22T12:55:05.000Z</time>
      </trkpt>
      <trkpt lat="45.44027" lon="4.66684">
        <ele>594.40002441406</ele>
        <time>2019-09-22T12:55:14.000Z</time>
      </trkpt>
      <trkpt lat="45.44028" lon="4.66714">
        <ele>595</ele>
        <time>2019-09-22T12:55:20.000Z</time>
      </trkpt>
      <trkpt lat="45.44028" lon="4.66745">
        <ele>595.79998779297</ele>
        <time>2019-09-22T12:55:25.000Z</time>
      </trkpt>
      <trkpt lat="45.44028" lon="4.66774">
        <ele>596.79998779297</ele>
        <time>2019-09-22T12:55:30.000Z</time>
      </trkpt>
      <trkpt lat="45.44029" lon="4.66804">
        <ele>597.20001220703</ele>
        <time>2019-09-22T12:55:35.000Z</time>
      </trkpt>
      <trkpt lat="45.4403" lon="4.66834">
        <ele>597</ele>
        <time>2019-09-22T12:55:40.000Z</time>
      </trkpt>
      <trkpt lat="45.44033" lon="4.66865">
        <ele>598.20001220703</ele>
        <time>2019-09-22T12:55:45.000Z</time>
      </trkpt>
      <trkpt lat="45.44039" lon="4.66894">
        <ele>598.40002441406</ele>
        <time>2019-09-22T12:55:50.000Z</time>
      </trkpt>
      <trkpt lat="45.44053" lon="4.66934">
        <ele>599.79998779297</ele>
        <time>2019-09-22T12:56:00.000Z</time>
      </trkpt>
      <trkpt lat="45.44063" lon="4.66956">
        <ele>601</ele>
        <time>2019-09-22T12:56:06.000Z</time>
      </trkpt>
      <trkpt lat="45.44073" lon="4.66982">
        <ele>601.40002441406</ele>
        <time>2019-09-22T12:56:12.000Z</time>
      </trkpt>
      <trkpt lat="45.44083" lon="4.67009">
        <ele>602.40002441406</ele>
        <time>2019-09-22T12:56:18.000Z</time>
      </trkpt>
      <trkpt lat="45.44093" lon="4.67035">
        <ele>603.20001220703</ele>
        <time>2019-09-22T12:56:23.000Z</time>
      </trkpt>
      <trkpt lat="45.44104" lon="4.6706">
        <ele>600.79998779297</ele>
        <time>2019-09-22T12:56:28.000Z</time>
      </trkpt>
      <trkpt lat="45.44115" lon="4.6708">
        <ele>599.79998779297</ele>
        <time>2019-09-22T12:56:33.000Z</time>
      </trkpt>
      <trkpt lat="45.44129" lon="4.67099">
        <ele>599.40002441406</ele>
        <time>2019-09-22T12:56:41.000Z</time>
      </trkpt>
      <trkpt lat="45.44144" lon="4.67113">
        <ele>599.59997558594</ele>
        <time>2019-09-22T12:56:46.000Z</time>
      </trkpt>
      <trkpt lat="45.44161" lon="4.67128">
        <ele>599.20001220703</ele>
        <time>2019-09-22T12:56:51.000Z</time>
      </trkpt>
      <trkpt lat="45.44191" lon="4.6714">
        <ele>601.59997558594</ele>
        <time>2019-09-22T12:56:56.000Z</time>
      </trkpt>
      <trkpt lat="45.44212" lon="4.67141">
        <ele>605.59997558594</ele>
        <time>2019-09-22T12:57:01.000Z</time>
      </trkpt>
      <trkpt lat="45.44231" lon="4.6714">
        <ele>608.40002441406</ele>
        <time>2019-09-22T12:57:06.000Z</time>
      </trkpt>
      <trkpt lat="45.44249" lon="4.6714">
        <ele>610.40002441406</ele>
        <time>2019-09-22T12:57:11.000Z</time>
      </trkpt>
      <trkpt lat="45.44267" lon="4.67143">
        <ele>611.79998779297</ele>
        <time>2019-09-22T12:57:16.000Z</time>
      </trkpt>
      <trkpt lat="45.44286" lon="4.67146">
        <ele>613.40002441406</ele>
        <time>2019-09-22T12:57:25.000Z</time>
      </trkpt>
      <trkpt lat="45.44304" lon="4.67154">
        <ele>613.79998779297</ele>
        <time>2019-09-22T12:57:30.000Z</time>
      </trkpt>
      <trkpt lat="45.44322" lon="4.67164">
        <ele>613.40002441406</ele>
        <time>2019-09-22T12:57:33.000Z</time>
      </trkpt>
      <trkpt lat="45.44354" lon="4.67189">
        <ele>611.59997558594</ele>
        <time>2019-09-22T12:57:38.000Z</time>
      </trkpt>
      <trkpt lat="45.44374" lon="4.67197">
        <ele>612.20001220703</ele>
        <time>2019-09-22T12:57:44.000Z</time>
      </trkpt>
      <trkpt lat="45.44394" lon="4.67201">
        <ele>614.20001220703</ele>
        <time>2019-09-22T12:57:49.000Z</time>
      </trkpt>
      <trkpt lat="45.44415" lon="4.67201">
        <ele>616.79998779297</ele>
        <time>2019-09-22T12:57:54.000Z</time>
      </trkpt>
      <trkpt lat="45.44433" lon="4.67211">
        <ele>617.40002441406</ele>
        <time>2019-09-22T12:57:59.000Z</time>
      </trkpt>
      <trkpt lat="45.44449" lon="4.67228">
        <ele>616.79998779297</ele>
        <time>2019-09-22T12:58:04.000Z</time>
      </trkpt>
      <trkpt lat="45.44462" lon="4.67249">
        <ele>615.20001220703</ele>
        <time>2019-09-22T12:58:09.000Z</time>
      </trkpt>
      <trkpt lat="45.44478" lon="4.67284">
        <ele>614</ele>
        <time>2019-09-22T12:58:14.000Z</time>
      </trkpt>
      <trkpt lat="45.44489" lon="4.67306">
        <ele>613.59997558594</ele>
        <time>2019-09-22T12:58:19.000Z</time>
      </trkpt>
      <trkpt lat="45.44499" lon="4.67328">
        <ele>613.20001220703</ele>
        <time>2019-09-22T12:58:24.000Z</time>
      </trkpt>
      <trkpt lat="45.4451" lon="4.67349">
        <ele>613.59997558594</ele>
        <time>2019-09-22T12:58:29.000Z</time>
      </trkpt>
      <trkpt lat="45.44523" lon="4.67368">
        <ele>614.59997558594</ele>
        <time>2019-09-22T12:58:37.000Z</time>
      </trkpt>
      <trkpt lat="45.44536" lon="4.67389">
        <ele>616.20001220703</ele>
        <time>2019-09-22T12:58:42.000Z</time>
      </trkpt>
      <trkpt lat="45.44545" lon="4.67412">
        <ele>616.79998779297</ele>
        <time>2019-09-22T12:58:48.000Z</time>
      </trkpt>
      <trkpt lat="45.44551" lon="4.67436">
        <ele>617</ele>
        <time>2019-09-22T12:58:53.000Z</time>
      </trkpt>
      <trkpt lat="45.44563" lon="4.67481">
        <ele>618.20001220703</ele>
        <time>2019-09-22T12:58:59.000Z</time>
      </trkpt>
      <trkpt lat="45.44574" lon="4.67502">
        <ele>620.59997558594</ele>
        <time>2019-09-22T12:59:04.000Z</time>
      </trkpt>
      <trkpt lat="45.4458" lon="4.67514">
        <ele>622.20001220703</ele>
        <time>2019-09-22T12:59:09.000Z</time>
      </trkpt>
      <trkpt lat="45.4459" lon="4.67536">
        <ele>624.40002441406</ele>
        <time>2019-09-22T12:59:15.000Z</time>
      </trkpt>
      <trkpt lat="45.44602" lon="4.67561">
        <ele>623.79998779297</ele>
        <time>2019-09-22T12:59:24.000Z</time>
      </trkpt>
      <trkpt lat="45.44614" lon="4.67582">
        <ele>624.20001220703</ele>
        <time>2019-09-22T12:59:29.000Z</time>
      </trkpt>
      <trkpt lat="45.44626" lon="4.67601">
        <ele>625.20001220703</ele>
        <time>2019-09-22T12:59:34.000Z</time>
      </trkpt>
      <trkpt lat="45.4464" lon="4.6762">
        <ele>626</ele>
        <time>2019-09-22T12:59:39.000Z</time>
      </trkpt>
      <trkpt lat="45.44652" lon="4.67639">
        <ele>627</ele>
        <time>2019-09-22T12:59:44.000Z</time>
      </trkpt>
      <trkpt lat="45.44664" lon="4.6766">
        <ele>626.59997558594</ele>
        <time>2019-09-22T12:59:49.000Z</time>
      </trkpt>
      <trkpt lat="45.44674" lon="4.67681">
        <ele>625.79998779297</ele>
        <time>2019-09-22T12:59:54.000Z</time>
      </trkpt>
      <trkpt lat="45.44682" lon="4.67705">
        <ele>624</ele>
        <time>2019-09-22T12:59:59.000Z</time>
      </trkpt>
      <trkpt lat="45.44689" lon="4.67729">
        <ele>624.40002441406</ele>
        <time>2019-09-22T13:00:04.000Z</time>
      </trkpt>
      <trkpt lat="45.44695" lon="4.67754">
        <ele>624.40002441406</ele>
        <time>2019-09-22T13:00:12.000Z</time>
      </trkpt>
      <trkpt lat="45.44705" lon="4.67792">
        <ele>624.79998779297</ele>
        <time>2019-09-22T13:00:17.000Z</time>
      </trkpt>
      <trkpt lat="45.44712" lon="4.67816">
        <ele>625.79998779297</ele>
        <time>2019-09-22T13:00:23.000Z</time>
      </trkpt>
      <trkpt lat="45.4472" lon="4.67845">
        <ele>626.79998779297</ele>
        <time>2019-09-22T13:00:28.000Z</time>
      </trkpt>
      <trkpt lat="45.44728" lon="4.67869">
        <ele>627.79998779297</ele>
        <time>2019-09-22T13:00:33.000Z</time>
      </trkpt>
      <trkpt lat="45.44738" lon="4.67895">
        <ele>628.40002441406</ele>
        <time>2019-09-22T13:00:38.000Z</time>
      </trkpt>
      <trkpt lat="45.44749" lon="4.67917">
        <ele>629</ele>
        <time>2019-09-22T13:00:43.000Z</time>
      </trkpt>
      <trkpt lat="45.44761" lon="4.67937">
        <ele>630.40002441406</ele>
        <time>2019-09-22T13:00:48.000Z</time>
      </trkpt>
      <trkpt lat="45.44773" lon="4.6796">
        <ele>631.20001220703</ele>
        <time>2019-09-22T13:00:53.000Z</time>
      </trkpt>
      <trkpt lat="45.44791" lon="4.68001">
        <ele>632</ele>
        <time>2019-09-22T13:00:58.000Z</time>
      </trkpt>
      <trkpt lat="45.448" lon="4.68023">
        <ele>632.40002441406</ele>
        <time>2019-09-22T13:01:06.000Z</time>
      </trkpt>
      <trkpt lat="45.4481" lon="4.68046">
        <ele>632.59997558594</ele>
        <time>2019-09-22T13:01:11.000Z</time>
      </trkpt>
      <trkpt lat="45.4482" lon="4.68069">
        <ele>632.79998779297</ele>
        <time>2019-09-22T13:01:16.000Z</time>
      </trkpt>
      <trkpt lat="45.44829" lon="4.68093">
        <ele>633</ele>
        <time>2019-09-22T13:01:21.000Z</time>
      </trkpt>
      <trkpt lat="45.4484" lon="4.68116">
        <ele>633.59997558594</ele>
        <time>2019-09-22T13:01:26.000Z</time>
      </trkpt>
      <trkpt lat="45.44849" lon="4.68141">
        <ele>632.40002441406</ele>
        <time>2019-09-22T13:01:31.000Z</time>
      </trkpt>
      <trkpt lat="45.4486" lon="4.68164">
        <ele>631.79998779297</ele>
        <time>2019-09-22T13:01:36.000Z</time>
      </trkpt>
      <trkpt lat="45.44871" lon="4.68187">
        <ele>631</ele>
        <time>2019-09-22T13:01:41.000Z</time>
      </trkpt>
      <trkpt lat="45.44887" lon="4.68224">
        <ele>629.20001220703</ele>
        <time>2019-09-22T13:01:46.000Z</time>
      </trkpt>
      <trkpt lat="45.44897" lon="4.68247">
        <ele>627</ele>
        <time>2019-09-22T13:01:52.000Z</time>
      </trkpt>
      <trkpt lat="45.44911" lon="4.6827">
        <ele>625.20001220703</ele>
        <time>2019-09-22T13:01:59.000Z</time>
      </trkpt>
      <trkpt lat="45.44925" lon="4.68286">
        <ele>624.59997558594</ele>
        <time>2019-09-22T13:02:04.000Z</time>
      </trkpt>
      <trkpt lat="45.44942" lon="4.683">
        <ele>624.79998779297</ele>
        <time>2019-09-22T13:02:09.000Z</time>
      </trkpt>
      <trkpt lat="45.44959" lon="4.68312">
        <ele>625</ele>
        <time>2019-09-22T13:02:14.000Z</time>
      </trkpt>
      <trkpt lat="45.44976" lon="4.68321">
        <ele>624</ele>
        <time>2019-09-22T13:02:19.000Z</time>
      </trkpt>
      <trkpt lat="45.44994" lon="4.68326">
        <ele>622.40002441406</ele>
        <time>2019-09-22T13:02:24.000Z</time>
      </trkpt>
      <trkpt lat="45.45013" lon="4.68325">
        <ele>622</ele>
        <time>2019-09-22T13:02:30.000Z</time>
      </trkpt>
      <trkpt lat="45.45031" lon="4.68317">
        <ele>623.79998779297</ele>
        <time>2019-09-22T13:02:39.000Z</time>
      </trkpt>
      <trkpt lat="45.45056" lon="4.68291">
        <ele>629</ele>
        <time>2019-09-22T13:02:45.000Z</time>
      </trkpt>
      <trkpt lat="45.4507" lon="4.68273">
        <ele>634.20001220703</ele>
        <time>2019-09-22T13:02:51.000Z</time>
      </trkpt>
      <trkpt lat="45.45087" lon="4.68262">
        <ele>637.59997558594</ele>
        <time>2019-09-22T13:02:57.000Z</time>
      </trkpt>
      <trkpt lat="45.45106" lon="4.68261">
        <ele>638.79998779297</ele>
        <time>2019-09-22T13:03:03.000Z</time>
      </trkpt>
      <trkpt lat="45.45125" lon="4.68266">
        <ele>638.20001220703</ele>
        <time>2019-09-22T13:03:09.000Z</time>
      </trkpt>
      <trkpt lat="45.45144" lon="4.68275">
        <ele>635.40002441406</ele>
        <time>2019-09-22T13:03:14.000Z</time>
      </trkpt>
      <trkpt lat="45.45161" lon="4.68284">
        <ele>631.79998779297</ele>
        <time>2019-09-22T13:03:19.000Z</time>
      </trkpt>
      <trkpt lat="45.4518" lon="4.68291">
        <ele>628.59997558594</ele>
        <time>2019-09-22T13:03:24.000Z</time>
      </trkpt>
      <trkpt lat="45.45198" lon="4.68291">
        <ele>626.79998779297</ele>
        <time>2019-09-22T13:03:32.000Z</time>
      </trkpt>
      <trkpt lat="45.4522" lon="4.6828">
        <ele>626.20001220703</ele>
        <time>2019-09-22T13:03:37.000Z</time>
      </trkpt>
      <trkpt lat="45.45239" lon="4.68253">
        <ele>626.79998779297</ele>
        <time>2019-09-22T13:03:42.000Z</time>
      </trkpt>
      <trkpt lat="45.4525" lon="4.6823">
        <ele>629.20001220703</ele>
        <time>2019-09-22T13:03:47.000Z</time>
      </trkpt>
      <trkpt lat="45.45261" lon="4.68208">
        <ele>633.59997558594</ele>
        <time>2019-09-22T13:03:53.000Z</time>
      </trkpt>
      <trkpt lat="45.45272" lon="4.68185">
        <ele>637.20001220703</ele>
        <time>2019-09-22T13:04:00.000Z</time>
      </trkpt>
      <trkpt lat="45.45283" lon="4.68165">
        <ele>641.79998779297</ele>
        <time>2019-09-22T13:04:05.000Z</time>
      </trkpt>
      <trkpt lat="45.45297" lon="4.68148">
        <ele>646.20001220703</ele>
        <time>2019-09-22T13:04:10.000Z</time>
      </trkpt>
      <trkpt lat="45.45317" lon="4.68141">
        <ele>650.79998779297</ele>
        <time>2019-09-22T13:04:15.000Z</time>
      </trkpt>
      <trkpt lat="45.45346" lon="4.68162">
        <ele>648.79998779297</ele>
        <time>2019-09-22T13:04:20.000Z</time>
      </trkpt>
      <trkpt lat="45.45365" lon="4.68176">
        <ele>647</ele>
        <time>2019-09-22T13:04:25.000Z</time>
      </trkpt>
      <trkpt lat="45.45384" lon="4.68187">
        <ele>646.59997558594</ele>
        <time>2019-09-22T13:04:33.000Z</time>
      </trkpt>
      <trkpt lat="45.45405" lon="4.68193">
        <ele>649.20001220703</ele>
        <time>2019-09-22T13:04:40.000Z</time>
      </trkpt>
      <trkpt lat="45.45425" lon="4.68197">
        <ele>652</ele>
        <time>2019-09-22T13:04:47.000Z</time>
      </trkpt>
      <trkpt lat="45.45445" lon="4.68202">
        <ele>655</ele>
        <time>2019-09-22T13:04:53.000Z</time>
      </trkpt>
      <trkpt lat="45.45464" lon="4.68207">
        <ele>657.20001220703</ele>
        <time>2019-09-22T13:04:59.000Z</time>
      </trkpt>
      <trkpt lat="45.45483" lon="4.68214">
        <ele>659</ele>
        <time>2019-09-22T13:05:05.000Z</time>
      </trkpt>
      <trkpt lat="45.455" lon="4.68221">
        <ele>660.40002441406</ele>
        <time>2019-09-22T13:05:11.000Z</time>
      </trkpt>
      <trkpt lat="45.45528" lon="4.68235">
        <ele>661.59997558594</ele>
        <time>2019-09-22T13:05:16.000Z</time>
      </trkpt>
      <trkpt lat="45.45544" lon="4.68247">
        <ele>661.20001220703</ele>
        <time>2019-09-22T13:05:22.000Z</time>
      </trkpt>
      <trkpt lat="45.4556" lon="4.6826">
        <ele>661</ele>
        <time>2019-09-22T13:05:30.000Z</time>
      </trkpt>
      <trkpt lat="45.45576" lon="4.68274">
        <ele>660.79998779297</ele>
        <time>2019-09-22T13:05:36.000Z</time>
      </trkpt>
      <trkpt lat="45.45593" lon="4.68291">
        <ele>660.20001220703</ele>
        <time>2019-09-22T13:05:42.000Z</time>
      </trkpt>
      <trkpt lat="45.45609" lon="4.68309">
        <ele>659.79998779297</ele>
        <time>2019-09-22T13:05:48.000Z</time>
      </trkpt>
      <trkpt lat="45.45623" lon="4.68325">
        <ele>659.40002441406</ele>
        <time>2019-09-22T13:05:54.000Z</time>
      </trkpt>
      <trkpt lat="45.45638" lon="4.68342">
        <ele>657.79998779297</ele>
        <time>2019-09-22T13:05:59.000Z</time>
      </trkpt>
      <trkpt lat="45.45654" lon="4.68358">
        <ele>655</ele>
        <time>2019-09-22T13:06:04.000Z</time>
      </trkpt>
      <trkpt lat="45.4567" lon="4.68374">
        <ele>652.40002441406</ele>
        <time>2019-09-22T13:06:09.000Z</time>
      </trkpt>
      <trkpt lat="45.45688" lon="4.68386">
        <ele>651.20001220703</ele>
        <time>2019-09-22T13:06:15.000Z</time>
      </trkpt>
      <trkpt lat="45.45715" lon="4.68396">
        <ele>651.20001220703</ele>
        <time>2019-09-22T13:06:18.000Z</time>
      </trkpt>
      <trkpt lat="45.45735" lon="4.68397">
        <ele>649.79998779297</ele>
        <time>2019-09-22T13:06:24.000Z</time>
      </trkpt>
      <trkpt lat="45.45753" lon="4.68397">
        <ele>648.59997558594</ele>
        <time>2019-09-22T13:06:30.000Z</time>
      </trkpt>
      <trkpt lat="45.45771" lon="4.68393">
        <ele>648.79998779297</ele>
        <time>2019-09-22T13:06:35.000Z</time>
      </trkpt>
      <trkpt lat="45.45789" lon="4.68385">
        <ele>650.40002441406</ele>
        <time>2019-09-22T13:06:40.000Z</time>
      </trkpt>
      <trkpt lat="45.45808" lon="4.68373">
        <ele>651.79998779297</ele>
        <time>2019-09-22T13:06:45.000Z</time>
      </trkpt>
      <trkpt lat="45.45826" lon="4.68359">
        <ele>653.59997558594</ele>
        <time>2019-09-22T13:06:50.000Z</time>
      </trkpt>
      <trkpt lat="45.45842" lon="4.68344">
        <ele>655.79998779297</ele>
        <time>2019-09-22T13:06:55.000Z</time>
      </trkpt>
      <trkpt lat="45.45859" lon="4.68328">
        <ele>659.20001220703</ele>
        <time>2019-09-22T13:07:00.000Z</time>
      </trkpt>
      <trkpt lat="45.45885" lon="4.68316">
        <ele>660.40002441406</ele>
        <time>2019-09-22T13:07:05.000Z</time>
      </trkpt>
      <trkpt lat="45.45905" lon="4.68317">
        <ele>657.79998779297</ele>
        <time>2019-09-22T13:07:11.000Z</time>
      </trkpt>
      <trkpt lat="45.45925" lon="4.68317">
        <ele>656</ele>
        <time>2019-09-22T13:07:21.000Z</time>
      </trkpt>
      <trkpt lat="45.45944" lon="4.68313">
        <ele>656</ele>
        <time>2019-09-22T13:07:27.000Z</time>
      </trkpt>
      <trkpt lat="45.45963" lon="4.68304">
        <ele>657.59997558594</ele>
        <time>2019-09-22T13:07:33.000Z</time>
      </trkpt>
      <trkpt lat="45.45982" lon="4.68289">
        <ele>660</ele>
        <time>2019-09-22T13:07:38.000Z</time>
      </trkpt>
      <trkpt lat="45.45997" lon="4.68277">
        <ele>661.20001220703</ele>
        <time>2019-09-22T13:07:43.000Z</time>
      </trkpt>
      <trkpt lat="45.46014" lon="4.68266">
        <ele>661.59997558594</ele>
        <time>2019-09-22T13:07:48.000Z</time>
      </trkpt>
      <trkpt lat="45.46035" lon="4.68257">
        <ele>661</ele>
        <time>2019-09-22T13:07:53.000Z</time>
      </trkpt>
      <trkpt lat="45.46045" lon="4.6825">
        <ele>661.79998779297</ele>
        <time>2019-09-22T13:07:58.000Z</time>
      </trkpt>
      <trkpt lat="45.46066" lon="4.68235">
        <ele>662.20001220703</ele>
        <time>2019-09-22T13:08:07.000Z</time>
      </trkpt>
      <trkpt lat="45.46086" lon="4.68225">
        <ele>659</ele>
        <time>2019-09-22T13:08:12.000Z</time>
      </trkpt>
      <trkpt lat="45.46105" lon="4.68215">
        <ele>655</ele>
        <time>2019-09-22T13:08:18.000Z</time>
      </trkpt>
      <trkpt lat="45.46124" lon="4.682">
        <ele>652</ele>
        <time>2019-09-22T13:08:24.000Z</time>
      </trkpt>
      <trkpt lat="45.46139" lon="4.68184">
        <ele>652.40002441406</ele>
        <time>2019-09-22T13:08:30.000Z</time>
      </trkpt>
      <trkpt lat="45.46152" lon="4.68164">
        <ele>654.79998779297</ele>
        <time>2019-09-22T13:08:36.000Z</time>
      </trkpt>
      <trkpt lat="45.46165" lon="4.68142">
        <ele>657.79998779297</ele>
        <time>2019-09-22T13:08:43.000Z</time>
      </trkpt>
      <trkpt lat="45.46175" lon="4.68121">
        <ele>660</ele>
        <time>2019-09-22T13:08:55.000Z</time>
      </trkpt>
      <trkpt lat="45.46186" lon="4.681">
        <ele>662.40002441406</ele>
        <time>2019-09-22T13:09:03.000Z</time>
      </trkpt>
      <trkpt lat="45.46199" lon="4.68079">
        <ele>663.79998779297</ele>
        <time>2019-09-22T13:09:10.000Z</time>
      </trkpt>
      <trkpt lat="45.46224" lon="4.68044">
        <ele>666</ele>
        <time>2019-09-22T13:09:16.000Z</time>
      </trkpt>
      <trkpt lat="45.46242" lon="4.68028">
        <ele>665.59997558594</ele>
        <time>2019-09-22T13:09:22.000Z</time>
      </trkpt>
      <trkpt lat="45.4626" lon="4.68015">
        <ele>664.40002441406</ele>
        <time>2019-09-22T13:09:28.000Z</time>
      </trkpt>
      <trkpt lat="45.46277" lon="4.68006">
        <ele>662.20001220703</ele>
        <time>2019-09-22T13:09:34.000Z</time>
      </trkpt>
      <trkpt lat="45.46295" lon="4.67995">
        <ele>659.59997558594</ele>
        <time>2019-09-22T13:09:40.000Z</time>
      </trkpt>
      <trkpt lat="45.46311" lon="4.67983">
        <ele>659.59997558594</ele>
        <time>2019-09-22T13:09:50.000Z</time>
      </trkpt>
      <trkpt lat="45.46329" lon="4.6797">
        <ele>659.40002441406</ele>
        <time>2019-09-22T13:09:56.000Z</time>
      </trkpt>
      <trkpt lat="45.46347" lon="4.67952">
        <ele>658.59997558594</ele>
        <time>2019-09-22T13:10:02.000Z</time>
      </trkpt>
      <trkpt lat="45.46375" lon="4.67919">
        <ele>655.40002441406</ele>
        <time>2019-09-22T13:10:08.000Z</time>
      </trkpt>
      <trkpt lat="45.46389" lon="4.67903">
        <ele>655.40002441406</ele>
        <time>2019-09-22T13:10:14.000Z</time>
      </trkpt>
      <trkpt lat="45.46406" lon="4.67888">
        <ele>658.40002441406</ele>
        <time>2019-09-22T13:10:19.000Z</time>
      </trkpt>
      <trkpt lat="45.46421" lon="4.67871">
        <ele>658</ele>
        <time>2019-09-22T13:10:25.000Z</time>
      </trkpt>
      <trkpt lat="45.46436" lon="4.67855">
        <ele>658.20001220703</ele>
        <time>2019-09-22T13:10:40.000Z</time>
      </trkpt>
      <trkpt lat="45.46449" lon="4.67837">
        <ele>657.20001220703</ele>
        <time>2019-09-22T13:10:45.000Z</time>
      </trkpt>
      <trkpt lat="45.46465" lon="4.67821">
        <ele>654.40002441406</ele>
        <time>2019-09-22T13:10:50.000Z</time>
      </trkpt>
      <trkpt lat="45.46487" lon="4.67798">
        <ele>655.79998779297</ele>
        <time>2019-09-22T13:10:55.000Z</time>
      </trkpt>
      <trkpt lat="45.46502" lon="4.6778">
        <ele>655.79998779297</ele>
        <time>2019-09-22T13:11:01.000Z</time>
      </trkpt>
      <trkpt lat="45.46516" lon="4.67761">
        <ele>656</ele>
        <time>2019-09-22T13:11:06.000Z</time>
      </trkpt>
      <trkpt lat="45.46531" lon="4.67743">
        <ele>654.20001220703</ele>
        <time>2019-09-22T13:11:12.000Z</time>
      </trkpt>
      <trkpt lat="45.46548" lon="4.67726">
        <ele>652.20001220703</ele>
        <time>2019-09-22T13:11:18.000Z</time>
      </trkpt>
      <trkpt lat="45.46565" lon="4.6771">
        <ele>651.59997558594</ele>
        <time>2019-09-22T13:11:24.000Z</time>
      </trkpt>
      <trkpt lat="45.4658" lon="4.67696">
        <ele>651.79998779297</ele>
        <time>2019-09-22T13:11:30.000Z</time>
      </trkpt>
      <trkpt lat="45.46598" lon="4.67683">
        <ele>652.40002441406</ele>
        <time>2019-09-22T13:11:36.000Z</time>
      </trkpt>
      <trkpt lat="45.46625" lon="4.67663">
        <ele>652.40002441406</ele>
        <time>2019-09-22T13:11:42.000Z</time>
      </trkpt>
      <trkpt lat="45.46642" lon="4.6765">
        <ele>651.79998779297</ele>
        <time>2019-09-22T13:11:48.000Z</time>
      </trkpt>
      <trkpt lat="45.4666" lon="4.6764">
        <ele>651.79998779297</ele>
        <time>2019-09-22T13:11:58.000Z</time>
      </trkpt>
      <trkpt lat="45.46678" lon="4.67628">
        <ele>651.79998779297</ele>
        <time>2019-09-22T13:12:04.000Z</time>
      </trkpt>
      <trkpt lat="45.46697" lon="4.67616">
        <ele>652.20001220703</ele>
        <time>2019-09-22T13:12:10.000Z</time>
      </trkpt>
      <trkpt lat="45.46713" lon="4.67606">
        <ele>652.40002441406</ele>
        <time>2019-09-22T13:12:15.000Z</time>
      </trkpt>
      <trkpt lat="45.46733" lon="4.67595">
        <ele>652.79998779297</ele>
        <time>2019-09-22T13:12:20.000Z</time>
      </trkpt>
      <trkpt lat="45.46784" lon="4.67568">
        <ele>655.59997558594</ele>
        <time>2019-09-22T13:12:25.000Z</time>
      </trkpt>
      <trkpt lat="45.46801" lon="4.67562">
        <ele>658</ele>
        <time>2019-09-22T13:12:30.000Z</time>
      </trkpt>
      <trkpt lat="45.46819" lon="4.6755">
        <ele>662</ele>
        <time>2019-09-22T13:12:35.000Z</time>
      </trkpt>
      <trkpt lat="45.4683" lon="4.67529">
        <ele>664</ele>
        <time>2019-09-22T13:12:40.000Z</time>
      </trkpt>
      <trkpt lat="45.46843" lon="4.67508">
        <ele>665.79998779297</ele>
        <time>2019-09-22T13:12:46.000Z</time>
      </trkpt>
      <trkpt lat="45.46854" lon="4.67492">
        <ele>667.20001220703</ele>
        <time>2019-09-22T13:12:50.000Z</time>
      </trkpt>
      <trkpt lat="45.46865" lon="4.67469">
        <ele>667.79998779297</ele>
        <time>2019-09-22T13:12:52.000Z</time>
      </trkpt>
      <trkpt lat="45.46873" lon="4.67445">
        <ele>667.40002441406</ele>
        <time>2019-09-22T13:12:55.000Z</time>
      </trkpt>
      <trkpt lat="45.4688" lon="4.6742">
        <ele>666.40002441406</ele>
        <time>2019-09-22T13:12:58.000Z</time>
      </trkpt>
      <trkpt lat="45.46889" lon="4.67397">
        <ele>666</ele>
        <time>2019-09-22T13:13:01.000Z</time>
      </trkpt>
      <trkpt lat="45.46899" lon="4.67374">
        <ele>665.59997558594</ele>
        <time>2019-09-22T13:13:04.000Z</time>
      </trkpt>
      <trkpt lat="45.4691" lon="4.67352">
        <ele>665.40002441406</ele>
        <time>2019-09-22T13:13:07.000Z</time>
      </trkpt>
      <trkpt lat="45.46923" lon="4.67332">
        <ele>666</ele>
        <time>2019-09-22T13:13:10.000Z</time>
      </trkpt>
      <trkpt lat="45.46948" lon="4.67301">
        <ele>663.40002441406</ele>
        <time>2019-09-22T13:13:11.000Z</time>
      </trkpt>
      <trkpt lat="45.46966" lon="4.67285">
        <ele>662.59997558594</ele>
        <time>2019-09-22T13:13:14.000Z</time>
      </trkpt>
      <trkpt lat="45.46984" lon="4.67269">
        <ele>661.59997558594</ele>
        <time>2019-09-22T13:13:17.000Z</time>
      </trkpt>
      <trkpt lat="45.47001" lon="4.67261">
        <ele>661.79998779297</ele>
        <time>2019-09-22T13:13:19.000Z</time>
      </trkpt>
      <trkpt lat="45.4702" lon="4.67254">
        <ele>662.20001220703</ele>
        <time>2019-09-22T13:13:20.000Z</time>
      </trkpt>
      <trkpt lat="45.47039" lon="4.67246">
        <ele>662</ele>
        <time>2019-09-22T13:13:22.000Z</time>
      </trkpt>
      <trkpt lat="45.47058" lon="4.67238">
        <ele>661.20001220703</ele>
        <time>2019-09-22T13:13:24.000Z</time>
      </trkpt>
      <trkpt lat="45.47076" lon="4.67231">
        <ele>660.20001220703</ele>
        <time>2019-09-22T13:13:26.000Z</time>
      </trkpt>
      <trkpt lat="45.47094" lon="4.67225">
        <ele>659.59997558594</ele>
        <time>2019-09-22T13:13:28.000Z</time>
      </trkpt>
      <trkpt lat="45.47119" lon="4.67219">
        <ele>659.40002441406</ele>
        <time>2019-09-22T13:13:30.000Z</time>
      </trkpt>
      <trkpt lat="45.47142" lon="4.67216">
        <ele>658.40002441406</ele>
        <time>2019-09-22T13:13:31.000Z</time>
      </trkpt>
      <trkpt lat="45.47155" lon="4.67214">
        <ele>658</ele>
        <time>2019-09-22T13:13:33.000Z</time>
      </trkpt>
      <trkpt lat="45.47175" lon="4.67208">
        <ele>657.79998779297</ele>
        <time>2019-09-22T13:13:34.000Z</time>
      </trkpt>
      <trkpt lat="45.47197" lon="4.67205">
        <ele>657.79998779297</ele>
        <time>2019-09-22T13:13:36.000Z</time>
      </trkpt>
      <trkpt lat="45.4722" lon="4.67199">
        <ele>657.79998779297</ele>
        <time>2019-09-22T13:13:38.000Z</time>
      </trkpt>
      <trkpt lat="45.47243" lon="4.67194">
        <ele>657.59997558594</ele>
        <time>2019-09-22T13:13:40.000Z</time>
      </trkpt>
      <trkpt lat="45.47266" lon="4.67191">
        <ele>657.40002441406</ele>
        <time>2019-09-22T13:13:42.000Z</time>
      </trkpt>
      <trkpt lat="45.4729" lon="4.6719">
        <ele>657.59997558594</ele>
        <time>2019-09-22T13:13:44.000Z</time>
      </trkpt>
      <trkpt lat="45.47298" lon="4.67192">
        <ele>658.20001220703</ele>
        <time>2019-09-22T13:13:45.000Z</time>
      </trkpt>
      <trkpt lat="45.47321" lon="4.67204">
        <ele>657.40002441406</ele>
        <time>2019-09-22T13:13:46.000Z</time>
      </trkpt>
      <trkpt lat="45.47338" lon="4.67234">
        <ele>654.40002441406</ele>
        <time>2019-09-22T13:13:48.000Z</time>
      </trkpt>
      <trkpt lat="45.47344" lon="4.67261">
        <ele>652.79998779297</ele>
        <time>2019-09-22T13:13:50.000Z</time>
      </trkpt>
      <trkpt lat="45.47345" lon="4.67277">
        <ele>652.40002441406</ele>
        <time>2019-09-22T13:13:52.000Z</time>
      </trkpt>
      <trkpt lat="45.47347" lon="4.67309">
        <ele>649.79998779297</ele>
        <time>2019-09-22T13:13:54.000Z</time>
      </trkpt>
      <trkpt lat="45.4735" lon="4.67343">
        <ele>646.79998779297</ele>
        <time>2019-09-22T13:13:56.000Z</time>
      </trkpt>
      <trkpt lat="45.47352" lon="4.67378">
        <ele>645.40002441406</ele>
        <time>2019-09-22T13:13:58.000Z</time>
      </trkpt>
      <trkpt lat="45.47355" lon="4.67413">
        <ele>643.40002441406</ele>
        <time>2019-09-22T13:14:00.000Z</time>
      </trkpt>
      <trkpt lat="45.47357" lon="4.67447">
        <ele>641.79998779297</ele>
        <time>2019-09-22T13:14:02.000Z</time>
      </trkpt>
      <trkpt lat="45.47358" lon="4.67464">
        <ele>641</ele>
        <time>2019-09-22T13:14:04.000Z</time>
      </trkpt>
      <trkpt lat="45.47358" lon="4.67497">
        <ele>640</ele>
        <time>2019-09-22T13:14:06.000Z</time>
      </trkpt>
      <trkpt lat="45.47356" lon="4.67514">
        <ele>639.59997558594</ele>
        <time>2019-09-22T13:14:08.000Z</time>
      </trkpt>
      <trkpt lat="45.47349" lon="4.67545">
        <ele>639.40002441406</ele>
        <time>2019-09-22T13:14:10.000Z</time>
      </trkpt>
      <trkpt lat="45.47337" lon="4.67574">
        <ele>640.79998779297</ele>
        <time>2019-09-22T13:14:12.000Z</time>
      </trkpt>
      <trkpt lat="45.47321" lon="4.67598">
        <ele>641</ele>
        <time>2019-09-22T13:14:13.000Z</time>
      </trkpt>
      <trkpt lat="45.47302" lon="4.67618">
        <ele>641.79998779297</ele>
        <time>2019-09-22T13:14:14.000Z</time>
      </trkpt>
      <trkpt lat="45.47284" lon="4.67638">
        <ele>642.40002441406</ele>
        <time>2019-09-22T13:14:16.000Z</time>
      </trkpt>
      <trkpt lat="45.47277" lon="4.67649">
        <ele>642.20001220703</ele>
        <time>2019-09-22T13:14:18.000Z</time>
      </trkpt>
      <trkpt lat="45.47271" lon="4.67662">
        <ele>641.79998779297</ele>
        <time>2019-09-22T13:14:20.000Z</time>
      </trkpt>
      <trkpt lat="45.47263" lon="4.67691">
        <ele>639.40002441406</ele>
        <time>2019-09-22T13:14:22.000Z</time>
      </trkpt>
      <trkpt lat="45.47265" lon="4.67722">
        <ele>636.20001220703</ele>
        <time>2019-09-22T13:14:24.000Z</time>
      </trkpt>
      <trkpt lat="45.47276" lon="4.67749">
        <ele>632.20001220703</ele>
        <time>2019-09-22T13:14:26.000Z</time>
      </trkpt>
      <trkpt lat="45.47294" lon="4.67768">
        <ele>627.40002441406</ele>
        <time>2019-09-22T13:14:28.000Z</time>
      </trkpt>
      <trkpt lat="45.47314" lon="4.67784">
        <ele>622.59997558594</ele>
        <time>2019-09-22T13:14:29.000Z</time>
      </trkpt>
      <trkpt lat="45.47335" lon="4.67801">
        <ele>620.20001220703</ele>
        <time>2019-09-22T13:14:32.000Z</time>
      </trkpt>
      <trkpt lat="45.47356" lon="4.67816">
        <ele>618.20001220703</ele>
        <time>2019-09-22T13:14:34.000Z</time>
      </trkpt>
      <trkpt lat="45.47376" lon="4.67832">
        <ele>616.20001220703</ele>
        <time>2019-09-22T13:14:38.000Z</time>
      </trkpt>
      <trkpt lat="45.47397" lon="4.67848">
        <ele>614</ele>
        <time>2019-09-22T13:14:41.000Z</time>
      </trkpt>
      <trkpt lat="45.47417" lon="4.67863">
        <ele>611.79998779297</ele>
        <time>2019-09-22T13:14:44.000Z</time>
      </trkpt>
      <trkpt lat="45.47435" lon="4.6788">
        <ele>609.40002441406</ele>
        <time>2019-09-22T13:14:48.000Z</time>
      </trkpt>
      <trkpt lat="45.4745" lon="4.67906">
        <ele>607.59997558594</ele>
        <time>2019-09-22T13:14:51.000Z</time>
      </trkpt>
      <trkpt lat="45.47459" lon="4.67934">
        <ele>606.79998779297</ele>
        <time>2019-09-22T13:14:52.000Z</time>
      </trkpt>
      <trkpt lat="45.47463" lon="4.67947">
        <ele>606.40002441406</ele>
        <time>2019-09-22T13:14:55.000Z</time>
      </trkpt>
      <trkpt lat="45.47468" lon="4.67958">
        <ele>605.59997558594</ele>
        <time>2019-09-22T13:14:56.000Z</time>
      </trkpt>
      <trkpt lat="45.47481" lon="4.67976">
        <ele>603.40002441406</ele>
        <time>2019-09-22T13:14:59.000Z</time>
      </trkpt>
      <trkpt lat="45.47505" lon="4.67985">
        <ele>600.59997558594</ele>
        <time>2019-09-22T13:15:02.000Z</time>
      </trkpt>
      <trkpt lat="45.47531" lon="4.67987">
        <ele>597.40002441406</ele>
        <time>2019-09-22T13:15:05.000Z</time>
      </trkpt>
      <trkpt lat="45.47558" lon="4.67986">
        <ele>594.40002441406</ele>
        <time>2019-09-22T13:15:06.000Z</time>
      </trkpt>
      <trkpt lat="45.47584" lon="4.67982">
        <ele>591.59997558594</ele>
        <time>2019-09-22T13:15:10.000Z</time>
      </trkpt>
      <trkpt lat="45.4761" lon="4.67971">
        <ele>589</ele>
        <time>2019-09-22T13:15:15.000Z</time>
      </trkpt>
      <trkpt lat="45.47632" lon="4.67959">
        <ele>587</ele>
        <time>2019-09-22T13:15:17.000Z</time>
      </trkpt>
      <trkpt lat="45.4764" lon="4.67952">
        <ele>585.79998779297</ele>
        <time>2019-09-22T13:15:20.000Z</time>
      </trkpt>
      <trkpt lat="45.47653" lon="4.67932">
        <ele>581.59997558594</ele>
        <time>2019-09-22T13:15:26.000Z</time>
      </trkpt>
      <trkpt lat="45.47659" lon="4.67927">
        <ele>580.20001220703</ele>
        <time>2019-09-22T13:15:40.000Z</time>
      </trkpt>
      <trkpt lat="45.47664" lon="4.67947">
        <ele>581.20001220703</ele>
        <time>2019-09-22T13:15:48.000Z</time>
      </trkpt>
      <trkpt lat="45.47664" lon="4.67969">
        <ele>581.59997558594</ele>
        <time>2019-09-22T13:15:56.000Z</time>
      </trkpt>
      <trkpt lat="45.47662" lon="4.67985">
        <ele>581.59997558594</ele>
        <time>2019-09-22T13:16:03.000Z</time>
      </trkpt>
      <trkpt lat="45.47656" lon="4.68017">
        <ele>581.79998779297</ele>
        <time>2019-09-22T13:16:11.000Z</time>
      </trkpt>
      <trkpt lat="45.47646" lon="4.68043">
        <ele>582.59997558594</ele>
        <time>2019-09-22T13:16:16.000Z</time>
      </trkpt>
      <trkpt lat="45.47641" lon="4.68051">
        <ele>582.79998779297</ele>
        <time>2019-09-22T13:16:27.000Z</time>
      </trkpt>
      <trkpt lat="45.47625" lon="4.68077">
        <ele>582.40002441406</ele>
        <time>2019-09-22T13:16:34.000Z</time>
      </trkpt>
      <trkpt lat="45.47619" lon="4.68085">
        <ele>582.40002441406</ele>
        <time>2019-09-22T13:16:38.000Z</time>
      </trkpt>
      <trkpt lat="45.47598" lon="4.68107">
        <ele>582.59997558594</ele>
        <time>2019-09-22T13:16:41.000Z</time>
      </trkpt>
      <trkpt lat="45.47594" lon="4.68135">
        <ele>580.59997558594</ele>
        <time>2019-09-22T13:16:44.000Z</time>
      </trkpt>
      <trkpt lat="45.47602" lon="4.6816">
        <ele>578</ele>
        <time>2019-09-22T13:16:45.000Z</time>
      </trkpt>
      <trkpt lat="45.47604" lon="4.68168">
        <ele>577.40002441406</ele>
        <time>2019-09-22T13:16:47.000Z</time>
      </trkpt>
      <trkpt lat="45.4761" lon="4.68198">
        <ele>575.20001220703</ele>
        <time>2019-09-22T13:16:49.000Z</time>
      </trkpt>
      <trkpt lat="45.47615" lon="4.68226">
        <ele>576.40002441406</ele>
        <time>2019-09-22T13:16:52.000Z</time>
      </trkpt>
      <trkpt lat="45.47617" lon="4.68234">
        <ele>576.79998779297</ele>
        <time>2019-09-22T13:16:55.000Z</time>
      </trkpt>
      <trkpt lat="45.47618" lon="4.68244">
        <ele>577.40002441406</ele>
        <time>2019-09-22T13:16:57.000Z</time>
      </trkpt>
      <trkpt lat="45.47621" lon="4.68258">
        <ele>578.20001220703</ele>
        <time>2019-09-22T13:17:01.000Z</time>
      </trkpt>
      <trkpt lat="45.47626" lon="4.68286">
        <ele>579.79998779297</ele>
        <time>2019-09-22T13:17:05.000Z</time>
      </trkpt>
      <trkpt lat="45.47629" lon="4.68314">
        <ele>582.40002441406</ele>
        <time>2019-09-22T13:17:09.000Z</time>
      </trkpt>
      <trkpt lat="45.47631" lon="4.68343">
        <ele>585.40002441406</ele>
        <time>2019-09-22T13:17:13.000Z</time>
      </trkpt>
      <trkpt lat="45.4763" lon="4.68369">
        <ele>588.20001220703</ele>
        <time>2019-09-22T13:17:17.000Z</time>
      </trkpt>
      <trkpt lat="45.47629" lon="4.68398">
        <ele>591</ele>
        <time>2019-09-22T13:17:21.000Z</time>
      </trkpt>
      <trkpt lat="45.47627" lon="4.68418">
        <ele>593.20001220703</ele>
        <time>2019-09-22T13:17:25.000Z</time>
      </trkpt>
      <trkpt lat="45.47618" lon="4.68459">
        <ele>597.20001220703</ele>
        <time>2019-09-22T13:17:30.000Z</time>
      </trkpt>
      <trkpt lat="45.47611" lon="4.68487">
        <ele>597.40002441406</ele>
        <time>2019-09-22T13:17:34.000Z</time>
      </trkpt>
      <trkpt lat="45.47603" lon="4.68512">
        <ele>597.79998779297</ele>
        <time>2019-09-22T13:17:35.000Z</time>
      </trkpt>
      <trkpt lat="45.47595" lon="4.68537">
        <ele>597.59997558594</ele>
        <time>2019-09-22T13:17:37.000Z</time>
      </trkpt>
      <trkpt lat="45.47584" lon="4.68569">
        <ele>595.40002441406</ele>
        <time>2019-09-22T13:17:40.000Z</time>
      </trkpt>
      <trkpt lat="45.47579" lon="4.68579">
        <ele>595</ele>
        <time>2019-09-22T13:17:42.000Z</time>
      </trkpt>
      <trkpt lat="45.47568" lon="4.686">
        <ele>594.20001220703</ele>
        <time>2019-09-22T13:17:43.000Z</time>
      </trkpt>
      <trkpt lat="45.47556" lon="4.6862">
        <ele>593.40002441406</ele>
        <time>2019-09-22T13:17:46.000Z</time>
      </trkpt>
      <trkpt lat="45.47552" lon="4.68656">
        <ele>592.20001220703</ele>
        <time>2019-09-22T13:17:49.000Z</time>
      </trkpt>
      <trkpt lat="45.47565" lon="4.6868">
        <ele>590.40002441406</ele>
        <time>2019-09-22T13:17:57.000Z</time>
      </trkpt>
      <trkpt lat="45.47575" lon="4.6869">
        <ele>589.40002441406</ele>
        <time>2019-09-22T13:18:01.000Z</time>
      </trkpt>
      <trkpt lat="45.47594" lon="4.68707">
        <ele>588.20001220703</ele>
        <time>2019-09-22T13:18:06.000Z</time>
      </trkpt>
      <trkpt lat="45.47612" lon="4.68724">
        <ele>589</ele>
        <time>2019-09-22T13:18:08.000Z</time>
      </trkpt>
      <trkpt lat="45.47628" lon="4.68741">
        <ele>589.79998779297</ele>
        <time>2019-09-22T13:18:16.000Z</time>
      </trkpt>
      <trkpt lat="45.47644" lon="4.68758">
        <ele>590.59997558594</ele>
        <time>2019-09-22T13:18:17.000Z</time>
      </trkpt>
      <trkpt lat="45.47658" lon="4.68775">
        <ele>591.20001220703</ele>
        <time>2019-09-22T13:18:24.000Z</time>
      </trkpt>
      <trkpt lat="45.47671" lon="4.68795">
        <ele>591.59997558594</ele>
        <time>2019-09-22T13:18:26.000Z</time>
      </trkpt>
      <trkpt lat="45.4768" lon="4.68818">
        <ele>592.20001220703</ele>
        <time>2019-09-22T13:18:28.000Z</time>
      </trkpt>
      <trkpt lat="45.47688" lon="4.68848">
        <ele>593.40002441406</ele>
        <time>2019-09-22T13:18:32.000Z</time>
      </trkpt>
      <trkpt lat="45.4769" lon="4.68874">
        <ele>595</ele>
        <time>2019-09-22T13:18:35.000Z</time>
      </trkpt>
      <trkpt lat="45.4769" lon="4.68882">
        <ele>595</ele>
        <time>2019-09-22T13:18:38.000Z</time>
      </trkpt>
      <trkpt lat="45.47687" lon="4.68899">
        <ele>595.20001220703</ele>
        <time>2019-09-22T13:18:43.000Z</time>
      </trkpt>
      <trkpt lat="45.47676" lon="4.68929">
        <ele>595.79998779297</ele>
        <time>2019-09-22T13:18:49.000Z</time>
      </trkpt>
      <trkpt lat="45.47666" lon="4.6895">
        <ele>596</ele>
        <time>2019-09-22T13:18:55.000Z</time>
      </trkpt>
      <trkpt lat="45.47662" lon="4.68962">
        <ele>597</ele>
        <time>2019-09-22T13:19:01.000Z</time>
      </trkpt>
      <trkpt lat="45.47661" lon="4.68998">
        <ele>599.40002441406</ele>
        <time>2019-09-22T13:19:07.000Z</time>
      </trkpt>
      <trkpt lat="45.47669" lon="4.6902">
        <ele>600</ele>
        <time>2019-09-22T13:19:12.000Z</time>
      </trkpt>
      <trkpt lat="45.47684" lon="4.69048">
        <ele>601.40002441406</ele>
        <time>2019-09-22T13:19:17.000Z</time>
      </trkpt>
      <trkpt lat="45.47689" lon="4.69055">
        <ele>601.79998779297</ele>
        <time>2019-09-22T13:19:21.000Z</time>
      </trkpt>
      <trkpt lat="45.47697" lon="4.69065">
        <ele>602.59997558594</ele>
        <time>2019-09-22T13:19:25.000Z</time>
      </trkpt>
      <trkpt lat="45.47699" lon="4.6907">
        <ele>603</ele>
        <time>2019-09-22T13:19:29.000Z</time>
      </trkpt>
      <trkpt lat="45.47711" lon="4.69091">
        <ele>605</ele>
        <time>2019-09-22T13:19:33.000Z</time>
      </trkpt>
      <trkpt lat="45.47713" lon="4.69094">
        <ele>605.20001220703</ele>
        <time>2019-09-22T13:19:40.000Z</time>
      </trkpt>
      <trkpt lat="45.47723" lon="4.69114">
        <ele>606</ele>
        <time>2019-09-22T13:19:45.000Z</time>
      </trkpt>
      <trkpt lat="45.47726" lon="4.69119">
        <ele>606.20001220703</ele>
        <time>2019-09-22T13:19:50.000Z</time>
      </trkpt>
      <trkpt lat="45.47729" lon="4.69125">
        <ele>606.20001220703</ele>
        <time>2019-09-22T13:19:54.000Z</time>
      </trkpt>
      <trkpt lat="45.47733" lon="4.69138">
        <ele>606.40002441406</ele>
        <time>2019-09-22T13:19:56.000Z</time>
      </trkpt>
      <trkpt lat="45.47737" lon="4.69148">
        <ele>606.79998779297</ele>
        <time>2019-09-22T13:20:01.000Z</time>
      </trkpt>
      <trkpt lat="45.4774" lon="4.6916">
        <ele>607.20001220703</ele>
        <time>2019-09-22T13:20:06.000Z</time>
      </trkpt>
      <trkpt lat="45.47743" lon="4.6918">
        <ele>608.20001220703</ele>
        <time>2019-09-22T13:20:11.000Z</time>
      </trkpt>
      <trkpt lat="45.47748" lon="4.69208">
        <ele>609.40002441406</ele>
        <time>2019-09-22T13:20:16.000Z</time>
      </trkpt>
      <trkpt lat="45.47753" lon="4.69235">
        <ele>608.79998779297</ele>
        <time>2019-09-22T13:20:20.000Z</time>
      </trkpt>
      <trkpt lat="45.47757" lon="4.69263">
        <ele>609.59997558594</ele>
        <time>2019-09-22T13:20:22.000Z</time>
      </trkpt>
      <trkpt lat="45.47758" lon="4.69293">
        <ele>611.20001220703</ele>
        <time>2019-09-22T13:20:57.000Z</time>
      </trkpt>
      <trkpt lat="45.4776" lon="4.6932">
        <ele>611</ele>
        <time>2019-09-22T13:21:04.000Z</time>
      </trkpt>
      <trkpt lat="45.4776" lon="4.69349">
        <ele>611.59997558594</ele>
        <time>2019-09-22T13:21:07.000Z</time>
      </trkpt>
      <trkpt lat="45.47757" lon="4.69375">
        <ele>612.59997558594</ele>
        <time>2019-09-22T13:23:02.000Z</time>
      </trkpt>
      <trkpt lat="45.47747" lon="4.694">
        <ele>614.40002441406</ele>
        <time>2019-09-22T13:23:05.000Z</time>
      </trkpt>
      <trkpt lat="45.47735" lon="4.69422">
        <ele>615.40002441406</ele>
        <time>2019-09-22T13:23:08.000Z</time>
      </trkpt>
      <trkpt lat="45.47721" lon="4.6944">
        <ele>617</ele>
        <time>2019-09-22T13:23:10.000Z</time>
      </trkpt>
      <trkpt lat="45.47698" lon="4.69461">
        <ele>621.40002441406</ele>
        <time>2019-09-22T13:23:13.000Z</time>
      </trkpt>
      <trkpt lat="45.47679" lon="4.69473">
        <ele>625.20001220703</ele>
        <time>2019-09-22T13:23:16.000Z</time>
      </trkpt>
      <trkpt lat="45.47665" lon="4.69493">
        <ele>627</ele>
        <time>2019-09-22T13:23:17.000Z</time>
      </trkpt>
      <trkpt lat="45.47656" lon="4.69515">
        <ele>625.59997558594</ele>
        <time>2019-09-22T13:23:20.000Z</time>
      </trkpt>
      <trkpt lat="45.47652" lon="4.69527">
        <ele>624.20001220703</ele>
        <time>2019-09-22T13:23:21.000Z</time>
      </trkpt>
      <trkpt lat="45.47645" lon="4.69557">
        <ele>624.40002441406</ele>
        <time>2019-09-22T13:23:23.000Z</time>
      </trkpt>
      <trkpt lat="45.4764" lon="4.69586">
        <ele>623.40002441406</ele>
        <time>2019-09-22T13:23:25.000Z</time>
      </trkpt>
      <trkpt lat="45.47636" lon="4.69614">
        <ele>622</ele>
        <time>2019-09-22T13:23:27.000Z</time>
      </trkpt>
      <trkpt lat="45.47634" lon="4.69638">
        <ele>622.40002441406</ele>
        <time>2019-09-22T13:23:29.000Z</time>
      </trkpt>
      <trkpt lat="45.47638" lon="4.69646">
        <ele>622.40002441406</ele>
        <time>2019-09-22T13:23:31.000Z</time>
      </trkpt>
      <trkpt lat="45.47639" lon="4.69646">
        <ele>622.40002441406</ele>
        <time>2019-09-22T13:23:33.000Z</time>
      </trkpt>
      <trkpt lat="45.47646" lon="4.69666">
        <ele>622.59997558594</ele>
        <time>2019-09-22T13:23:35.000Z</time>
      </trkpt>
      <trkpt lat="45.4765" lon="4.69691">
        <ele>623.20001220703</ele>
        <time>2019-09-22T13:23:37.000Z</time>
      </trkpt>
      <trkpt lat="45.47649" lon="4.69697">
        <ele>623.20001220703</ele>
        <time>2019-09-22T13:23:39.000Z</time>
      </trkpt>
      <trkpt lat="45.47645" lon="4.69707">
        <ele>623.79998779297</ele>
        <time>2019-09-22T13:23:41.000Z</time>
      </trkpt>
      <trkpt lat="45.47635" lon="4.69717">
        <ele>624</ele>
        <time>2019-09-22T13:23:43.000Z</time>
      </trkpt>
      <trkpt lat="45.47618" lon="4.69727">
        <ele>625.79998779297</ele>
        <time>2019-09-22T13:23:45.000Z</time>
      </trkpt>
      <trkpt lat="45.47607" lon="4.69736">
        <ele>627.20001220703</ele>
        <time>2019-09-22T13:23:46.000Z</time>
      </trkpt>
      <trkpt lat="45.47588" lon="4.69752">
        <ele>628.59997558594</ele>
        <time>2019-09-22T13:23:48.000Z</time>
      </trkpt>
      <trkpt lat="45.4757" lon="4.69772">
        <ele>627.40002441406</ele>
        <time>2019-09-22T13:23:50.000Z</time>
      </trkpt>
      <trkpt lat="45.47564" lon="4.69781">
        <ele>627</ele>
        <time>2019-09-22T13:23:52.000Z</time>
      </trkpt>
      <trkpt lat="45.47549" lon="4.69811">
        <ele>624</ele>
        <time>2019-09-22T13:23:54.000Z</time>
      </trkpt>
      <trkpt lat="45.47545" lon="4.69822">
        <ele>623.40002441406</ele>
        <time>2019-09-22T13:23:56.000Z</time>
      </trkpt>
      <trkpt lat="45.47535" lon="4.69847">
        <ele>621.79998779297</ele>
        <time>2019-09-22T13:23:58.000Z</time>
      </trkpt>
      <trkpt lat="45.47525" lon="4.69872">
        <ele>622</ele>
        <time>2019-09-22T13:24:00.000Z</time>
      </trkpt>
      <trkpt lat="45.47515" lon="4.69899">
        <ele>621.59997558594</ele>
        <time>2019-09-22T13:24:02.000Z</time>
      </trkpt>
      <trkpt lat="45.47504" lon="4.69926">
        <ele>620.79998779297</ele>
        <time>2019-09-22T13:24:04.000Z</time>
      </trkpt>
      <trkpt lat="45.47492" lon="4.69954">
        <ele>619.40002441406</ele>
        <time>2019-09-22T13:24:06.000Z</time>
      </trkpt>
      <trkpt lat="45.47482" lon="4.69981">
        <ele>617.20001220703</ele>
        <time>2019-09-22T13:24:08.000Z</time>
      </trkpt>
      <trkpt lat="45.47472" lon="4.70011">
        <ele>613.59997558594</ele>
        <time>2019-09-22T13:24:10.000Z</time>
      </trkpt>
      <trkpt lat="45.47464" lon="4.70042">
        <ele>610.20001220703</ele>
        <time>2019-09-22T13:24:12.000Z</time>
      </trkpt>
      <trkpt lat="45.47457" lon="4.70074">
        <ele>607.79998779297</ele>
        <time>2019-09-22T13:24:14.000Z</time>
      </trkpt>
      <trkpt lat="45.47449" lon="4.70104">
        <ele>605.79998779297</ele>
        <time>2019-09-22T13:24:16.000Z</time>
      </trkpt>
      <trkpt lat="45.47442" lon="4.70135">
        <ele>604</ele>
        <time>2019-09-22T13:24:18.000Z</time>
      </trkpt>
      <trkpt lat="45.47433" lon="4.70166">
        <ele>602.79998779297</ele>
        <time>2019-09-22T13:24:20.000Z</time>
      </trkpt>
      <trkpt lat="45.47427" lon="4.7018">
        <ele>602</ele>
        <time>2019-09-22T13:24:22.000Z</time>
      </trkpt>
      <trkpt lat="45.47413" lon="4.70208">
        <ele>601.40002441406</ele>
        <time>2019-09-22T13:24:24.000Z</time>
      </trkpt>
      <trkpt lat="45.47398" lon="4.70233">
        <ele>601.20001220703</ele>
        <time>2019-09-22T13:24:26.000Z</time>
      </trkpt>
      <trkpt lat="45.47383" lon="4.70259">
        <ele>599.59997558594</ele>
        <time>2019-09-22T13:24:28.000Z</time>
      </trkpt>
      <trkpt lat="45.47368" lon="4.70284">
        <ele>598.59997558594</ele>
        <time>2019-09-22T13:24:30.000Z</time>
      </trkpt>
      <trkpt lat="45.47356" lon="4.70311">
        <ele>599.40002441406</ele>
        <time>2019-09-22T13:24:32.000Z</time>
      </trkpt>
      <trkpt lat="45.47344" lon="4.7034">
        <ele>599</ele>
        <time>2019-09-22T13:24:34.000Z</time>
      </trkpt>
      <trkpt lat="45.47333" lon="4.7037">
        <ele>596.59997558594</ele>
        <time>2019-09-22T13:24:36.000Z</time>
      </trkpt>
      <trkpt lat="45.47319" lon="4.70396">
        <ele>594.59997558594</ele>
        <time>2019-09-22T13:24:38.000Z</time>
      </trkpt>
      <trkpt lat="45.47301" lon="4.70416">
        <ele>594.79998779297</ele>
        <time>2019-09-22T13:24:40.000Z</time>
      </trkpt>
      <trkpt lat="45.47279" lon="4.70425">
        <ele>590.79998779297</ele>
        <time>2019-09-22T13:24:42.000Z</time>
      </trkpt>
      <trkpt lat="45.47257" lon="4.70423">
        <ele>590.20001220703</ele>
        <time>2019-09-22T13:24:44.000Z</time>
      </trkpt>
      <trkpt lat="45.47237" lon="4.70409">
        <ele>592.20001220703</ele>
        <time>2019-09-22T13:24:45.000Z</time>
      </trkpt>
      <trkpt lat="45.47222" lon="4.70386">
        <ele>595.59997558594</ele>
        <time>2019-09-22T13:24:47.000Z</time>
      </trkpt>
      <trkpt lat="45.47209" lon="4.7036">
        <ele>597.20001220703</ele>
        <time>2019-09-22T13:24:49.000Z</time>
      </trkpt>
      <trkpt lat="45.47197" lon="4.70333">
        <ele>598.40002441406</ele>
        <time>2019-09-22T13:24:50.000Z</time>
      </trkpt>
      <trkpt lat="45.47185" lon="4.70306">
        <ele>599.40002441406</ele>
        <time>2019-09-22T13:24:52.000Z</time>
      </trkpt>
      <trkpt lat="45.47172" lon="4.70279">
        <ele>600.40002441406</ele>
        <time>2019-09-22T13:24:54.000Z</time>
      </trkpt>
      <trkpt lat="45.47156" lon="4.70255">
        <ele>601</ele>
        <time>2019-09-22T13:24:56.000Z</time>
      </trkpt>
      <trkpt lat="45.47138" lon="4.70232">
        <ele>600.59997558594</ele>
        <time>2019-09-22T13:24:58.000Z</time>
      </trkpt>
      <trkpt lat="45.4712" lon="4.7021">
        <ele>601.79998779297</ele>
        <time>2019-09-22T13:24:59.000Z</time>
      </trkpt>
      <trkpt lat="45.47104" lon="4.70192">
        <ele>603.20001220703</ele>
        <time>2019-09-22T13:25:01.000Z</time>
      </trkpt>
      <trkpt lat="45.47084" lon="4.70186">
        <ele>601.20001220703</ele>
        <time>2019-09-22T13:25:03.000Z</time>
      </trkpt>
      <trkpt lat="45.47064" lon="4.70192">
        <ele>595.20001220703</ele>
        <time>2019-09-22T13:25:05.000Z</time>
      </trkpt>
      <trkpt lat="45.47043" lon="4.70205">
        <ele>588.59997558594</ele>
        <time>2019-09-22T13:25:07.000Z</time>
      </trkpt>
      <trkpt lat="45.47022" lon="4.70218">
        <ele>585</ele>
        <time>2019-09-22T13:25:09.000Z</time>
      </trkpt>
      <trkpt lat="45.47" lon="4.70229">
        <ele>581.79998779297</ele>
        <time>2019-09-22T13:25:11.000Z</time>
      </trkpt>
      <trkpt lat="45.46978" lon="4.70239">
        <ele>578.59997558594</ele>
        <time>2019-09-22T13:25:13.000Z</time>
      </trkpt>
      <trkpt lat="45.46956" lon="4.70243">
        <ele>576.40002441406</ele>
        <time>2019-09-22T13:25:15.000Z</time>
      </trkpt>
      <trkpt lat="45.46933" lon="4.70241">
        <ele>574.59997558594</ele>
        <time>2019-09-22T13:25:17.000Z</time>
      </trkpt>
      <trkpt lat="45.46921" lon="4.70239">
        <ele>574.20001220703</ele>
        <time>2019-09-22T13:25:19.000Z</time>
      </trkpt>
      <trkpt lat="45.46898" lon="4.70234">
        <ele>574</ele>
        <time>2019-09-22T13:25:20.000Z</time>
      </trkpt>
      <trkpt lat="45.46875" lon="4.7023">
        <ele>573.20001220703</ele>
        <time>2019-09-22T13:25:22.000Z</time>
      </trkpt>
      <trkpt lat="45.46863" lon="4.7023">
        <ele>571.79998779297</ele>
        <time>2019-09-22T13:25:24.000Z</time>
      </trkpt>
      <trkpt lat="45.46839" lon="4.70238">
        <ele>567</ele>
        <time>2019-09-22T13:25:26.000Z</time>
      </trkpt>
      <trkpt lat="45.46818" lon="4.70257">
        <ele>562</ele>
        <time>2019-09-22T13:25:28.000Z</time>
      </trkpt>
      <trkpt lat="45.46803" lon="4.70285">
        <ele>555.40002441406</ele>
        <time>2019-09-22T13:25:29.000Z</time>
      </trkpt>
      <trkpt lat="45.46794" lon="4.70319">
        <ele>550.40002441406</ele>
        <time>2019-09-22T13:25:31.000Z</time>
      </trkpt>
      <trkpt lat="45.46791" lon="4.70337">
        <ele>548</ele>
        <time>2019-09-22T13:25:33.000Z</time>
      </trkpt>
      <trkpt lat="45.46785" lon="4.70374">
        <ele>544.40002441406</ele>
        <time>2019-09-22T13:25:35.000Z</time>
      </trkpt>
      <trkpt lat="45.46779" lon="4.7041">
        <ele>542.40002441406</ele>
        <time>2019-09-22T13:25:36.000Z</time>
      </trkpt>
      <trkpt lat="45.4677" lon="4.70444">
        <ele>541.40002441406</ele>
        <time>2019-09-22T13:25:37.000Z</time>
      </trkpt>
      <trkpt lat="45.46761" lon="4.70476">
        <ele>542.40002441406</ele>
        <time>2019-09-22T13:25:40.000Z</time>
      </trkpt>
      <trkpt lat="45.46754" lon="4.70504">
        <ele>542.20001220703</ele>
        <time>2019-09-22T13:25:43.000Z</time>
      </trkpt>
      <trkpt lat="45.46757" lon="4.7053">
        <ele>538.59997558594</ele>
        <time>2019-09-22T13:25:46.000Z</time>
      </trkpt>
      <trkpt lat="45.46771" lon="4.70547">
        <ele>534.79998779297</ele>
        <time>2019-09-22T13:25:47.000Z</time>
      </trkpt>
      <trkpt lat="45.4679" lon="4.70544">
        <ele>532</ele>
        <time>2019-09-22T13:25:50.000Z</time>
      </trkpt>
      <trkpt lat="45.46803" lon="4.70523">
        <ele>530.59997558594</ele>
        <time>2019-09-22T13:25:52.000Z</time>
      </trkpt>
      <trkpt lat="45.46808" lon="4.70495">
        <ele>530</ele>
        <time>2019-09-22T13:25:54.000Z</time>
      </trkpt>
      <trkpt lat="45.46809" lon="4.7048">
        <ele>530.20001220703</ele>
        <time>2019-09-22T13:25:56.000Z</time>
      </trkpt>
      <trkpt lat="45.46814" lon="4.7045">
        <ele>532</ele>
        <time>2019-09-22T13:25:58.000Z</time>
      </trkpt>
      <trkpt lat="45.46823" lon="4.70422">
        <ele>533.79998779297</ele>
        <time>2019-09-22T13:26:00.000Z</time>
      </trkpt>
      <trkpt lat="45.46834" lon="4.70397">
        <ele>535.79998779297</ele>
        <time>2019-09-22T13:26:02.000Z</time>
      </trkpt>
      <trkpt lat="45.46845" lon="4.70371">
        <ele>540.20001220703</ele>
        <time>2019-09-22T13:26:04.000Z</time>
      </trkpt>
      <trkpt lat="45.46852" lon="4.70359">
        <ele>542.20001220703</ele>
        <time>2019-09-22T13:26:06.000Z</time>
      </trkpt>
      <trkpt lat="45.46868" lon="4.70342">
        <ele>545.40002441406</ele>
        <time>2019-09-22T13:26:08.000Z</time>
      </trkpt>
      <trkpt lat="45.46889" lon="4.70338">
        <ele>546.59997558594</ele>
        <time>2019-09-22T13:26:10.000Z</time>
      </trkpt>
      <trkpt lat="45.46907" lon="4.70351">
        <ele>544.20001220703</ele>
        <time>2019-09-22T13:26:12.000Z</time>
      </trkpt>
      <trkpt lat="45.46915" lon="4.70358">
        <ele>542.79998779297</ele>
        <time>2019-09-22T13:26:14.000Z</time>
      </trkpt>
      <trkpt lat="45.46922" lon="4.70367">
        <ele>541.20001220703</ele>
        <time>2019-09-22T13:26:16.000Z</time>
      </trkpt>
      <trkpt lat="45.46938" lon="4.70388">
        <ele>535.79998779297</ele>
        <time>2019-09-22T13:26:19.000Z</time>
      </trkpt>
      <trkpt lat="45.46959" lon="4.70393">
        <ele>534.79998779297</ele>
        <time>2019-09-22T13:26:22.000Z</time>
      </trkpt>
      <trkpt lat="45.46983" lon="4.70385">
        <ele>539.40002441406</ele>
        <time>2019-09-22T13:27:54.000Z</time>
      </trkpt>
      <trkpt lat="45.46991" lon="4.70382">
        <ele>540.40002441406</ele>
        <time>2019-09-22T13:27:57.000Z</time>
      </trkpt>
      <trkpt lat="45.47017" lon="4.70372">
        <ele>543.20001220703</ele>
        <time>2019-09-22T13:28:00.000Z</time>
      </trkpt>
      <trkpt lat="45.47035" lon="4.70374">
        <ele>543.59997558594</ele>
        <time>2019-09-22T13:28:03.000Z</time>
      </trkpt>
      <trkpt lat="45.47051" lon="4.70388">
        <ele>542.79998779297</ele>
        <time>2019-09-22T13:28:06.000Z</time>
      </trkpt>
      <trkpt lat="45.47064" lon="4.70409">
        <ele>544.20001220703</ele>
        <time>2019-09-22T13:28:08.000Z</time>
      </trkpt>
      <trkpt lat="45.47073" lon="4.70433">
        <ele>543.79998779297</ele>
        <time>2019-09-22T13:28:09.000Z</time>
      </trkpt>
      <trkpt lat="45.47082" lon="4.70457">
        <ele>543</ele>
        <time>2019-09-22T13:28:11.000Z</time>
      </trkpt>
      <trkpt lat="45.4709" lon="4.70481">
        <ele>541.79998779297</ele>
        <time>2019-09-22T13:28:13.000Z</time>
      </trkpt>
      <trkpt lat="45.47099" lon="4.70505">
        <ele>540.79998779297</ele>
        <time>2019-09-22T13:28:15.000Z</time>
      </trkpt>
      <trkpt lat="45.4711" lon="4.70528">
        <ele>541.20001220703</ele>
        <time>2019-09-22T13:28:17.000Z</time>
      </trkpt>
      <trkpt lat="45.47122" lon="4.7055">
        <ele>541.59997558594</ele>
        <time>2019-09-22T13:28:19.000Z</time>
      </trkpt>
      <trkpt lat="45.47133" lon="4.70572">
        <ele>541.20001220703</ele>
        <time>2019-09-22T13:28:21.000Z</time>
      </trkpt>
      <trkpt lat="45.47144" lon="4.70595">
        <ele>540</ele>
        <time>2019-09-22T13:28:23.000Z</time>
      </trkpt>
      <trkpt lat="45.47153" lon="4.70619">
        <ele>538.20001220703</ele>
        <time>2019-09-22T13:28:25.000Z</time>
      </trkpt>
      <trkpt lat="45.47162" lon="4.70643">
        <ele>534.40002441406</ele>
        <time>2019-09-22T13:28:28.000Z</time>
      </trkpt>
      <trkpt lat="45.47173" lon="4.70675">
        <ele>530.20001220703</ele>
        <time>2019-09-22T13:28:30.000Z</time>
      </trkpt>
      <trkpt lat="45.47184" lon="4.70706">
        <ele>526.59997558594</ele>
        <time>2019-09-22T13:28:31.000Z</time>
      </trkpt>
      <trkpt lat="45.4719" lon="4.70728">
        <ele>515.4</ele>
        <time>2019-09-22T13:28:33.000Z</time>
      </trkpt>
      <trkpt lat="45.47207" lon="4.70742">
        <ele>516</ele>
        <time>2019-09-22T13:28:35.000Z</time>
      </trkpt>
      <trkpt lat="45.47209" lon="4.70744">
        <ele>516.1</ele>
        <time>2019-09-22T13:28:37.000Z</time>
      </trkpt>
      <trkpt lat="45.47228" lon="4.70749">
        <ele>517</ele>
        <time>2019-09-22T13:28:39.000Z</time>
      </trkpt>
      <trkpt lat="45.47251" lon="4.7074">
        <ele>520.59997558594</ele>
        <time>2019-09-22T13:28:41.000Z</time>
      </trkpt>
      <trkpt lat="45.4727" lon="4.7073">
        <ele>522.20001220703</ele>
        <time>2019-09-22T13:28:43.000Z</time>
      </trkpt>
      <trkpt lat="45.47291" lon="4.7072">
        <ele>523.79998779297</ele>
        <time>2019-09-22T13:28:45.000Z</time>
      </trkpt>
      <trkpt lat="45.47315" lon="4.70707">
        <ele>523.40002441406</ele>
        <time>2019-09-22T13:28:47.000Z</time>
      </trkpt>
      <trkpt lat="45.4734" lon="4.70696">
        <ele>519.59997558594</ele>
        <time>2019-09-22T13:28:49.000Z</time>
      </trkpt>
      <trkpt lat="45.47357" lon="4.70687">
        <ele>517.40002441406</ele>
        <time>2019-09-22T13:28:51.000Z</time>
      </trkpt>
      <trkpt lat="45.47365" lon="4.70682">
        <ele>516.20001220703</ele>
        <time>2019-09-22T13:28:53.000Z</time>
      </trkpt>
      <trkpt lat="45.47382" lon="4.7067">
        <ele>513.40002441406</ele>
        <time>2019-09-22T13:28:55.000Z</time>
      </trkpt>
      <trkpt lat="45.47398" lon="4.70654">
        <ele>516.79998779297</ele>
        <time>2019-09-22T13:28:57.000Z</time>
      </trkpt>
      <trkpt lat="45.47414" lon="4.70635">
        <ele>518.59997558594</ele>
        <time>2019-09-22T13:28:59.000Z</time>
      </trkpt>
      <trkpt lat="45.47429" lon="4.70617">
        <ele>518.59997558594</ele>
        <time>2019-09-22T13:29:01.000Z</time>
      </trkpt>
      <trkpt lat="45.47444" lon="4.70596">
        <ele>521</ele>
        <time>2019-09-22T13:29:03.000Z</time>
      </trkpt>
      <trkpt lat="45.47458" lon="4.7058">
        <ele>517.20001220703</ele>
        <time>2019-09-22T13:29:05.000Z</time>
      </trkpt>
      <trkpt lat="45.47477" lon="4.70578">
        <ele>518.40002441406</ele>
        <time>2019-09-22T13:29:07.000Z</time>
      </trkpt>
      <trkpt lat="45.4749" lon="4.70595">
        <ele>521.79998779297</ele>
        <time>2019-09-22T13:29:09.000Z</time>
      </trkpt>
      <trkpt lat="45.47498" lon="4.70631">
        <ele>522.79998779297</ele>
        <time>2019-09-22T13:29:11.000Z</time>
      </trkpt>
      <trkpt lat="45.47498" lon="4.70658">
        <ele>521.79998779297</ele>
        <time>2019-09-22T13:29:13.000Z</time>
      </trkpt>
      <trkpt lat="45.47498" lon="4.70671">
        <ele>520.59997558594</ele>
        <time>2019-09-22T13:29:15.000Z</time>
      </trkpt>
      <trkpt lat="45.47496" lon="4.70698">
        <ele>517.40002441406</ele>
        <time>2019-09-22T13:29:17.000Z</time>
      </trkpt>
      <trkpt lat="45.47494" lon="4.70727">
        <ele>513.59997558594</ele>
        <time>2019-09-22T13:29:18.000Z</time>
      </trkpt>
      <trkpt lat="45.47491" lon="4.70756">
        <ele>510.60000610352</ele>
        <time>2019-09-22T13:29:20.000Z</time>
      </trkpt>
      <trkpt lat="45.47488" lon="4.70785">
        <ele>507.20001220703</ele>
        <time>2019-09-22T13:29:22.000Z</time>
      </trkpt>
      <trkpt lat="45.47481" lon="4.70815">
        <ele>505</ele>
        <time>2019-09-22T13:29:23.000Z</time>
      </trkpt>
      <trkpt lat="45.47475" lon="4.70843">
        <ele>502.79998779297</ele>
        <time>2019-09-22T13:29:25.000Z</time>
      </trkpt>
      <trkpt lat="45.47467" lon="4.70871">
        <ele>500.39999389648</ele>
        <time>2019-09-22T13:29:27.000Z</time>
      </trkpt>
      <trkpt lat="45.4746" lon="4.70899">
        <ele>499.39999389648</ele>
        <time>2019-09-22T13:29:28.000Z</time>
      </trkpt>
      <trkpt lat="45.47457" lon="4.70929">
        <ele>499</ele>
        <time>2019-09-22T13:29:30.000Z</time>
      </trkpt>
      <trkpt lat="45.47457" lon="4.70959">
        <ele>498.60000610352</ele>
        <time>2019-09-22T13:29:32.000Z</time>
      </trkpt>
      <trkpt lat="45.4746" lon="4.7099">
        <ele>498.79998779297</ele>
        <time>2019-09-22T13:29:33.000Z</time>
      </trkpt>
      <trkpt lat="45.47465" lon="4.71022">
        <ele>499.20001220703</ele>
        <time>2019-09-22T13:29:34.000Z</time>
      </trkpt>
      <trkpt lat="45.47469" lon="4.71053">
        <ele>498.20001220703</ele>
        <time>2019-09-22T13:29:36.000Z</time>
      </trkpt>
      <trkpt lat="45.47469" lon="4.71086">
        <ele>495.39999389648</ele>
        <time>2019-09-22T13:29:38.000Z</time>
      </trkpt>
      <trkpt lat="45.47466" lon="4.71119">
        <ele>492</ele>
        <time>2019-09-22T13:29:39.000Z</time>
      </trkpt>
      <trkpt lat="45.47463" lon="4.71152">
        <ele>488.79998779297</ele>
        <time>2019-09-22T13:29:41.000Z</time>
      </trkpt>
      <trkpt lat="45.4746" lon="4.71185">
        <ele>485.79998779297</ele>
        <time>2019-09-22T13:29:43.000Z</time>
      </trkpt>
      <trkpt lat="45.47461" lon="4.71218">
        <ele>484</ele>
        <time>2019-09-22T13:29:45.000Z</time>
      </trkpt>
      <trkpt lat="45.47468" lon="4.7125">
        <ele>483.39999389648</ele>
        <time>2019-09-22T13:29:46.000Z</time>
      </trkpt>
      <trkpt lat="45.47478" lon="4.71281">
        <ele>483.60000610352</ele>
        <time>2019-09-22T13:29:48.000Z</time>
      </trkpt>
      <trkpt lat="45.47487" lon="4.71314">
        <ele>483.20001220703</ele>
        <time>2019-09-22T13:29:49.000Z</time>
      </trkpt>
      <trkpt lat="45.47492" lon="4.71348">
        <ele>481.39999389648</ele>
        <time>2019-09-22T13:29:51.000Z</time>
      </trkpt>
      <trkpt lat="45.47494" lon="4.71381">
        <ele>478.79998779297</ele>
        <time>2019-09-22T13:29:53.000Z</time>
      </trkpt>
      <trkpt lat="45.47494" lon="4.71397">
        <ele>476.79998779297</ele>
        <time>2019-09-22T13:29:55.000Z</time>
      </trkpt>
      <trkpt lat="45.47487" lon="4.71426">
        <ele>473.39999389648</ele>
        <time>2019-09-22T13:29:57.000Z</time>
      </trkpt>
      <trkpt lat="45.47475" lon="4.71452">
        <ele>469.60000610352</ele>
        <time>2019-09-22T13:30:01.000Z</time>
      </trkpt>
      <trkpt lat="45.4747" lon="4.71465">
        <ele>468</ele>
        <time>2019-09-22T13:30:03.000Z</time>
      </trkpt>
      <trkpt lat="45.47465" lon="4.71494">
        <ele>466.79998779297</ele>
        <time>2019-09-22T13:30:06.000Z</time>
      </trkpt>
      <trkpt lat="45.47464" lon="4.71523">
        <ele>466.20001220703</ele>
        <time>2019-09-22T13:30:09.000Z</time>
      </trkpt>
      <trkpt lat="45.47465" lon="4.71538">
        <ele>465.79998779297</ele>
        <time>2019-09-22T13:30:12.000Z</time>
      </trkpt>
      <trkpt lat="45.47472" lon="4.71567">
        <ele>465</ele>
        <time>2019-09-22T13:30:15.000Z</time>
      </trkpt>
      <trkpt lat="45.47482" lon="4.71595">
        <ele>464.79998779297</ele>
        <time>2019-09-22T13:30:17.000Z</time>
      </trkpt>
      <trkpt lat="45.47487" lon="4.7161">
        <ele>464.39999389648</ele>
        <time>2019-09-22T13:30:20.000Z</time>
      </trkpt>
      <trkpt lat="45.47491" lon="4.71625">
        <ele>464</ele>
        <time>2019-09-22T13:30:23.000Z</time>
      </trkpt>
      <trkpt lat="45.47498" lon="4.71656">
        <ele>462.79998779297</ele>
        <time>2019-09-22T13:30:26.000Z</time>
      </trkpt>
      <trkpt lat="45.47506" lon="4.71688">
        <ele>461</ele>
        <time>2019-09-22T13:30:29.000Z</time>
      </trkpt>
      <trkpt lat="45.47508" lon="4.71703">
        <ele>460</ele>
        <time>2019-09-22T13:30:32.000Z</time>
      </trkpt>
      <trkpt lat="45.47508" lon="4.71735">
        <ele>458.20001220703</ele>
        <time>2019-09-22T13:30:34.000Z</time>
      </trkpt>
      <trkpt lat="45.47504" lon="4.71765">
        <ele>455.39999389648</ele>
        <time>2019-09-22T13:30:38.000Z</time>
      </trkpt>
      <trkpt lat="45.47496" lon="4.71793">
        <ele>453</ele>
        <time>2019-09-22T13:30:41.000Z</time>
      </trkpt>
      <trkpt lat="45.47491" lon="4.71807">
        <ele>452.39999389648</ele>
        <time>2019-09-22T13:30:44.000Z</time>
      </trkpt>
      <trkpt lat="45.47482" lon="4.71832">
        <ele>450.79998779297</ele>
        <time>2019-09-22T13:30:47.000Z</time>
      </trkpt>
      <trkpt lat="45.47478" lon="4.71846">
        <ele>450</ele>
        <time>2019-09-22T13:30:49.000Z</time>
      </trkpt>
      <trkpt lat="45.47475" lon="4.71874">
        <ele>449</ele>
        <time>2019-09-22T13:30:51.000Z</time>
      </trkpt>
      <trkpt lat="45.47479" lon="4.71903">
        <ele>448.60000610352</ele>
        <time>2019-09-22T13:30:53.000Z</time>
      </trkpt>
      <trkpt lat="45.47483" lon="4.71928">
        <ele>448.39999389648</ele>
        <time>2019-09-22T13:30:55.000Z</time>
      </trkpt>
      <trkpt lat="45.47485" lon="4.71947">
        <ele>448.20001220703</ele>
        <time>2019-09-22T13:30:57.000Z</time>
      </trkpt>
      <trkpt lat="45.47468" lon="4.71951">
        <ele>446.20001220703</ele>
        <time>2019-09-22T13:30:59.000Z</time>
      </trkpt>
      <trkpt lat="45.47458" lon="4.71937">
        <ele>445.60000610352</ele>
        <time>2019-09-22T13:31:01.000Z</time>
      </trkpt>
      <trkpt lat="45.47442" lon="4.71915">
        <ele>444.39999389648</ele>
        <time>2019-09-22T13:31:03.000Z</time>
      </trkpt>
      <trkpt lat="45.47424" lon="4.71893">
        <ele>442.79998779297</ele>
        <time>2019-09-22T13:31:04.000Z</time>
      </trkpt>
      <trkpt lat="45.47406" lon="4.71869">
        <ele>441.39999389648</ele>
        <time>2019-09-22T13:31:06.000Z</time>
      </trkpt>
      <trkpt lat="45.47387" lon="4.71842">
        <ele>440.39999389648</ele>
        <time>2019-09-22T13:31:09.000Z</time>
      </trkpt>
      <trkpt lat="45.47374" lon="4.71825">
        <ele>439.79998779297</ele>
        <time>2019-09-22T13:31:12.000Z</time>
      </trkpt>
      <trkpt lat="45.47354" lon="4.718">
        <ele>438.79998779297</ele>
        <time>2019-09-22T13:31:15.000Z</time>
      </trkpt>
      <trkpt lat="45.47334" lon="4.71775">
        <ele>437.20001220703</ele>
        <time>2019-09-22T13:31:17.000Z</time>
      </trkpt>
      <trkpt lat="45.47315" lon="4.7175">
        <ele>435</ele>
        <time>2019-09-22T13:31:20.000Z</time>
      </trkpt>
      <trkpt lat="45.47295" lon="4.71725">
        <ele>433</ele>
        <time>2019-09-22T13:31:22.000Z</time>
      </trkpt>
      <trkpt lat="45.47277" lon="4.71701">
        <ele>431.39999389648</ele>
        <time>2019-09-22T13:31:24.000Z</time>
      </trkpt>
      <trkpt lat="45.47266" lon="4.7169">
        <ele>430.60000610352</ele>
        <time>2019-09-22T13:31:26.000Z</time>
      </trkpt>
      <trkpt lat="45.47253" lon="4.71703">
        <ele>429.60000610352</ele>
        <time>2019-09-22T13:31:28.000Z</time>
      </trkpt>
      <trkpt lat="45.47254" lon="4.71731">
        <ele>430</ele>
        <time>2019-09-22T13:31:29.000Z</time>
      </trkpt>
      <trkpt lat="45.47256" lon="4.71764">
        <ele>430</ele>
        <time>2019-09-22T13:31:31.000Z</time>
      </trkpt>
      <trkpt lat="45.47258" lon="4.71801">
        <ele>429.20001220703</ele>
        <time>2019-09-22T13:31:33.000Z</time>
      </trkpt>
      <trkpt lat="45.47258" lon="4.71828">
        <ele>427.60000610352</ele>
        <time>2019-09-22T13:31:35.000Z</time>
      </trkpt>
      <trkpt lat="45.47255" lon="4.71855">
        <ele>425.20001220703</ele>
        <time>2019-09-22T13:31:37.000Z</time>
      </trkpt>
      <trkpt lat="45.4725" lon="4.71883">
        <ele>423</ele>
        <time>2019-09-22T13:31:39.000Z</time>
      </trkpt>
      <trkpt lat="45.47245" lon="4.71911">
        <ele>421.20001220703</ele>
        <time>2019-09-22T13:31:41.000Z</time>
      </trkpt>
      <trkpt lat="45.4724" lon="4.71939">
        <ele>420.60000610352</ele>
        <time>2019-09-22T13:31:43.000Z</time>
      </trkpt>
      <trkpt lat="45.47235" lon="4.71967">
        <ele>419.60000610352</ele>
        <time>2019-09-22T13:31:45.000Z</time>
      </trkpt>
      <trkpt lat="45.47229" lon="4.71995">
        <ele>417.60000610352</ele>
        <time>2019-09-22T13:31:47.000Z</time>
      </trkpt>
      <trkpt lat="45.47221" lon="4.72022">
        <ele>415.20001220703</ele>
        <time>2019-09-22T13:31:49.000Z</time>
      </trkpt>
      <trkpt lat="45.47215" lon="4.72035">
        <ele>414</ele>
        <time>2019-09-22T13:31:51.000Z</time>
      </trkpt>
      <trkpt lat="45.47203" lon="4.72056">
        <ele>412.60000610352</ele>
        <time>2019-09-22T13:31:53.000Z</time>
      </trkpt>
      <trkpt lat="45.47185" lon="4.72076">
        <ele>410.39999389648</ele>
        <time>2019-09-22T13:31:55.000Z</time>
      </trkpt>
      <trkpt lat="45.47167" lon="4.72091">
        <ele>409</ele>
        <time>2019-09-22T13:31:57.000Z</time>
      </trkpt>
      <trkpt lat="45.47153" lon="4.72117">
        <ele>408.39999389648</ele>
        <time>2019-09-22T13:31:59.000Z</time>
      </trkpt>
      <trkpt lat="45.47147" lon="4.72139">
        <ele>407.79998779297</ele>
        <time>2019-09-22T13:32:01.000Z</time>
      </trkpt>
      <trkpt lat="45.47147" lon="4.72177">
        <ele>407.39999389648</ele>
        <time>2019-09-22T13:32:03.000Z</time>
      </trkpt>
      <trkpt lat="45.47147" lon="4.72203">
        <ele>407</ele>
        <time>2019-09-22T13:32:05.000Z</time>
      </trkpt>
      <trkpt lat="45.47146" lon="4.7223">
        <ele>406.20001220703</ele>
        <time>2019-09-22T13:32:07.000Z</time>
      </trkpt>
      <trkpt lat="45.47141" lon="4.72257">
        <ele>405.39999389648</ele>
        <time>2019-09-22T13:32:09.000Z</time>
      </trkpt>
      <trkpt lat="45.47133" lon="4.7228">
        <ele>404.20001220703</ele>
        <time>2019-09-22T13:32:11.000Z</time>
      </trkpt>
      <trkpt lat="45.47127" lon="4.72291">
        <ele>403</ele>
        <time>2019-09-22T13:32:13.000Z</time>
      </trkpt>
      <trkpt lat="45.47116" lon="4.72313">
        <ele>400.39999389648</ele>
        <time>2019-09-22T13:32:15.000Z</time>
      </trkpt>
      <trkpt lat="45.47103" lon="4.72335">
        <ele>397.39999389648</ele>
        <time>2019-09-22T13:32:17.000Z</time>
      </trkpt>
      <trkpt lat="45.47091" lon="4.72357">
        <ele>396.20001220703</ele>
        <time>2019-09-22T13:32:19.000Z</time>
      </trkpt>
      <trkpt lat="45.47078" lon="4.72379">
        <ele>395</ele>
        <time>2019-09-22T13:32:21.000Z</time>
      </trkpt>
      <trkpt lat="45.47065" lon="4.72401">
        <ele>393.20001220703</ele>
        <time>2019-09-22T13:32:23.000Z</time>
      </trkpt>
      <trkpt lat="45.47052" lon="4.72423">
        <ele>391.79998779297</ele>
        <time>2019-09-22T13:32:25.000Z</time>
      </trkpt>
      <trkpt lat="45.4704" lon="4.72446">
        <ele>390</ele>
        <time>2019-09-22T13:32:27.000Z</time>
      </trkpt>
      <trkpt lat="45.47029" lon="4.7247">
        <ele>388.39999389648</ele>
        <time>2019-09-22T13:32:29.000Z</time>
      </trkpt>
      <trkpt lat="45.4702" lon="4.72495">
        <ele>386.79998779297</ele>
        <time>2019-09-22T13:32:31.000Z</time>
      </trkpt>
      <trkpt lat="45.47011" lon="4.72522">
        <ele>386</ele>
        <time>2019-09-22T13:32:33.000Z</time>
      </trkpt>
      <trkpt lat="45.47003" lon="4.72549">
        <ele>385.20001220703</ele>
        <time>2019-09-22T13:32:35.000Z</time>
      </trkpt>
      <trkpt lat="45.46995" lon="4.72575">
        <ele>383.39999389648</ele>
        <time>2019-09-22T13:32:37.000Z</time>
      </trkpt>
      <trkpt lat="45.46987" lon="4.72602">
        <ele>382.39999389648</ele>
        <time>2019-09-22T13:32:39.000Z</time>
      </trkpt>
      <trkpt lat="45.46981" lon="4.72629">
        <ele>381.60000610352</ele>
        <time>2019-09-22T13:32:41.000Z</time>
      </trkpt>
      <trkpt lat="45.46976" lon="4.72656">
        <ele>381</ele>
        <time>2019-09-22T13:32:43.000Z</time>
      </trkpt>
      <trkpt lat="45.46973" lon="4.72683">
        <ele>380.39999389648</ele>
        <time>2019-09-22T13:32:45.000Z</time>
      </trkpt>
      <trkpt lat="45.46968" lon="4.72709">
        <ele>380</ele>
        <time>2019-09-22T13:32:48.000Z</time>
      </trkpt>
      <trkpt lat="45.46964" lon="4.72736">
        <ele>379.39999389648</ele>
        <time>2019-09-22T13:32:49.000Z</time>
      </trkpt>
      <trkpt lat="45.4696" lon="4.72763">
        <ele>378.39999389648</ele>
        <time>2019-09-22T13:32:50.000Z</time>
      </trkpt>
      <trkpt lat="45.46955" lon="4.7279">
        <ele>377.39999389648</ele>
        <time>2019-09-22T13:32:52.000Z</time>
      </trkpt>
      <trkpt lat="45.4695" lon="4.72817">
        <ele>375</ele>
        <time>2019-09-22T13:32:54.000Z</time>
      </trkpt>
      <trkpt lat="45.46945" lon="4.72844">
        <ele>372.79998779297</ele>
        <time>2019-09-22T13:32:56.000Z</time>
      </trkpt>
      <trkpt lat="45.46941" lon="4.72872">
        <ele>372</ele>
        <time>2019-09-22T13:32:58.000Z</time>
      </trkpt>
      <trkpt lat="45.46936" lon="4.729">
        <ele>370.39999389648</ele>
        <time>2019-09-22T13:33:00.000Z</time>
      </trkpt>
      <trkpt lat="45.46931" lon="4.72929">
        <ele>369</ele>
        <time>2019-09-22T13:33:02.000Z</time>
      </trkpt>
      <trkpt lat="45.46927" lon="4.72958">
        <ele>368</ele>
        <time>2019-09-22T13:33:04.000Z</time>
      </trkpt>
      <trkpt lat="45.46925" lon="4.72988">
        <ele>367.20001220703</ele>
        <time>2019-09-22T13:33:06.000Z</time>
      </trkpt>
      <trkpt lat="45.46924" lon="4.73017">
        <ele>366.39999389648</ele>
        <time>2019-09-22T13:33:08.000Z</time>
      </trkpt>
      <trkpt lat="45.46924" lon="4.73045">
        <ele>365.60000610352</ele>
        <time>2019-09-22T13:33:10.000Z</time>
      </trkpt>
      <trkpt lat="45.46924" lon="4.73073">
        <ele>364.60000610352</ele>
        <time>2019-09-22T13:33:13.000Z</time>
      </trkpt>
      <trkpt lat="45.46924" lon="4.731">
        <ele>364</ele>
        <time>2019-09-22T13:33:16.000Z</time>
      </trkpt>
      <trkpt lat="45.46925" lon="4.73127">
        <ele>363.39999389648</ele>
        <time>2019-09-22T13:33:19.000Z</time>
      </trkpt>
      <trkpt lat="45.46926" lon="4.73153">
        <ele>362.79998779297</ele>
        <time>2019-09-22T13:33:23.000Z</time>
      </trkpt>
      <trkpt lat="45.46927" lon="4.7318">
        <ele>362.60000610352</ele>
        <time>2019-09-22T13:33:25.000Z</time>
      </trkpt>
      <trkpt lat="45.46926" lon="4.73207">
        <ele>362.39999389648</ele>
        <time>2019-09-22T13:33:33.000Z</time>
      </trkpt>
      <trkpt lat="45.46924" lon="4.73233">
        <ele>361.39999389648</ele>
        <time>2019-09-22T13:33:37.000Z</time>
      </trkpt>
      <trkpt lat="45.46921" lon="4.73259">
        <ele>360.60000610352</ele>
        <time>2019-09-22T13:33:41.000Z</time>
      </trkpt>
      <trkpt lat="45.46916" lon="4.73284">
        <ele>360</ele>
        <time>2019-09-22T13:33:45.000Z</time>
      </trkpt>
      <trkpt lat="45.46907" lon="4.7332">
        <ele>359</ele>
        <time>2019-09-22T13:33:49.000Z</time>
      </trkpt>
      <trkpt lat="45.46904" lon="4.73332">
        <ele>358.60000610352</ele>
        <time>2019-09-22T13:33:53.000Z</time>
      </trkpt>
      <trkpt lat="45.46902" lon="4.73345">
        <ele>358.39999389648</ele>
        <time>2019-09-22T13:33:57.000Z</time>
      </trkpt>
      <trkpt lat="45.46901" lon="4.73372">
        <ele>357.79998779297</ele>
        <time>2019-09-22T13:34:01.000Z</time>
      </trkpt>
      <trkpt lat="45.46902" lon="4.734">
        <ele>356.39999389648</ele>
        <time>2019-09-22T13:34:02.000Z</time>
      </trkpt>
      <trkpt lat="45.46902" lon="4.73429">
        <ele>355.39999389648</ele>
        <time>2019-09-22T13:34:04.000Z</time>
      </trkpt>
      <trkpt lat="45.469" lon="4.73459">
        <ele>354.20001220703</ele>
        <time>2019-09-22T13:34:07.000Z</time>
      </trkpt>
      <trkpt lat="45.46897" lon="4.73489">
        <ele>352.60000610352</ele>
        <time>2019-09-22T13:34:10.000Z</time>
      </trkpt>
      <trkpt lat="45.46896" lon="4.73518">
        <ele>350.79998779297</ele>
        <time>2019-09-22T13:34:12.000Z</time>
      </trkpt>
      <trkpt lat="45.46894" lon="4.73547">
        <ele>349.20001220703</ele>
        <time>2019-09-22T13:34:15.000Z</time>
      </trkpt>
      <trkpt lat="45.46893" lon="4.73575">
        <ele>347.39999389648</ele>
        <time>2019-09-22T13:34:17.000Z</time>
      </trkpt>
      <trkpt lat="45.46892" lon="4.73602">
        <ele>345.39999389648</ele>
        <time>2019-09-22T13:34:18.000Z</time>
      </trkpt>
      <trkpt lat="45.46891" lon="4.73628">
        <ele>343.60000610352</ele>
        <time>2019-09-22T13:34:21.000Z</time>
      </trkpt>
      <trkpt lat="45.4689" lon="4.73665">
        <ele>343.60000610352</ele>
        <time>2019-09-22T13:34:24.000Z</time>
      </trkpt>
      <trkpt lat="45.46889" lon="4.737">
        <ele>343.79998779297</ele>
        <time>2019-09-22T13:34:27.000Z</time>
      </trkpt>
      <trkpt lat="45.46887" lon="4.73726">
        <ele>343.39999389648</ele>
        <time>2019-09-22T13:34:29.000Z</time>
      </trkpt>
      <trkpt lat="45.46873" lon="4.73742">
        <ele>343</ele>
        <time>2019-09-22T13:34:32.000Z</time>
      </trkpt>
      <trkpt lat="45.46864" lon="4.73738">
        <ele>343.20001220703</ele>
        <time>2019-09-22T13:34:35.000Z</time>
      </trkpt>
      <trkpt lat="45.46833" lon="4.73723">
        <ele>343.60000610352</ele>
        <time>2019-09-22T13:34:38.000Z</time>
      </trkpt>
      <trkpt lat="45.46815" lon="4.73716">
        <ele>343.79998779297</ele>
        <time>2019-09-22T13:34:41.000Z</time>
      </trkpt>
      <trkpt lat="45.46796" lon="4.73707">
        <ele>343.79998779297</ele>
        <time>2019-09-22T13:34:45.000Z</time>
      </trkpt>
      <trkpt lat="45.46777" lon="4.73698">
        <ele>343.39999389648</ele>
        <time>2019-09-22T13:34:48.000Z</time>
      </trkpt>
      <trkpt lat="45.46758" lon="4.73689">
        <ele>343</ele>
        <time>2019-09-22T13:34:52.000Z</time>
      </trkpt>
      <trkpt lat="45.46738" lon="4.7368">
        <ele>342.60000610352</ele>
        <time>2019-09-22T13:34:53.000Z</time>
      </trkpt>
      <trkpt lat="45.46717" lon="4.73671">
        <ele>342.20001220703</ele>
        <time>2019-09-22T13:34:57.000Z</time>
      </trkpt>
      <trkpt lat="45.46694" lon="4.73663">
        <ele>341.20001220703</ele>
        <time>2019-09-22T13:35:01.000Z</time>
      </trkpt>
      <trkpt lat="45.46688" lon="4.73661">
        <ele>340.79998779297</ele>
        <time>2019-09-22T13:35:05.000Z</time>
      </trkpt>
      <trkpt lat="45.46676" lon="4.73659">
        <ele>340.20001220703</ele>
        <time>2019-09-22T13:35:09.000Z</time>
      </trkpt>
      <trkpt lat="45.46656" lon="4.73666">
        <ele>339</ele>
        <time>2019-09-22T13:35:10.000Z</time>
      </trkpt>
      <trkpt lat="45.46636" lon="4.73682">
        <ele>337.60000610352</ele>
        <time>2019-09-22T13:35:14.000Z</time>
      </trkpt>
      <trkpt lat="45.46622" lon="4.73695">
        <ele>336.60000610352</ele>
        <time>2019-09-22T13:35:17.000Z</time>
      </trkpt>
      <trkpt lat="45.46601" lon="4.73689">
        <ele>335.60000610352</ele>
        <time>2019-09-22T13:35:20.000Z</time>
      </trkpt>
      <trkpt lat="45.46592" lon="4.73667">
        <ele>335.79998779297</ele>
        <time>2019-09-22T13:35:23.000Z</time>
      </trkpt>
      <trkpt lat="45.46588" lon="4.73656">
        <ele>336</ele>
        <time>2019-09-22T13:35:26.000Z</time>
      </trkpt>
      <trkpt lat="45.46567" lon="4.73643">
        <ele>335.20001220703</ele>
        <time>2019-09-22T13:35:29.000Z</time>
      </trkpt>
      <trkpt lat="45.46552" lon="4.73663">
        <ele>333.60000610352</ele>
        <time>2019-09-22T13:35:32.000Z</time>
      </trkpt>
      <trkpt lat="45.46548" lon="4.73691">
        <ele>332.60000610352</ele>
        <time>2019-09-22T13:35:33.000Z</time>
      </trkpt>
      <trkpt lat="45.46549" lon="4.73709">
        <ele>332</ele>
        <time>2019-09-22T13:35:36.000Z</time>
      </trkpt>
      <trkpt lat="45.46549" lon="4.73736">
        <ele>331.20001220703</ele>
        <time>2019-09-22T13:35:39.000Z</time>
      </trkpt>
      <trkpt lat="45.4655" lon="4.73762">
        <ele>330.60000610352</ele>
        <time>2019-09-22T13:35:42.000Z</time>
      </trkpt>
      <trkpt lat="45.4655" lon="4.73788">
        <ele>330</ele>
        <time>2019-09-22T13:35:43.000Z</time>
      </trkpt>
      <trkpt lat="45.46548" lon="4.73814">
        <ele>329.39999389648</ele>
        <time>2019-09-22T13:35:46.000Z</time>
      </trkpt>
      <trkpt lat="45.46543" lon="4.73846">
        <ele>329</ele>
        <time>2019-09-22T13:35:48.000Z</time>
      </trkpt>
      <trkpt lat="45.46539" lon="4.73867">
        <ele>328.79998779297</ele>
        <time>2019-09-22T13:35:51.000Z</time>
      </trkpt>
      <trkpt lat="45.46524" lon="4.73884">
        <ele>329.60000610352</ele>
        <time>2019-09-22T13:35:53.000Z</time>
      </trkpt>
      <trkpt lat="45.46519" lon="4.73885">
        <ele>329.79998779297</ele>
        <time>2019-09-22T13:35:55.000Z</time>
      </trkpt>
      <trkpt lat="45.465" lon="4.73887">
        <ele>331</ele>
        <time>2019-09-22T13:35:57.000Z</time>
      </trkpt>
      <trkpt lat="45.46482" lon="4.73889">
        <ele>332</ele>
        <time>2019-09-22T13:35:59.000Z</time>
      </trkpt>
      <trkpt lat="45.46463" lon="4.7389">
        <ele>333</ele>
        <time>2019-09-22T13:36:02.000Z</time>
      </trkpt>
      <trkpt lat="45.46444" lon="4.73892">
        <ele>333</ele>
        <time>2019-09-22T13:36:03.000Z</time>
      </trkpt>
      <trkpt lat="45.46439" lon="4.73893">
        <ele>333</ele>
        <time>2019-09-22T13:36:06.000Z</time>
      </trkpt>
      <trkpt lat="45.46419" lon="4.73894">
        <ele>333</ele>
        <time>2019-09-22T13:36:31.000Z</time>
      </trkpt>
      <trkpt lat="45.46402" lon="4.73897">
        <ele>332.79998779297</ele>
        <time>2019-09-22T13:36:34.000Z</time>
      </trkpt>
      <trkpt lat="45.46386" lon="4.73912">
        <ele>332</ele>
        <time>2019-09-22T13:36:37.000Z</time>
      </trkpt>
      <trkpt lat="45.46377" lon="4.7394">
        <ele>331.20001220703</ele>
        <time>2019-09-22T13:36:38.000Z</time>
      </trkpt>
      <trkpt lat="45.46368" lon="4.73971">
        <ele>329.79998779297</ele>
        <time>2019-09-22T13:36:41.000Z</time>
      </trkpt>
      <trkpt lat="45.46358" lon="4.74002">
        <ele>328.39999389648</ele>
        <time>2019-09-22T13:36:44.000Z</time>
      </trkpt>
      <trkpt lat="45.46348" lon="4.74034">
        <ele>326.79998779297</ele>
        <time>2019-09-22T13:36:47.000Z</time>
      </trkpt>
      <trkpt lat="45.46346" lon="4.74044">
        <ele>326.60000610352</ele>
        <time>2019-09-22T13:36:50.000Z</time>
      </trkpt>
      <trkpt lat="45.4634" lon="4.74076">
        <ele>326</ele>
        <time>2019-09-22T13:36:53.000Z</time>
      </trkpt>
      <trkpt lat="45.46336" lon="4.74109">
        <ele>324.60000610352</ele>
        <time>2019-09-22T13:36:56.000Z</time>
      </trkpt>
      <trkpt lat="45.46331" lon="4.74142">
        <ele>323</ele>
        <time>2019-09-22T13:36:59.000Z</time>
      </trkpt>
      <trkpt lat="45.46328" lon="4.74153">
        <ele>322.60000610352</ele>
        <time>2019-09-22T13:37:02.000Z</time>
      </trkpt>
      <trkpt lat="45.46315" lon="4.74183">
        <ele>321.79998779297</ele>
        <time>2019-09-22T13:37:05.000Z</time>
      </trkpt>
      <trkpt lat="45.46305" lon="4.74202">
        <ele>321.20001220703</ele>
        <time>2019-09-22T13:37:09.000Z</time>
      </trkpt>
      <trkpt lat="45.46289" lon="4.74231">
        <ele>320.39999389648</ele>
        <time>2019-09-22T13:37:11.000Z</time>
      </trkpt>
      <trkpt lat="45.46277" lon="4.74251">
        <ele>320</ele>
        <time>2019-09-22T13:37:14.000Z</time>
      </trkpt>
      <trkpt lat="45.46267" lon="4.74273">
        <ele>318.79998779297</ele>
        <time>2019-09-22T13:37:17.000Z</time>
      </trkpt>
      <trkpt lat="45.46259" lon="4.74296">
        <ele>317.20001220703</ele>
        <time>2019-09-22T13:37:20.000Z</time>
      </trkpt>
      <trkpt lat="45.46253" lon="4.74321">
        <ele>316</ele>
        <time>2019-09-22T13:37:23.000Z</time>
      </trkpt>
      <trkpt lat="45.46251" lon="4.74358">
        <ele>314.60000610352</ele>
        <time>2019-09-22T13:37:24.000Z</time>
      </trkpt>
      <trkpt lat="45.46252" lon="4.7437">
        <ele>314.20001220703</ele>
        <time>2019-09-22T13:37:26.000Z</time>
      </trkpt>
      <trkpt lat="45.46254" lon="4.74404">
        <ele>313.39999389648</ele>
        <time>2019-09-22T13:37:28.000Z</time>
      </trkpt>
      <trkpt lat="45.46252" lon="4.74413">
        <ele>311.4</ele>
        <time>2019-09-22T13:37:31.000Z</time>
      </trkpt>
      <trkpt lat="45.46252" lon="4.74425">
        <ele>311.3</ele>
        <time>2019-09-22T13:37:34.000Z</time>
      </trkpt>
      <trkpt lat="45.46251" lon="4.74433">
        <ele>311.4</ele>
        <time>2019-09-22T13:37:37.000Z</time>
      </trkpt>
      <trkpt lat="45.46251" lon="4.74435">
        <ele>311.5</ele>
        <time>2019-09-22T13:37:41.000Z</time>
      </trkpt>
      <trkpt lat="45.46253" lon="4.74438">
        <ele>311.5</ele>
        <time>2019-09-22T13:37:44.000Z</time>
      </trkpt>
      <trkpt lat="45.46255" lon="4.74439">
        <ele>311.5</ele>
        <time>2019-09-22T13:37:45.000Z</time>
      </trkpt>
      <trkpt lat="45.46254" lon="4.74443">
        <ele>311.5</ele>
        <time>2019-09-22T13:37:52.000Z</time>
      </trkpt>
      <trkpt lat="45.46256" lon="4.74448">
        <ele>311.5</ele>
        <time>2019-09-22T13:38:56.000Z</time>
      </trkpt>
      <trkpt lat="45.46257" lon="4.74453">
        <ele>311.5</ele>
        <time>2019-09-22T13:39:02.000Z</time>
      </trkpt>
      <trkpt lat="45.46258" lon="4.74459">
        <ele>311.5</ele>
        <time>2019-09-22T13:39:21.000Z</time>
      </trkpt>
      <trkpt lat="45.46259" lon="4.74461">
        <ele>311.5</ele>
        <time>2019-09-22T13:39:26.000Z</time>
      </trkpt>
      <trkpt lat="45.4626" lon="4.74465">
        <ele>312.79998779297</ele>
        <time>2019-09-22T13:39:28.000Z</time>
      </trkpt>
      <trkpt lat="45.46266" lon="4.7449">
        <ele>312.20001220703</ele>
        <time>2019-09-22T13:39:31.000Z</time>
      </trkpt>
      <trkpt lat="45.46272" lon="4.74514">
        <ele>311.60000610352</ele>
        <time>2019-09-22T13:39:33.000Z</time>
      </trkpt>
      <trkpt lat="45.46275" lon="4.74523">
        <ele>311.60000610352</ele>
        <time>2019-09-22T13:39:36.000Z</time>
      </trkpt>
      <trkpt lat="45.46281" lon="4.74553">
        <ele>311.60000610352</ele>
        <time>2019-09-22T13:39:39.000Z</time>
      </trkpt>
      <trkpt lat="45.4628" lon="4.74586">
        <ele>311.60000610352</ele>
        <time>2019-09-22T13:39:44.000Z</time>
      </trkpt>
      <trkpt lat="45.46275" lon="4.74618">
        <ele>310.60000610352</ele>
        <time>2019-09-22T13:39:45.000Z</time>
      </trkpt>
      <trkpt lat="45.46271" lon="4.74648">
        <ele>309.60000610352</ele>
        <time>2019-09-22T13:39:50.000Z</time>
      </trkpt>
      <trkpt lat="45.46266" lon="4.74678">
        <ele>308.60000610352</ele>
        <time>2019-09-22T13:39:54.000Z</time>
      </trkpt>
      <trkpt lat="45.4626" lon="4.74708">
        <ele>307.60000610352</ele>
        <time>2019-09-22T13:39:55.000Z</time>
      </trkpt>
      <trkpt lat="45.46255" lon="4.74736">
        <ele>306.60000610352</ele>
        <time>2019-09-22T13:40:25.000Z</time>
      </trkpt>
      <trkpt lat="45.46252" lon="4.74764">
        <ele>305.60000610352</ele>
        <time>2019-09-22T13:40:28.000Z</time>
      </trkpt>
      <trkpt lat="45.46249" lon="4.74792">
        <ele>304.60000610352</ele>
        <time>2019-09-22T13:40:31.000Z</time>
      </trkpt>
      <trkpt lat="45.46247" lon="4.74825">
        <ele>301.79998779297</ele>
        <time>2019-09-22T13:40:34.000Z</time>
      </trkpt>
      <trkpt lat="45.46247" lon="4.74843">
        <ele>301.60000610352</ele>
        <time>2019-09-22T13:40:36.000Z</time>
      </trkpt>
      <trkpt lat="45.46243" lon="4.7487">
        <ele>301.39999389648</ele>
        <time>2019-09-22T13:40:38.000Z</time>
      </trkpt>
      <trkpt lat="45.46236" lon="4.749">
        <ele>297.60000610352</ele>
        <time>2019-09-22T13:40:40.000Z</time>
      </trkpt>
      <trkpt lat="45.46228" lon="4.74929">
        <ele>297</ele>
        <time>2019-09-22T13:40:42.000Z</time>
      </trkpt>
      <trkpt lat="45.46217" lon="4.74956">
        <ele>296.79998779297</ele>
        <time>2019-09-22T13:40:44.000Z</time>
      </trkpt>
      <trkpt lat="45.46213" lon="4.74966">
        <ele>295.39999389648</ele>
        <time>2019-09-22T13:40:46.000Z</time>
      </trkpt>
      <trkpt lat="45.46203" lon="4.74989">
        <ele>292.39999389648</ele>
        <time>2019-09-22T13:40:48.000Z</time>
      </trkpt>
      <trkpt lat="45.46192" lon="4.75007">
        <ele>289.79998779297</ele>
        <time>2019-09-22T13:40:50.000Z</time>
      </trkpt>
      <trkpt lat="45.46172" lon="4.75032">
        <ele>289.79998779297</ele>
        <time>2019-09-22T13:40:52.000Z</time>
      </trkpt>
      <trkpt lat="45.46152" lon="4.75053">
        <ele>288</ele>
        <time>2019-09-22T13:40:54.000Z</time>
      </trkpt>
      <trkpt lat="45.46135" lon="4.75071">
        <ele>286.79998779297</ele>
        <time>2019-09-22T13:40:56.000Z</time>
      </trkpt>
      <trkpt lat="45.46115" lon="4.75074">
        <ele>282.60000610352</ele>
        <time>2019-09-22T13:40:57.000Z</time>
      </trkpt>
      <trkpt lat="45.46108" lon="4.75064">
        <ele>282.20001220703</ele>
        <time>2019-09-22T13:40:58.000Z</time>
      </trkpt>
      <trkpt lat="45.46108" lon="4.75063">
        <ele>282.39999389648</ele>
        <time>2019-09-22T13:41:00.000Z</time>
      </trkpt>
      <trkpt lat="45.46104" lon="4.75059">
        <ele>282</ele>
        <time>2019-09-22T13:41:02.000Z</time>
      </trkpt>
      <trkpt lat="45.46103" lon="4.75044">
        <ele>284</ele>
        <time>2019-09-22T13:41:04.000Z</time>
      </trkpt>
      <trkpt lat="45.46101" lon="4.75038">
        <ele>284.39999389648</ele>
        <time>2019-09-22T13:41:06.000Z</time>
      </trkpt>
      <trkpt lat="45.46093" lon="4.75012">
        <ele>283.79998779297</ele>
        <time>2019-09-22T13:41:07.000Z</time>
      </trkpt>
      <trkpt lat="45.46084" lon="4.74983">
        <ele>282.79998779297</ele>
        <time>2019-09-22T13:41:08.000Z</time>
      </trkpt>
      <trkpt lat="45.4608" lon="4.74967">
        <ele>282.39999389648</ele>
        <time>2019-09-22T13:41:10.000Z</time>
      </trkpt>
      <trkpt lat="45.4608" lon="4.74939">
        <ele>284.39999389648</ele>
        <time>2019-09-22T13:41:13.000Z</time>
      </trkpt>
      <trkpt lat="45.46081" lon="4.74917">
        <ele>287</ele>
        <time>2019-09-22T13:41:16.000Z</time>
      </trkpt>
      <trkpt lat="45.46071" lon="4.74892">
        <ele>287.39999389648</ele>
        <time>2019-09-22T13:41:18.000Z</time>
      </trkpt>
      <trkpt lat="45.46055" lon="4.74889">
        <ele>284.39999389648</ele>
        <time>2019-09-22T13:41:20.000Z</time>
      </trkpt>
      <trkpt lat="45.46037" lon="4.74889">
        <ele>283</ele>
        <time>2019-09-22T13:41:21.000Z</time>
      </trkpt>
      <trkpt lat="45.46034" lon="4.74889">
        <ele>283</ele>
        <time>2019-09-22T13:41:23.000Z</time>
      </trkpt>
      <trkpt lat="45.46018" lon="4.74906">
        <ele>281.20001220703</ele>
        <time>2019-09-22T13:41:25.000Z</time>
      </trkpt>
      <trkpt lat="45.4601" lon="4.74936">
        <ele>277</ele>
        <time>2019-09-22T13:41:26.000Z</time>
      </trkpt>
      <trkpt lat="45.46009" lon="4.74941">
        <ele>276</ele>
        <time>2019-09-22T13:41:30.000Z</time>
      </trkpt>
      <trkpt lat="45.46002" lon="4.74967">
        <ele>273.20001220703</ele>
        <time>2019-09-22T13:41:32.000Z</time>
      </trkpt>
      <trkpt lat="45.45997" lon="4.74987">
        <ele>271.60000610352</ele>
        <time>2019-09-22T13:41:35.000Z</time>
      </trkpt>
      <trkpt lat="45.45979" lon="4.75001">
        <ele>266.79998779297</ele>
        <time>2019-09-22T13:41:38.000Z</time>
      </trkpt>
      <trkpt lat="45.45957" lon="4.74983">
        <ele>267.39999389648</ele>
        <time>2019-09-22T13:41:39.000Z</time>
      </trkpt>
      <trkpt lat="45.45942" lon="4.74969">
        <ele>269.39999389648</ele>
        <time>2019-09-22T13:41:42.000Z</time>
      </trkpt>
      <trkpt lat="45.45923" lon="4.7496">
        <ele>270.60000610352</ele>
        <time>2019-09-22T13:41:44.000Z</time>
      </trkpt>
      <trkpt lat="45.45903" lon="4.74959">
        <ele>270.39999389648</ele>
        <time>2019-09-22T13:41:46.000Z</time>
      </trkpt>
      <trkpt lat="45.45883" lon="4.7497">
        <ele>267.39999389648</ele>
        <time>2019-09-22T13:41:47.000Z</time>
      </trkpt>
      <trkpt lat="45.45867" lon="4.7499">
        <ele>265.20001220703</ele>
        <time>2019-09-22T13:41:49.000Z</time>
      </trkpt>
      <trkpt lat="45.45854" lon="4.75017">
        <ele>260.79998779297</ele>
        <time>2019-09-22T13:41:51.000Z</time>
      </trkpt>
      <trkpt lat="45.45842" lon="4.75046">
        <ele>256</ele>
        <time>2019-09-22T13:41:53.000Z</time>
      </trkpt>
      <trkpt lat="45.45829" lon="4.75075">
        <ele>250.80000305176</ele>
        <time>2019-09-22T13:41:54.000Z</time>
      </trkpt>
      <trkpt lat="45.45815" lon="4.75101">
        <ele>245.60000610352</ele>
        <time>2019-09-22T13:41:56.000Z</time>
      </trkpt>
      <trkpt lat="45.45795" lon="4.75116">
        <ele>243.19999694824</ele>
        <time>2019-09-22T13:41:58.000Z</time>
      </trkpt>
      <trkpt lat="45.45774" lon="4.75118">
        <ele>243.19999694824</ele>
        <time>2019-09-22T13:42:00.000Z</time>
      </trkpt>
      <trkpt lat="45.45763" lon="4.75117">
        <ele>243.60000610352</ele>
        <time>2019-09-22T13:42:02.000Z</time>
      </trkpt>
      <trkpt lat="45.45752" lon="4.75116">
        <ele>244.19999694824</ele>
        <time>2019-09-22T13:42:04.000Z</time>
      </trkpt>
      <trkpt lat="45.45732" lon="4.75109">
        <ele>246.19999694824</ele>
        <time>2019-09-22T13:42:06.000Z</time>
      </trkpt>
      <trkpt lat="45.45714" lon="4.75098">
        <ele>248.60000610352</ele>
        <time>2019-09-22T13:42:08.000Z</time>
      </trkpt>
      <trkpt lat="45.45699" lon="4.75083">
        <ele>248.60000610352</ele>
        <time>2019-09-22T13:42:09.000Z</time>
      </trkpt>
      <trkpt lat="45.45687" lon="4.75064">
        <ele>250.39999389648</ele>
        <time>2019-09-22T13:42:11.000Z</time>
      </trkpt>
      <trkpt lat="45.45682" lon="4.75053">
        <ele>251.60000610352</ele>
        <time>2019-09-22T13:42:13.000Z</time>
      </trkpt>
      <trkpt lat="45.45678" lon="4.75041">
        <ele>253.39999389648</ele>
        <time>2019-09-22T13:42:14.000Z</time>
      </trkpt>
      <trkpt lat="45.4567" lon="4.75019">
        <ele>256.79998779297</ele>
        <time>2019-09-22T13:42:16.000Z</time>
      </trkpt>
      <trkpt lat="45.45648" lon="4.75008">
        <ele>254.80000305176</ele>
        <time>2019-09-22T13:42:19.000Z</time>
      </trkpt>
      <trkpt lat="45.45624" lon="4.75025">
        <ele>248.19999694824</ele>
        <time>2019-09-22T13:42:22.000Z</time>
      </trkpt>
      <trkpt lat="45.45607" lon="4.75039">
        <ele>247.19999694824</ele>
        <time>2019-09-22T13:42:24.000Z</time>
      </trkpt>
      <trkpt lat="45.4559" lon="4.75052">
        <ele>246.19999694824</ele>
        <time>2019-09-22T13:42:26.000Z</time>
      </trkpt>
      <trkpt lat="45.45581" lon="4.75058">
        <ele>246</ele>
        <time>2019-09-22T13:42:27.000Z</time>
      </trkpt>
      <trkpt lat="45.45562" lon="4.75069">
        <ele>243.19999694824</ele>
        <time>2019-09-22T13:42:29.000Z</time>
      </trkpt>
      <trkpt lat="45.45546" lon="4.7508">
        <ele>239</ele>
        <time>2019-09-22T13:42:31.000Z</time>
      </trkpt>
      <trkpt lat="45.45541" lon="4.75086">
        <ele>237.19999694824</ele>
        <time>2019-09-22T13:42:32.000Z</time>
      </trkpt>
      <trkpt lat="45.45551" lon="4.75099">
        <ele>233</ele>
        <time>2019-09-22T13:42:34.000Z</time>
      </trkpt>
      <trkpt lat="45.45564" lon="4.75091">
        <ele>236.19999694824</ele>
        <time>2019-09-22T13:42:36.000Z</time>
      </trkpt>
      <trkpt lat="45.45587" lon="4.75076">
        <ele>241.39999389648</ele>
        <time>2019-09-22T13:42:38.000Z</time>
      </trkpt>
      <trkpt lat="45.45611" lon="4.75062">
        <ele>242.19999694824</ele>
        <time>2019-09-22T13:42:40.000Z</time>
      </trkpt>
      <trkpt lat="45.4562" lon="4.75057">
        <ele>242.19999694824</ele>
        <time>2019-09-22T13:42:42.000Z</time>
      </trkpt>
      <trkpt lat="45.45643" lon="4.75069">
        <ele>240.60000610352</ele>
        <time>2019-09-22T13:42:43.000Z</time>
      </trkpt>
      <trkpt lat="45.45645" lon="4.75095">
        <ele>235.80000305176</ele>
        <time>2019-09-22T13:42:46.000Z</time>
      </trkpt>
      <trkpt lat="45.45638" lon="4.75121">
        <ele>229</ele>
        <time>2019-09-22T13:42:49.000Z</time>
      </trkpt>
      <trkpt lat="45.45636" lon="4.75135">
        <ele>225.60000610352</ele>
        <time>2019-09-22T13:42:50.000Z</time>
      </trkpt>
      <trkpt lat="45.45636" lon="4.75162">
        <ele>220</ele>
        <time>2019-09-22T13:42:51.000Z</time>
      </trkpt>
      <trkpt lat="45.45649" lon="4.7518">
        <ele>218.60000610352</ele>
        <time>2019-09-22T13:42:54.000Z</time>
      </trkpt>
      <trkpt lat="45.45668" lon="4.75187">
        <ele>220.39999389648</ele>
        <time>2019-09-22T13:42:57.000Z</time>
      </trkpt>
      <trkpt lat="45.45678" lon="4.75191">
        <ele>221.19999694824</ele>
        <time>2019-09-22T13:42:58.000Z</time>
      </trkpt>
      <trkpt lat="45.45699" lon="4.75205">
        <ele>221.80000305176</ele>
        <time>2019-09-22T13:42:59.000Z</time>
      </trkpt>
      <trkpt lat="45.45717" lon="4.75227">
        <ele>218.39999389648</ele>
        <time>2019-09-22T13:43:02.000Z</time>
      </trkpt>
      <trkpt lat="45.45729" lon="4.75257">
        <ele>209.19999694824</ele>
        <time>2019-09-22T13:43:04.000Z</time>
      </trkpt>
      <trkpt lat="45.4574" lon="4.75284">
        <ele>201.19999694824</ele>
        <time>2019-09-22T13:43:08.000Z</time>
      </trkpt>
      <trkpt lat="45.45758" lon="4.753">
        <ele>196</ele>
        <time>2019-09-22T13:43:12.000Z</time>
      </trkpt>
      <trkpt lat="45.4578" lon="4.75298">
        <ele>195.80000305176</ele>
        <time>2019-09-22T13:43:15.000Z</time>
      </trkpt>
      <trkpt lat="45.45802" lon="4.75287">
        <ele>198</ele>
        <time>2019-09-22T13:43:20.000Z</time>
      </trkpt>
      <trkpt lat="45.45815" lon="4.75282">
        <ele>198.19999694824</ele>
        <time>2019-09-22T13:43:25.000Z</time>
      </trkpt>
      <trkpt lat="45.45839" lon="4.75272">
        <ele>198.80000305176</ele>
        <time>2019-09-22T13:43:26.000Z</time>
      </trkpt>
      <trkpt lat="45.45861" lon="4.75256">
        <ele>201.60000610352</ele>
        <time>2019-09-22T13:43:36.000Z</time>
      </trkpt>
      <trkpt lat="45.45871" lon="4.7525">
        <ele>202.39999389648</ele>
        <time>2019-09-22T13:43:41.000Z</time>
      </trkpt>
      <trkpt lat="45.4589" lon="4.75254">
        <ele>201.19999694824</ele>
        <time>2019-09-22T13:43:44.000Z</time>
      </trkpt>
      <trkpt lat="45.459" lon="4.75281">
        <ele>195.19999694824</ele>
        <time>2019-09-22T13:43:49.000Z</time>
      </trkpt>
      <trkpt lat="45.45879" lon="4.75301">
        <ele>189.19999694824</ele>
        <time>2019-09-22T13:43:55.000Z</time>
      </trkpt>
      <trkpt lat="45.45861" lon="4.75312">
        <ele>189.80000305176</ele>
        <time>2019-09-22T13:44:00.000Z</time>
      </trkpt>
      <trkpt lat="45.45844" lon="4.75327">
        <ele>189.80000305176</ele>
        <time>2019-09-22T13:44:04.000Z</time>
      </trkpt>
      <trkpt lat="45.45835" lon="4.75334">
        <ele>188.19999694824</ele>
        <time>2019-09-22T13:44:06.000Z</time>
      </trkpt>
      <trkpt lat="45.45814" lon="4.75343">
        <ele>183.80000305176</ele>
        <time>2019-09-22T13:44:10.000Z</time>
      </trkpt>
      <trkpt lat="45.45791" lon="4.75348">
        <ele>181.80000305176</ele>
        <time>2019-09-22T13:44:14.000Z</time>
      </trkpt>
      <trkpt lat="45.4578" lon="4.75351">
        <ele>181.39999389648</ele>
        <time>2019-09-22T13:44:16.000Z</time>
      </trkpt>
      <trkpt lat="45.45758" lon="4.7536">
        <ele>178.39999389648</ele>
        <time>2019-09-22T13:44:20.000Z</time>
      </trkpt>
      <trkpt lat="45.45736" lon="4.75361">
        <ele>178</ele>
        <time>2019-09-22T13:44:24.000Z</time>
      </trkpt>
      <trkpt lat="45.45713" lon="4.75355">
        <ele>179.39999389648</ele>
        <time>2019-09-22T13:44:28.000Z</time>
      </trkpt>
      <trkpt lat="45.45691" lon="4.75346">
        <ele>178.39999389648</ele>
        <time>2019-09-22T13:44:32.000Z</time>
      </trkpt>
      <trkpt lat="45.4567" lon="4.75338">
        <ele>177.80000305176</ele>
        <time>2019-09-22T13:44:36.000Z</time>
      </trkpt>
      <trkpt lat="45.45661" lon="4.75337">
        <ele>177.19999694824</ele>
        <time>2019-09-22T13:44:39.000Z</time>
      </trkpt>
      <trkpt lat="45.45645" lon="4.75355">
        <ele>170.19999694824</ele>
        <time>2019-09-22T13:44:44.000Z</time>
      </trkpt>
      <trkpt lat="45.45658" lon="4.75378">
        <ele>165.80000305176</ele>
        <time>2019-09-22T13:44:45.000Z</time>
      </trkpt>
      <trkpt lat="45.45667" lon="4.75381">
        <ele>166.19999694824</ele>
        <time>2019-09-22T13:44:49.000Z</time>
      </trkpt>
      <trkpt lat="45.45675" lon="4.75384">
        <ele>166.39999389648</ele>
        <time>2019-09-22T13:44:50.000Z</time>
      </trkpt>
      <trkpt lat="45.45688" lon="4.7541">
        <ele>162</ele>
        <time>2019-09-22T13:44:53.000Z</time>
      </trkpt>
      <trkpt lat="45.45679" lon="4.75437">
        <ele>156.19999694824</ele>
        <time>2019-09-22T13:44:58.000Z</time>
      </trkpt>
      <trkpt lat="45.45674" lon="4.75444">
        <ele>155</ele>
        <time>2019-09-22T13:45:00.000Z</time>
      </trkpt>
      <trkpt lat="45.4567" lon="4.75451">
        <ele>153.80000305176</ele>
        <time>2019-09-22T13:45:05.000Z</time>
      </trkpt>
      <trkpt lat="45.45656" lon="4.75468">
        <ele>152.39999389648</ele>
        <time>2019-09-22T13:45:08.000Z</time>
      </trkpt>
      <trkpt lat="45.45649" lon="4.75474">
        <ele>151.80000305176</ele>
        <time>2019-09-22T13:45:11.000Z</time>
      </trkpt>
      <trkpt lat="45.45638" lon="4.7548">
        <ele>151.19999694824</ele>
        <time>2019-09-22T13:45:16.000Z</time>
      </trkpt>
      <trkpt lat="45.4563" lon="4.75488">
        <ele>150.80000305176</ele>
        <time>2019-09-22T13:45:18.000Z</time>
      </trkpt>
      <trkpt lat="45.45622" lon="4.75497">
        <ele>150.19999694824</ele>
        <time>2019-09-22T13:45:21.000Z</time>
      </trkpt>
      <trkpt lat="45.45602" lon="4.75492">
        <ele>150</ele>
        <time>2019-09-22T13:45:24.000Z</time>
      </trkpt>
      <trkpt lat="45.45593" lon="4.75508">
        <ele>149.19999694824</ele>
        <time>2019-09-22T13:45:28.000Z</time>
      </trkpt>
      <trkpt lat="45.45592" lon="4.75511">
        <ele>149.19999694824</ele>
        <time>2019-09-22T13:45:32.000Z</time>
      </trkpt>
      <trkpt lat="45.45604" lon="4.7555">
        <ele>148.39999389648</ele>
        <time>2019-09-22T13:45:34.000Z</time>
      </trkpt>
      <trkpt lat="45.45613" lon="4.75571">
        <ele>148</ele>
        <time>2019-09-22T13:45:38.000Z</time>
      </trkpt>
      <trkpt lat="45.45617" lon="4.75586">
        <ele>147.60000610352</ele>
        <time>2019-09-22T13:45:40.000Z</time>
      </trkpt>
      <trkpt lat="45.45625" lon="4.7561">
        <ele>147.19999694824</ele>
        <time>2019-09-22T13:45:44.000Z</time>
      </trkpt>
      <trkpt lat="45.45635" lon="4.75637">
        <ele>147</ele>
        <time>2019-09-22T13:45:48.000Z</time>
      </trkpt>
      <trkpt lat="45.45644" lon="4.7566">
        <ele>147.19999694824</ele>
        <time>2019-09-22T13:45:51.000Z</time>
      </trkpt>
      <trkpt lat="45.45653" lon="4.75683">
        <ele>147.19999694824</ele>
        <time>2019-09-22T13:45:55.000Z</time>
      </trkpt>
      <trkpt lat="45.45659" lon="4.75697">
        <ele>147.39999389648</ele>
        <time>2019-09-22T13:45:56.000Z</time>
      </trkpt>
      <trkpt lat="45.45671" lon="4.75725">
        <ele>147.19999694824</ele>
        <time>2019-09-22T13:46:00.000Z</time>
      </trkpt>
      <trkpt lat="45.45681" lon="4.75752">
        <ele>147</ele>
        <time>2019-09-22T13:46:04.000Z</time>
      </trkpt>
      <trkpt lat="45.45685" lon="4.75767">
        <ele>146.80000305176</ele>
        <time>2019-09-22T13:46:08.000Z</time>
      </trkpt>
      <trkpt lat="45.45691" lon="4.75797">
        <ele>146.60000610352</ele>
        <time>2019-09-22T13:46:11.000Z</time>
      </trkpt>
      <trkpt lat="45.45696" lon="4.75826">
        <ele>146.80000305176</ele>
        <time>2019-09-22T13:46:16.000Z</time>
      </trkpt>
      <trkpt lat="45.45702" lon="4.75857">
        <ele>146.80000305176</ele>
        <time>2019-09-22T13:46:19.000Z</time>
      </trkpt>
      <trkpt lat="45.45707" lon="4.75886">
        <ele>146.39999389648</ele>
        <time>2019-09-22T13:46:24.000Z</time>
      </trkpt>
      <trkpt lat="45.45713" lon="4.75914">
        <ele>145.80000305176</ele>
        <time>2019-09-22T13:46:26.000Z</time>
      </trkpt>
      <trkpt lat="45.45717" lon="4.75934">
        <ele>145.60000610352</ele>
        <time>2019-09-22T13:46:30.000Z</time>
      </trkpt>
      <trkpt lat="45.45731" lon="4.75945">
        <ele>145.39999389648</ele>
        <time>2019-09-22T13:46:32.000Z</time>
      </trkpt>
      <trkpt lat="45.45733" lon="4.75946">
        <ele>145.39999389648</ele>
        <time>2019-09-22T13:46:34.000Z</time>
      </trkpt>
      <trkpt lat="45.4574" lon="4.7596">
        <ele>145.19999694824</ele>
        <time>2019-09-22T13:46:38.000Z</time>
      </trkpt>
      <trkpt lat="45.45743" lon="4.75964">
        <ele>145.39999389648</ele>
        <time>2019-09-22T13:46:47.000Z</time>
      </trkpt>
      <trkpt lat="45.45752" lon="4.75974">
        <ele>145.39999389648</ele>
        <time>2019-09-22T13:46:49.000Z</time>
      </trkpt>
      <trkpt lat="45.45768" lon="4.75987">
        <ele>145.60000610352</ele>
        <time>2019-09-22T13:46:51.000Z</time>
      </trkpt>
      <trkpt lat="45.45773" lon="4.7599">
        <ele>145.60000610352</ele>
        <time>2019-09-22T13:46:54.000Z</time>
      </trkpt>
      <trkpt lat="45.4579" lon="4.75986">
        <ele>145.80000305176</ele>
        <time>2019-09-22T13:46:59.000Z</time>
      </trkpt>
      <trkpt lat="45.45801" lon="4.75983">
        <ele>146</ele>
        <time>2019-09-22T13:47:04.000Z</time>
      </trkpt>
      <trkpt lat="45.4581" lon="4.75982">
        <ele>146.19999694824</ele>
        <time>2019-09-22T13:47:06.000Z</time>
      </trkpt>
      <trkpt lat="45.45824" lon="4.75981">
        <ele>146.19999694824</ele>
        <time>2019-09-22T13:47:10.000Z</time>
      </trkpt>
      <trkpt lat="45.4583" lon="4.75985">
        <ele>146.39999389648</ele>
        <time>2019-09-22T13:47:11.000Z</time>
      </trkpt>
      <trkpt lat="45.45839" lon="4.75998">
        <ele>146.39999389648</ele>
        <time>2019-09-22T13:47:13.000Z</time>
      </trkpt>
      <trkpt lat="45.45847" lon="4.76016">
        <ele>146.60000610352</ele>
        <time>2019-09-22T13:47:17.000Z</time>
      </trkpt>
      <trkpt lat="45.45856" lon="4.76039">
        <ele>146.60000610352</ele>
        <time>2019-09-22T13:47:24.000Z</time>
      </trkpt>
      <trkpt lat="45.45866" lon="4.76062">
        <ele>146.80000305176</ele>
        <time>2019-09-22T13:47:26.000Z</time>
      </trkpt>
      <trkpt lat="45.4587" lon="4.76073">
        <ele>146.80000305176</ele>
        <time>2019-09-22T13:47:32.000Z</time>
      </trkpt>
      <trkpt lat="45.45867" lon="4.76098">
        <ele>146.80000305176</ele>
        <time>2019-09-22T13:47:33.000Z</time>
      </trkpt>
      <trkpt lat="45.4586" lon="4.76109">
        <ele>146.60000610352</ele>
        <time>2019-09-22T13:47:37.000Z</time>
      </trkpt>
      <trkpt lat="45.45845" lon="4.7613">
        <ele>146.39999389648</ele>
        <time>2019-09-22T13:47:42.000Z</time>
      </trkpt>
      <trkpt lat="45.45831" lon="4.76151">
        <ele>146.39999389648</ele>
        <time>2019-09-22T13:47:45.000Z</time>
      </trkpt>
      <trkpt lat="45.45821" lon="4.76166">
        <ele>146.39999389648</ele>
        <time>2019-09-22T13:47:50.000Z</time>
      </trkpt>
      <trkpt lat="45.45818" lon="4.76193">
        <ele>146.60000610352</ele>
        <time>2019-09-22T13:47:55.000Z</time>
      </trkpt>
      <trkpt lat="45.45818" lon="4.76199">
        <ele>146.60000610352</ele>
        <time>2019-09-22T13:47:59.000Z</time>
      </trkpt>
      <trkpt lat="45.45821" lon="4.76226">
        <ele>146.80000305176</ele>
        <time>2019-09-22T13:48:04.000Z</time>
      </trkpt>
      <trkpt lat="45.45822" lon="4.76253">
        <ele>147.19999694824</ele>
        <time>2019-09-22T13:48:09.000Z</time>
      </trkpt>
      <trkpt lat="45.4582" lon="4.76276">
        <ele>147.39999389648</ele>
        <time>2019-09-22T13:48:14.000Z</time>
      </trkpt>
      <trkpt lat="45.45822" lon="4.76293">
        <ele>147.39999389648</ele>
        <time>2019-09-22T13:48:19.000Z</time>
      </trkpt>
      <trkpt lat="45.45823" lon="4.76321">
        <ele>147.19999694824</ele>
        <time>2019-09-22T13:48:24.000Z</time>
      </trkpt>
      <trkpt lat="45.45823" lon="4.76338">
        <ele>147.19999694824</ele>
        <time>2019-09-22T13:48:26.000Z</time>
      </trkpt>
      <trkpt lat="45.45825" lon="4.76368">
        <ele>147.39999389648</ele>
        <time>2019-09-22T13:48:33.000Z</time>
      </trkpt>
      <trkpt lat="45.45827" lon="4.7638">
        <ele>147.39999389648</ele>
        <time>2019-09-22T13:48:37.000Z</time>
      </trkpt>
      <trkpt lat="45.4583" lon="4.76401">
        <ele>147.80000305176</ele>
        <time>2019-09-22T13:48:42.000Z</time>
      </trkpt>
      <trkpt lat="45.45832" lon="4.76412">
        <ele>147.80000305176</ele>
        <time>2019-09-22T13:48:44.000Z</time>
      </trkpt>
      <trkpt lat="45.45833" lon="4.76424">
        <ele>147.80000305176</ele>
        <time>2019-09-22T13:48:48.000Z</time>
      </trkpt>
      <trkpt lat="45.45836" lon="4.76449">
        <ele>147.80000305176</ele>
        <time>2019-09-22T13:48:53.000Z</time>
      </trkpt>
      <trkpt lat="45.45841" lon="4.76497">
        <ele>148</ele>
        <time>2019-09-22T13:48:54.000Z</time>
      </trkpt>
      <trkpt lat="45.45842" lon="4.76508">
        <ele>148</ele>
        <time>2019-09-22T13:48:58.000Z</time>
      </trkpt>
      <trkpt lat="45.45843" lon="4.7652">
        <ele>148</ele>
        <time>2019-09-22T13:49:02.000Z</time>
      </trkpt>
      <trkpt lat="45.45846" lon="4.76536">
        <ele>148.19999694824</ele>
        <time>2019-09-22T13:49:04.000Z</time>
      </trkpt>
      <trkpt lat="45.45858" lon="4.76559">
        <ele>148</ele>
        <time>2019-09-22T13:49:07.000Z</time>
      </trkpt>
      <trkpt lat="45.45875" lon="4.76577">
        <ele>147.80000305176</ele>
        <time>2019-09-22T13:49:12.000Z</time>
      </trkpt>
      <trkpt lat="45.45879" lon="4.76587">
        <ele>147.80000305176</ele>
        <time>2019-09-22T13:49:17.000Z</time>
      </trkpt>
      <trkpt lat="45.45884" lon="4.76608">
        <ele>147.39999389648</ele>
        <time>2019-09-22T13:49:21.000Z</time>
      </trkpt>
      <trkpt lat="45.45885" lon="4.76613">
        <ele>147.19999694824</ele>
        <time>2019-09-22T13:49:25.000Z</time>
      </trkpt>
      <trkpt lat="45.45887" lon="4.76625">
        <ele>147.19999694824</ele>
        <time>2019-09-22T13:49:29.000Z</time>
      </trkpt>
      <trkpt lat="45.45894" lon="4.76643">
        <ele>147.60000610352</ele>
        <time>2019-09-22T13:49:30.000Z</time>
      </trkpt>
      <trkpt lat="45.45911" lon="4.76645">
        <ele>147.60000610352</ele>
        <time>2019-09-22T13:49:34.000Z</time>
      </trkpt>
      <trkpt lat="45.45917" lon="4.76646">
        <ele>147.80000305176</ele>
        <time>2019-09-22T13:49:39.000Z</time>
      </trkpt>
      <trkpt lat="45.45937" lon="4.76653">
        <ele>148.39999389648</ele>
        <time>2019-09-22T13:49:42.000Z</time>
      </trkpt>
      <trkpt lat="45.45941" lon="4.76653">
        <ele>148.39999389648</ele>
        <time>2019-09-22T13:49:47.000Z</time>
      </trkpt>
      <trkpt lat="45.45957" lon="4.76653">
        <ele>148.80000305176</ele>
        <time>2019-09-22T13:49:52.000Z</time>
      </trkpt>
      <trkpt lat="45.45977" lon="4.76658">
        <ele>149.19999694824</ele>
        <time>2019-09-22T13:49:56.000Z</time>
      </trkpt>
      <trkpt lat="45.45988" lon="4.7666">
        <ele>149.19999694824</ele>
        <time>2019-09-22T13:50:01.000Z</time>
      </trkpt>
      <trkpt lat="45.46005" lon="4.76669">
        <ele>149.39999389648</ele>
        <time>2019-09-22T13:50:05.000Z</time>
      </trkpt>
      <trkpt lat="45.46015" lon="4.76696">
        <ele>149.60000610352</ele>
        <time>2019-09-22T13:50:09.000Z</time>
      </trkpt>
      <trkpt lat="45.46024" lon="4.76718">
        <ele>149.39999389648</ele>
        <time>2019-09-22T13:50:14.000Z</time>
      </trkpt>
      <trkpt lat="45.46034" lon="4.76746">
        <ele>148.80000305176</ele>
        <time>2019-09-22T13:50:17.000Z</time>
      </trkpt>
      <trkpt lat="45.46042" lon="4.76774">
        <ele>148.19999694824</ele>
        <time>2019-09-22T13:50:22.000Z</time>
      </trkpt>
      <trkpt lat="45.46053" lon="4.76801">
        <ele>148.19999694824</ele>
        <time>2019-09-22T13:50:26.000Z</time>
      </trkpt>
      <trkpt lat="45.46065" lon="4.76828">
        <ele>148.80000305176</ele>
        <time>2019-09-22T13:50:29.000Z</time>
      </trkpt>
      <trkpt lat="45.46079" lon="4.76852">
        <ele>149.39999389648</ele>
        <time>2019-09-22T13:50:32.000Z</time>
      </trkpt>
      <trkpt lat="45.46084" lon="4.76862">
        <ele>149.80000305176</ele>
        <time>2019-09-22T13:50:36.000Z</time>
      </trkpt>
      <trkpt lat="45.46074" lon="4.7689">
        <ele>149.60000610352</ele>
        <time>2019-09-22T13:50:40.000Z</time>
      </trkpt>
      <trkpt lat="45.46056" lon="4.76899">
        <ele>149.39999389648</ele>
        <time>2019-09-22T13:50:44.000Z</time>
      </trkpt>
      <trkpt lat="45.46034" lon="4.76908">
        <ele>149</ele>
        <time>2019-09-22T13:50:48.000Z</time>
      </trkpt>
      <trkpt lat="45.46026" lon="4.7691">
        <ele>148.80000305176</ele>
        <time>2019-09-22T13:50:52.000Z</time>
      </trkpt>
      <trkpt lat="45.4601" lon="4.76901">
        <ele>148.39999389648</ele>
        <time>2019-09-22T13:50:56.000Z</time>
      </trkpt>
      <trkpt lat="45.45991" lon="4.76884">
        <ele>147.80000305176</ele>
        <time>2019-09-22T13:51:00.000Z</time>
      </trkpt>
      <trkpt lat="45.45987" lon="4.76881">
        <ele>147.60000610352</ele>
        <time>2019-09-22T13:51:05.000Z</time>
      </trkpt>
      <trkpt lat="45.45972" lon="4.76863">
        <ele>147.19999694824</ele>
        <time>2019-09-22T13:51:10.000Z</time>
      </trkpt>
      <trkpt lat="45.45958" lon="4.76848">
        <ele>147</ele>
        <time>2019-09-22T13:51:15.000Z</time>
      </trkpt>
      <trkpt lat="45.4595" lon="4.76842">
        <ele>147.19999694824</ele>
        <time>2019-09-22T13:51:20.000Z</time>
      </trkpt>
      <trkpt lat="45.45938" lon="4.76836">
        <ele>147.39999389648</ele>
        <time>2019-09-22T13:51:24.000Z</time>
      </trkpt>
      <trkpt lat="45.45917" lon="4.76834">
        <ele>147.19999694824</ele>
        <time>2019-09-22T13:51:28.000Z</time>
      </trkpt>
      <trkpt lat="45.45894" lon="4.76842">
        <ele>146.80000305176</ele>
        <time>2019-09-22T13:51:32.000Z</time>
      </trkpt>
      <trkpt lat="45.45877" lon="4.7685">
        <ele>146.60000610352</ele>
        <time>2019-09-22T13:51:36.000Z</time>
      </trkpt>
      <trkpt lat="45.45859" lon="4.76859">
        <ele>146.60000610352</ele>
        <time>2019-09-22T13:51:40.000Z</time>
      </trkpt>
      <trkpt lat="45.45841" lon="4.76867">
        <ele>147</ele>
        <time>2019-09-22T13:51:44.000Z</time>
      </trkpt>
      <trkpt lat="45.45836" lon="4.76869">
        <ele>147.19999694824</ele>
        <time>2019-09-22T13:51:48.000Z</time>
      </trkpt>
      <trkpt lat="45.45818" lon="4.76873">
        <ele>147.60000610352</ele>
        <time>2019-09-22T13:51:52.000Z</time>
      </trkpt>
      <trkpt lat="45.45796" lon="4.76872">
        <ele>147.80000305176</ele>
        <time>2019-09-22T13:51:56.000Z</time>
      </trkpt>
      <trkpt lat="45.45783" lon="4.76872">
        <ele>146.80000305176</ele>
        <time>2019-09-22T13:52:00.000Z</time>
      </trkpt>
      <trkpt lat="45.45763" lon="4.7687">
        <ele>145.39999389648</ele>
        <time>2019-09-22T13:52:04.000Z</time>
      </trkpt>
      <trkpt lat="45.45741" lon="4.76869">
        <ele>143.80000305176</ele>
        <time>2019-09-22T13:52:08.000Z</time>
      </trkpt>
      <trkpt lat="45.45724" lon="4.76869">
        <ele>142.60000610352</ele>
        <time>2019-09-22T13:52:12.000Z</time>
      </trkpt>
      <trkpt lat="45.45702" lon="4.76867">
        <ele>142</ele>
        <time>2019-09-22T13:52:16.000Z</time>
      </trkpt>
      <trkpt lat="45.45683" lon="4.76865">
        <ele>142</ele>
        <time>2019-09-22T13:52:20.000Z</time>
      </trkpt>
      <trkpt lat="45.45664" lon="4.76863">
        <ele>142</ele>
        <time>2019-09-22T13:52:24.000Z</time>
      </trkpt>
      <trkpt lat="45.45646" lon="4.76862">
        <ele>142</ele>
        <time>2019-09-22T13:52:28.000Z</time>
      </trkpt>
      <trkpt lat="45.45636" lon="4.76861">
        <ele>142</ele>
        <time>2019-09-22T13:52:32.000Z</time>
      </trkpt>
      <trkpt lat="45.45615" lon="4.7686">
        <ele>143.39999389648</ele>
        <time>2019-09-22T13:52:36.000Z</time>
      </trkpt>
      <trkpt lat="45.45595" lon="4.76859">
        <ele>145</ele>
        <time>2019-09-22T13:52:40.000Z</time>
      </trkpt>
      <trkpt lat="45.45577" lon="4.76859">
        <ele>146.60000610352</ele>
        <time>2019-09-22T13:52:44.000Z</time>
      </trkpt>
      <trkpt lat="45.45558" lon="4.76855">
        <ele>148</ele>
        <time>2019-09-22T13:52:48.000Z</time>
      </trkpt>
      <trkpt lat="45.45536" lon="4.76847">
        <ele>148.80000305176</ele>
        <time>2019-09-22T13:52:52.000Z</time>
      </trkpt>
      <trkpt lat="45.45517" lon="4.76841">
        <ele>148.80000305176</ele>
        <time>2019-09-22T13:52:56.000Z</time>
      </trkpt>
      <trkpt lat="45.45498" lon="4.76834">
        <ele>149.19999694824</ele>
        <time>2019-09-22T13:53:00.000Z</time>
      </trkpt>
      <trkpt lat="45.45479" lon="4.76827">
        <ele>149.80000305176</ele>
        <time>2019-09-22T13:53:04.000Z</time>
      </trkpt>
      <trkpt lat="45.45461" lon="4.76821">
        <ele>150</ele>
        <time>2019-09-22T13:53:08.000Z</time>
      </trkpt>
      <trkpt lat="45.45442" lon="4.76815">
        <ele>150</ele>
        <time>2019-09-22T13:53:12.000Z</time>
      </trkpt>
      <trkpt lat="45.45423" lon="4.76811">
        <ele>150</ele>
        <time>2019-09-22T13:53:16.000Z</time>
      </trkpt>
      <trkpt lat="45.45403" lon="4.76806">
        <ele>149.80000305176</ele>
        <time>2019-09-22T13:53:20.000Z</time>
      </trkpt>
      <trkpt lat="45.45384" lon="4.76801">
        <ele>149.60000610352</ele>
        <time>2019-09-22T13:53:24.000Z</time>
      </trkpt>
      <trkpt lat="45.45366" lon="4.76796">
        <ele>149.80000305176</ele>
        <time>2019-09-22T13:53:28.000Z</time>
      </trkpt>
      <trkpt lat="45.45344" lon="4.76792">
        <ele>150.19999694824</ele>
        <time>2019-09-22T13:53:32.000Z</time>
      </trkpt>
      <trkpt lat="45.45327" lon="4.76786">
        <ele>150.19999694824</ele>
        <time>2019-09-22T13:53:36.000Z</time>
      </trkpt>
      <trkpt lat="45.45309" lon="4.76783">
        <ele>150.60000610352</ele>
        <time>2019-09-22T13:53:40.000Z</time>
      </trkpt>
      <trkpt lat="45.45291" lon="4.7678">
        <ele>150.80000305176</ele>
        <time>2019-09-22T13:53:44.000Z</time>
      </trkpt>
      <trkpt lat="45.45272" lon="4.76776">
        <ele>150.39999389648</ele>
        <time>2019-09-22T13:53:48.000Z</time>
      </trkpt>
      <trkpt lat="45.45255" lon="4.76772">
        <ele>150</ele>
        <time>2019-09-22T13:53:52.000Z</time>
      </trkpt>
      <trkpt lat="45.45237" lon="4.76767">
        <ele>149.80000305176</ele>
        <time>2019-09-22T13:53:56.000Z</time>
      </trkpt>
      <trkpt lat="45.45218" lon="4.76762">
        <ele>149.39999389648</ele>
        <time>2019-09-22T13:54:00.000Z</time>
      </trkpt>
      <trkpt lat="45.452" lon="4.76758">
        <ele>149.19999694824</ele>
        <time>2019-09-22T13:54:03.000Z</time>
      </trkpt>
      <trkpt lat="45.4518" lon="4.76755">
        <ele>149.19999694824</ele>
        <time>2019-09-22T13:54:07.000Z</time>
      </trkpt>
      <trkpt lat="45.45162" lon="4.76754">
        <ele>149.60000610352</ele>
        <time>2019-09-22T13:54:11.000Z</time>
      </trkpt>
      <trkpt lat="45.45143" lon="4.76756">
        <ele>150.19999694824</ele>
        <time>2019-09-22T13:54:15.000Z</time>
      </trkpt>
      <trkpt lat="45.45124" lon="4.76761">
        <ele>151.19999694824</ele>
        <time>2019-09-22T13:54:17.000Z</time>
      </trkpt>
      <trkpt lat="45.45105" lon="4.7677">
        <ele>152.39999389648</ele>
        <time>2019-09-22T13:54:20.000Z</time>
      </trkpt>
      <trkpt lat="45.45085" lon="4.76779">
        <ele>152.60000610352</ele>
        <time>2019-09-22T13:54:25.000Z</time>
      </trkpt>
      <trkpt lat="45.45064" lon="4.76788">
        <ele>152.80000305176</ele>
        <time>2019-09-22T13:54:30.000Z</time>
      </trkpt>
      <trkpt lat="45.45045" lon="4.76797">
        <ele>153.19999694824</ele>
        <time>2019-09-22T13:54:35.000Z</time>
      </trkpt>
      <trkpt lat="45.45025" lon="4.76803">
        <ele>153.60000610352</ele>
        <time>2019-09-22T13:54:40.000Z</time>
      </trkpt>
      <trkpt lat="45.45005" lon="4.76802">
        <ele>153.80000305176</ele>
        <time>2019-09-22T13:54:45.000Z</time>
      </trkpt>
      <trkpt lat="45.44985" lon="4.76798">
        <ele>154</ele>
        <time>2019-09-22T13:54:50.000Z</time>
      </trkpt>
      <trkpt lat="45.44965" lon="4.76794">
        <ele>154.19999694824</ele>
        <time>2019-09-22T13:54:55.000Z</time>
      </trkpt>
      <trkpt lat="45.44944" lon="4.7679">
        <ele>154</ele>
        <time>2019-09-22T13:55:00.000Z</time>
      </trkpt>
      <trkpt lat="45.44924" lon="4.76786">
        <ele>154</ele>
        <time>2019-09-22T13:55:04.000Z</time>
      </trkpt>
      <trkpt lat="45.44904" lon="4.76782">
        <ele>153.80000305176</ele>
        <time>2019-09-22T13:55:08.000Z</time>
      </trkpt>
      <trkpt lat="45.44884" lon="4.76777">
        <ele>153.39999389648</ele>
        <time>2019-09-22T13:55:12.000Z</time>
      </trkpt>
      <trkpt lat="45.44865" lon="4.76773">
        <ele>154</ele>
        <time>2019-09-22T13:55:16.000Z</time>
      </trkpt>
      <trkpt lat="45.44845" lon="4.7677">
        <ele>154.39999389648</ele>
        <time>2019-09-22T13:55:17.000Z</time>
      </trkpt>
      <trkpt lat="45.44825" lon="4.76766">
        <ele>155</ele>
        <time>2019-09-22T13:55:22.000Z</time>
      </trkpt>
      <trkpt lat="45.44807" lon="4.76762">
        <ele>155.60000610352</ele>
        <time>2019-09-22T13:55:23.000Z</time>
      </trkpt>
      <trkpt lat="45.44788" lon="4.76758">
        <ele>155.80000305176</ele>
        <time>2019-09-22T13:55:27.000Z</time>
      </trkpt>
      <trkpt lat="45.44769" lon="4.76753">
        <ele>156</ele>
        <time>2019-09-22T13:55:32.000Z</time>
      </trkpt>
      <trkpt lat="45.44751" lon="4.76749">
        <ele>156</ele>
        <time>2019-09-22T13:55:34.000Z</time>
      </trkpt>
      <trkpt lat="45.44732" lon="4.76743">
        <ele>156</ele>
        <time>2019-09-22T13:55:38.000Z</time>
      </trkpt>
      <trkpt lat="45.44713" lon="4.76738">
        <ele>155.80000305176</ele>
        <time>2019-09-22T13:55:42.000Z</time>
      </trkpt>
      <trkpt lat="45.44694" lon="4.76733">
        <ele>156.19999694824</ele>
        <time>2019-09-22T13:55:46.000Z</time>
      </trkpt>
      <trkpt lat="45.44675" lon="4.76728">
        <ele>156.60000610352</ele>
        <time>2019-09-22T13:55:50.000Z</time>
      </trkpt>
      <trkpt lat="45.44656" lon="4.76723">
        <ele>156.80000305176</ele>
        <time>2019-09-22T13:55:55.000Z</time>
      </trkpt>
      <trkpt lat="45.44636" lon="4.76718">
        <ele>157.19999694824</ele>
        <time>2019-09-22T13:55:59.000Z</time>
      </trkpt>
      <trkpt lat="45.44616" lon="4.76713">
        <ele>157.39999389648</ele>
        <time>2019-09-22T13:56:03.000Z</time>
      </trkpt>
      <trkpt lat="45.44596" lon="4.7671">
        <ele>157.60000610352</ele>
        <time>2019-09-22T13:56:07.000Z</time>
      </trkpt>
      <trkpt lat="45.44576" lon="4.76701">
        <ele>157.60000610352</ele>
        <time>2019-09-22T13:56:11.000Z</time>
      </trkpt>
      <trkpt lat="45.44563" lon="4.76694">
        <ele>157.60000610352</ele>
        <time>2019-09-22T13:56:15.000Z</time>
      </trkpt>
      <trkpt lat="45.44545" lon="4.7669">
        <ele>157.80000305176</ele>
        <time>2019-09-22T13:56:19.000Z</time>
      </trkpt>
      <trkpt lat="45.44527" lon="4.76686">
        <ele>158</ele>
        <time>2019-09-22T13:56:23.000Z</time>
      </trkpt>
      <trkpt lat="45.44509" lon="4.76682">
        <ele>158</ele>
        <time>2019-09-22T13:56:27.000Z</time>
      </trkpt>
      <trkpt lat="45.44501" lon="4.76679">
        <ele>158</ele>
        <time>2019-09-22T13:56:31.000Z</time>
      </trkpt>
      <trkpt lat="45.44489" lon="4.76676">
        <ele>158</ele>
        <time>2019-09-22T13:56:35.000Z</time>
      </trkpt>
      <trkpt lat="45.44469" lon="4.76672">
        <ele>158</ele>
        <time>2019-09-22T13:56:39.000Z</time>
      </trkpt>
      <trkpt lat="45.44448" lon="4.76667">
        <ele>157.80000305176</ele>
        <time>2019-09-22T13:56:43.000Z</time>
      </trkpt>
      <trkpt lat="45.44426" lon="4.76662">
        <ele>157.60000610352</ele>
        <time>2019-09-22T13:56:47.000Z</time>
      </trkpt>
      <trkpt lat="45.44404" lon="4.76657">
        <ele>157.39999389648</ele>
        <time>2019-09-22T13:56:52.000Z</time>
      </trkpt>
      <trkpt lat="45.44382" lon="4.76653">
        <ele>157.39999389648</ele>
        <time>2019-09-22T13:56:56.000Z</time>
      </trkpt>
      <trkpt lat="45.4436" lon="4.7665">
        <ele>157.80000305176</ele>
        <time>2019-09-22T13:57:00.000Z</time>
      </trkpt>
      <trkpt lat="45.44339" lon="4.76653">
        <ele>158.39999389648</ele>
        <time>2019-09-22T13:57:04.000Z</time>
      </trkpt>
      <trkpt lat="45.44317" lon="4.76659">
        <ele>158.60000610352</ele>
        <time>2019-09-22T13:57:09.000Z</time>
      </trkpt>
      <trkpt lat="45.44299" lon="4.76665">
        <ele>158.39999389648</ele>
        <time>2019-09-22T13:57:13.000Z</time>
      </trkpt>
      <trkpt lat="45.4428" lon="4.76672">
        <ele>159</ele>
        <time>2019-09-22T13:57:17.000Z</time>
      </trkpt>
      <trkpt lat="45.44262" lon="4.76683">
        <ele>159.80000305176</ele>
        <time>2019-09-22T13:57:21.000Z</time>
      </trkpt>
      <trkpt lat="45.44246" lon="4.76696">
        <ele>160.60000610352</ele>
        <time>2019-09-22T13:57:25.000Z</time>
      </trkpt>
      <trkpt lat="45.44242" lon="4.76699">
        <ele>160.80000305176</ele>
        <time>2019-09-22T13:57:29.000Z</time>
      </trkpt>
      <trkpt lat="45.44224" lon="4.76715">
        <ele>161.60000610352</ele>
        <time>2019-09-22T13:57:34.000Z</time>
      </trkpt>
      <trkpt lat="45.44221" lon="4.76718">
        <ele>161.80000305176</ele>
        <time>2019-09-22T13:57:38.000Z</time>
      </trkpt>
      <trkpt lat="45.44208" lon="4.76729">
        <ele>161.60000610352</ele>
        <time>2019-09-22T13:57:42.000Z</time>
      </trkpt>
      <trkpt lat="45.44189" lon="4.76746">
        <ele>161.19999694824</ele>
        <time>2019-09-22T13:57:46.000Z</time>
      </trkpt>
      <trkpt lat="45.44181" lon="4.76751">
        <ele>161</ele>
        <time>2019-09-22T13:57:50.000Z</time>
      </trkpt>
      <trkpt lat="45.44163" lon="4.76755">
        <ele>161</ele>
        <time>2019-09-22T13:57:54.000Z</time>
      </trkpt>
      <trkpt lat="45.44145" lon="4.76757">
        <ele>161</ele>
        <time>2019-09-22T13:57:58.000Z</time>
      </trkpt>
      <trkpt lat="45.44127" lon="4.76761">
        <ele>161</ele>
        <time>2019-09-22T13:58:02.000Z</time>
      </trkpt>
      <trkpt lat="45.44109" lon="4.76766">
        <ele>161.19999694824</ele>
        <time>2019-09-22T13:58:06.000Z</time>
      </trkpt>
      <trkpt lat="45.44087" lon="4.7677">
        <ele>161.60000610352</ele>
        <time>2019-09-22T13:58:10.000Z</time>
      </trkpt>
      <trkpt lat="45.44068" lon="4.76773">
        <ele>161.80000305176</ele>
        <time>2019-09-22T13:58:14.000Z</time>
      </trkpt>
      <trkpt lat="45.44049" lon="4.76774">
        <ele>162</ele>
        <time>2019-09-22T13:58:18.000Z</time>
      </trkpt>
      <trkpt lat="45.4403" lon="4.76775">
        <ele>162.19999694824</ele>
        <time>2019-09-22T13:58:22.000Z</time>
      </trkpt>
      <trkpt lat="45.44011" lon="4.76774">
        <ele>162.60000610352</ele>
        <time>2019-09-22T13:58:26.000Z</time>
      </trkpt>
      <trkpt lat="45.43992" lon="4.76773">
        <ele>163</ele>
        <time>2019-09-22T13:58:30.000Z</time>
      </trkpt>
      <trkpt lat="45.43973" lon="4.76775">
        <ele>163.60000610352</ele>
        <time>2019-09-22T13:58:34.000Z</time>
      </trkpt>
      <trkpt lat="45.43955" lon="4.76781">
        <ele>164</ele>
        <time>2019-09-22T13:58:38.000Z</time>
      </trkpt>
      <trkpt lat="45.43937" lon="4.76789">
        <ele>164</ele>
        <time>2019-09-22T13:58:42.000Z</time>
      </trkpt>
      <trkpt lat="45.43918" lon="4.76796">
        <ele>163.80000305176</ele>
        <time>2019-09-22T13:58:47.000Z</time>
      </trkpt>
      <trkpt lat="45.43899" lon="4.76803">
        <ele>163.60000610352</ele>
        <time>2019-09-22T13:58:51.000Z</time>
      </trkpt>
      <trkpt lat="45.4388" lon="4.76808">
        <ele>163.60000610352</ele>
        <time>2019-09-22T13:58:54.000Z</time>
      </trkpt>
      <trkpt lat="45.43861" lon="4.76811">
        <ele>164</ele>
        <time>2019-09-22T13:58:58.000Z</time>
      </trkpt>
      <trkpt lat="45.43842" lon="4.76814">
        <ele>164.39999389648</ele>
        <time>2019-09-22T13:59:04.000Z</time>
      </trkpt>
      <trkpt lat="45.4382" lon="4.76818">
        <ele>164.60000610352</ele>
        <time>2019-09-22T13:59:09.000Z</time>
      </trkpt>
      <trkpt lat="45.43801" lon="4.7682">
        <ele>164.39999389648</ele>
        <time>2019-09-22T13:59:14.000Z</time>
      </trkpt>
      <trkpt lat="45.43783" lon="4.76823">
        <ele>163.60000610352</ele>
        <time>2019-09-22T13:59:18.000Z</time>
      </trkpt>
      <trkpt lat="45.43765" lon="4.76825">
        <ele>162.60000610352</ele>
        <time>2019-09-22T13:59:22.000Z</time>
      </trkpt>
      <trkpt lat="45.43742" lon="4.76828">
        <ele>162</ele>
        <time>2019-09-22T13:59:26.000Z</time>
      </trkpt>
      <trkpt lat="45.43724" lon="4.7683">
        <ele>162</ele>
        <time>2019-09-22T13:59:30.000Z</time>
      </trkpt>
      <trkpt lat="45.43704" lon="4.76832">
        <ele>161.80000305176</ele>
        <time>2019-09-22T13:59:34.000Z</time>
      </trkpt>
      <trkpt lat="45.43685" lon="4.76836">
        <ele>161.19999694824</ele>
        <time>2019-09-22T13:59:37.000Z</time>
      </trkpt>
      <trkpt lat="45.43666" lon="4.7684">
        <ele>161</ele>
        <time>2019-09-22T13:59:41.000Z</time>
      </trkpt>
      <trkpt lat="45.43647" lon="4.76843">
        <ele>160.80000305176</ele>
        <time>2019-09-22T13:59:46.000Z</time>
      </trkpt>
      <trkpt lat="45.43625" lon="4.76848">
        <ele>160.60000610352</ele>
        <time>2019-09-22T13:59:51.000Z</time>
      </trkpt>
      <trkpt lat="45.43607" lon="4.76852">
        <ele>160.39999389648</ele>
        <time>2019-09-22T13:59:57.000Z</time>
      </trkpt>
      <trkpt lat="45.43589" lon="4.76855">
        <ele>160.19999694824</ele>
        <time>2019-09-22T14:00:02.000Z</time>
      </trkpt>
      <trkpt lat="45.43571" lon="4.76858">
        <ele>160.19999694824</ele>
        <time>2019-09-22T14:00:07.000Z</time>
      </trkpt>
      <trkpt lat="45.43552" lon="4.76861">
        <ele>160</ele>
        <time>2019-09-22T14:00:12.000Z</time>
      </trkpt>
      <trkpt lat="45.43533" lon="4.76864">
        <ele>160</ele>
        <time>2019-09-22T14:00:18.000Z</time>
      </trkpt>
      <trkpt lat="45.43514" lon="4.76867">
        <ele>160</ele>
        <time>2019-09-22T14:00:23.000Z</time>
      </trkpt>
      <trkpt lat="45.43496" lon="4.76872">
        <ele>160</ele>
        <time>2019-09-22T14:00:28.000Z</time>
      </trkpt>
      <trkpt lat="45.43477" lon="4.76875">
        <ele>160.19999694824</ele>
        <time>2019-09-22T14:00:35.000Z</time>
      </trkpt>
      <trkpt lat="45.43459" lon="4.76878">
        <ele>160.19999694824</ele>
        <time>2019-09-22T14:00:37.000Z</time>
      </trkpt>
      <trkpt lat="45.43439" lon="4.7688">
        <ele>160</ele>
        <time>2019-09-22T14:00:41.000Z</time>
      </trkpt>
      <trkpt lat="45.4342" lon="4.76883">
        <ele>159.80000305176</ele>
        <time>2019-09-22T14:00:44.000Z</time>
      </trkpt>
      <trkpt lat="45.43401" lon="4.76884">
        <ele>159.60000610352</ele>
        <time>2019-09-22T14:00:48.000Z</time>
      </trkpt>
      <trkpt lat="45.43383" lon="4.76884">
        <ele>159.80000305176</ele>
        <time>2019-09-22T14:00:52.000Z</time>
      </trkpt>
      <trkpt lat="45.43364" lon="4.76884">
        <ele>159.19999694824</ele>
        <time>2019-09-22T14:00:56.000Z</time>
      </trkpt>
      <trkpt lat="45.43346" lon="4.76884">
        <ele>158.39999389648</ele>
        <time>2019-09-22T14:01:00.000Z</time>
      </trkpt>
      <trkpt lat="45.43327" lon="4.76885">
        <ele>157.80000305176</ele>
        <time>2019-09-22T14:01:04.000Z</time>
      </trkpt>
      <trkpt lat="45.43309" lon="4.76886">
        <ele>157.19999694824</ele>
        <time>2019-09-22T14:01:08.000Z</time>
      </trkpt>
      <trkpt lat="45.43286" lon="4.76888">
        <ele>157.39999389648</ele>
        <time>2019-09-22T14:01:12.000Z</time>
      </trkpt>
      <trkpt lat="45.43268" lon="4.76891">
        <ele>158</ele>
        <time>2019-09-22T14:01:16.000Z</time>
      </trkpt>
      <trkpt lat="45.43256" lon="4.76894">
        <ele>158.39999389648</ele>
        <time>2019-09-22T14:01:20.000Z</time>
      </trkpt>
      <trkpt lat="45.43242" lon="4.76898">
        <ele>159</ele>
        <time>2019-09-22T14:01:24.000Z</time>
      </trkpt>
      <trkpt lat="45.43222" lon="4.76906">
        <ele>159.19999694824</ele>
        <time>2019-09-22T14:01:28.000Z</time>
      </trkpt>
      <trkpt lat="45.43203" lon="4.76912">
        <ele>159.60000610352</ele>
        <time>2019-09-22T14:01:32.000Z</time>
      </trkpt>
      <trkpt lat="45.43183" lon="4.76915">
        <ele>160</ele>
        <time>2019-09-22T14:01:36.000Z</time>
      </trkpt>
      <trkpt lat="45.43165" lon="4.76917">
        <ele>160.19999694824</ele>
        <time>2019-09-22T14:01:40.000Z</time>
      </trkpt>
      <trkpt lat="45.43145" lon="4.76919">
        <ele>160.60000610352</ele>
        <time>2019-09-22T14:01:44.000Z</time>
      </trkpt>
      <trkpt lat="45.43124" lon="4.76921">
        <ele>161</ele>
        <time>2019-09-22T14:01:48.000Z</time>
      </trkpt>
      <trkpt lat="45.43101" lon="4.76923">
        <ele>161.19999694824</ele>
        <time>2019-09-22T14:01:52.000Z</time>
      </trkpt>
      <trkpt lat="45.4308" lon="4.76927">
        <ele>161.39999389648</ele>
        <time>2019-09-22T14:01:53.000Z</time>
      </trkpt>
      <trkpt lat="45.43066" lon="4.7693">
        <ele>161.39999389648</ele>
        <time>2019-09-22T14:01:55.000Z</time>
      </trkpt>
      <trkpt lat="45.43046" lon="4.76934">
        <ele>161.60000610352</ele>
        <time>2019-09-22T14:01:59.000Z</time>
      </trkpt>
      <trkpt lat="45.43025" lon="4.76939">
        <ele>162.19999694824</ele>
        <time>2019-09-22T14:02:03.000Z</time>
      </trkpt>
      <trkpt lat="45.43007" lon="4.76943">
        <ele>162.19999694824</ele>
        <time>2019-09-22T14:02:07.000Z</time>
      </trkpt>
      <trkpt lat="45.42987" lon="4.76948">
        <ele>162</ele>
        <time>2019-09-22T14:02:09.000Z</time>
      </trkpt>
      <trkpt lat="45.42969" lon="4.76952">
        <ele>162</ele>
        <time>2019-09-22T14:02:12.000Z</time>
      </trkpt>
      <trkpt lat="45.4295" lon="4.76956">
        <ele>162.19999694824</ele>
        <time>2019-09-22T14:02:16.000Z</time>
      </trkpt>
      <trkpt lat="45.4293" lon="4.7696">
        <ele>162.39999389648</ele>
        <time>2019-09-22T14:02:20.000Z</time>
      </trkpt>
      <trkpt lat="45.42906" lon="4.76963">
        <ele>162.80000305176</ele>
        <time>2019-09-22T14:02:21.000Z</time>
      </trkpt>
      <trkpt lat="45.42885" lon="4.76966">
        <ele>163.19999694824</ele>
        <time>2019-09-22T14:02:25.000Z</time>
      </trkpt>
      <trkpt lat="45.42864" lon="4.7697">
        <ele>163</ele>
        <time>2019-09-22T14:02:26.000Z</time>
      </trkpt>
      <trkpt lat="45.42845" lon="4.76972">
        <ele>162.80000305176</ele>
        <time>2019-09-22T14:02:30.000Z</time>
      </trkpt>
      <trkpt lat="45.42837" lon="4.76976">
        <ele>162.80000305176</ele>
        <time>2019-09-22T14:02:34.000Z</time>
      </trkpt>
      <trkpt lat="45.42816" lon="4.76978">
        <ele>162.39999389648</ele>
        <time>2019-09-22T14:02:38.000Z</time>
      </trkpt>
      <trkpt lat="45.42802" lon="4.7698">
        <ele>162.39999389648</ele>
        <time>2019-09-22T14:02:42.000Z</time>
      </trkpt>
      <trkpt lat="45.42783" lon="4.76985">
        <ele>162.39999389648</ele>
        <time>2019-09-22T14:02:46.000Z</time>
      </trkpt>
      <trkpt lat="45.42763" lon="4.76988">
        <ele>162.39999389648</ele>
        <time>2019-09-22T14:02:50.000Z</time>
      </trkpt>
      <trkpt lat="45.42744" lon="4.76991">
        <ele>162.39999389648</ele>
        <time>2019-09-22T14:02:54.000Z</time>
      </trkpt>
      <trkpt lat="45.42724" lon="4.76995">
        <ele>162</ele>
        <time>2019-09-22T14:02:58.000Z</time>
      </trkpt>
      <trkpt lat="45.42703" lon="4.76998">
        <ele>161.80000305176</ele>
        <time>2019-09-22T14:03:02.000Z</time>
      </trkpt>
      <trkpt lat="45.42683" lon="4.77001">
        <ele>161.19999694824</ele>
        <time>2019-09-22T14:03:03.000Z</time>
      </trkpt>
      <trkpt lat="45.42664" lon="4.77004">
        <ele>161</ele>
        <time>2019-09-22T14:03:07.000Z</time>
      </trkpt>
      <trkpt lat="45.42644" lon="4.77007">
        <ele>160.80000305176</ele>
        <time>2019-09-22T14:03:10.000Z</time>
      </trkpt>
      <trkpt lat="45.42625" lon="4.77011">
        <ele>160.60000610352</ele>
        <time>2019-09-22T14:03:11.000Z</time>
      </trkpt>
      <trkpt lat="45.42606" lon="4.77014">
        <ele>160.39999389648</ele>
        <time>2019-09-22T14:03:15.000Z</time>
      </trkpt>
      <trkpt lat="45.42586" lon="4.77017">
        <ele>160.19999694824</ele>
        <time>2019-09-22T14:03:19.000Z</time>
      </trkpt>
      <trkpt lat="45.42566" lon="4.7702">
        <ele>160</ele>
        <time>2019-09-22T14:03:21.000Z</time>
      </trkpt>
      <trkpt lat="45.42546" lon="4.77023">
        <ele>159.80000305176</ele>
        <time>2019-09-22T14:03:25.000Z</time>
      </trkpt>
      <trkpt lat="45.42527" lon="4.77026">
        <ele>160</ele>
        <time>2019-09-22T14:03:28.000Z</time>
      </trkpt>
      <trkpt lat="45.42507" lon="4.77029">
        <ele>160.19999694824</ele>
        <time>2019-09-22T14:03:32.000Z</time>
      </trkpt>
      <trkpt lat="45.42487" lon="4.77032">
        <ele>160.60000610352</ele>
        <time>2019-09-22T14:03:34.000Z</time>
      </trkpt>
      <trkpt lat="45.42467" lon="4.77035">
        <ele>161</ele>
        <time>2019-09-22T14:03:38.000Z</time>
      </trkpt>
      <trkpt lat="45.42462" lon="4.77036">
        <ele>161</ele>
        <time>2019-09-22T14:03:39.000Z</time>
      </trkpt>
      <trkpt lat="45.42452" lon="4.77035">
        <ele>161</ele>
        <time>2019-09-22T14:03:42.000Z</time>
      </trkpt>
      <trkpt lat="45.42435" lon="4.77026">
        <ele>161</ele>
        <time>2019-09-22T14:03:45.000Z</time>
      </trkpt>
      <trkpt lat="45.42421" lon="4.77007">
        <ele>161</ele>
        <time>2019-09-22T14:03:48.000Z</time>
      </trkpt>
      <trkpt lat="45.42408" lon="4.76986">
        <ele>161</ele>
        <time>2019-09-22T14:03:51.000Z</time>
      </trkpt>
      <trkpt lat="45.42402" lon="4.76976">
        <ele>161</ele>
        <time>2019-09-22T14:03:54.000Z</time>
      </trkpt>
      <trkpt lat="45.42393" lon="4.76963">
        <ele>161</ele>
        <time>2019-09-22T14:03:57.000Z</time>
      </trkpt>
      <trkpt lat="45.4238" lon="4.76941">
        <ele>160.80000305176</ele>
        <time>2019-09-22T14:04:00.000Z</time>
      </trkpt>
      <trkpt lat="45.42364" lon="4.76917">
        <ele>160.19999694824</ele>
        <time>2019-09-22T14:04:03.000Z</time>
      </trkpt>
      <trkpt lat="45.42361" lon="4.76912">
        <ele>160</ele>
        <time>2019-09-22T14:04:04.000Z</time>
      </trkpt>
      <trkpt lat="45.42345" lon="4.76897">
        <ele>159.39999389648</ele>
        <time>2019-09-22T14:04:07.000Z</time>
      </trkpt>
      <trkpt lat="45.42342" lon="4.76893">
        <ele>159.19999694824</ele>
        <time>2019-09-22T14:04:10.000Z</time>
      </trkpt>
      <trkpt lat="45.42329" lon="4.76873">
        <ele>158.80000305176</ele>
        <time>2019-09-22T14:04:14.000Z</time>
      </trkpt>
      <trkpt lat="45.42315" lon="4.76852">
        <ele>158.39999389648</ele>
        <time>2019-09-22T14:04:16.000Z</time>
      </trkpt>
      <trkpt lat="45.42301" lon="4.76832">
        <ele>158</ele>
        <time>2019-09-22T14:04:19.000Z</time>
      </trkpt>
      <trkpt lat="45.42288" lon="4.76811">
        <ele>158</ele>
        <time>2019-09-22T14:04:22.000Z</time>
      </trkpt>
      <trkpt lat="45.42274" lon="4.76791">
        <ele>158</ele>
        <time>2019-09-22T14:04:25.000Z</time>
      </trkpt>
      <trkpt lat="45.4226" lon="4.7677">
        <ele>157.80000305176</ele>
        <time>2019-09-22T14:04:28.000Z</time>
      </trkpt>
      <trkpt lat="45.42247" lon="4.76748">
        <ele>157.60000610352</ele>
        <time>2019-09-22T14:04:31.000Z</time>
      </trkpt>
      <trkpt lat="45.42232" lon="4.76727">
        <ele>157.19999694824</ele>
        <time>2019-09-22T14:04:35.000Z</time>
      </trkpt>
      <trkpt lat="45.42217" lon="4.76707">
        <ele>157</ele>
        <time>2019-09-22T14:04:40.000Z</time>
      </trkpt>
      <trkpt lat="45.42213" lon="4.76702">
        <ele>157</ele>
        <time>2019-09-22T14:04:41.000Z</time>
      </trkpt>
      <trkpt lat="45.42196" lon="4.76689">
        <ele>156.60000610352</ele>
        <time>2019-09-22T14:04:45.000Z</time>
      </trkpt>
      <trkpt lat="45.42194" lon="4.76672">
        <ele>156.39999389648</ele>
        <time>2019-09-22T14:04:50.000Z</time>
      </trkpt>
      <trkpt lat="45.42196" lon="4.76666">
        <ele>156.39999389648</ele>
        <time>2019-09-22T14:04:52.000Z</time>
      </trkpt>
      <trkpt lat="45.42203" lon="4.76638">
        <ele>156</ele>
        <time>2019-09-22T14:04:58.000Z</time>
      </trkpt>
      <trkpt lat="45.4221" lon="4.7661">
        <ele>156</ele>
        <time>2019-09-22T14:04:59.000Z</time>
      </trkpt>
      <trkpt lat="45.42213" lon="4.76596">
        <ele>156</ele>
        <time>2019-09-22T14:05:00.000Z</time>
      </trkpt>
      <trkpt lat="45.42221" lon="4.7657">
        <ele>156</ele>
        <time>2019-09-22T14:05:05.000Z</time>
      </trkpt>
      <trkpt lat="45.42228" lon="4.76551">
        <ele>156.19999694824</ele>
        <time>2019-09-22T14:05:14.000Z</time>
      </trkpt>
      <trkpt lat="45.42237" lon="4.76525">
        <ele>156</ele>
        <time>2019-09-22T14:05:19.000Z</time>
      </trkpt>
      <trkpt lat="45.42242" lon="4.76513">
        <ele>155.80000305176</ele>
        <time>2019-09-22T14:05:24.000Z</time>
      </trkpt>
      <trkpt lat="45.42254" lon="4.76488">
        <ele>155.39999389648</ele>
        <time>2019-09-22T14:05:29.000Z</time>
      </trkpt>
      <trkpt lat="45.42258" lon="4.76482">
        <ele>155.60000610352</ele>
        <time>2019-09-22T14:05:34.000Z</time>
      </trkpt>
      <trkpt lat="45.42271" lon="4.76462">
        <ele>156</ele>
        <time>2019-09-22T14:05:40.000Z</time>
      </trkpt>
      <trkpt lat="45.42284" lon="4.76443">
        <ele>156.39999389648</ele>
        <time>2019-09-22T14:05:46.000Z</time>
      </trkpt>
      <trkpt lat="45.42298" lon="4.76422">
        <ele>155.80000305176</ele>
        <time>2019-09-22T14:05:51.000Z</time>
      </trkpt>
      <trkpt lat="45.4231" lon="4.76401">
        <ele>155.19999694824</ele>
        <time>2019-09-22T14:05:55.000Z</time>
      </trkpt>
      <trkpt lat="45.42321" lon="4.7638">
        <ele>154.80000305176</ele>
        <time>2019-09-22T14:06:00.000Z</time>
      </trkpt>
      <trkpt lat="45.42333" lon="4.76359">
        <ele>154.60000610352</ele>
        <time>2019-09-22T14:06:04.000Z</time>
      </trkpt>
      <trkpt lat="45.42344" lon="4.76337">
        <ele>154.19999694824</ele>
        <time>2019-09-22T14:06:08.000Z</time>
      </trkpt>
      <trkpt lat="45.42355" lon="4.76314">
        <ele>154.39999389648</ele>
        <time>2019-09-22T14:06:10.000Z</time>
      </trkpt>
      <trkpt lat="45.42358" lon="4.76306">
        <ele>154.39999389648</ele>
        <time>2019-09-22T14:06:13.000Z</time>
      </trkpt>
      <trkpt lat="45.42366" lon="4.76282">
        <ele>154.39999389648</ele>
        <time>2019-09-22T14:06:16.000Z</time>
      </trkpt>
      <trkpt lat="45.42371" lon="4.76257">
        <ele>154.19999694824</ele>
        <time>2019-09-22T14:06:21.000Z</time>
      </trkpt>
      <trkpt lat="45.42376" lon="4.76225">
        <ele>153.39999389648</ele>
        <time>2019-09-22T14:06:26.000Z</time>
      </trkpt>
      <trkpt lat="45.42378" lon="4.76209">
        <ele>153.19999694824</ele>
        <time>2019-09-22T14:06:27.000Z</time>
      </trkpt>
      <trkpt lat="45.42382" lon="4.76183">
        <ele>152.80000305176</ele>
        <time>2019-09-22T14:06:32.000Z</time>
      </trkpt>
      <trkpt lat="45.42386" lon="4.76154">
        <ele>152.60000610352</ele>
        <time>2019-09-22T14:06:37.000Z</time>
      </trkpt>
      <trkpt lat="45.42392" lon="4.76125">
        <ele>152.60000610352</ele>
        <time>2019-09-22T14:06:42.000Z</time>
      </trkpt>
      <trkpt lat="45.42398" lon="4.76097">
        <ele>153</ele>
        <time>2019-09-22T14:06:47.000Z</time>
      </trkpt>
      <trkpt lat="45.42404" lon="4.76071">
        <ele>153.39999389648</ele>
        <time>2019-09-22T14:06:52.000Z</time>
      </trkpt>
      <trkpt lat="45.42411" lon="4.7604">
        <ele>153.39999389648</ele>
        <time>2019-09-22T14:06:57.000Z</time>
      </trkpt>
      <trkpt lat="45.42418" lon="4.7601">
        <ele>153.39999389648</ele>
        <time>2019-09-22T14:07:02.000Z</time>
      </trkpt>
      <trkpt lat="45.42419" lon="4.76004">
        <ele>153.39999389648</ele>
        <time>2019-09-22T14:07:07.000Z</time>
      </trkpt>
      <trkpt lat="45.42426" lon="4.75981">
        <ele>153.19999694824</ele>
        <time>2019-09-22T14:07:12.000Z</time>
      </trkpt>
      <trkpt lat="45.42439" lon="4.75956">
        <ele>153</ele>
        <time>2019-09-22T14:07:17.000Z</time>
      </trkpt>
      <trkpt lat="45.42443" lon="4.75948">
        <ele>153</ele>
        <time>2019-09-22T14:07:19.000Z</time>
      </trkpt>
      <trkpt lat="45.4244" lon="4.75926">
        <ele>152.39999389648</ele>
        <time>2019-09-22T14:07:24.000Z</time>
      </trkpt>
      <trkpt lat="45.42437" lon="4.75923">
        <ele>152.19999694824</ele>
        <time>2019-09-22T14:07:29.000Z</time>
      </trkpt>
      <trkpt lat="45.42433" lon="4.75922">
        <ele>152</ele>
        <time>2019-09-22T14:07:31.000Z</time>
      </trkpt>
      <trkpt lat="45.42416" lon="4.75911">
        <ele>151.19999694824</ele>
        <time>2019-09-22T14:07:36.000Z</time>
      </trkpt>
      <trkpt lat="45.42386" lon="4.75891">
        <ele>149.60000610352</ele>
        <time>2019-09-22T14:07:40.000Z</time>
      </trkpt>
      <trkpt lat="45.42368" lon="4.7588">
        <ele>149.80000305176</ele>
        <time>2019-09-22T14:07:45.000Z</time>
      </trkpt>
      <trkpt lat="45.42349" lon="4.75868">
        <ele>150.19999694824</ele>
        <time>2019-09-22T14:07:49.000Z</time>
      </trkpt>
      <trkpt lat="45.42329" lon="4.75857">
        <ele>150.39999389648</ele>
        <time>2019-09-22T14:07:51.000Z</time>
      </trkpt>
      <trkpt lat="45.4231" lon="4.75845">
        <ele>150.60000610352</ele>
        <time>2019-09-22T14:07:55.000Z</time>
      </trkpt>
      <trkpt lat="45.42292" lon="4.75838">
        <ele>151</ele>
        <time>2019-09-22T14:07:59.000Z</time>
      </trkpt>
      <trkpt lat="45.42273" lon="4.75834">
        <ele>151.60000610352</ele>
        <time>2019-09-22T14:08:03.000Z</time>
      </trkpt>
      <trkpt lat="45.4225" lon="4.75833">
        <ele>152.19999694824</ele>
        <time>2019-09-22T14:08:04.000Z</time>
      </trkpt>
      <trkpt lat="45.4223" lon="4.75833">
        <ele>152.80000305176</ele>
        <time>2019-09-22T14:08:08.000Z</time>
      </trkpt>
      <trkpt lat="45.42208" lon="4.75833">
        <ele>153.39999389648</ele>
        <time>2019-09-22T14:08:12.000Z</time>
      </trkpt>
      <trkpt lat="45.42188" lon="4.75848">
        <ele>154.60000610352</ele>
        <time>2019-09-22T14:08:16.000Z</time>
      </trkpt>
      <trkpt lat="45.42173" lon="4.75862">
        <ele>155</ele>
        <time>2019-09-22T14:08:20.000Z</time>
      </trkpt>
      <trkpt lat="45.42166" lon="4.75869">
        <ele>155.19999694824</ele>
        <time>2019-09-22T14:08:24.000Z</time>
      </trkpt>
      <trkpt lat="45.42157" lon="4.7588">
        <ele>155.19999694824</ele>
        <time>2019-09-22T14:08:27.000Z</time>
      </trkpt>
      <trkpt lat="45.42149" lon="4.75891">
        <ele>155.39999389648</ele>
        <time>2019-09-22T14:08:31.000Z</time>
      </trkpt>
      <trkpt lat="45.42135" lon="4.75908">
        <ele>155.39999389648</ele>
        <time>2019-09-22T14:08:35.000Z</time>
      </trkpt>
      <trkpt lat="45.42122" lon="4.75925">
        <ele>155.60000610352</ele>
        <time>2019-09-22T14:08:39.000Z</time>
      </trkpt>
      <trkpt lat="45.42119" lon="4.75929">
        <ele>155.60000610352</ele>
        <time>2019-09-22T14:08:43.000Z</time>
      </trkpt>
      <trkpt lat="45.42104" lon="4.75944">
        <ele>155.60000610352</ele>
        <time>2019-09-22T14:08:47.000Z</time>
      </trkpt>
      <trkpt lat="45.42089" lon="4.75963">
        <ele>155.39999389648</ele>
        <time>2019-09-22T14:08:51.000Z</time>
      </trkpt>
      <trkpt lat="45.42073" lon="4.75982">
        <ele>155.39999389648</ele>
        <time>2019-09-22T14:08:52.000Z</time>
      </trkpt>
      <trkpt lat="45.42055" lon="4.76002">
        <ele>155.80000305176</ele>
        <time>2019-09-22T14:08:54.000Z</time>
      </trkpt>
      <trkpt lat="45.42039" lon="4.76021">
        <ele>156.19999694824</ele>
        <time>2019-09-22T14:08:56.000Z</time>
      </trkpt>
      <trkpt lat="45.42022" lon="4.76039">
        <ele>156.60000610352</ele>
        <time>2019-09-22T14:09:00.000Z</time>
      </trkpt>
      <trkpt lat="45.42003" lon="4.76054">
        <ele>156.80000305176</ele>
        <time>2019-09-22T14:09:04.000Z</time>
      </trkpt>
      <trkpt lat="45.41984" lon="4.76069">
        <ele>157</ele>
        <time>2019-09-22T14:09:07.000Z</time>
      </trkpt>
      <trkpt lat="45.41964" lon="4.76084">
        <ele>157.39999389648</ele>
        <time>2019-09-22T14:09:11.000Z</time>
      </trkpt>
      <trkpt lat="45.41945" lon="4.76099">
        <ele>157.80000305176</ele>
        <time>2019-09-22T14:09:15.000Z</time>
      </trkpt>
      <trkpt lat="45.41938" lon="4.76104">
        <ele>157.80000305176</ele>
        <time>2019-09-22T14:09:19.000Z</time>
      </trkpt>
      <trkpt lat="45.41918" lon="4.76112">
        <ele>157.80000305176</ele>
        <time>2019-09-22T14:09:22.000Z</time>
      </trkpt>
      <trkpt lat="45.41895" lon="4.76114">
        <ele>158</ele>
        <time>2019-09-22T14:09:24.000Z</time>
      </trkpt>
      <trkpt lat="45.41887" lon="4.76115">
        <ele>158</ele>
        <time>2019-09-22T14:09:29.000Z</time>
      </trkpt>
      <trkpt lat="45.41868" lon="4.7613">
        <ele>158</ele>
        <time>2019-09-22T14:09:33.000Z</time>
      </trkpt>
      <trkpt lat="45.41854" lon="4.76146">
        <ele>157.80000305176</ele>
        <time>2019-09-22T14:09:35.000Z</time>
      </trkpt>
      <trkpt lat="45.41837" lon="4.76167">
        <ele>157.39999389648</ele>
        <time>2019-09-22T14:09:38.000Z</time>
      </trkpt>
      <trkpt lat="45.41823" lon="4.76184">
        <ele>157.19999694824</ele>
        <time>2019-09-22T14:09:43.000Z</time>
      </trkpt>
      <trkpt lat="45.41815" lon="4.76191">
        <ele>157.19999694824</ele>
        <time>2019-09-22T14:09:48.000Z</time>
      </trkpt>
      <trkpt lat="45.41798" lon="4.76203">
        <ele>157</ele>
        <time>2019-09-22T14:09:53.000Z</time>
      </trkpt>
      <trkpt lat="45.41781" lon="4.76216">
        <ele>156.60000610352</ele>
        <time>2019-09-22T14:09:57.000Z</time>
      </trkpt>
      <trkpt lat="45.41764" lon="4.7623">
        <ele>156</ele>
        <time>2019-09-22T14:10:01.000Z</time>
      </trkpt>
      <trkpt lat="45.4176" lon="4.76233">
        <ele>156</ele>
        <time>2019-09-22T14:10:05.000Z</time>
      </trkpt>
      <trkpt lat="45.41743" lon="4.76245">
        <ele>155.80000305176</ele>
        <time>2019-09-22T14:10:09.000Z</time>
      </trkpt>
      <trkpt lat="45.41726" lon="4.76258">
        <ele>156.19999694824</ele>
        <time>2019-09-22T14:10:13.000Z</time>
      </trkpt>
      <trkpt lat="45.41708" lon="4.76271">
        <ele>156.19999694824</ele>
        <time>2019-09-22T14:10:17.000Z</time>
      </trkpt>
      <trkpt lat="45.41691" lon="4.76284">
        <ele>156</ele>
        <time>2019-09-22T14:10:21.000Z</time>
      </trkpt>
      <trkpt lat="45.41675" lon="4.76298">
        <ele>155.80000305176</ele>
        <time>2019-09-22T14:10:25.000Z</time>
      </trkpt>
      <trkpt lat="45.41662" lon="4.76309">
        <ele>155.39999389648</ele>
        <time>2019-09-22T14:10:29.000Z</time>
      </trkpt>
      <trkpt lat="45.41641" lon="4.76315">
        <ele>155.39999389648</ele>
        <time>2019-09-22T14:10:33.000Z</time>
      </trkpt>
      <trkpt lat="45.4162" lon="4.76316">
        <ele>155</ele>
        <time>2019-09-22T14:10:37.000Z</time>
      </trkpt>
      <trkpt lat="45.41601" lon="4.76318">
        <ele>154.60000610352</ele>
        <time>2019-09-22T14:10:41.000Z</time>
      </trkpt>
      <trkpt lat="45.41582" lon="4.76328">
        <ele>154.19999694824</ele>
        <time>2019-09-22T14:10:45.000Z</time>
      </trkpt>
      <trkpt lat="45.41571" lon="4.76351">
        <ele>155</ele>
        <time>2019-09-22T14:10:49.000Z</time>
      </trkpt>
      <trkpt lat="45.41568" lon="4.76378">
        <ele>155.39999389648</ele>
        <time>2019-09-22T14:10:53.000Z</time>
      </trkpt>
      <trkpt lat="45.41569" lon="4.76385">
        <ele>155.19999694824</ele>
        <time>2019-09-22T14:10:57.000Z</time>
      </trkpt>
      <trkpt lat="45.41569" lon="4.76398">
        <ele>155</ele>
        <time>2019-09-22T14:11:01.000Z</time>
      </trkpt>
      <trkpt lat="45.41568" lon="4.76412">
        <ele>155</ele>
        <time>2019-09-22T14:11:05.000Z</time>
      </trkpt>
      <trkpt lat="45.4156" lon="4.76436">
        <ele>155.39999389648</ele>
        <time>2019-09-22T14:11:09.000Z</time>
      </trkpt>
      <trkpt lat="45.41546" lon="4.76455">
        <ele>156</ele>
        <time>2019-09-22T14:11:13.000Z</time>
      </trkpt>
      <trkpt lat="45.41533" lon="4.76464">
        <ele>156.19999694824</ele>
        <time>2019-09-22T14:11:17.000Z</time>
      </trkpt>
      <trkpt lat="45.41516" lon="4.76476">
        <ele>156.60000610352</ele>
        <time>2019-09-22T14:11:21.000Z</time>
      </trkpt>
      <trkpt lat="45.41498" lon="4.76487">
        <ele>156.80000305176</ele>
        <time>2019-09-22T14:11:25.000Z</time>
      </trkpt>
      <trkpt lat="45.41481" lon="4.76499">
        <ele>157.39999389648</ele>
        <time>2019-09-22T14:11:29.000Z</time>
      </trkpt>
      <trkpt lat="45.41469" lon="4.76507">
        <ele>157.80000305176</ele>
        <time>2019-09-22T14:11:33.000Z</time>
      </trkpt>
      <trkpt lat="45.41462" lon="4.76512">
        <ele>158</ele>
        <time>2019-09-22T14:11:37.000Z</time>
      </trkpt>
      <trkpt lat="45.41448" lon="4.76519">
        <ele>158.19999694824</ele>
        <time>2019-09-22T14:11:41.000Z</time>
      </trkpt>
      <trkpt lat="45.41436" lon="4.76527">
        <ele>158.39999389648</ele>
        <time>2019-09-22T14:11:45.000Z</time>
      </trkpt>
      <trkpt lat="45.41428" lon="4.76531">
        <ele>158.39999389648</ele>
        <time>2019-09-22T14:11:49.000Z</time>
      </trkpt>
      <trkpt lat="45.41417" lon="4.76538">
        <ele>158.60000610352</ele>
        <time>2019-09-22T14:11:54.000Z</time>
      </trkpt>
      <trkpt lat="45.41398" lon="4.7655">
        <ele>158.60000610352</ele>
        <time>2019-09-22T14:12:00.000Z</time>
      </trkpt>
      <trkpt lat="45.41379" lon="4.76562">
        <ele>159</ele>
        <time>2019-09-22T14:12:03.000Z</time>
      </trkpt>
      <trkpt lat="45.41358" lon="4.76574">
        <ele>158.80000305176</ele>
        <time>2019-09-22T14:12:09.000Z</time>
      </trkpt>
      <trkpt lat="45.41342" lon="4.76585">
        <ele>158.60000610352</ele>
        <time>2019-09-22T14:12:14.000Z</time>
      </trkpt>
      <trkpt lat="45.41325" lon="4.76595">
        <ele>159</ele>
        <time>2019-09-22T14:12:19.000Z</time>
      </trkpt>
      <trkpt lat="45.41308" lon="4.76607">
        <ele>159.60000610352</ele>
        <time>2019-09-22T14:12:24.000Z</time>
      </trkpt>
      <trkpt lat="45.41291" lon="4.76618">
        <ele>159.80000305176</ele>
        <time>2019-09-22T14:12:29.000Z</time>
      </trkpt>
      <trkpt lat="45.41274" lon="4.7663">
        <ele>159.19999694824</ele>
        <time>2019-09-22T14:12:30.000Z</time>
      </trkpt>
      <trkpt lat="45.41257" lon="4.76642">
        <ele>158.60000610352</ele>
        <time>2019-09-22T14:12:34.000Z</time>
      </trkpt>
      <trkpt lat="45.41239" lon="4.76653">
        <ele>158</ele>
        <time>2019-09-22T14:12:38.000Z</time>
      </trkpt>
      <trkpt lat="45.41222" lon="4.76665">
        <ele>157.60000610352</ele>
        <time>2019-09-22T14:12:42.000Z</time>
      </trkpt>
      <trkpt lat="45.41204" lon="4.76677">
        <ele>157</ele>
        <time>2019-09-22T14:12:46.000Z</time>
      </trkpt>
      <trkpt lat="45.41185" lon="4.76689">
        <ele>156.19999694824</ele>
        <time>2019-09-22T14:12:50.000Z</time>
      </trkpt>
      <trkpt lat="45.41167" lon="4.767">
        <ele>155.80000305176</ele>
        <time>2019-09-22T14:12:54.000Z</time>
      </trkpt>
      <trkpt lat="45.41149" lon="4.76712">
        <ele>155.39999389648</ele>
        <time>2019-09-22T14:12:58.000Z</time>
      </trkpt>
      <trkpt lat="45.41131" lon="4.76724">
        <ele>155.19999694824</ele>
        <time>2019-09-22T14:13:02.000Z</time>
      </trkpt>
      <trkpt lat="45.41112" lon="4.76736">
        <ele>155.60000610352</ele>
        <time>2019-09-22T14:13:06.000Z</time>
      </trkpt>
      <trkpt lat="45.41094" lon="4.76748">
        <ele>156</ele>
        <time>2019-09-22T14:13:10.000Z</time>
      </trkpt>
      <trkpt lat="45.41075" lon="4.7676">
        <ele>156.39999389648</ele>
        <time>2019-09-22T14:13:14.000Z</time>
      </trkpt>
      <trkpt lat="45.41057" lon="4.76772">
        <ele>156.80000305176</ele>
        <time>2019-09-22T14:13:18.000Z</time>
      </trkpt>
      <trkpt lat="45.4104" lon="4.76783">
        <ele>156.80000305176</ele>
        <time>2019-09-22T14:13:22.000Z</time>
      </trkpt>
      <trkpt lat="45.41022" lon="4.76795">
        <ele>157</ele>
        <time>2019-09-22T14:13:26.000Z</time>
      </trkpt>
      <trkpt lat="45.41003" lon="4.76807">
        <ele>156.80000305176</ele>
        <time>2019-09-22T14:13:31.000Z</time>
      </trkpt>
      <trkpt lat="45.40985" lon="4.76818">
        <ele>156.60000610352</ele>
        <time>2019-09-22T14:13:36.000Z</time>
      </trkpt>
      <trkpt lat="45.40969" lon="4.76828">
        <ele>156.60000610352</ele>
        <time>2019-09-22T14:13:41.000Z</time>
      </trkpt>
      <trkpt lat="45.40951" lon="4.76839">
        <ele>156.39999389648</ele>
        <time>2019-09-22T14:13:45.000Z</time>
      </trkpt>
      <trkpt lat="45.40933" lon="4.7685">
        <ele>156.19999694824</ele>
        <time>2019-09-22T14:13:47.000Z</time>
      </trkpt>
      <trkpt lat="45.40916" lon="4.76863">
        <ele>155.60000610352</ele>
        <time>2019-09-22T14:13:49.000Z</time>
      </trkpt>
      <trkpt lat="45.40898" lon="4.76874">
        <ele>155.19999694824</ele>
        <time>2019-09-22T14:13:53.000Z</time>
      </trkpt>
      <trkpt lat="45.40881" lon="4.76885">
        <ele>155</ele>
        <time>2019-09-22T14:13:57.000Z</time>
      </trkpt>
      <trkpt lat="45.40863" lon="4.76897">
        <ele>155.19999694824</ele>
        <time>2019-09-22T14:14:01.000Z</time>
      </trkpt>
      <trkpt lat="45.40846" lon="4.76909">
        <ele>155.39999389648</ele>
        <time>2019-09-22T14:14:04.000Z</time>
      </trkpt>
      <trkpt lat="45.40828" lon="4.7692">
        <ele>155.60000610352</ele>
        <time>2019-09-22T14:14:07.000Z</time>
      </trkpt>
      <trkpt lat="45.4081" lon="4.76933">
        <ele>155.80000305176</ele>
        <time>2019-09-22T14:14:12.000Z</time>
      </trkpt>
      <trkpt lat="45.408" lon="4.7694">
        <ele>156</ele>
        <time>2019-09-22T14:14:14.000Z</time>
      </trkpt>
      <trkpt lat="45.4078" lon="4.76953">
        <ele>155.80000305176</ele>
        <time>2019-09-22T14:14:19.000Z</time>
      </trkpt>
      <trkpt lat="45.40761" lon="4.76966">
        <ele>155.39999389648</ele>
        <time>2019-09-22T14:14:20.000Z</time>
      </trkpt>
      <trkpt lat="45.40743" lon="4.76976">
        <ele>155</ele>
        <time>2019-09-22T14:14:25.000Z</time>
      </trkpt>
      <trkpt lat="45.40725" lon="4.76989">
        <ele>154.60000610352</ele>
        <time>2019-09-22T14:14:30.000Z</time>
      </trkpt>
      <trkpt lat="45.40704" lon="4.77002">
        <ele>154.60000610352</ele>
        <time>2019-09-22T14:14:35.000Z</time>
      </trkpt>
      <trkpt lat="45.40699" lon="4.77004">
        <ele>154.60000610352</ele>
        <time>2019-09-22T14:14:39.000Z</time>
      </trkpt>
      <trkpt lat="45.4068" lon="4.77016">
        <ele>154.39999389648</ele>
        <time>2019-09-22T14:14:41.000Z</time>
      </trkpt>
      <trkpt lat="45.4066" lon="4.77029">
        <ele>153.60000610352</ele>
        <time>2019-09-22T14:14:45.000Z</time>
      </trkpt>
      <trkpt lat="45.40639" lon="4.77042">
        <ele>153.19999694824</ele>
        <time>2019-09-22T14:14:46.000Z</time>
      </trkpt>
      <trkpt lat="45.40618" lon="4.77055">
        <ele>152.60000610352</ele>
        <time>2019-09-22T14:14:50.000Z</time>
      </trkpt>
      <trkpt lat="45.40598" lon="4.77069">
        <ele>152.19999694824</ele>
        <time>2019-09-22T14:14:54.000Z</time>
      </trkpt>
      <trkpt lat="45.40579" lon="4.77081">
        <ele>151.80000305176</ele>
        <time>2019-09-22T14:14:56.000Z</time>
      </trkpt>
      <trkpt lat="45.4056" lon="4.77093">
        <ele>151.39999389648</ele>
        <time>2019-09-22T14:15:01.000Z</time>
      </trkpt>
      <trkpt lat="45.40541" lon="4.77105">
        <ele>151.19999694824</ele>
        <time>2019-09-22T14:15:05.000Z</time>
      </trkpt>
      <trkpt lat="45.40523" lon="4.77117">
        <ele>150.39999389648</ele>
        <time>2019-09-22T14:15:13.000Z</time>
      </trkpt>
      <trkpt lat="45.40504" lon="4.77129">
        <ele>149.80000305176</ele>
        <time>2019-09-22T14:15:18.000Z</time>
      </trkpt>
      <trkpt lat="45.40485" lon="4.7714">
        <ele>149.19999694824</ele>
        <time>2019-09-22T14:15:22.000Z</time>
      </trkpt>
      <trkpt lat="45.40465" lon="4.77153">
        <ele>149.80000305176</ele>
        <time>2019-09-22T14:15:26.000Z</time>
      </trkpt>
      <trkpt lat="45.40447" lon="4.77164">
        <ele>150</ele>
        <time>2019-09-22T14:15:31.000Z</time>
      </trkpt>
      <trkpt lat="45.4043" lon="4.77176">
        <ele>150.19999694824</ele>
        <time>2019-09-22T14:15:35.000Z</time>
      </trkpt>
      <trkpt lat="45.4041" lon="4.77188">
        <ele>149.60000610352</ele>
        <time>2019-09-22T14:15:39.000Z</time>
      </trkpt>
      <trkpt lat="45.4039" lon="4.772">
        <ele>149.19999694824</ele>
        <time>2019-09-22T14:15:43.000Z</time>
      </trkpt>
      <trkpt lat="45.40371" lon="4.77212">
        <ele>149</ele>
        <time>2019-09-22T14:15:46.000Z</time>
      </trkpt>
      <trkpt lat="45.40354" lon="4.77221">
        <ele>149</ele>
        <time>2019-09-22T14:15:50.000Z</time>
      </trkpt>
      <trkpt lat="45.40345" lon="4.77225">
        <ele>149</ele>
        <time>2019-09-22T14:15:53.000Z</time>
      </trkpt>
      <trkpt lat="45.40336" lon="4.77229">
        <ele>149</ele>
        <time>2019-09-22T14:15:57.000Z</time>
      </trkpt>
      <trkpt lat="45.40318" lon="4.77235">
        <ele>148.80000305176</ele>
        <time>2019-09-22T14:16:01.000Z</time>
      </trkpt>
      <trkpt lat="45.40299" lon="4.77241">
        <ele>148.39999389648</ele>
        <time>2019-09-22T14:16:05.000Z</time>
      </trkpt>
      <trkpt lat="45.40281" lon="4.77246">
        <ele>148.19999694824</ele>
        <time>2019-09-22T14:16:09.000Z</time>
      </trkpt>
      <trkpt lat="45.40267" lon="4.7725">
        <ele>148.19999694824</ele>
        <time>2019-09-22T14:16:13.000Z</time>
      </trkpt>
      <trkpt lat="45.40254" lon="4.77254">
        <ele>148</ele>
        <time>2019-09-22T14:16:17.000Z</time>
      </trkpt>
      <trkpt lat="45.40233" lon="4.7726">
        <ele>147.39999389648</ele>
        <time>2019-09-22T14:16:20.000Z</time>
      </trkpt>
      <trkpt lat="45.40225" lon="4.77263">
        <ele>147.19999694824</ele>
        <time>2019-09-22T14:16:24.000Z</time>
      </trkpt>
      <trkpt lat="45.40219" lon="4.7729">
        <ele>147.19999694824</ele>
        <time>2019-09-22T14:16:25.000Z</time>
      </trkpt>
      <trkpt lat="45.4022" lon="4.77297">
        <ele>147.39999389648</ele>
        <time>2019-09-22T14:16:30.000Z</time>
      </trkpt>
      <trkpt lat="45.40224" lon="4.77327">
        <ele>148.60000610352</ele>
        <time>2019-09-22T14:16:33.000Z</time>
      </trkpt>
      <trkpt lat="45.40228" lon="4.77355">
        <ele>149.60000610352</ele>
        <time>2019-09-22T14:16:37.000Z</time>
      </trkpt>
      <trkpt lat="45.40232" lon="4.77382">
        <ele>150.60000610352</ele>
        <time>2019-09-22T14:16:41.000Z</time>
      </trkpt>
      <trkpt lat="45.40234" lon="4.77402">
        <ele>151.60000610352</ele>
        <time>2019-09-22T14:16:45.000Z</time>
      </trkpt>
      <trkpt lat="45.40233" lon="4.77412">
        <ele>152</ele>
        <time>2019-09-22T14:16:49.000Z</time>
      </trkpt>
      <trkpt lat="45.40222" lon="4.77425">
        <ele>152.19999694824</ele>
        <time>2019-09-22T14:16:53.000Z</time>
      </trkpt>
      <trkpt lat="45.40219" lon="4.77428">
        <ele>152.19999694824</ele>
        <time>2019-09-22T14:16:57.000Z</time>
      </trkpt>
      <trkpt lat="45.40208" lon="4.77442">
        <ele>152.39999389648</ele>
        <time>2019-09-22T14:17:01.000Z</time>
      </trkpt>
      <trkpt lat="45.40202" lon="4.77464">
        <ele>153</ele>
        <time>2019-09-22T14:17:06.000Z</time>
      </trkpt>
      <trkpt lat="45.402" lon="4.77475">
        <ele>153.39999389648</ele>
        <time>2019-09-22T14:17:08.000Z</time>
      </trkpt>
      <trkpt lat="45.40195" lon="4.77502">
        <ele>154.19999694824</ele>
        <time>2019-09-22T14:17:13.000Z</time>
      </trkpt>
      <trkpt lat="45.4019" lon="4.77526">
        <ele>155</ele>
        <time>2019-09-22T14:17:14.000Z</time>
      </trkpt>
      <trkpt lat="45.40159" lon="4.77526">
        <ele>154.19999694824</ele>
        <time>2019-09-22T14:17:17.000Z</time>
      </trkpt>
      <trkpt lat="45.40141" lon="4.77541">
        <ele>154.19999694824</ele>
        <time>2019-09-22T14:17:21.000Z</time>
      </trkpt>
      <trkpt lat="45.40133" lon="4.77564">
        <ele>154</ele>
        <time>2019-09-22T14:17:22.000Z</time>
      </trkpt>
      <trkpt lat="45.40127" lon="4.77589">
        <ele>153.60000610352</ele>
        <time>2019-09-22T14:17:27.000Z</time>
      </trkpt>
      <trkpt lat="45.4012" lon="4.77619">
        <ele>153.19999694824</ele>
        <time>2019-09-22T14:17:29.000Z</time>
      </trkpt>
      <trkpt lat="45.40114" lon="4.77647">
        <ele>153</ele>
        <time>2019-09-22T14:17:30.000Z</time>
      </trkpt>
      <trkpt lat="45.40107" lon="4.7767">
        <ele>152.60000610352</ele>
        <time>2019-09-22T14:17:35.000Z</time>
      </trkpt>
      <trkpt lat="45.40102" lon="4.77695">
        <ele>152.60000610352</ele>
        <time>2019-09-22T14:17:40.000Z</time>
      </trkpt>
      <trkpt lat="45.40097" lon="4.77713">
        <ele>152.60000610352</ele>
        <time>2019-09-22T14:17:45.000Z</time>
      </trkpt>
      <trkpt lat="45.40083" lon="4.77729">
        <ele>152</ele>
        <time>2019-09-22T14:17:46.000Z</time>
      </trkpt>
      <trkpt lat="45.40069" lon="4.77727">
        <ele>151.60000610352</ele>
        <time>2019-09-22T14:17:51.000Z</time>
      </trkpt>
      <trkpt lat="45.40051" lon="4.77722">
        <ele>151.39999389648</ele>
        <time>2019-09-22T14:17:52.000Z</time>
      </trkpt>
      <trkpt lat="45.40033" lon="4.77715">
        <ele>151.60000610352</ele>
        <time>2019-09-22T14:17:58.000Z</time>
      </trkpt>
      <trkpt lat="45.40016" lon="4.77709">
        <ele>151.80000305176</ele>
        <time>2019-09-22T14:18:03.000Z</time>
      </trkpt>
      <trkpt lat="45.39998" lon="4.77704">
        <ele>152.19999694824</ele>
        <time>2019-09-22T14:18:04.000Z</time>
      </trkpt>
      <trkpt lat="45.3998" lon="4.77698">
        <ele>152.60000610352</ele>
        <time>2019-09-22T14:18:09.000Z</time>
      </trkpt>
      <trkpt lat="45.39962" lon="4.77693">
        <ele>152.80000305176</ele>
        <time>2019-09-22T14:18:14.000Z</time>
      </trkpt>
      <trkpt lat="45.39948" lon="4.77688">
        <ele>152.39999389648</ele>
        <time>2019-09-22T14:18:16.000Z</time>
      </trkpt>
      <trkpt lat="45.3993" lon="4.77685">
        <ele>152.39999389648</ele>
        <time>2019-09-22T14:18:20.000Z</time>
      </trkpt>
      <trkpt lat="45.39926" lon="4.77686">
        <ele>152.39999389648</ele>
        <time>2019-09-22T14:18:24.000Z</time>
      </trkpt>
      <trkpt lat="45.3991" lon="4.77706">
        <ele>153</ele>
        <time>2019-09-22T14:18:26.000Z</time>
      </trkpt>
      <trkpt lat="45.39908" lon="4.77727">
        <ele>153.19999694824</ele>
        <time>2019-09-22T14:18:31.000Z</time>
      </trkpt>
      <trkpt lat="45.39905" lon="4.77756">
        <ele>153.19999694824</ele>
        <time>2019-09-22T14:18:32.000Z</time>
      </trkpt>
      <trkpt lat="45.39902" lon="4.77785">
        <ele>153.19999694824</ele>
        <time>2019-09-22T14:18:37.000Z</time>
      </trkpt>
      <trkpt lat="45.39901" lon="4.77815">
        <ele>153.80000305176</ele>
        <time>2019-09-22T14:18:46.000Z</time>
      </trkpt>
      <trkpt lat="45.39899" lon="4.77845">
        <ele>154.19999694824</ele>
        <time>2019-09-22T14:18:51.000Z</time>
      </trkpt>
      <trkpt lat="45.39897" lon="4.77872">
        <ele>154.39999389648</ele>
        <time>2019-09-22T14:18:56.000Z</time>
      </trkpt>
      <trkpt lat="45.39895" lon="4.77899">
        <ele>154.39999389648</ele>
        <time>2019-09-22T14:19:01.000Z</time>
      </trkpt>
      <trkpt lat="45.39893" lon="4.77924">
        <ele>154.60000610352</ele>
        <time>2019-09-22T14:19:05.000Z</time>
      </trkpt>
      <trkpt lat="45.39891" lon="4.77955">
        <ele>155</ele>
        <time>2019-09-22T14:19:10.000Z</time>
      </trkpt>
      <trkpt lat="45.3989" lon="4.77966">
        <ele>155</ele>
        <time>2019-09-22T14:19:14.000Z</time>
      </trkpt>
      <trkpt lat="45.39874" lon="4.77977">
        <ele>155</ele>
        <time>2019-09-22T14:19:19.000Z</time>
      </trkpt>
      <trkpt lat="45.39871" lon="4.77975">
        <ele>155.19999694824</ele>
        <time>2019-09-22T14:19:23.000Z</time>
      </trkpt>
      <trkpt lat="45.3986" lon="4.7797">
        <ele>155.19999694824</ele>
        <time>2019-09-22T14:19:28.000Z</time>
      </trkpt>
      <trkpt lat="45.39847" lon="4.77956">
        <ele>155.39999389648</ele>
        <time>2019-09-22T14:19:33.000Z</time>
      </trkpt>
      <trkpt lat="45.39844" lon="4.77952">
        <ele>155.39999389648</ele>
        <time>2019-09-22T14:19:37.000Z</time>
      </trkpt>
      <trkpt lat="45.39831" lon="4.77931">
        <ele>154.80000305176</ele>
        <time>2019-09-22T14:19:41.000Z</time>
      </trkpt>
      <trkpt lat="45.39824" lon="4.77925">
        <ele>154.60000610352</ele>
        <time>2019-09-22T14:19:42.000Z</time>
      </trkpt>
      <trkpt lat="45.39821" lon="4.77923">
        <ele>154.60000610352</ele>
        <time>2019-09-22T14:19:46.000Z</time>
      </trkpt>
      <trkpt lat="45.39801" lon="4.77918">
        <ele>154.60000610352</ele>
        <time>2019-09-22T14:19:50.000Z</time>
      </trkpt>
      <trkpt lat="45.39782" lon="4.77914">
        <ele>155.39999389648</ele>
        <time>2019-09-22T14:19:54.000Z</time>
      </trkpt>
      <trkpt lat="45.39762" lon="4.77911">
        <ele>156.19999694824</ele>
        <time>2019-09-22T14:19:58.000Z</time>
      </trkpt>
      <trkpt lat="45.39758" lon="4.77912">
        <ele>156.39999389648</ele>
        <time>2019-09-22T14:20:02.000Z</time>
      </trkpt>
      <trkpt lat="45.39747" lon="4.77931">
        <ele>157.19999694824</ele>
        <time>2019-09-22T14:20:06.000Z</time>
      </trkpt>
      <trkpt lat="45.39747" lon="4.77938">
        <ele>157.39999389648</ele>
        <time>2019-09-22T14:20:10.000Z</time>
      </trkpt>
      <trkpt lat="45.39744" lon="4.77975">
        <ele>158.39999389648</ele>
        <time>2019-09-22T14:20:14.000Z</time>
      </trkpt>
      <trkpt lat="45.39743" lon="4.78004">
        <ele>158.60000610352</ele>
        <time>2019-09-22T14:20:17.000Z</time>
      </trkpt>
      <trkpt lat="45.39742" lon="4.7801">
        <ele>158.60000610352</ele>
        <time>2019-09-22T14:20:23.000Z</time>
      </trkpt>
      <trkpt lat="45.39738" lon="4.78039">
        <ele>158.80000305176</ele>
        <time>2019-09-22T14:20:25.000Z</time>
      </trkpt>
      <trkpt lat="45.3972" lon="4.78052">
        <ele>159.60000610352</ele>
        <time>2019-09-22T14:20:30.000Z</time>
      </trkpt>
      <trkpt lat="45.39711" lon="4.78052">
        <ele>159.39999389648</ele>
        <time>2019-09-22T14:20:35.000Z</time>
      </trkpt>
      <trkpt lat="45.39692" lon="4.7805">
        <ele>159.19999694824</ele>
        <time>2019-09-22T14:20:39.000Z</time>
      </trkpt>
      <trkpt lat="45.39673" lon="4.78051">
        <ele>159</ele>
        <time>2019-09-22T14:20:44.000Z</time>
      </trkpt>
      <trkpt lat="45.39664" lon="4.7805">
        <ele>158.80000305176</ele>
        <time>2019-09-22T14:20:49.000Z</time>
      </trkpt>
      <trkpt lat="45.39643" lon="4.78058">
        <ele>159</ele>
        <time>2019-09-22T14:20:56.000Z</time>
      </trkpt>
      <trkpt lat="45.39639" lon="4.7806">
        <ele>159</ele>
        <time>2019-09-22T14:20:57.000Z</time>
      </trkpt>
      <trkpt lat="45.3962" lon="4.78066">
        <ele>159.19999694824</ele>
        <time>2019-09-22T14:21:01.000Z</time>
      </trkpt>
      <trkpt lat="45.39583" lon="4.78069">
        <ele>159</ele>
        <time>2019-09-22T14:21:06.000Z</time>
      </trkpt>
      <trkpt lat="45.39562" lon="4.7807">
        <ele>158.60000610352</ele>
        <time>2019-09-22T14:21:11.000Z</time>
      </trkpt>
      <trkpt lat="45.39541" lon="4.78071">
        <ele>158.39999389648</ele>
        <time>2019-09-22T14:21:15.000Z</time>
      </trkpt>
      <trkpt lat="45.39519" lon="4.78072">
        <ele>158</ele>
        <time>2019-09-22T14:21:17.000Z</time>
      </trkpt>
      <trkpt lat="45.39502" lon="4.78074">
        <ele>157.60000610352</ele>
        <time>2019-09-22T14:21:21.000Z</time>
      </trkpt>
      <trkpt lat="45.39479" lon="4.78078">
        <ele>157.19999694824</ele>
        <time>2019-09-22T14:21:26.000Z</time>
      </trkpt>
      <trkpt lat="45.39461" lon="4.78083">
        <ele>157.19999694824</ele>
        <time>2019-09-22T14:21:30.000Z</time>
      </trkpt>
      <trkpt lat="45.3944" lon="4.78089">
        <ele>157.19999694824</ele>
        <time>2019-09-22T14:21:34.000Z</time>
      </trkpt>
      <trkpt lat="45.39422" lon="4.78093">
        <ele>157.19999694824</ele>
        <time>2019-09-22T14:21:38.000Z</time>
      </trkpt>
      <trkpt lat="45.394" lon="4.78099">
        <ele>157.19999694824</ele>
        <time>2019-09-22T14:21:42.000Z</time>
      </trkpt>
      <trkpt lat="45.39378" lon="4.78106">
        <ele>157.19999694824</ele>
        <time>2019-09-22T14:21:46.000Z</time>
      </trkpt>
      <trkpt lat="45.3936" lon="4.78111">
        <ele>157.19999694824</ele>
        <time>2019-09-22T14:21:50.000Z</time>
      </trkpt>
      <trkpt lat="45.39342" lon="4.78116">
        <ele>157.19999694824</ele>
        <time>2019-09-22T14:21:54.000Z</time>
      </trkpt>
      <trkpt lat="45.39337" lon="4.78118">
        <ele>157.19999694824</ele>
        <time>2019-09-22T14:21:58.000Z</time>
      </trkpt>
      <trkpt lat="45.39319" lon="4.78123">
        <ele>157.60000610352</ele>
        <time>2019-09-22T14:22:02.000Z</time>
      </trkpt>
      <trkpt lat="45.393" lon="4.78127">
        <ele>157.80000305176</ele>
        <time>2019-09-22T14:22:07.000Z</time>
      </trkpt>
      <trkpt lat="45.39281" lon="4.78129">
        <ele>157.39999389648</ele>
        <time>2019-09-22T14:22:11.000Z</time>
      </trkpt>
      <trkpt lat="45.39263" lon="4.78132">
        <ele>157</ele>
        <time>2019-09-22T14:22:15.000Z</time>
      </trkpt>
      <trkpt lat="45.39244" lon="4.78134">
        <ele>156.60000610352</ele>
        <time>2019-09-22T14:22:19.000Z</time>
      </trkpt>
      <trkpt lat="45.39226" lon="4.78133">
        <ele>155.80000305176</ele>
        <time>2019-09-22T14:22:23.000Z</time>
      </trkpt>
      <trkpt lat="45.39208" lon="4.78133">
        <ele>155</ele>
        <time>2019-09-22T14:22:27.000Z</time>
      </trkpt>
      <trkpt lat="45.39191" lon="4.78132">
        <ele>155.19999694824</ele>
        <time>2019-09-22T14:22:31.000Z</time>
      </trkpt>
      <trkpt lat="45.39182" lon="4.7813">
        <ele>155.19999694824</ele>
        <time>2019-09-22T14:22:35.000Z</time>
      </trkpt>
      <trkpt lat="45.39164" lon="4.78132">
        <ele>155.39999389648</ele>
        <time>2019-09-22T14:22:39.000Z</time>
      </trkpt>
      <trkpt lat="45.39156" lon="4.78134">
        <ele>155.80000305176</ele>
        <time>2019-09-22T14:22:43.000Z</time>
      </trkpt>
      <trkpt lat="45.39137" lon="4.78142">
        <ele>156.60000610352</ele>
        <time>2019-09-22T14:22:47.000Z</time>
      </trkpt>
      <trkpt lat="45.39117" lon="4.78153">
        <ele>157.60000610352</ele>
        <time>2019-09-22T14:22:52.000Z</time>
      </trkpt>
      <trkpt lat="45.39102" lon="4.78164">
        <ele>158.19999694824</ele>
        <time>2019-09-22T14:22:56.000Z</time>
      </trkpt>
      <trkpt lat="45.39085" lon="4.78181">
        <ele>158.39999389648</ele>
        <time>2019-09-22T14:23:06.000Z</time>
      </trkpt>
      <trkpt lat="45.39067" lon="4.78197">
        <ele>157.80000305176</ele>
        <time>2019-09-22T14:23:16.000Z</time>
      </trkpt>
      <trkpt lat="45.39042" lon="4.78219">
        <ele>158.80000305176</ele>
        <time>2019-09-22T14:23:17.000Z</time>
      </trkpt>
      <trkpt lat="45.39038" lon="4.78222">
        <ele>159</ele>
        <time>2019-09-22T14:23:22.000Z</time>
      </trkpt>
      <trkpt lat="45.3902" lon="4.78227">
        <ele>159.19999694824</ele>
        <time>2019-09-22T14:23:28.000Z</time>
      </trkpt>
      <trkpt lat="45.38999" lon="4.7823">
        <ele>158.80000305176</ele>
        <time>2019-09-22T14:23:34.000Z</time>
      </trkpt>
      <trkpt lat="45.38978" lon="4.78232">
        <ele>157.39999389648</ele>
        <time>2019-09-22T14:23:40.000Z</time>
      </trkpt>
      <trkpt lat="45.38959" lon="4.78232">
        <ele>156</ele>
        <time>2019-09-22T14:23:45.000Z</time>
      </trkpt>
      <trkpt lat="45.3895" lon="4.78233">
        <ele>155.80000305176</ele>
        <time>2019-09-22T14:23:50.000Z</time>
      </trkpt>
      <trkpt lat="45.38932" lon="4.78238">
        <ele>156</ele>
        <time>2019-09-22T14:23:55.000Z</time>
      </trkpt>
      <trkpt lat="45.38911" lon="4.78247">
        <ele>155.80000305176</ele>
        <time>2019-09-22T14:24:00.000Z</time>
      </trkpt>
      <trkpt lat="45.38894" lon="4.78255">
        <ele>155</ele>
        <time>2019-09-22T14:24:05.000Z</time>
      </trkpt>
      <trkpt lat="45.38877" lon="4.78264">
        <ele>154.39999389648</ele>
        <time>2019-09-22T14:24:10.000Z</time>
      </trkpt>
      <trkpt lat="45.38857" lon="4.78273">
        <ele>154.19999694824</ele>
        <time>2019-09-22T14:24:15.000Z</time>
      </trkpt>
      <trkpt lat="45.38838" lon="4.78282">
        <ele>153.80000305176</ele>
        <time>2019-09-22T14:24:20.000Z</time>
      </trkpt>
      <trkpt lat="45.3882" lon="4.78291">
        <ele>153.60000610352</ele>
        <time>2019-09-22T14:24:25.000Z</time>
      </trkpt>
      <trkpt lat="45.38803" lon="4.78303">
        <ele>153.39999389648</ele>
        <time>2019-09-22T14:24:30.000Z</time>
      </trkpt>
      <trkpt lat="45.38786" lon="4.78316">
        <ele>153.60000610352</ele>
        <time>2019-09-22T14:24:35.000Z</time>
      </trkpt>
      <trkpt lat="45.38769" lon="4.78329">
        <ele>153.60000610352</ele>
        <time>2019-09-22T14:24:40.000Z</time>
      </trkpt>
      <trkpt lat="45.38752" lon="4.78342">
        <ele>154.19999694824</ele>
        <time>2019-09-22T14:24:45.000Z</time>
      </trkpt>
      <trkpt lat="45.38733" lon="4.78358">
        <ele>155.19999694824</ele>
        <time>2019-09-22T14:24:50.000Z</time>
      </trkpt>
      <trkpt lat="45.38717" lon="4.78373">
        <ele>156</ele>
        <time>2019-09-22T14:24:56.000Z</time>
      </trkpt>
      <trkpt lat="45.387" lon="4.78388">
        <ele>156.19999694824</ele>
        <time>2019-09-22T14:25:01.000Z</time>
      </trkpt>
      <trkpt lat="45.38684" lon="4.78403">
        <ele>156.39999389648</ele>
        <time>2019-09-22T14:25:05.000Z</time>
      </trkpt>
      <trkpt lat="45.38668" lon="4.78418">
        <ele>156.39999389648</ele>
        <time>2019-09-22T14:25:09.000Z</time>
      </trkpt>
      <trkpt lat="45.38651" lon="4.78433">
        <ele>156.19999694824</ele>
        <time>2019-09-22T14:25:13.000Z</time>
      </trkpt>
      <trkpt lat="45.38634" lon="4.78446">
        <ele>155.80000305176</ele>
        <time>2019-09-22T14:25:17.000Z</time>
      </trkpt>
      <trkpt lat="45.38619" lon="4.78461">
        <ele>156</ele>
        <time>2019-09-22T14:25:21.000Z</time>
      </trkpt>
      <trkpt lat="45.38603" lon="4.78476">
        <ele>156.39999389648</ele>
        <time>2019-09-22T14:25:25.000Z</time>
      </trkpt>
      <trkpt lat="45.38587" lon="4.78492">
        <ele>156.80000305176</ele>
        <time>2019-09-22T14:25:26.000Z</time>
      </trkpt>
      <trkpt lat="45.38571" lon="4.78507">
        <ele>156.80000305176</ele>
        <time>2019-09-22T14:25:31.000Z</time>
      </trkpt>
      <trkpt lat="45.38554" lon="4.78523">
        <ele>156.80000305176</ele>
        <time>2019-09-22T14:25:34.000Z</time>
      </trkpt>
      <trkpt lat="45.38545" lon="4.78532">
        <ele>156.80000305176</ele>
        <time>2019-09-22T14:25:39.000Z</time>
      </trkpt>
      <trkpt lat="45.3854" lon="4.78551">
        <ele>157.39999389648</ele>
        <time>2019-09-22T14:25:44.000Z</time>
      </trkpt>
      <trkpt lat="45.38564" lon="4.78581">
        <ele>159.19999694824</ele>
        <time>2019-09-22T14:25:49.000Z</time>
      </trkpt>
      <trkpt lat="45.38566" lon="4.78584">
        <ele>159.39999389648</ele>
        <time>2019-09-22T14:25:54.000Z</time>
      </trkpt>
      <trkpt lat="45.38578" lon="4.786">
        <ele>160.39999389648</ele>
        <time>2019-09-22T14:25:59.000Z</time>
      </trkpt>
      <trkpt lat="45.38592" lon="4.78617">
        <ele>161.39999389648</ele>
        <time>2019-09-22T14:26:04.000Z</time>
      </trkpt>
      <trkpt lat="45.38604" lon="4.78637">
        <ele>164</ele>
        <time>2019-09-22T14:26:09.000Z</time>
      </trkpt>
      <trkpt lat="45.38595" lon="4.78659">
        <ele>167.39999389648</ele>
        <time>2019-09-22T14:26:14.000Z</time>
      </trkpt>
      <trkpt lat="45.38581" lon="4.78674">
        <ele>167.80000305176</ele>
        <time>2019-09-22T14:26:19.000Z</time>
      </trkpt>
      <trkpt lat="45.38564" lon="4.78689">
        <ele>167.39999389648</ele>
        <time>2019-09-22T14:26:21.000Z</time>
      </trkpt>
      <trkpt lat="45.38547" lon="4.78705">
        <ele>167</ele>
        <time>2019-09-22T14:26:24.000Z</time>
      </trkpt>
      <trkpt lat="45.38529" lon="4.78723">
        <ele>167.19999694824</ele>
        <time>2019-09-22T14:26:30.000Z</time>
      </trkpt>
      <trkpt lat="45.38512" lon="4.78741">
        <ele>167.39999389648</ele>
        <time>2019-09-22T14:26:33.000Z</time>
      </trkpt>
      <trkpt lat="45.38494" lon="4.78759">
        <ele>165.60000610352</ele>
        <time>2019-09-22T14:26:37.000Z</time>
      </trkpt>
      <trkpt lat="45.38476" lon="4.78776">
        <ele>162.60000610352</ele>
        <time>2019-09-22T14:26:43.000Z</time>
      </trkpt>
      <trkpt lat="45.38458" lon="4.78794">
        <ele>161.60000610352</ele>
        <time>2019-09-22T14:26:53.000Z</time>
      </trkpt>
      <trkpt lat="45.38441" lon="4.78812">
        <ele>163.19999694824</ele>
        <time>2019-09-22T14:26:58.000Z</time>
      </trkpt>
      <trkpt lat="45.38424" lon="4.78829">
        <ele>164.80000305176</ele>
        <time>2019-09-22T14:27:32.000Z</time>
      </trkpt>
      <trkpt lat="45.38406" lon="4.78847">
        <ele>164.19999694824</ele>
        <time>2019-09-22T14:27:41.000Z</time>
      </trkpt>
      <trkpt lat="45.3839" lon="4.78867">
        <ele>163.80000305176</ele>
        <time>2019-09-22T14:27:43.000Z</time>
      </trkpt>
      <trkpt lat="45.38377" lon="4.78889">
        <ele>164.39999389648</ele>
        <time>2019-09-22T14:27:51.000Z</time>
      </trkpt>
      <trkpt lat="45.38364" lon="4.78912">
        <ele>165.39999389648</ele>
      </trkpt>
      <trkpt lat="45.38348" lon="4.78939">
        <ele>166.19999694824</ele>
      </trkpt>
      <trkpt lat="45.38333" lon="4.78959">
        <ele>166.19999694824</ele>
      </trkpt>
      <trkpt lat="45.38319" lon="4.78973">
        <ele>166.60000610352</ele>
      </trkpt>
      <trkpt lat="45.38303" lon="4.78982">
        <ele>166.39999389648</ele>
      </trkpt>
      <trkpt lat="45.38286" lon="4.78986">
        <ele>166</ele>
      </trkpt>
      <trkpt lat="45.38267" lon="4.78987">
        <ele>165.60000610352</ele>
      </trkpt>
      <trkpt lat="45.38248" lon="4.7899">
        <ele>165</ele>
      </trkpt>
      <trkpt lat="45.38231" lon="4.79002">
        <ele>164.19999694824</ele>
      </trkpt>
      <trkpt lat="45.38228" lon="4.79006">
        <ele>164.19999694824</ele>
      </trkpt>
      <trkpt lat="45.3821" lon="4.79025">
        <ele>164</ele>
      </trkpt>
      <trkpt lat="45.382" lon="4.79036">
        <ele>164.19999694824</ele>
      </trkpt>
      <trkpt lat="45.38182" lon="4.79056">
        <ele>164.19999694824</ele>
      </trkpt>
      <trkpt lat="45.38165" lon="4.79074">
        <ele>164.39999389648</ele>
      </trkpt>
      <trkpt lat="45.38148" lon="4.79094">
        <ele>164</ele>
      </trkpt>
      <trkpt lat="45.38131" lon="4.79113">
        <ele>163.60000610352</ele>
      </trkpt>
      <trkpt lat="45.38115" lon="4.79131">
        <ele>164.39999389648</ele>
      </trkpt>
      <trkpt lat="45.38098" lon="4.7915">
        <ele>165.80000305176</ele>
      </trkpt>
      <trkpt lat="45.38082" lon="4.79169">
        <ele>166.60000610352</ele>
      </trkpt>
      <trkpt lat="45.38066" lon="4.79188">
        <ele>166.60000610352</ele>
      </trkpt>
      <trkpt lat="45.38051" lon="4.79208">
        <ele>166.60000610352</ele>
      </trkpt>
      <trkpt lat="45.38045" lon="4.79215">
        <ele>166.39999389648</ele>
      </trkpt>
      <trkpt lat="45.38035" lon="4.79219">
        <ele>166</ele>
      </trkpt>
      <trkpt lat="45.38032" lon="4.79246">
        <ele>167.19999694824</ele>
      </trkpt>
      <trkpt lat="45.38036" lon="4.7926">
        <ele>168</ele>
      </trkpt>
      <trkpt lat="45.38039" lon="4.79266">
        <ele>168.9</ele>
      </trkpt>
      <trkpt lat="45.38007" lon="4.79289">
        <ele>169</ele>
      </trkpt>
      <trkpt lat="45.37978" lon="4.79305">
        <ele>166.6</ele>
      </trkpt>
      <trkpt lat="45.37929" lon="4.79371">
        <ele>169</ele>
      </trkpt>
      <trkpt lat="45.37886" lon="4.79447">
        <ele>168</ele>
      </trkpt>
      <trkpt lat="45.37824" lon="4.79491">
        <ele>165.2</ele>
      </trkpt>
      <trkpt lat="45.37739" lon="4.79505">
        <ele>162.3</ele>
      </trkpt>
      <trkpt lat="45.37744" lon="4.79632">
        <ele>166.4</ele>
      </trkpt>
      <trkpt lat="45.37793" lon="4.79594">
        <ele>169.6</ele>
      </trkpt>
      <trkpt lat="45.37811" lon="4.79605">
        <ele>170.1</ele>
      </trkpt>
    </trkseg>
  </trk>
</gpx>